<?xml version="1.0" encoding="UTF-8" standalone="no" ?>
<gpx xmlns="http://www.topografix.com/GPX/1/1" xmlns:xsi="http://www.w3.org/2001/XMLSchema-instance" xsi:schemaLocation="http://www.topografix.com/GPX/1/1 http://www.topografix.com/GPX/1/1/gpx.xsd" version="1.1" creator="VisuGPX - https://www.visugpx.com">
  <metadata>
    <name>Arcalod</name>
    <desc><![CDATA[
]]></desc>
  </metadata>
  <trk>
    <name><![CDATA[Arcalod_1]]></name>
    <extensions>
      <line xmlns="http://www.topografix.com/GPX/gpx_style/0/2">
        <color>0000FF</color>
        <width>4</width>
      </line>
    </extensions>
    <trkseg>
      <trkpt lat="45.64531" lon="6.23772">
        <ele>990.55700683594</ele>
        <time>2017-11-01T07:27:11Z</time>
      </trkpt>
      <trkpt lat="45.64571" lon="6.23693">
        <ele>985.55700683594</ele>
        <time>2017-11-01T07:27:13Z</time>
      </trkpt>
      <trkpt lat="45.64567" lon="6.23698">
        <ele>988.55700683594</ele>
        <time>2017-11-01T07:27:35Z</time>
      </trkpt>
      <trkpt lat="45.64563" lon="6.23695">
        <ele>993.55700683594</ele>
        <time>2017-11-01T07:28:25Z</time>
      </trkpt>
      <trkpt lat="45.64567" lon="6.237">
        <ele>991.55700683594</ele>
        <time>2017-11-01T07:28:48Z</time>
      </trkpt>
      <trkpt lat="45.64571" lon="6.23705">
        <ele>989.55700683594</ele>
        <time>2017-11-01T07:28:52Z</time>
      </trkpt>
      <trkpt lat="45.64573" lon="6.23711">
        <ele>991.55700683594</ele>
        <time>2017-11-01T07:28:55Z</time>
      </trkpt>
      <trkpt lat="45.64578" lon="6.23716">
        <ele>989.55700683594</ele>
        <time>2017-11-01T07:28:59Z</time>
      </trkpt>
      <trkpt lat="45.64583" lon="6.23718">
        <ele>989.55700683594</ele>
        <time>2017-11-01T07:29:04Z</time>
      </trkpt>
      <trkpt lat="45.64587" lon="6.23721">
        <ele>987.55700683594</ele>
        <time>2017-11-01T07:29:10Z</time>
      </trkpt>
      <trkpt lat="45.64592" lon="6.23725">
        <ele>989.55700683594</ele>
        <time>2017-11-01T07:29:14Z</time>
      </trkpt>
      <trkpt lat="45.64596" lon="6.2373">
        <ele>992.55700683594</ele>
        <time>2017-11-01T07:29:18Z</time>
      </trkpt>
      <trkpt lat="45.646" lon="6.23735">
        <ele>995.55700683594</ele>
        <time>2017-11-01T07:29:22Z</time>
      </trkpt>
      <trkpt lat="45.64603" lon="6.23741">
        <ele>995.55700683594</ele>
        <time>2017-11-01T07:29:25Z</time>
      </trkpt>
      <trkpt lat="45.64606" lon="6.23749">
        <ele>996.55700683594</ele>
        <time>2017-11-01T07:29:29Z</time>
      </trkpt>
      <trkpt lat="45.64608" lon="6.23756">
        <ele>997.55700683594</ele>
        <time>2017-11-01T07:29:32Z</time>
      </trkpt>
      <trkpt lat="45.6461" lon="6.23764">
        <ele>997.55700683594</ele>
        <time>2017-11-01T07:29:36Z</time>
      </trkpt>
      <trkpt lat="45.64613" lon="6.2377">
        <ele>996.55700683594</ele>
        <time>2017-11-01T07:29:39Z</time>
      </trkpt>
      <trkpt lat="45.64615" lon="6.23777">
        <ele>996.55700683594</ele>
        <time>2017-11-01T07:29:42Z</time>
      </trkpt>
      <trkpt lat="45.64619" lon="6.2378">
        <ele>997.55700683594</ele>
        <time>2017-11-01T07:29:46Z</time>
      </trkpt>
      <trkpt lat="45.64622" lon="6.23785">
        <ele>999.55700683594</ele>
        <time>2017-11-01T07:29:50Z</time>
      </trkpt>
      <trkpt lat="45.64627" lon="6.2379">
        <ele>1000.5570068359</ele>
        <time>2017-11-01T07:29:54Z</time>
      </trkpt>
      <trkpt lat="45.64632" lon="6.23792">
        <ele>998.55700683594</ele>
        <time>2017-11-01T07:29:58Z</time>
      </trkpt>
      <trkpt lat="45.64636" lon="6.23795">
        <ele>998.55700683594</ele>
        <time>2017-11-01T07:30:02Z</time>
      </trkpt>
      <trkpt lat="45.64639" lon="6.23799">
        <ele>1000.5570068359</ele>
        <time>2017-11-01T07:30:05Z</time>
      </trkpt>
      <trkpt lat="45.64645" lon="6.23802">
        <ele>1001.5570068359</ele>
        <time>2017-11-01T07:30:10Z</time>
      </trkpt>
      <trkpt lat="45.6465" lon="6.23805">
        <ele>1002.5570068359</ele>
        <time>2017-11-01T07:30:15Z</time>
      </trkpt>
      <trkpt lat="45.64653" lon="6.23811">
        <ele>1002.5570068359</ele>
        <time>2017-11-01T07:30:18Z</time>
      </trkpt>
      <trkpt lat="45.64658" lon="6.23811">
        <ele>1003.5570068359</ele>
        <time>2017-11-01T07:30:23Z</time>
      </trkpt>
      <trkpt lat="45.64662" lon="6.23816">
        <ele>1005.5570068359</ele>
        <time>2017-11-01T07:30:27Z</time>
      </trkpt>
      <trkpt lat="45.64666" lon="6.2382">
        <ele>1007.5570068359</ele>
        <time>2017-11-01T07:30:31Z</time>
      </trkpt>
      <trkpt lat="45.64671" lon="6.23822">
        <ele>1008.5570068359</ele>
        <time>2017-11-01T07:30:34Z</time>
      </trkpt>
      <trkpt lat="45.64675" lon="6.23825">
        <ele>1009.5570068359</ele>
        <time>2017-11-01T07:30:37Z</time>
      </trkpt>
      <trkpt lat="45.6468" lon="6.23827">
        <ele>1009.5570068359</ele>
        <time>2017-11-01T07:30:40Z</time>
      </trkpt>
      <trkpt lat="45.64685" lon="6.23827">
        <ele>1008.5570068359</ele>
        <time>2017-11-01T07:30:43Z</time>
      </trkpt>
      <trkpt lat="45.64689" lon="6.23832">
        <ele>1009.5570068359</ele>
        <time>2017-11-01T07:30:46Z</time>
      </trkpt>
      <trkpt lat="45.64693" lon="6.23837">
        <ele>1011.5570068359</ele>
        <time>2017-11-01T07:30:50Z</time>
      </trkpt>
      <trkpt lat="45.64697" lon="6.23842">
        <ele>1014.5570068359</ele>
        <time>2017-11-01T07:30:54Z</time>
      </trkpt>
      <trkpt lat="45.64698" lon="6.2385">
        <ele>1015.5570068359</ele>
        <time>2017-11-01T07:30:57Z</time>
      </trkpt>
      <trkpt lat="45.64702" lon="6.23856">
        <ele>1015.5570068359</ele>
        <time>2017-11-01T07:31:01Z</time>
      </trkpt>
      <trkpt lat="45.64705" lon="6.23862">
        <ele>1015.5570068359</ele>
        <time>2017-11-01T07:31:05Z</time>
      </trkpt>
      <trkpt lat="45.64709" lon="6.23868">
        <ele>1014.5570068359</ele>
        <time>2017-11-01T07:31:09Z</time>
      </trkpt>
      <trkpt lat="45.6471" lon="6.23875">
        <ele>1016.5579833984</ele>
        <time>2017-11-01T07:31:13Z</time>
      </trkpt>
      <trkpt lat="45.64714" lon="6.23881">
        <ele>1014.5579833984</ele>
        <time>2017-11-01T07:31:17Z</time>
      </trkpt>
      <trkpt lat="45.64716" lon="6.23888">
        <ele>1014.5579833984</ele>
        <time>2017-11-01T07:31:20Z</time>
      </trkpt>
      <trkpt lat="45.64719" lon="6.23893">
        <ele>1014.5579833984</ele>
        <time>2017-11-01T07:31:24Z</time>
      </trkpt>
      <trkpt lat="45.64722" lon="6.23898">
        <ele>1014.5579833984</ele>
        <time>2017-11-01T07:31:27Z</time>
      </trkpt>
      <trkpt lat="45.64726" lon="6.23904">
        <ele>1016.5579833984</ele>
        <time>2017-11-01T07:31:30Z</time>
      </trkpt>
      <trkpt lat="45.64729" lon="6.23909">
        <ele>1017.5579833984</ele>
        <time>2017-11-01T07:31:33Z</time>
      </trkpt>
      <trkpt lat="45.64736" lon="6.23909">
        <ele>1018.5579833984</ele>
        <time>2017-11-01T07:31:36Z</time>
      </trkpt>
      <trkpt lat="45.64739" lon="6.23913">
        <ele>1019.5579833984</ele>
        <time>2017-11-01T07:31:39Z</time>
      </trkpt>
      <trkpt lat="45.64744" lon="6.23919">
        <ele>1021.5579833984</ele>
        <time>2017-11-01T07:31:43Z</time>
      </trkpt>
      <trkpt lat="45.64746" lon="6.23927">
        <ele>1022.5579833984</ele>
        <time>2017-11-01T07:31:46Z</time>
      </trkpt>
      <trkpt lat="45.6475" lon="6.23932">
        <ele>1022.5579833984</ele>
        <time>2017-11-01T07:31:50Z</time>
      </trkpt>
      <trkpt lat="45.64754" lon="6.23937">
        <ele>1023.5579833984</ele>
        <time>2017-11-01T07:31:53Z</time>
      </trkpt>
      <trkpt lat="45.64757" lon="6.23943">
        <ele>1023.5579833984</ele>
        <time>2017-11-01T07:31:56Z</time>
      </trkpt>
      <trkpt lat="45.64759" lon="6.2395">
        <ele>1022.5579833984</ele>
        <time>2017-11-01T07:32:01Z</time>
      </trkpt>
      <trkpt lat="45.6476" lon="6.23958">
        <ele>1020.5579833984</ele>
        <time>2017-11-01T07:32:06Z</time>
      </trkpt>
      <trkpt lat="45.64762" lon="6.23964">
        <ele>1018.5579833984</ele>
        <time>2017-11-01T07:32:10Z</time>
      </trkpt>
      <trkpt lat="45.64764" lon="6.23972">
        <ele>1020.5579833984</ele>
        <time>2017-11-01T07:32:13Z</time>
      </trkpt>
      <trkpt lat="45.64763" lon="6.23979">
        <ele>1021.5579833984</ele>
        <time>2017-11-01T07:32:15Z</time>
      </trkpt>
      <trkpt lat="45.64766" lon="6.23983">
        <ele>1023.5579833984</ele>
        <time>2017-11-01T07:32:22Z</time>
      </trkpt>
      <trkpt lat="45.64772" lon="6.23985">
        <ele>1022.5579833984</ele>
        <time>2017-11-01T07:32:32Z</time>
      </trkpt>
      <trkpt lat="45.64776" lon="6.23987">
        <ele>1028.5579833984</ele>
        <time>2017-11-01T07:32:36Z</time>
      </trkpt>
      <trkpt lat="45.64781" lon="6.23989">
        <ele>1031.5579833984</ele>
        <time>2017-11-01T07:32:45Z</time>
      </trkpt>
      <trkpt lat="45.64785" lon="6.23992">
        <ele>1030.5579833984</ele>
        <time>2017-11-01T07:32:49Z</time>
      </trkpt>
      <trkpt lat="45.6479" lon="6.23996">
        <ele>1032.5579833984</ele>
        <time>2017-11-01T07:32:53Z</time>
      </trkpt>
      <trkpt lat="45.64793" lon="6.24">
        <ele>1034.5579833984</ele>
        <time>2017-11-01T07:32:59Z</time>
      </trkpt>
      <trkpt lat="45.64798" lon="6.24003">
        <ele>1037.5579833984</ele>
        <time>2017-11-01T07:33:05Z</time>
      </trkpt>
      <trkpt lat="45.64803" lon="6.24005">
        <ele>1039.5579833984</ele>
        <time>2017-11-01T07:33:09Z</time>
      </trkpt>
      <trkpt lat="45.64807" lon="6.24007">
        <ele>1041.5579833984</ele>
        <time>2017-11-01T07:33:17Z</time>
      </trkpt>
      <trkpt lat="45.64812" lon="6.2401">
        <ele>1041.5579833984</ele>
        <time>2017-11-01T07:33:26Z</time>
      </trkpt>
      <trkpt lat="45.64816" lon="6.24013">
        <ele>1040.5579833984</ele>
        <time>2017-11-01T07:33:41Z</time>
      </trkpt>
      <trkpt lat="45.64821" lon="6.24018">
        <ele>1037.5579833984</ele>
        <time>2017-11-01T07:33:45Z</time>
      </trkpt>
      <trkpt lat="45.64825" lon="6.2402">
        <ele>1037.5579833984</ele>
        <time>2017-11-01T07:33:49Z</time>
      </trkpt>
      <trkpt lat="45.6483" lon="6.24018">
        <ele>1039.5579833984</ele>
        <time>2017-11-01T07:33:54Z</time>
      </trkpt>
      <trkpt lat="45.64834" lon="6.24019">
        <ele>1041.5579833984</ele>
        <time>2017-11-01T07:33:58Z</time>
      </trkpt>
      <trkpt lat="45.64839" lon="6.24021">
        <ele>1041.5579833984</ele>
        <time>2017-11-01T07:34:03Z</time>
      </trkpt>
      <trkpt lat="45.64842" lon="6.24025">
        <ele>1040.5579833984</ele>
        <time>2017-11-01T07:34:07Z</time>
      </trkpt>
      <trkpt lat="45.64846" lon="6.24029">
        <ele>1045.5579833984</ele>
        <time>2017-11-01T07:34:16Z</time>
      </trkpt>
      <trkpt lat="45.64851" lon="6.24031">
        <ele>1047.5579833984</ele>
        <time>2017-11-01T07:34:25Z</time>
      </trkpt>
      <trkpt lat="45.64856" lon="6.2403">
        <ele>1046.5579833984</ele>
        <time>2017-11-01T07:34:32Z</time>
      </trkpt>
      <trkpt lat="45.6486" lon="6.24037">
        <ele>1046.5579833984</ele>
        <time>2017-11-01T07:34:38Z</time>
      </trkpt>
      <trkpt lat="45.64866" lon="6.24037">
        <ele>1050.5579833984</ele>
        <time>2017-11-01T07:34:52Z</time>
      </trkpt>
      <trkpt lat="45.64871" lon="6.24035">
        <ele>1052.5579833984</ele>
        <time>2017-11-01T07:34:55Z</time>
      </trkpt>
      <trkpt lat="45.64876" lon="6.2404">
        <ele>1051.5579833984</ele>
        <time>2017-11-01T07:34:58Z</time>
      </trkpt>
      <trkpt lat="45.64881" lon="6.24043">
        <ele>1055.5579833984</ele>
        <time>2017-11-01T07:35:03Z</time>
      </trkpt>
      <trkpt lat="45.64886" lon="6.24046">
        <ele>1055.5579833984</ele>
        <time>2017-11-01T07:35:06Z</time>
      </trkpt>
      <trkpt lat="45.6489" lon="6.24043">
        <ele>1056.5579833984</ele>
        <time>2017-11-01T07:35:08Z</time>
      </trkpt>
      <trkpt lat="45.64895" lon="6.24047">
        <ele>1062.5579833984</ele>
        <time>2017-11-01T07:35:14Z</time>
      </trkpt>
      <trkpt lat="45.64897" lon="6.24053">
        <ele>1061.5579833984</ele>
        <time>2017-11-01T07:35:17Z</time>
      </trkpt>
      <trkpt lat="45.64902" lon="6.24056">
        <ele>1063.5579833984</ele>
        <time>2017-11-01T07:35:23Z</time>
      </trkpt>
      <trkpt lat="45.64906" lon="6.24059">
        <ele>1065.5579833984</ele>
        <time>2017-11-01T07:35:28Z</time>
      </trkpt>
      <trkpt lat="45.64911" lon="6.24063">
        <ele>1067.5579833984</ele>
        <time>2017-11-01T07:35:32Z</time>
      </trkpt>
      <trkpt lat="45.64916" lon="6.24064">
        <ele>1069.5579833984</ele>
        <time>2017-11-01T07:35:38Z</time>
      </trkpt>
      <trkpt lat="45.64922" lon="6.24065">
        <ele>1069.5579833984</ele>
        <time>2017-11-01T07:35:43Z</time>
      </trkpt>
      <trkpt lat="45.64926" lon="6.24069">
        <ele>1071.5579833984</ele>
        <time>2017-11-01T07:35:48Z</time>
      </trkpt>
      <trkpt lat="45.6493" lon="6.24074">
        <ele>1072.5579833984</ele>
        <time>2017-11-01T07:35:56Z</time>
      </trkpt>
      <trkpt lat="45.64935" lon="6.24073">
        <ele>1073.5579833984</ele>
        <time>2017-11-01T07:36:02Z</time>
      </trkpt>
      <trkpt lat="45.6494" lon="6.24074">
        <ele>1075.5579833984</ele>
        <time>2017-11-01T07:36:09Z</time>
      </trkpt>
      <trkpt lat="45.64944" lon="6.24079">
        <ele>1077.5579833984</ele>
        <time>2017-11-01T07:36:14Z</time>
      </trkpt>
      <trkpt lat="45.64948" lon="6.24083">
        <ele>1078.5579833984</ele>
        <time>2017-11-01T07:36:19Z</time>
      </trkpt>
      <trkpt lat="45.64953" lon="6.24081">
        <ele>1078.5579833984</ele>
        <time>2017-11-01T07:36:23Z</time>
      </trkpt>
      <trkpt lat="45.64956" lon="6.24088">
        <ele>1078.5579833984</ele>
        <time>2017-11-01T07:36:27Z</time>
      </trkpt>
      <trkpt lat="45.64958" lon="6.24095">
        <ele>1080.5579833984</ele>
        <time>2017-11-01T07:36:33Z</time>
      </trkpt>
      <trkpt lat="45.64962" lon="6.241">
        <ele>1079.5579833984</ele>
        <time>2017-11-01T07:36:38Z</time>
      </trkpt>
      <trkpt lat="45.64966" lon="6.24104">
        <ele>1079.5579833984</ele>
        <time>2017-11-01T07:36:41Z</time>
      </trkpt>
      <trkpt lat="45.64971" lon="6.24103">
        <ele>1079.5579833984</ele>
        <time>2017-11-01T07:36:44Z</time>
      </trkpt>
      <trkpt lat="45.64976" lon="6.24108">
        <ele>1082.5579833984</ele>
        <time>2017-11-01T07:36:49Z</time>
      </trkpt>
      <trkpt lat="45.64981" lon="6.24106">
        <ele>1082.5579833984</ele>
        <time>2017-11-01T07:36:52Z</time>
      </trkpt>
      <trkpt lat="45.64986" lon="6.24101">
        <ele>1084.5579833984</ele>
        <time>2017-11-01T07:36:57Z</time>
      </trkpt>
      <trkpt lat="45.6499" lon="6.24099">
        <ele>1084.5579833984</ele>
        <time>2017-11-01T07:37:00Z</time>
      </trkpt>
      <trkpt lat="45.64996" lon="6.24099">
        <ele>1084.5579833984</ele>
        <time>2017-11-01T07:37:03Z</time>
      </trkpt>
      <trkpt lat="45.65" lon="6.24098">
        <ele>1086.5579833984</ele>
        <time>2017-11-01T07:37:05Z</time>
      </trkpt>
      <trkpt lat="45.65006" lon="6.241">
        <ele>1085.5579833984</ele>
        <time>2017-11-01T07:37:11Z</time>
      </trkpt>
      <trkpt lat="45.6501" lon="6.24097">
        <ele>1086.5579833984</ele>
        <time>2017-11-01T07:37:17Z</time>
      </trkpt>
      <trkpt lat="45.65016" lon="6.24096">
        <ele>1085.5579833984</ele>
        <time>2017-11-01T07:37:23Z</time>
      </trkpt>
      <trkpt lat="45.65018" lon="6.24089">
        <ele>1086.5579833984</ele>
        <time>2017-11-01T07:37:27Z</time>
      </trkpt>
      <trkpt lat="45.65023" lon="6.24082">
        <ele>1086.5579833984</ele>
        <time>2017-11-01T07:37:32Z</time>
      </trkpt>
      <trkpt lat="45.65027" lon="6.2408">
        <ele>1088.5579833984</ele>
        <time>2017-11-01T07:37:33Z</time>
      </trkpt>
      <trkpt lat="45.65032" lon="6.24077">
        <ele>1091.5579833984</ele>
        <time>2017-11-01T07:37:36Z</time>
      </trkpt>
      <trkpt lat="45.65036" lon="6.24076">
        <ele>1090.5579833984</ele>
        <time>2017-11-01T07:37:40Z</time>
      </trkpt>
      <trkpt lat="45.65042" lon="6.24075">
        <ele>1097.5579833984</ele>
        <time>2017-11-01T07:37:43Z</time>
      </trkpt>
      <trkpt lat="45.65048" lon="6.24079">
        <ele>1096.5579833984</ele>
        <time>2017-11-01T07:37:50Z</time>
      </trkpt>
      <trkpt lat="45.6505" lon="6.24085">
        <ele>1096.5579833984</ele>
        <time>2017-11-01T07:37:53Z</time>
      </trkpt>
      <trkpt lat="45.65056" lon="6.24089">
        <ele>1097.5579833984</ele>
        <time>2017-11-01T07:37:58Z</time>
      </trkpt>
      <trkpt lat="45.65061" lon="6.24091">
        <ele>1095.5579833984</ele>
        <time>2017-11-01T07:38:02Z</time>
      </trkpt>
      <trkpt lat="45.65065" lon="6.24095">
        <ele>1096.5579833984</ele>
        <time>2017-11-01T07:38:05Z</time>
      </trkpt>
      <trkpt lat="45.6507" lon="6.24095">
        <ele>1094.5579833984</ele>
        <time>2017-11-01T07:38:11Z</time>
      </trkpt>
      <trkpt lat="45.65074" lon="6.24101">
        <ele>1094.5579833984</ele>
        <time>2017-11-01T07:38:15Z</time>
      </trkpt>
      <trkpt lat="45.65075" lon="6.24109">
        <ele>1095.5579833984</ele>
        <time>2017-11-01T07:38:19Z</time>
      </trkpt>
      <trkpt lat="45.65081" lon="6.2411">
        <ele>1096.5579833984</ele>
        <time>2017-11-01T07:38:23Z</time>
      </trkpt>
      <trkpt lat="45.65084" lon="6.24115">
        <ele>1095.5579833984</ele>
        <time>2017-11-01T07:38:26Z</time>
      </trkpt>
      <trkpt lat="45.65088" lon="6.24121">
        <ele>1097.5589599609</ele>
        <time>2017-11-01T07:38:30Z</time>
      </trkpt>
      <trkpt lat="45.65093" lon="6.24122">
        <ele>1099.5589599609</ele>
        <time>2017-11-01T07:38:33Z</time>
      </trkpt>
      <trkpt lat="45.65097" lon="6.24123">
        <ele>1100.5589599609</ele>
        <time>2017-11-01T07:38:37Z</time>
      </trkpt>
      <trkpt lat="45.65103" lon="6.24123">
        <ele>1101.5589599609</ele>
        <time>2017-11-01T07:38:42Z</time>
      </trkpt>
      <trkpt lat="45.65108" lon="6.24125">
        <ele>1101.5589599609</ele>
        <time>2017-11-01T07:38:47Z</time>
      </trkpt>
      <trkpt lat="45.65113" lon="6.24124">
        <ele>1100.5589599609</ele>
        <time>2017-11-01T07:38:50Z</time>
      </trkpt>
      <trkpt lat="45.65118" lon="6.24124">
        <ele>1100.5589599609</ele>
        <time>2017-11-01T07:38:53Z</time>
      </trkpt>
      <trkpt lat="45.65122" lon="6.2412">
        <ele>1100.5589599609</ele>
        <time>2017-11-01T07:38:57Z</time>
      </trkpt>
      <trkpt lat="45.65127" lon="6.24116">
        <ele>1104.5589599609</ele>
        <time>2017-11-01T07:39:00Z</time>
      </trkpt>
      <trkpt lat="45.65132" lon="6.24114">
        <ele>1108.5589599609</ele>
        <time>2017-11-01T07:39:04Z</time>
      </trkpt>
      <trkpt lat="45.65136" lon="6.24116">
        <ele>1109.5589599609</ele>
        <time>2017-11-01T07:39:15Z</time>
      </trkpt>
      <trkpt lat="45.65142" lon="6.24119">
        <ele>1107.5589599609</ele>
        <time>2017-11-01T07:39:18Z</time>
      </trkpt>
      <trkpt lat="45.65146" lon="6.24122">
        <ele>1107.5589599609</ele>
        <time>2017-11-01T07:39:22Z</time>
      </trkpt>
      <trkpt lat="45.6515" lon="6.24126">
        <ele>1105.5589599609</ele>
        <time>2017-11-01T07:39:25Z</time>
      </trkpt>
      <trkpt lat="45.65155" lon="6.24128">
        <ele>1106.5589599609</ele>
        <time>2017-11-01T07:39:29Z</time>
      </trkpt>
      <trkpt lat="45.6516" lon="6.2413">
        <ele>1107.5589599609</ele>
        <time>2017-11-01T07:39:33Z</time>
      </trkpt>
      <trkpt lat="45.65167" lon="6.24131">
        <ele>1110.5589599609</ele>
        <time>2017-11-01T07:39:37Z</time>
      </trkpt>
      <trkpt lat="45.65173" lon="6.24135">
        <ele>1108.5589599609</ele>
        <time>2017-11-01T07:39:40Z</time>
      </trkpt>
      <trkpt lat="45.65179" lon="6.24134">
        <ele>1108.5589599609</ele>
        <time>2017-11-01T07:39:44Z</time>
      </trkpt>
      <trkpt lat="45.65184" lon="6.24135">
        <ele>1106.5589599609</ele>
        <time>2017-11-01T07:39:47Z</time>
      </trkpt>
      <trkpt lat="45.65188" lon="6.24132">
        <ele>1105.5589599609</ele>
        <time>2017-11-01T07:39:51Z</time>
      </trkpt>
      <trkpt lat="45.65192" lon="6.24127">
        <ele>1102.5589599609</ele>
        <time>2017-11-01T07:39:55Z</time>
      </trkpt>
      <trkpt lat="45.65197" lon="6.24121">
        <ele>1106.5589599609</ele>
        <time>2017-11-01T07:40:01Z</time>
      </trkpt>
      <trkpt lat="45.65201" lon="6.24117">
        <ele>1106.5589599609</ele>
        <time>2017-11-01T07:40:06Z</time>
      </trkpt>
      <trkpt lat="45.65207" lon="6.24116">
        <ele>1111.5589599609</ele>
        <time>2017-11-01T07:40:11Z</time>
      </trkpt>
      <trkpt lat="45.65212" lon="6.24112">
        <ele>1110.5589599609</ele>
        <time>2017-11-01T07:40:18Z</time>
      </trkpt>
      <trkpt lat="45.65217" lon="6.24111">
        <ele>1108.5589599609</ele>
        <time>2017-11-01T07:40:23Z</time>
      </trkpt>
      <trkpt lat="45.65221" lon="6.24105">
        <ele>1110.5589599609</ele>
        <time>2017-11-01T07:40:28Z</time>
      </trkpt>
      <trkpt lat="45.65226" lon="6.24104">
        <ele>1111.5589599609</ele>
        <time>2017-11-01T07:40:31Z</time>
      </trkpt>
      <trkpt lat="45.6523" lon="6.24101">
        <ele>1114.5589599609</ele>
        <time>2017-11-01T07:40:35Z</time>
      </trkpt>
      <trkpt lat="45.65235" lon="6.24097">
        <ele>1118.5589599609</ele>
        <time>2017-11-01T07:40:39Z</time>
      </trkpt>
      <trkpt lat="45.65241" lon="6.24095">
        <ele>1122.5589599609</ele>
        <time>2017-11-01T07:40:44Z</time>
      </trkpt>
      <trkpt lat="45.65245" lon="6.2409">
        <ele>1121.5589599609</ele>
        <time>2017-11-01T07:40:50Z</time>
      </trkpt>
      <trkpt lat="45.6525" lon="6.24091">
        <ele>1121.5589599609</ele>
        <time>2017-11-01T07:40:54Z</time>
      </trkpt>
      <trkpt lat="45.65254" lon="6.24086">
        <ele>1121.5589599609</ele>
        <time>2017-11-01T07:40:59Z</time>
      </trkpt>
      <trkpt lat="45.65259" lon="6.24084">
        <ele>1119.5589599609</ele>
        <time>2017-11-01T07:41:03Z</time>
      </trkpt>
      <trkpt lat="45.65265" lon="6.24082">
        <ele>1123.5589599609</ele>
        <time>2017-11-01T07:41:07Z</time>
      </trkpt>
      <trkpt lat="45.6527" lon="6.24082">
        <ele>1121.5589599609</ele>
        <time>2017-11-01T07:41:12Z</time>
      </trkpt>
      <trkpt lat="45.65275" lon="6.24082">
        <ele>1126.5589599609</ele>
        <time>2017-11-01T07:41:17Z</time>
      </trkpt>
      <trkpt lat="45.6528" lon="6.2408">
        <ele>1128.5589599609</ele>
        <time>2017-11-01T07:41:22Z</time>
      </trkpt>
      <trkpt lat="45.65286" lon="6.24082">
        <ele>1130.5589599609</ele>
        <time>2017-11-01T07:41:28Z</time>
      </trkpt>
      <trkpt lat="45.65289" lon="6.24085">
        <ele>1134.5589599609</ele>
        <time>2017-11-01T07:41:34Z</time>
      </trkpt>
      <trkpt lat="45.65293" lon="6.24081">
        <ele>1133.5589599609</ele>
        <time>2017-11-01T07:44:10Z</time>
      </trkpt>
      <trkpt lat="45.65297" lon="6.24075">
        <ele>1134.5589599609</ele>
        <time>2017-11-01T07:44:18Z</time>
      </trkpt>
      <trkpt lat="45.65302" lon="6.24072">
        <ele>1137.5589599609</ele>
        <time>2017-11-01T07:44:22Z</time>
      </trkpt>
      <trkpt lat="45.65307" lon="6.24069">
        <ele>1138.5589599609</ele>
        <time>2017-11-01T07:44:26Z</time>
      </trkpt>
      <trkpt lat="45.65311" lon="6.2407">
        <ele>1142.5589599609</ele>
        <time>2017-11-01T07:44:30Z</time>
      </trkpt>
      <trkpt lat="45.65316" lon="6.24071">
        <ele>1146.5589599609</ele>
        <time>2017-11-01T07:44:33Z</time>
      </trkpt>
      <trkpt lat="45.6532" lon="6.24075">
        <ele>1145.5589599609</ele>
        <time>2017-11-01T07:44:37Z</time>
      </trkpt>
      <trkpt lat="45.65325" lon="6.24075">
        <ele>1145.5589599609</ele>
        <time>2017-11-01T07:44:44Z</time>
      </trkpt>
      <trkpt lat="45.6533" lon="6.24078">
        <ele>1149.5589599609</ele>
        <time>2017-11-01T07:44:53Z</time>
      </trkpt>
      <trkpt lat="45.65334" lon="6.24081">
        <ele>1149.5589599609</ele>
        <time>2017-11-01T07:45:00Z</time>
      </trkpt>
      <trkpt lat="45.65339" lon="6.24076">
        <ele>1151.5589599609</ele>
        <time>2017-11-01T07:45:16Z</time>
      </trkpt>
      <trkpt lat="45.65343" lon="6.24074">
        <ele>1150.5589599609</ele>
        <time>2017-11-01T07:45:19Z</time>
      </trkpt>
      <trkpt lat="45.65349" lon="6.24073">
        <ele>1153.5589599609</ele>
        <time>2017-11-01T07:45:24Z</time>
      </trkpt>
      <trkpt lat="45.65353" lon="6.24078">
        <ele>1156.5589599609</ele>
        <time>2017-11-01T07:45:34Z</time>
      </trkpt>
      <trkpt lat="45.65358" lon="6.24077">
        <ele>1156.5589599609</ele>
        <time>2017-11-01T07:45:37Z</time>
      </trkpt>
      <trkpt lat="45.65363" lon="6.24078">
        <ele>1157.5589599609</ele>
        <time>2017-11-01T07:45:41Z</time>
      </trkpt>
      <trkpt lat="45.65369" lon="6.2408">
        <ele>1160.5589599609</ele>
        <time>2017-11-01T07:45:44Z</time>
      </trkpt>
      <trkpt lat="45.65374" lon="6.24082">
        <ele>1164.5589599609</ele>
        <time>2017-11-01T07:45:47Z</time>
      </trkpt>
      <trkpt lat="45.65378" lon="6.24085">
        <ele>1167.5589599609</ele>
        <time>2017-11-01T07:45:49Z</time>
      </trkpt>
      <trkpt lat="45.65379" lon="6.24093">
        <ele>1167.5589599609</ele>
        <time>2017-11-01T07:45:53Z</time>
      </trkpt>
      <trkpt lat="45.65381" lon="6.24099">
        <ele>1171.5589599609</ele>
        <time>2017-11-01T07:46:00Z</time>
      </trkpt>
      <trkpt lat="45.65386" lon="6.24101">
        <ele>1169.5589599609</ele>
        <time>2017-11-01T07:46:07Z</time>
      </trkpt>
      <trkpt lat="45.65391" lon="6.24102">
        <ele>1168.5589599609</ele>
        <time>2017-11-01T07:46:23Z</time>
      </trkpt>
      <trkpt lat="45.65397" lon="6.24099">
        <ele>1170.5589599609</ele>
        <time>2017-11-01T07:46:28Z</time>
      </trkpt>
      <trkpt lat="45.65401" lon="6.24098">
        <ele>1169.5589599609</ele>
        <time>2017-11-01T07:46:32Z</time>
      </trkpt>
      <trkpt lat="45.65406" lon="6.24094">
        <ele>1167.5589599609</ele>
        <time>2017-11-01T07:46:37Z</time>
      </trkpt>
      <trkpt lat="45.65411" lon="6.24096">
        <ele>1166.5589599609</ele>
        <time>2017-11-01T07:46:42Z</time>
      </trkpt>
      <trkpt lat="45.65416" lon="6.24096">
        <ele>1171.5589599609</ele>
        <time>2017-11-01T07:46:48Z</time>
      </trkpt>
      <trkpt lat="45.6542" lon="6.241">
        <ele>1171.5589599609</ele>
        <time>2017-11-01T07:46:53Z</time>
      </trkpt>
      <trkpt lat="45.65425" lon="6.24101">
        <ele>1168.5589599609</ele>
        <time>2017-11-01T07:46:57Z</time>
      </trkpt>
      <trkpt lat="45.65431" lon="6.24101">
        <ele>1170.5589599609</ele>
        <time>2017-11-01T07:47:01Z</time>
      </trkpt>
      <trkpt lat="45.65436" lon="6.24102">
        <ele>1174.5589599609</ele>
        <time>2017-11-01T07:47:07Z</time>
      </trkpt>
      <trkpt lat="45.65442" lon="6.24104">
        <ele>1178.5589599609</ele>
        <time>2017-11-01T07:47:21Z</time>
      </trkpt>
      <trkpt lat="45.65448" lon="6.24104">
        <ele>1176.5589599609</ele>
        <time>2017-11-01T07:47:27Z</time>
      </trkpt>
      <trkpt lat="45.65454" lon="6.24103">
        <ele>1176.5589599609</ele>
        <time>2017-11-01T07:47:30Z</time>
      </trkpt>
      <trkpt lat="45.65459" lon="6.24101">
        <ele>1175.5589599609</ele>
        <time>2017-11-01T07:47:45Z</time>
      </trkpt>
      <trkpt lat="45.65463" lon="6.24099">
        <ele>1180.5589599609</ele>
        <time>2017-11-01T07:47:54Z</time>
      </trkpt>
      <trkpt lat="45.65468" lon="6.24099">
        <ele>1182.5589599609</ele>
        <time>2017-11-01T07:47:59Z</time>
      </trkpt>
      <trkpt lat="45.65472" lon="6.24097">
        <ele>1184.5589599609</ele>
        <time>2017-11-01T07:48:06Z</time>
      </trkpt>
      <trkpt lat="45.65477" lon="6.24095">
        <ele>1186.5589599609</ele>
        <time>2017-11-01T07:48:17Z</time>
      </trkpt>
      <trkpt lat="45.65481" lon="6.24091">
        <ele>1189.5589599609</ele>
        <time>2017-11-01T07:48:22Z</time>
      </trkpt>
      <trkpt lat="45.65487" lon="6.24087">
        <ele>1193.5589599609</ele>
        <time>2017-11-01T07:48:25Z</time>
      </trkpt>
      <trkpt lat="45.6549" lon="6.2408">
        <ele>1195.5589599609</ele>
        <time>2017-11-01T07:48:34Z</time>
      </trkpt>
      <trkpt lat="45.65495" lon="6.2408">
        <ele>1195.5589599609</ele>
        <time>2017-11-01T07:48:40Z</time>
      </trkpt>
      <trkpt lat="45.655" lon="6.24076">
        <ele>1197.5589599609</ele>
        <time>2017-11-01T07:48:54Z</time>
      </trkpt>
      <trkpt lat="45.65505" lon="6.24075">
        <ele>1200.5589599609</ele>
        <time>2017-11-01T07:48:57Z</time>
      </trkpt>
      <trkpt lat="45.6551" lon="6.24073">
        <ele>1203.5589599609</ele>
        <time>2017-11-01T07:49:03Z</time>
      </trkpt>
      <trkpt lat="45.65515" lon="6.24072">
        <ele>1207.5589599609</ele>
        <time>2017-11-01T07:49:17Z</time>
      </trkpt>
      <trkpt lat="45.65519" lon="6.24069">
        <ele>1208.5589599609</ele>
        <time>2017-11-01T07:49:20Z</time>
      </trkpt>
      <trkpt lat="45.65524" lon="6.24065">
        <ele>1209.5589599609</ele>
        <time>2017-11-01T07:49:24Z</time>
      </trkpt>
      <trkpt lat="45.65528" lon="6.24059">
        <ele>1210.5589599609</ele>
        <time>2017-11-01T07:49:28Z</time>
      </trkpt>
      <trkpt lat="45.65533" lon="6.24057">
        <ele>1212.5589599609</ele>
        <time>2017-11-01T07:49:31Z</time>
      </trkpt>
      <trkpt lat="45.65538" lon="6.24053">
        <ele>1218.5589599609</ele>
        <time>2017-11-01T07:49:36Z</time>
      </trkpt>
      <trkpt lat="45.65542" lon="6.24052">
        <ele>1219.5589599609</ele>
        <time>2017-11-01T07:49:39Z</time>
      </trkpt>
      <trkpt lat="45.65547" lon="6.24051">
        <ele>1221.5589599609</ele>
        <time>2017-11-01T07:49:42Z</time>
      </trkpt>
      <trkpt lat="45.65552" lon="6.24047">
        <ele>1224.5589599609</ele>
        <time>2017-11-01T07:49:47Z</time>
      </trkpt>
      <trkpt lat="45.65557" lon="6.24047">
        <ele>1224.5589599609</ele>
        <time>2017-11-01T07:49:51Z</time>
      </trkpt>
      <trkpt lat="45.65563" lon="6.24047">
        <ele>1226.5589599609</ele>
        <time>2017-11-01T07:49:56Z</time>
      </trkpt>
      <trkpt lat="45.65568" lon="6.24045">
        <ele>1225.5589599609</ele>
        <time>2017-11-01T07:50:01Z</time>
      </trkpt>
      <trkpt lat="45.65574" lon="6.24043">
        <ele>1227.5589599609</ele>
        <time>2017-11-01T07:50:04Z</time>
      </trkpt>
      <trkpt lat="45.65578" lon="6.24041">
        <ele>1226.5589599609</ele>
        <time>2017-11-01T07:50:07Z</time>
      </trkpt>
      <trkpt lat="45.6558" lon="6.24035">
        <ele>1225.5589599609</ele>
        <time>2017-11-01T07:50:13Z</time>
      </trkpt>
      <trkpt lat="45.65584" lon="6.24031">
        <ele>1219.5589599609</ele>
        <time>2017-11-01T07:50:22Z</time>
      </trkpt>
      <trkpt lat="45.65588" lon="6.24033">
        <ele>1220.5589599609</ele>
        <time>2017-11-01T07:50:25Z</time>
      </trkpt>
      <trkpt lat="45.65593" lon="6.24033">
        <ele>1223.5589599609</ele>
        <time>2017-11-01T07:50:33Z</time>
      </trkpt>
      <trkpt lat="45.656" lon="6.24032">
        <ele>1224.5589599609</ele>
        <time>2017-11-01T07:50:38Z</time>
      </trkpt>
      <trkpt lat="45.65605" lon="6.24034">
        <ele>1225.5589599609</ele>
        <time>2017-11-01T07:50:41Z</time>
      </trkpt>
      <trkpt lat="45.65611" lon="6.24036">
        <ele>1225.5589599609</ele>
        <time>2017-11-01T07:50:46Z</time>
      </trkpt>
      <trkpt lat="45.65616" lon="6.24035">
        <ele>1225.5589599609</ele>
        <time>2017-11-01T07:50:50Z</time>
      </trkpt>
      <trkpt lat="45.65622" lon="6.24035">
        <ele>1223.5589599609</ele>
        <time>2017-11-01T07:50:54Z</time>
      </trkpt>
      <trkpt lat="45.65626" lon="6.24037">
        <ele>1223.5589599609</ele>
        <time>2017-11-01T07:51:00Z</time>
      </trkpt>
      <trkpt lat="45.65631" lon="6.24037">
        <ele>1225.5589599609</ele>
        <time>2017-11-01T07:51:04Z</time>
      </trkpt>
      <trkpt lat="45.65636" lon="6.24038">
        <ele>1226.5589599609</ele>
        <time>2017-11-01T07:51:08Z</time>
      </trkpt>
      <trkpt lat="45.65641" lon="6.24037">
        <ele>1224.5589599609</ele>
        <time>2017-11-01T07:51:14Z</time>
      </trkpt>
      <trkpt lat="45.65648" lon="6.24039">
        <ele>1226.5589599609</ele>
        <time>2017-11-01T07:51:30Z</time>
      </trkpt>
      <trkpt lat="45.65655" lon="6.24039">
        <ele>1226.5589599609</ele>
        <time>2017-11-01T07:51:33Z</time>
      </trkpt>
      <trkpt lat="45.6566" lon="6.24041">
        <ele>1228.5589599609</ele>
        <time>2017-11-01T07:51:38Z</time>
      </trkpt>
      <trkpt lat="45.65665" lon="6.24042">
        <ele>1227.5600585938</ele>
        <time>2017-11-01T07:51:42Z</time>
      </trkpt>
      <trkpt lat="45.6567" lon="6.24045">
        <ele>1229.5600585938</ele>
        <time>2017-11-01T07:51:44Z</time>
      </trkpt>
      <trkpt lat="45.65676" lon="6.24047">
        <ele>1227.5600585938</ele>
        <time>2017-11-01T07:51:47Z</time>
      </trkpt>
      <trkpt lat="45.65681" lon="6.2405">
        <ele>1233.5600585938</ele>
        <time>2017-11-01T07:51:51Z</time>
      </trkpt>
      <trkpt lat="45.65685" lon="6.24053">
        <ele>1238.5600585938</ele>
        <time>2017-11-01T07:51:57Z</time>
      </trkpt>
      <trkpt lat="45.65689" lon="6.24058">
        <ele>1241.5600585938</ele>
        <time>2017-11-01T07:52:02Z</time>
      </trkpt>
      <trkpt lat="45.65694" lon="6.24059">
        <ele>1243.5600585938</ele>
        <time>2017-11-01T07:52:05Z</time>
      </trkpt>
      <trkpt lat="45.657" lon="6.24061">
        <ele>1247.5600585938</ele>
        <time>2017-11-01T07:52:15Z</time>
      </trkpt>
      <trkpt lat="45.65706" lon="6.2406">
        <ele>1246.5600585938</ele>
        <time>2017-11-01T07:52:18Z</time>
      </trkpt>
      <trkpt lat="45.6571" lon="6.24063">
        <ele>1246.5600585938</ele>
        <time>2017-11-01T07:52:23Z</time>
      </trkpt>
      <trkpt lat="45.65716" lon="6.24065">
        <ele>1245.5600585938</ele>
        <time>2017-11-01T07:52:29Z</time>
      </trkpt>
      <trkpt lat="45.65721" lon="6.24066">
        <ele>1247.5600585938</ele>
        <time>2017-11-01T07:52:34Z</time>
      </trkpt>
      <trkpt lat="45.65727" lon="6.24066">
        <ele>1247.5600585938</ele>
        <time>2017-11-01T07:52:37Z</time>
      </trkpt>
      <trkpt lat="45.65731" lon="6.24065">
        <ele>1249.5600585938</ele>
        <time>2017-11-01T07:52:41Z</time>
      </trkpt>
      <trkpt lat="45.65738" lon="6.24063">
        <ele>1248.5600585938</ele>
        <time>2017-11-01T07:52:48Z</time>
      </trkpt>
      <trkpt lat="45.65743" lon="6.24064">
        <ele>1248.5600585938</ele>
        <time>2017-11-01T07:52:52Z</time>
      </trkpt>
      <trkpt lat="45.65747" lon="6.24063">
        <ele>1249.5600585938</ele>
        <time>2017-11-01T07:53:00Z</time>
      </trkpt>
      <trkpt lat="45.65754" lon="6.24063">
        <ele>1250.5600585938</ele>
        <time>2017-11-01T07:53:04Z</time>
      </trkpt>
      <trkpt lat="45.65758" lon="6.24063">
        <ele>1250.5600585938</ele>
        <time>2017-11-01T07:53:06Z</time>
      </trkpt>
      <trkpt lat="45.65762" lon="6.24066">
        <ele>1253.5600585938</ele>
        <time>2017-11-01T07:53:09Z</time>
      </trkpt>
      <trkpt lat="45.65767" lon="6.24066">
        <ele>1254.5600585938</ele>
        <time>2017-11-01T07:53:15Z</time>
      </trkpt>
      <trkpt lat="45.65772" lon="6.24066">
        <ele>1256.5600585938</ele>
        <time>2017-11-01T07:53:24Z</time>
      </trkpt>
      <trkpt lat="45.65778" lon="6.24065">
        <ele>1260.5600585938</ele>
        <time>2017-11-01T07:53:27Z</time>
      </trkpt>
      <trkpt lat="45.65782" lon="6.24066">
        <ele>1262.5600585938</ele>
        <time>2017-11-01T07:53:30Z</time>
      </trkpt>
      <trkpt lat="45.65787" lon="6.24063">
        <ele>1262.5600585938</ele>
        <time>2017-11-01T07:53:35Z</time>
      </trkpt>
      <trkpt lat="45.65792" lon="6.24061">
        <ele>1264.5600585938</ele>
        <time>2017-11-01T07:53:44Z</time>
      </trkpt>
      <trkpt lat="45.65796" lon="6.24062">
        <ele>1271.5600585938</ele>
        <time>2017-11-01T07:53:58Z</time>
      </trkpt>
      <trkpt lat="45.65803" lon="6.24059">
        <ele>1269.5600585938</ele>
        <time>2017-11-01T07:54:01Z</time>
      </trkpt>
      <trkpt lat="45.65808" lon="6.24059">
        <ele>1269.5600585938</ele>
        <time>2017-11-01T07:54:05Z</time>
      </trkpt>
      <trkpt lat="45.65813" lon="6.24059">
        <ele>1269.5600585938</ele>
        <time>2017-11-01T07:54:10Z</time>
      </trkpt>
      <trkpt lat="45.65818" lon="6.24062">
        <ele>1270.5600585938</ele>
        <time>2017-11-01T07:54:14Z</time>
      </trkpt>
      <trkpt lat="45.65822" lon="6.2406">
        <ele>1271.5600585938</ele>
        <time>2017-11-01T07:54:17Z</time>
      </trkpt>
      <trkpt lat="45.65827" lon="6.24062">
        <ele>1273.5600585938</ele>
        <time>2017-11-01T07:54:24Z</time>
      </trkpt>
      <trkpt lat="45.65832" lon="6.24062">
        <ele>1274.5600585938</ele>
        <time>2017-11-01T07:54:29Z</time>
      </trkpt>
      <trkpt lat="45.65837" lon="6.24061">
        <ele>1272.5600585938</ele>
        <time>2017-11-01T07:54:33Z</time>
      </trkpt>
      <trkpt lat="45.65842" lon="6.24059">
        <ele>1273.5600585938</ele>
        <time>2017-11-01T07:54:38Z</time>
      </trkpt>
      <trkpt lat="45.65846" lon="6.24059">
        <ele>1275.5600585938</ele>
        <time>2017-11-01T07:54:46Z</time>
      </trkpt>
      <trkpt lat="45.65852" lon="6.24059">
        <ele>1280.5600585938</ele>
        <time>2017-11-01T07:54:54Z</time>
      </trkpt>
      <trkpt lat="45.65857" lon="6.24058">
        <ele>1283.5600585938</ele>
        <time>2017-11-01T07:54:59Z</time>
      </trkpt>
      <trkpt lat="45.65862" lon="6.24056">
        <ele>1283.5600585938</ele>
        <time>2017-11-01T07:55:03Z</time>
      </trkpt>
      <trkpt lat="45.65867" lon="6.24058">
        <ele>1283.5600585938</ele>
        <time>2017-11-01T07:55:14Z</time>
      </trkpt>
      <trkpt lat="45.65871" lon="6.24061">
        <ele>1285.5600585938</ele>
        <time>2017-11-01T07:55:17Z</time>
      </trkpt>
      <trkpt lat="45.65876" lon="6.24061">
        <ele>1290.5600585938</ele>
        <time>2017-11-01T07:55:20Z</time>
      </trkpt>
      <trkpt lat="45.65881" lon="6.24061">
        <ele>1290.5600585938</ele>
        <time>2017-11-01T07:55:23Z</time>
      </trkpt>
      <trkpt lat="45.65887" lon="6.24063">
        <ele>1288.5600585938</ele>
        <time>2017-11-01T07:55:27Z</time>
      </trkpt>
      <trkpt lat="45.65892" lon="6.24062">
        <ele>1289.5600585938</ele>
        <time>2017-11-01T07:55:34Z</time>
      </trkpt>
      <trkpt lat="45.65897" lon="6.24064">
        <ele>1290.5600585938</ele>
        <time>2017-11-01T07:55:36Z</time>
      </trkpt>
      <trkpt lat="45.65901" lon="6.24066">
        <ele>1290.5600585938</ele>
        <time>2017-11-01T07:55:38Z</time>
      </trkpt>
      <trkpt lat="45.65908" lon="6.24067">
        <ele>1291.5600585938</ele>
        <time>2017-11-01T07:55:41Z</time>
      </trkpt>
      <trkpt lat="45.65912" lon="6.24073">
        <ele>1291.5600585938</ele>
        <time>2017-11-01T07:55:44Z</time>
      </trkpt>
      <trkpt lat="45.65918" lon="6.24074">
        <ele>1290.5600585938</ele>
        <time>2017-11-01T07:55:47Z</time>
      </trkpt>
      <trkpt lat="45.65922" lon="6.24079">
        <ele>1290.5600585938</ele>
        <time>2017-11-01T07:55:50Z</time>
      </trkpt>
      <trkpt lat="45.65926" lon="6.24081">
        <ele>1294.5600585938</ele>
        <time>2017-11-01T07:55:54Z</time>
      </trkpt>
      <trkpt lat="45.65929" lon="6.24086">
        <ele>1297.5600585938</ele>
        <time>2017-11-01T07:55:58Z</time>
      </trkpt>
      <trkpt lat="45.65936" lon="6.2409">
        <ele>1301.5600585938</ele>
        <time>2017-11-01T07:56:02Z</time>
      </trkpt>
      <trkpt lat="45.6594" lon="6.24095">
        <ele>1302.5600585938</ele>
        <time>2017-11-01T07:56:05Z</time>
      </trkpt>
      <trkpt lat="45.65945" lon="6.24098">
        <ele>1303.5600585938</ele>
        <time>2017-11-01T07:56:08Z</time>
      </trkpt>
      <trkpt lat="45.6595" lon="6.241">
        <ele>1303.5600585938</ele>
        <time>2017-11-01T07:56:12Z</time>
      </trkpt>
      <trkpt lat="45.65954" lon="6.24105">
        <ele>1306.5600585938</ele>
        <time>2017-11-01T07:56:17Z</time>
      </trkpt>
      <trkpt lat="45.65958" lon="6.24111">
        <ele>1306.5600585938</ele>
        <time>2017-11-01T07:56:21Z</time>
      </trkpt>
      <trkpt lat="45.65962" lon="6.24116">
        <ele>1308.5600585938</ele>
        <time>2017-11-01T07:56:25Z</time>
      </trkpt>
      <trkpt lat="45.65966" lon="6.24121">
        <ele>1309.5600585938</ele>
        <time>2017-11-01T07:56:28Z</time>
      </trkpt>
      <trkpt lat="45.65973" lon="6.24122">
        <ele>1309.5600585938</ele>
        <time>2017-11-01T07:56:31Z</time>
      </trkpt>
      <trkpt lat="45.65976" lon="6.24127">
        <ele>1312.5600585938</ele>
        <time>2017-11-01T07:56:35Z</time>
      </trkpt>
      <trkpt lat="45.65978" lon="6.24132">
        <ele>1309.5600585938</ele>
        <time>2017-11-01T07:56:39Z</time>
      </trkpt>
      <trkpt lat="45.65983" lon="6.24133">
        <ele>1312.5600585938</ele>
        <time>2017-11-01T07:56:44Z</time>
      </trkpt>
      <trkpt lat="45.65987" lon="6.24138">
        <ele>1314.5600585938</ele>
        <time>2017-11-01T07:56:47Z</time>
      </trkpt>
      <trkpt lat="45.65991" lon="6.24141">
        <ele>1311.5600585938</ele>
        <time>2017-11-01T07:56:52Z</time>
      </trkpt>
      <trkpt lat="45.65997" lon="6.24142">
        <ele>1310.5600585938</ele>
        <time>2017-11-01T07:57:07Z</time>
      </trkpt>
      <trkpt lat="45.66003" lon="6.24144">
        <ele>1312.5600585938</ele>
        <time>2017-11-01T07:57:10Z</time>
      </trkpt>
      <trkpt lat="45.66008" lon="6.24145">
        <ele>1312.5600585938</ele>
        <time>2017-11-01T07:57:13Z</time>
      </trkpt>
      <trkpt lat="45.66012" lon="6.2415">
        <ele>1311.5600585938</ele>
        <time>2017-11-01T07:57:18Z</time>
      </trkpt>
      <trkpt lat="45.66018" lon="6.24154">
        <ele>1313.5600585938</ele>
        <time>2017-11-01T07:57:21Z</time>
      </trkpt>
      <trkpt lat="45.66022" lon="6.24158">
        <ele>1309.5600585938</ele>
        <time>2017-11-01T07:57:26Z</time>
      </trkpt>
      <trkpt lat="45.6603" lon="6.24159">
        <ele>1307.5600585938</ele>
        <time>2017-11-01T07:57:29Z</time>
      </trkpt>
      <trkpt lat="45.66036" lon="6.24161">
        <ele>1308.5600585938</ele>
        <time>2017-11-01T07:57:32Z</time>
      </trkpt>
      <trkpt lat="45.66042" lon="6.24163">
        <ele>1305.5600585938</ele>
        <time>2017-11-01T07:57:36Z</time>
      </trkpt>
      <trkpt lat="45.66047" lon="6.24164">
        <ele>1306.5600585938</ele>
        <time>2017-11-01T07:57:40Z</time>
      </trkpt>
      <trkpt lat="45.66051" lon="6.24166">
        <ele>1308.5600585938</ele>
        <time>2017-11-01T07:57:43Z</time>
      </trkpt>
      <trkpt lat="45.66057" lon="6.24169">
        <ele>1310.5600585938</ele>
        <time>2017-11-01T07:57:46Z</time>
      </trkpt>
      <trkpt lat="45.66062" lon="6.24172">
        <ele>1315.5600585938</ele>
        <time>2017-11-01T07:57:50Z</time>
      </trkpt>
      <trkpt lat="45.66067" lon="6.24177">
        <ele>1314.5600585938</ele>
        <time>2017-11-01T07:57:53Z</time>
      </trkpt>
      <trkpt lat="45.66072" lon="6.24179">
        <ele>1315.5600585938</ele>
        <time>2017-11-01T07:57:57Z</time>
      </trkpt>
      <trkpt lat="45.66077" lon="6.24181">
        <ele>1315.5600585938</ele>
        <time>2017-11-01T07:58:00Z</time>
      </trkpt>
      <trkpt lat="45.66082" lon="6.24184">
        <ele>1317.5600585938</ele>
        <time>2017-11-01T07:58:03Z</time>
      </trkpt>
      <trkpt lat="45.66086" lon="6.24183">
        <ele>1318.5600585938</ele>
        <time>2017-11-01T07:58:05Z</time>
      </trkpt>
      <trkpt lat="45.66091" lon="6.24187">
        <ele>1318.5600585938</ele>
        <time>2017-11-01T07:58:09Z</time>
      </trkpt>
      <trkpt lat="45.66096" lon="6.24188">
        <ele>1320.5600585938</ele>
        <time>2017-11-01T07:58:12Z</time>
      </trkpt>
      <trkpt lat="45.66102" lon="6.24191">
        <ele>1319.5600585938</ele>
        <time>2017-11-01T07:58:16Z</time>
      </trkpt>
      <trkpt lat="45.66107" lon="6.24193">
        <ele>1317.5610351562</ele>
        <time>2017-11-01T07:58:19Z</time>
      </trkpt>
      <trkpt lat="45.66114" lon="6.24195">
        <ele>1317.5610351562</ele>
        <time>2017-11-01T07:58:23Z</time>
      </trkpt>
      <trkpt lat="45.66119" lon="6.24197">
        <ele>1315.5610351562</ele>
        <time>2017-11-01T07:58:26Z</time>
      </trkpt>
      <trkpt lat="45.66124" lon="6.24197">
        <ele>1316.5610351562</ele>
        <time>2017-11-01T07:58:30Z</time>
      </trkpt>
      <trkpt lat="45.6613" lon="6.24199">
        <ele>1315.5610351562</ele>
        <time>2017-11-01T07:58:34Z</time>
      </trkpt>
      <trkpt lat="45.66134" lon="6.24201">
        <ele>1313.5610351562</ele>
        <time>2017-11-01T07:58:37Z</time>
      </trkpt>
      <trkpt lat="45.6614" lon="6.24203">
        <ele>1312.5610351562</ele>
        <time>2017-11-01T07:58:40Z</time>
      </trkpt>
      <trkpt lat="45.66146" lon="6.24204">
        <ele>1312.5610351562</ele>
        <time>2017-11-01T07:58:43Z</time>
      </trkpt>
      <trkpt lat="45.6615" lon="6.24206">
        <ele>1312.5610351562</ele>
        <time>2017-11-01T07:58:46Z</time>
      </trkpt>
      <trkpt lat="45.66155" lon="6.24208">
        <ele>1313.5610351562</ele>
        <time>2017-11-01T07:58:50Z</time>
      </trkpt>
      <trkpt lat="45.66159" lon="6.24213">
        <ele>1314.5610351562</ele>
        <time>2017-11-01T07:58:56Z</time>
      </trkpt>
      <trkpt lat="45.66164" lon="6.24215">
        <ele>1315.5610351562</ele>
        <time>2017-11-01T07:58:59Z</time>
      </trkpt>
      <trkpt lat="45.66169" lon="6.24219">
        <ele>1317.5610351562</ele>
        <time>2017-11-01T07:59:02Z</time>
      </trkpt>
      <trkpt lat="45.66173" lon="6.2422">
        <ele>1317.5610351562</ele>
        <time>2017-11-01T07:59:08Z</time>
      </trkpt>
      <trkpt lat="45.6618" lon="6.24221">
        <ele>1317.5610351562</ele>
        <time>2017-11-01T07:59:12Z</time>
      </trkpt>
      <trkpt lat="45.66184" lon="6.24224">
        <ele>1319.5610351562</ele>
        <time>2017-11-01T07:59:15Z</time>
      </trkpt>
      <trkpt lat="45.66188" lon="6.24226">
        <ele>1316.5610351562</ele>
        <time>2017-11-01T07:59:19Z</time>
      </trkpt>
      <trkpt lat="45.66193" lon="6.24227">
        <ele>1316.5610351562</ele>
        <time>2017-11-01T07:59:22Z</time>
      </trkpt>
      <trkpt lat="45.66199" lon="6.24229">
        <ele>1314.5610351562</ele>
        <time>2017-11-01T07:59:27Z</time>
      </trkpt>
      <trkpt lat="45.66204" lon="6.24233">
        <ele>1315.5610351562</ele>
        <time>2017-11-01T07:59:30Z</time>
      </trkpt>
      <trkpt lat="45.6621" lon="6.24236">
        <ele>1315.5610351562</ele>
        <time>2017-11-01T07:59:34Z</time>
      </trkpt>
      <trkpt lat="45.66215" lon="6.2424">
        <ele>1315.5610351562</ele>
        <time>2017-11-01T07:59:37Z</time>
      </trkpt>
      <trkpt lat="45.66221" lon="6.2424">
        <ele>1317.5610351562</ele>
        <time>2017-11-01T07:59:41Z</time>
      </trkpt>
      <trkpt lat="45.66227" lon="6.24241">
        <ele>1317.5610351562</ele>
        <time>2017-11-01T07:59:45Z</time>
      </trkpt>
      <trkpt lat="45.66232" lon="6.24245">
        <ele>1317.5610351562</ele>
        <time>2017-11-01T07:59:49Z</time>
      </trkpt>
      <trkpt lat="45.66237" lon="6.24247">
        <ele>1318.5610351562</ele>
        <time>2017-11-01T07:59:52Z</time>
      </trkpt>
      <trkpt lat="45.66242" lon="6.24249">
        <ele>1315.5610351562</ele>
        <time>2017-11-01T07:59:57Z</time>
      </trkpt>
      <trkpt lat="45.66248" lon="6.24249">
        <ele>1316.5610351562</ele>
        <time>2017-11-01T08:00:00Z</time>
      </trkpt>
      <trkpt lat="45.66253" lon="6.2425">
        <ele>1317.5610351562</ele>
        <time>2017-11-01T08:00:03Z</time>
      </trkpt>
      <trkpt lat="45.66258" lon="6.24248">
        <ele>1318.5610351562</ele>
        <time>2017-11-01T08:00:07Z</time>
      </trkpt>
      <trkpt lat="45.66263" lon="6.2425">
        <ele>1319.5610351562</ele>
        <time>2017-11-01T08:00:12Z</time>
      </trkpt>
      <trkpt lat="45.66268" lon="6.24251">
        <ele>1321.5610351562</ele>
        <time>2017-11-01T08:00:15Z</time>
      </trkpt>
      <trkpt lat="45.66273" lon="6.24248">
        <ele>1319.5610351562</ele>
        <time>2017-11-01T08:00:20Z</time>
      </trkpt>
      <trkpt lat="45.66279" lon="6.24246">
        <ele>1317.5610351562</ele>
        <time>2017-11-01T08:00:24Z</time>
      </trkpt>
      <trkpt lat="45.66284" lon="6.24247">
        <ele>1317.5610351562</ele>
        <time>2017-11-01T08:00:27Z</time>
      </trkpt>
      <trkpt lat="45.66288" lon="6.24245">
        <ele>1318.5610351562</ele>
        <time>2017-11-01T08:00:33Z</time>
      </trkpt>
      <trkpt lat="45.66293" lon="6.24246">
        <ele>1319.5610351562</ele>
        <time>2017-11-01T08:00:37Z</time>
      </trkpt>
      <trkpt lat="45.66298" lon="6.24246">
        <ele>1319.5610351562</ele>
        <time>2017-11-01T08:00:41Z</time>
      </trkpt>
      <trkpt lat="45.66303" lon="6.24247">
        <ele>1322.5610351562</ele>
        <time>2017-11-01T08:00:44Z</time>
      </trkpt>
      <trkpt lat="45.66307" lon="6.24244">
        <ele>1320.5610351562</ele>
        <time>2017-11-01T08:00:50Z</time>
      </trkpt>
      <trkpt lat="45.66312" lon="6.24242">
        <ele>1320.5610351562</ele>
        <time>2017-11-01T08:00:53Z</time>
      </trkpt>
      <trkpt lat="45.66318" lon="6.24242">
        <ele>1322.5610351562</ele>
        <time>2017-11-01T08:00:58Z</time>
      </trkpt>
      <trkpt lat="45.66323" lon="6.24239">
        <ele>1320.5610351562</ele>
        <time>2017-11-01T08:01:02Z</time>
      </trkpt>
      <trkpt lat="45.66328" lon="6.24238">
        <ele>1320.5610351562</ele>
        <time>2017-11-01T08:01:05Z</time>
      </trkpt>
      <trkpt lat="45.66332" lon="6.24236">
        <ele>1317.5610351562</ele>
        <time>2017-11-01T08:01:13Z</time>
      </trkpt>
      <trkpt lat="45.66338" lon="6.24234">
        <ele>1317.5610351562</ele>
        <time>2017-11-01T08:01:17Z</time>
      </trkpt>
      <trkpt lat="45.66342" lon="6.24232">
        <ele>1318.5610351562</ele>
        <time>2017-11-01T08:01:22Z</time>
      </trkpt>
      <trkpt lat="45.66348" lon="6.2423">
        <ele>1321.5610351562</ele>
        <time>2017-11-01T08:01:25Z</time>
      </trkpt>
      <trkpt lat="45.66352" lon="6.24228">
        <ele>1323.5610351562</ele>
        <time>2017-11-01T08:01:30Z</time>
      </trkpt>
      <trkpt lat="45.66357" lon="6.24224">
        <ele>1323.5610351562</ele>
        <time>2017-11-01T08:01:34Z</time>
      </trkpt>
      <trkpt lat="45.66361" lon="6.2422">
        <ele>1324.5610351562</ele>
        <time>2017-11-01T08:01:39Z</time>
      </trkpt>
      <trkpt lat="45.66365" lon="6.24215">
        <ele>1324.5610351562</ele>
        <time>2017-11-01T08:01:43Z</time>
      </trkpt>
      <trkpt lat="45.6637" lon="6.24214">
        <ele>1326.5610351562</ele>
        <time>2017-11-01T08:01:47Z</time>
      </trkpt>
      <trkpt lat="45.66375" lon="6.24213">
        <ele>1326.5610351562</ele>
        <time>2017-11-01T08:01:53Z</time>
      </trkpt>
      <trkpt lat="45.6638" lon="6.24213">
        <ele>1330.5610351562</ele>
        <time>2017-11-01T08:01:57Z</time>
      </trkpt>
      <trkpt lat="45.66384" lon="6.24209">
        <ele>1330.5610351562</ele>
        <time>2017-11-01T08:02:02Z</time>
      </trkpt>
      <trkpt lat="45.66387" lon="6.24204">
        <ele>1331.5610351562</ele>
        <time>2017-11-01T08:02:07Z</time>
      </trkpt>
      <trkpt lat="45.66393" lon="6.24202">
        <ele>1333.5610351562</ele>
        <time>2017-11-01T08:02:10Z</time>
      </trkpt>
      <trkpt lat="45.66398" lon="6.24202">
        <ele>1335.5610351562</ele>
        <time>2017-11-01T08:02:13Z</time>
      </trkpt>
      <trkpt lat="45.66404" lon="6.24202">
        <ele>1338.5610351562</ele>
        <time>2017-11-01T08:02:18Z</time>
      </trkpt>
      <trkpt lat="45.66409" lon="6.24203">
        <ele>1342.5610351562</ele>
        <time>2017-11-01T08:02:23Z</time>
      </trkpt>
      <trkpt lat="45.66415" lon="6.24204">
        <ele>1347.5610351562</ele>
        <time>2017-11-01T08:02:28Z</time>
      </trkpt>
      <trkpt lat="45.66421" lon="6.24205">
        <ele>1346.5610351562</ele>
        <time>2017-11-01T08:02:33Z</time>
      </trkpt>
      <trkpt lat="45.66425" lon="6.24201">
        <ele>1346.5610351562</ele>
        <time>2017-11-01T08:02:36Z</time>
      </trkpt>
      <trkpt lat="45.66431" lon="6.24201">
        <ele>1346.5610351562</ele>
        <time>2017-11-01T08:02:42Z</time>
      </trkpt>
      <trkpt lat="45.66437" lon="6.24197">
        <ele>1346.5610351562</ele>
        <time>2017-11-01T08:02:47Z</time>
      </trkpt>
      <trkpt lat="45.66442" lon="6.24195">
        <ele>1348.5610351562</ele>
        <time>2017-11-01T08:02:52Z</time>
      </trkpt>
      <trkpt lat="45.66447" lon="6.24192">
        <ele>1350.5610351562</ele>
        <time>2017-11-01T08:02:57Z</time>
      </trkpt>
      <trkpt lat="45.66452" lon="6.24191">
        <ele>1350.5610351562</ele>
        <time>2017-11-01T08:03:02Z</time>
      </trkpt>
      <trkpt lat="45.66457" lon="6.24193">
        <ele>1354.5610351562</ele>
        <time>2017-11-01T08:03:07Z</time>
      </trkpt>
      <trkpt lat="45.66462" lon="6.24193">
        <ele>1353.5610351562</ele>
        <time>2017-11-01T08:03:13Z</time>
      </trkpt>
      <trkpt lat="45.66467" lon="6.24194">
        <ele>1355.5610351562</ele>
        <time>2017-11-01T08:03:17Z</time>
      </trkpt>
      <trkpt lat="45.66473" lon="6.24194">
        <ele>1356.5610351562</ele>
        <time>2017-11-01T08:03:23Z</time>
      </trkpt>
      <trkpt lat="45.66477" lon="6.24194">
        <ele>1358.5610351562</ele>
        <time>2017-11-01T08:03:27Z</time>
      </trkpt>
      <trkpt lat="45.66482" lon="6.24194">
        <ele>1358.5610351562</ele>
        <time>2017-11-01T08:03:31Z</time>
      </trkpt>
      <trkpt lat="45.66488" lon="6.24191">
        <ele>1358.5610351562</ele>
        <time>2017-11-01T08:03:36Z</time>
      </trkpt>
      <trkpt lat="45.66493" lon="6.24191">
        <ele>1360.5610351562</ele>
        <time>2017-11-01T08:03:38Z</time>
      </trkpt>
      <trkpt lat="45.66499" lon="6.2419">
        <ele>1363.5610351562</ele>
        <time>2017-11-01T08:03:41Z</time>
      </trkpt>
      <trkpt lat="45.66503" lon="6.24188">
        <ele>1364.5610351562</ele>
        <time>2017-11-01T08:03:44Z</time>
      </trkpt>
      <trkpt lat="45.66508" lon="6.24189">
        <ele>1363.5610351562</ele>
        <time>2017-11-01T08:03:47Z</time>
      </trkpt>
      <trkpt lat="45.66513" lon="6.2419">
        <ele>1366.5610351562</ele>
        <time>2017-11-01T08:03:50Z</time>
      </trkpt>
      <trkpt lat="45.66517" lon="6.24192">
        <ele>1366.5610351562</ele>
        <time>2017-11-01T08:03:56Z</time>
      </trkpt>
      <trkpt lat="45.66522" lon="6.24197">
        <ele>1368.5610351562</ele>
        <time>2017-11-01T08:04:02Z</time>
      </trkpt>
      <trkpt lat="45.66527" lon="6.24199">
        <ele>1368.5610351562</ele>
        <time>2017-11-01T08:04:07Z</time>
      </trkpt>
      <trkpt lat="45.66532" lon="6.24201">
        <ele>1367.5610351562</ele>
        <time>2017-11-01T08:04:12Z</time>
      </trkpt>
      <trkpt lat="45.66538" lon="6.24201">
        <ele>1367.5610351562</ele>
        <time>2017-11-01T08:04:16Z</time>
      </trkpt>
      <trkpt lat="45.66543" lon="6.242">
        <ele>1367.5610351562</ele>
        <time>2017-11-01T08:04:20Z</time>
      </trkpt>
      <trkpt lat="45.66548" lon="6.24202">
        <ele>1370.5610351562</ele>
        <time>2017-11-01T08:04:25Z</time>
      </trkpt>
      <trkpt lat="45.66553" lon="6.24202">
        <ele>1372.5610351562</ele>
        <time>2017-11-01T08:04:28Z</time>
      </trkpt>
      <trkpt lat="45.66559" lon="6.24203">
        <ele>1376.5610351562</ele>
        <time>2017-11-01T08:04:34Z</time>
      </trkpt>
      <trkpt lat="45.66564" lon="6.24202">
        <ele>1380.5610351562</ele>
        <time>2017-11-01T08:04:43Z</time>
      </trkpt>
      <trkpt lat="45.6657" lon="6.24204">
        <ele>1380.5610351562</ele>
        <time>2017-11-01T08:04:45Z</time>
      </trkpt>
      <trkpt lat="45.66576" lon="6.24207">
        <ele>1380.5610351562</ele>
        <time>2017-11-01T08:04:49Z</time>
      </trkpt>
      <trkpt lat="45.66582" lon="6.24203">
        <ele>1378.5610351562</ele>
        <time>2017-11-01T08:04:55Z</time>
      </trkpt>
      <trkpt lat="45.66587" lon="6.24201">
        <ele>1375.5610351562</ele>
        <time>2017-11-01T08:05:00Z</time>
      </trkpt>
      <trkpt lat="45.66592" lon="6.242">
        <ele>1377.5610351562</ele>
        <time>2017-11-01T08:05:04Z</time>
      </trkpt>
      <trkpt lat="45.66596" lon="6.24203">
        <ele>1381.5610351562</ele>
        <time>2017-11-01T08:05:09Z</time>
      </trkpt>
      <trkpt lat="45.66601" lon="6.24206">
        <ele>1383.5610351562</ele>
        <time>2017-11-01T08:05:12Z</time>
      </trkpt>
      <trkpt lat="45.66605" lon="6.24212">
        <ele>1385.5610351562</ele>
        <time>2017-11-01T08:05:17Z</time>
      </trkpt>
      <trkpt lat="45.66608" lon="6.24217">
        <ele>1386.5610351562</ele>
        <time>2017-11-01T08:05:22Z</time>
      </trkpt>
      <trkpt lat="45.66612" lon="6.24224">
        <ele>1390.5610351562</ele>
        <time>2017-11-01T08:05:26Z</time>
      </trkpt>
      <trkpt lat="45.66617" lon="6.24226">
        <ele>1392.5620117188</ele>
        <time>2017-11-01T08:05:29Z</time>
      </trkpt>
      <trkpt lat="45.66623" lon="6.24228">
        <ele>1392.5620117188</ele>
        <time>2017-11-01T08:05:35Z</time>
      </trkpt>
      <trkpt lat="45.66628" lon="6.24227">
        <ele>1390.5620117188</ele>
        <time>2017-11-01T08:05:38Z</time>
      </trkpt>
      <trkpt lat="45.66632" lon="6.2423">
        <ele>1389.5620117188</ele>
        <time>2017-11-01T08:05:44Z</time>
      </trkpt>
      <trkpt lat="45.66637" lon="6.2423">
        <ele>1391.5620117188</ele>
        <time>2017-11-01T08:05:49Z</time>
      </trkpt>
      <trkpt lat="45.66642" lon="6.24227">
        <ele>1390.5620117188</ele>
        <time>2017-11-01T08:05:53Z</time>
      </trkpt>
      <trkpt lat="45.66647" lon="6.24221">
        <ele>1389.5620117188</ele>
        <time>2017-11-01T08:05:58Z</time>
      </trkpt>
      <trkpt lat="45.66651" lon="6.24216">
        <ele>1389.5620117188</ele>
        <time>2017-11-01T08:06:01Z</time>
      </trkpt>
      <trkpt lat="45.66655" lon="6.24212">
        <ele>1391.5620117188</ele>
        <time>2017-11-01T08:06:04Z</time>
      </trkpt>
      <trkpt lat="45.6666" lon="6.24209">
        <ele>1391.5620117188</ele>
        <time>2017-11-01T08:06:06Z</time>
      </trkpt>
      <trkpt lat="45.66665" lon="6.24203">
        <ele>1392.5620117188</ele>
        <time>2017-11-01T08:06:10Z</time>
      </trkpt>
      <trkpt lat="45.6667" lon="6.24198">
        <ele>1394.5620117188</ele>
        <time>2017-11-01T08:06:14Z</time>
      </trkpt>
      <trkpt lat="45.66674" lon="6.24194">
        <ele>1395.5620117188</ele>
        <time>2017-11-01T08:06:17Z</time>
      </trkpt>
      <trkpt lat="45.66679" lon="6.24192">
        <ele>1396.5620117188</ele>
        <time>2017-11-01T08:06:22Z</time>
      </trkpt>
      <trkpt lat="45.66683" lon="6.24191">
        <ele>1396.5620117188</ele>
        <time>2017-11-01T08:06:27Z</time>
      </trkpt>
      <trkpt lat="45.66689" lon="6.24192">
        <ele>1399.5620117188</ele>
        <time>2017-11-01T08:06:32Z</time>
      </trkpt>
      <trkpt lat="45.66694" lon="6.24189">
        <ele>1399.5620117188</ele>
        <time>2017-11-01T08:06:37Z</time>
      </trkpt>
      <trkpt lat="45.66699" lon="6.24186">
        <ele>1399.5620117188</ele>
        <time>2017-11-01T08:06:41Z</time>
      </trkpt>
      <trkpt lat="45.66703" lon="6.24185">
        <ele>1400.5620117188</ele>
        <time>2017-11-01T08:06:45Z</time>
      </trkpt>
      <trkpt lat="45.66708" lon="6.24183">
        <ele>1401.5620117188</ele>
        <time>2017-11-01T08:06:50Z</time>
      </trkpt>
      <trkpt lat="45.66714" lon="6.24181">
        <ele>1401.5620117188</ele>
        <time>2017-11-01T08:06:55Z</time>
      </trkpt>
      <trkpt lat="45.66718" lon="6.2418">
        <ele>1403.5620117188</ele>
        <time>2017-11-01T08:06:59Z</time>
      </trkpt>
      <trkpt lat="45.66723" lon="6.2418">
        <ele>1403.5620117188</ele>
        <time>2017-11-01T08:07:03Z</time>
      </trkpt>
      <trkpt lat="45.66728" lon="6.24178">
        <ele>1405.5620117188</ele>
        <time>2017-11-01T08:07:07Z</time>
      </trkpt>
      <trkpt lat="45.66733" lon="6.24177">
        <ele>1406.5620117188</ele>
        <time>2017-11-01T08:07:11Z</time>
      </trkpt>
      <trkpt lat="45.66738" lon="6.24175">
        <ele>1408.5620117188</ele>
        <time>2017-11-01T08:07:15Z</time>
      </trkpt>
      <trkpt lat="45.66742" lon="6.2417">
        <ele>1410.5620117188</ele>
        <time>2017-11-01T08:07:20Z</time>
      </trkpt>
      <trkpt lat="45.66745" lon="6.24165">
        <ele>1410.5620117188</ele>
        <time>2017-11-01T08:07:24Z</time>
      </trkpt>
      <trkpt lat="45.66747" lon="6.24159">
        <ele>1412.5620117188</ele>
        <time>2017-11-01T08:07:28Z</time>
      </trkpt>
      <trkpt lat="45.6675" lon="6.24152">
        <ele>1411.5620117188</ele>
        <time>2017-11-01T08:07:32Z</time>
      </trkpt>
      <trkpt lat="45.66752" lon="6.24145">
        <ele>1410.5620117188</ele>
        <time>2017-11-01T08:07:36Z</time>
      </trkpt>
      <trkpt lat="45.66756" lon="6.2414">
        <ele>1410.5620117188</ele>
        <time>2017-11-01T08:07:39Z</time>
      </trkpt>
      <trkpt lat="45.66761" lon="6.24135">
        <ele>1413.5620117188</ele>
        <time>2017-11-01T08:07:43Z</time>
      </trkpt>
      <trkpt lat="45.66764" lon="6.24129">
        <ele>1411.5620117188</ele>
        <time>2017-11-01T08:07:47Z</time>
      </trkpt>
      <trkpt lat="45.66769" lon="6.24126">
        <ele>1410.5620117188</ele>
        <time>2017-11-01T08:07:50Z</time>
      </trkpt>
      <trkpt lat="45.6677" lon="6.24119">
        <ele>1410.5620117188</ele>
        <time>2017-11-01T08:07:54Z</time>
      </trkpt>
      <trkpt lat="45.66776" lon="6.24118">
        <ele>1412.5620117188</ele>
        <time>2017-11-01T08:07:57Z</time>
      </trkpt>
      <trkpt lat="45.66778" lon="6.24111">
        <ele>1411.5620117188</ele>
        <time>2017-11-01T08:08:00Z</time>
      </trkpt>
      <trkpt lat="45.66783" lon="6.24107">
        <ele>1414.5620117188</ele>
        <time>2017-11-01T08:08:04Z</time>
      </trkpt>
      <trkpt lat="45.66784" lon="6.24098">
        <ele>1413.5620117188</ele>
        <time>2017-11-01T08:08:08Z</time>
      </trkpt>
      <trkpt lat="45.66786" lon="6.24089">
        <ele>1414.5620117188</ele>
        <time>2017-11-01T08:08:12Z</time>
      </trkpt>
      <trkpt lat="45.6679" lon="6.24085">
        <ele>1414.5620117188</ele>
        <time>2017-11-01T08:08:15Z</time>
      </trkpt>
      <trkpt lat="45.6679" lon="6.24076">
        <ele>1413.5620117188</ele>
        <time>2017-11-01T08:08:18Z</time>
      </trkpt>
      <trkpt lat="45.66791" lon="6.24069">
        <ele>1412.5620117188</ele>
        <time>2017-11-01T08:08:21Z</time>
      </trkpt>
      <trkpt lat="45.66795" lon="6.24064">
        <ele>1412.5620117188</ele>
        <time>2017-11-01T08:08:24Z</time>
      </trkpt>
      <trkpt lat="45.66798" lon="6.24057">
        <ele>1411.5620117188</ele>
        <time>2017-11-01T08:08:27Z</time>
      </trkpt>
      <trkpt lat="45.66801" lon="6.24051">
        <ele>1411.5620117188</ele>
        <time>2017-11-01T08:08:30Z</time>
      </trkpt>
      <trkpt lat="45.66804" lon="6.24047">
        <ele>1412.5620117188</ele>
        <time>2017-11-01T08:08:34Z</time>
      </trkpt>
      <trkpt lat="45.66808" lon="6.24042">
        <ele>1414.5620117188</ele>
        <time>2017-11-01T08:08:38Z</time>
      </trkpt>
      <trkpt lat="45.66812" lon="6.2404">
        <ele>1414.5620117188</ele>
        <time>2017-11-01T08:08:43Z</time>
      </trkpt>
      <trkpt lat="45.66817" lon="6.24045">
        <ele>1417.5620117188</ele>
        <time>2017-11-01T08:08:47Z</time>
      </trkpt>
      <trkpt lat="45.66822" lon="6.24049">
        <ele>1419.5620117188</ele>
        <time>2017-11-01T08:08:51Z</time>
      </trkpt>
      <trkpt lat="45.66825" lon="6.24054">
        <ele>1421.5620117188</ele>
        <time>2017-11-01T08:08:54Z</time>
      </trkpt>
      <trkpt lat="45.66828" lon="6.2406">
        <ele>1421.5620117188</ele>
        <time>2017-11-01T08:08:58Z</time>
      </trkpt>
      <trkpt lat="45.66833" lon="6.24064">
        <ele>1421.5620117188</ele>
        <time>2017-11-01T08:09:03Z</time>
      </trkpt>
      <trkpt lat="45.66836" lon="6.2407">
        <ele>1421.5620117188</ele>
        <time>2017-11-01T08:09:09Z</time>
      </trkpt>
      <trkpt lat="45.66839" lon="6.24076">
        <ele>1426.5620117188</ele>
        <time>2017-11-01T08:09:15Z</time>
      </trkpt>
      <trkpt lat="45.66843" lon="6.2408">
        <ele>1427.5620117188</ele>
        <time>2017-11-01T08:09:19Z</time>
      </trkpt>
      <trkpt lat="45.66846" lon="6.24087">
        <ele>1430.5620117188</ele>
        <time>2017-11-01T08:09:24Z</time>
      </trkpt>
      <trkpt lat="45.66849" lon="6.24092">
        <ele>1431.5620117188</ele>
        <time>2017-11-01T08:09:29Z</time>
      </trkpt>
      <trkpt lat="45.66854" lon="6.24095">
        <ele>1431.5620117188</ele>
        <time>2017-11-01T08:09:32Z</time>
      </trkpt>
      <trkpt lat="45.66858" lon="6.24095">
        <ele>1430.5620117188</ele>
        <time>2017-11-01T08:09:35Z</time>
      </trkpt>
      <trkpt lat="45.66863" lon="6.24091">
        <ele>1432.5620117188</ele>
        <time>2017-11-01T08:09:40Z</time>
      </trkpt>
      <trkpt lat="45.66869" lon="6.24088">
        <ele>1431.5620117188</ele>
        <time>2017-11-01T08:09:45Z</time>
      </trkpt>
      <trkpt lat="45.66873" lon="6.24084">
        <ele>1431.5620117188</ele>
        <time>2017-11-01T08:09:49Z</time>
      </trkpt>
      <trkpt lat="45.66877" lon="6.24079">
        <ele>1432.5620117188</ele>
        <time>2017-11-01T08:09:53Z</time>
      </trkpt>
      <trkpt lat="45.66879" lon="6.24072">
        <ele>1431.5620117188</ele>
        <time>2017-11-01T08:09:59Z</time>
      </trkpt>
      <trkpt lat="45.66884" lon="6.24069">
        <ele>1432.5620117188</ele>
        <time>2017-11-01T08:10:01Z</time>
      </trkpt>
      <trkpt lat="45.66887" lon="6.2406">
        <ele>1429.5620117188</ele>
        <time>2017-11-01T08:10:08Z</time>
      </trkpt>
      <trkpt lat="45.66891" lon="6.24057">
        <ele>1430.5620117188</ele>
        <time>2017-11-01T08:10:10Z</time>
      </trkpt>
      <trkpt lat="45.66887" lon="6.24058">
        <ele>1430.5620117188</ele>
        <time>2017-11-01T08:10:13Z</time>
      </trkpt>
      <trkpt lat="45.66893" lon="6.24055">
        <ele>1432.5620117188</ele>
        <time>2017-11-01T08:10:15Z</time>
      </trkpt>
      <trkpt lat="45.66898" lon="6.24053">
        <ele>1432.5620117188</ele>
        <time>2017-11-01T08:10:18Z</time>
      </trkpt>
      <trkpt lat="45.66902" lon="6.24051">
        <ele>1434.5620117188</ele>
        <time>2017-11-01T08:10:21Z</time>
      </trkpt>
      <trkpt lat="45.66907" lon="6.24048">
        <ele>1436.5620117188</ele>
        <time>2017-11-01T08:10:28Z</time>
      </trkpt>
      <trkpt lat="45.66913" lon="6.24049">
        <ele>1435.5620117188</ele>
        <time>2017-11-01T08:10:31Z</time>
      </trkpt>
      <trkpt lat="45.66918" lon="6.24051">
        <ele>1435.5620117188</ele>
        <time>2017-11-01T08:10:34Z</time>
      </trkpt>
      <trkpt lat="45.66922" lon="6.24054">
        <ele>1436.5620117188</ele>
        <time>2017-11-01T08:10:37Z</time>
      </trkpt>
      <trkpt lat="45.66926" lon="6.24059">
        <ele>1436.5620117188</ele>
        <time>2017-11-01T08:10:40Z</time>
      </trkpt>
      <trkpt lat="45.6693" lon="6.24064">
        <ele>1440.5620117188</ele>
        <time>2017-11-01T08:10:44Z</time>
      </trkpt>
      <trkpt lat="45.66933" lon="6.2407">
        <ele>1440.5620117188</ele>
        <time>2017-11-01T08:10:48Z</time>
      </trkpt>
      <trkpt lat="45.66938" lon="6.24077">
        <ele>1443.5620117188</ele>
        <time>2017-11-01T08:10:53Z</time>
      </trkpt>
      <trkpt lat="45.66943" lon="6.24079">
        <ele>1441.5620117188</ele>
        <time>2017-11-01T08:10:56Z</time>
      </trkpt>
      <trkpt lat="45.66946" lon="6.24084">
        <ele>1442.5620117188</ele>
        <time>2017-11-01T08:10:59Z</time>
      </trkpt>
      <trkpt lat="45.66949" lon="6.2409">
        <ele>1441.5620117188</ele>
        <time>2017-11-01T08:11:03Z</time>
      </trkpt>
      <trkpt lat="45.66952" lon="6.24095">
        <ele>1442.5620117188</ele>
        <time>2017-11-01T08:11:07Z</time>
      </trkpt>
      <trkpt lat="45.66955" lon="6.24101">
        <ele>1443.5620117188</ele>
        <time>2017-11-01T08:11:10Z</time>
      </trkpt>
      <trkpt lat="45.66959" lon="6.24107">
        <ele>1445.5620117188</ele>
        <time>2017-11-01T08:11:15Z</time>
      </trkpt>
      <trkpt lat="45.66965" lon="6.2411">
        <ele>1444.5620117188</ele>
        <time>2017-11-01T08:11:19Z</time>
      </trkpt>
      <trkpt lat="45.6697" lon="6.24112">
        <ele>1446.5620117188</ele>
        <time>2017-11-01T08:11:23Z</time>
      </trkpt>
      <trkpt lat="45.66975" lon="6.24115">
        <ele>1448.5620117188</ele>
        <time>2017-11-01T08:11:27Z</time>
      </trkpt>
      <trkpt lat="45.66979" lon="6.24116">
        <ele>1447.5620117188</ele>
        <time>2017-11-01T08:11:30Z</time>
      </trkpt>
      <trkpt lat="45.66984" lon="6.24118">
        <ele>1448.5620117188</ele>
        <time>2017-11-01T08:11:34Z</time>
      </trkpt>
      <trkpt lat="45.66989" lon="6.2412">
        <ele>1450.5620117188</ele>
        <time>2017-11-01T08:11:39Z</time>
      </trkpt>
      <trkpt lat="45.66993" lon="6.24123">
        <ele>1449.5620117188</ele>
        <time>2017-11-01T08:11:42Z</time>
      </trkpt>
      <trkpt lat="45.66998" lon="6.24126">
        <ele>1451.5620117188</ele>
        <time>2017-11-01T08:11:47Z</time>
      </trkpt>
      <trkpt lat="45.67002" lon="6.24122">
        <ele>1450.5620117188</ele>
        <time>2017-11-01T08:11:51Z</time>
      </trkpt>
      <trkpt lat="45.67007" lon="6.24119">
        <ele>1452.5620117188</ele>
        <time>2017-11-01T08:12:00Z</time>
      </trkpt>
      <trkpt lat="45.67012" lon="6.24121">
        <ele>1455.5620117188</ele>
        <time>2017-11-01T08:12:06Z</time>
      </trkpt>
      <trkpt lat="45.67016" lon="6.24121">
        <ele>1458.5620117188</ele>
        <time>2017-11-01T08:12:15Z</time>
      </trkpt>
      <trkpt lat="45.67016" lon="6.24113">
        <ele>1460.5620117188</ele>
        <time>2017-11-01T08:12:21Z</time>
      </trkpt>
      <trkpt lat="45.67018" lon="6.24107">
        <ele>1463.5620117188</ele>
        <time>2017-11-01T08:12:26Z</time>
      </trkpt>
      <trkpt lat="45.67023" lon="6.24108">
        <ele>1465.5620117188</ele>
        <time>2017-11-01T08:12:32Z</time>
      </trkpt>
      <trkpt lat="45.67028" lon="6.24109">
        <ele>1466.5620117188</ele>
        <time>2017-11-01T08:12:38Z</time>
      </trkpt>
      <trkpt lat="45.67034" lon="6.24108">
        <ele>1469.5620117188</ele>
        <time>2017-11-01T08:12:44Z</time>
      </trkpt>
      <trkpt lat="45.67038" lon="6.24104">
        <ele>1471.5620117188</ele>
        <time>2017-11-01T08:12:51Z</time>
      </trkpt>
      <trkpt lat="45.67042" lon="6.24099">
        <ele>1470.5620117188</ele>
        <time>2017-11-01T08:12:57Z</time>
      </trkpt>
      <trkpt lat="45.67046" lon="6.24094">
        <ele>1469.5620117188</ele>
        <time>2017-11-01T08:13:01Z</time>
      </trkpt>
      <trkpt lat="45.6705" lon="6.24088">
        <ele>1469.5620117188</ele>
        <time>2017-11-01T08:13:05Z</time>
      </trkpt>
      <trkpt lat="45.67053" lon="6.24083">
        <ele>1470.5620117188</ele>
        <time>2017-11-01T08:13:10Z</time>
      </trkpt>
      <trkpt lat="45.67057" lon="6.24079">
        <ele>1469.5620117188</ele>
        <time>2017-11-01T08:13:14Z</time>
      </trkpt>
      <trkpt lat="45.67059" lon="6.24072">
        <ele>1475.5620117188</ele>
        <time>2017-11-01T08:15:13Z</time>
      </trkpt>
      <trkpt lat="45.67061" lon="6.24065">
        <ele>1476.5620117188</ele>
        <time>2017-11-01T08:15:17Z</time>
      </trkpt>
      <trkpt lat="45.67065" lon="6.2406">
        <ele>1476.5620117188</ele>
        <time>2017-11-01T08:15:21Z</time>
      </trkpt>
      <trkpt lat="45.67067" lon="6.24054">
        <ele>1474.5620117188</ele>
        <time>2017-11-01T08:15:26Z</time>
      </trkpt>
      <trkpt lat="45.67071" lon="6.24048">
        <ele>1476.5620117188</ele>
        <time>2017-11-01T08:15:30Z</time>
      </trkpt>
      <trkpt lat="45.67073" lon="6.24041">
        <ele>1474.5620117188</ele>
        <time>2017-11-01T08:15:36Z</time>
      </trkpt>
      <trkpt lat="45.67076" lon="6.24035">
        <ele>1475.5620117188</ele>
        <time>2017-11-01T08:15:40Z</time>
      </trkpt>
      <trkpt lat="45.67079" lon="6.24029">
        <ele>1474.5620117188</ele>
        <time>2017-11-01T08:15:43Z</time>
      </trkpt>
      <trkpt lat="45.67085" lon="6.24023">
        <ele>1475.5620117188</ele>
        <time>2017-11-01T08:15:45Z</time>
      </trkpt>
      <trkpt lat="45.67084" lon="6.24017">
        <ele>1476.5620117188</ele>
        <time>2017-11-01T08:15:49Z</time>
      </trkpt>
      <trkpt lat="45.67087" lon="6.24011">
        <ele>1476.5620117188</ele>
        <time>2017-11-01T08:15:52Z</time>
      </trkpt>
      <trkpt lat="45.67089" lon="6.24005">
        <ele>1474.5620117188</ele>
        <time>2017-11-01T08:15:55Z</time>
      </trkpt>
      <trkpt lat="45.67087" lon="6.23997">
        <ele>1475.5620117188</ele>
        <time>2017-11-01T08:15:59Z</time>
      </trkpt>
      <trkpt lat="45.67085" lon="6.23988">
        <ele>1477.5620117188</ele>
        <time>2017-11-01T08:16:03Z</time>
      </trkpt>
      <trkpt lat="45.67084" lon="6.23979">
        <ele>1479.5620117188</ele>
        <time>2017-11-01T08:16:06Z</time>
      </trkpt>
      <trkpt lat="45.67084" lon="6.23971">
        <ele>1479.5620117188</ele>
        <time>2017-11-01T08:16:10Z</time>
      </trkpt>
      <trkpt lat="45.67086" lon="6.23964">
        <ele>1479.5620117188</ele>
        <time>2017-11-01T08:16:14Z</time>
      </trkpt>
      <trkpt lat="45.67086" lon="6.23956">
        <ele>1478.5620117188</ele>
        <time>2017-11-01T08:16:18Z</time>
      </trkpt>
      <trkpt lat="45.67087" lon="6.23949">
        <ele>1479.5620117188</ele>
        <time>2017-11-01T08:16:22Z</time>
      </trkpt>
      <trkpt lat="45.67089" lon="6.23942">
        <ele>1480.5620117188</ele>
        <time>2017-11-01T08:16:25Z</time>
      </trkpt>
      <trkpt lat="45.6709" lon="6.23936">
        <ele>1481.5620117188</ele>
        <time>2017-11-01T08:16:29Z</time>
      </trkpt>
      <trkpt lat="45.67094" lon="6.2393">
        <ele>1482.5620117188</ele>
        <time>2017-11-01T08:16:31Z</time>
      </trkpt>
      <trkpt lat="45.67097" lon="6.23923">
        <ele>1484.5620117188</ele>
        <time>2017-11-01T08:16:34Z</time>
      </trkpt>
      <trkpt lat="45.67101" lon="6.23918">
        <ele>1484.5620117188</ele>
        <time>2017-11-01T08:16:37Z</time>
      </trkpt>
      <trkpt lat="45.67101" lon="6.23911">
        <ele>1483.5620117188</ele>
        <time>2017-11-01T08:16:40Z</time>
      </trkpt>
      <trkpt lat="45.67105" lon="6.23904">
        <ele>1486.5620117188</ele>
        <time>2017-11-01T08:16:44Z</time>
      </trkpt>
      <trkpt lat="45.67107" lon="6.23897">
        <ele>1485.5620117188</ele>
        <time>2017-11-01T08:16:49Z</time>
      </trkpt>
      <trkpt lat="45.6711" lon="6.2389">
        <ele>1483.5620117188</ele>
        <time>2017-11-01T08:16:53Z</time>
      </trkpt>
      <trkpt lat="45.67115" lon="6.23886">
        <ele>1484.5620117188</ele>
        <time>2017-11-01T08:16:57Z</time>
      </trkpt>
      <trkpt lat="45.6712" lon="6.23884">
        <ele>1484.5620117188</ele>
        <time>2017-11-01T08:17:01Z</time>
      </trkpt>
      <trkpt lat="45.67125" lon="6.23882">
        <ele>1485.5620117188</ele>
        <time>2017-11-01T08:17:04Z</time>
      </trkpt>
      <trkpt lat="45.6713" lon="6.2388">
        <ele>1486.5620117188</ele>
        <time>2017-11-01T08:17:08Z</time>
      </trkpt>
      <trkpt lat="45.67137" lon="6.23877">
        <ele>1487.5620117188</ele>
        <time>2017-11-01T08:17:12Z</time>
      </trkpt>
      <trkpt lat="45.67142" lon="6.23876">
        <ele>1487.5620117188</ele>
        <time>2017-11-01T08:17:16Z</time>
      </trkpt>
      <trkpt lat="45.67147" lon="6.23875">
        <ele>1488.5620117188</ele>
        <time>2017-11-01T08:17:19Z</time>
      </trkpt>
      <trkpt lat="45.67152" lon="6.23872">
        <ele>1487.5620117188</ele>
        <time>2017-11-01T08:17:22Z</time>
      </trkpt>
      <trkpt lat="45.67157" lon="6.23871">
        <ele>1486.5620117188</ele>
        <time>2017-11-01T08:17:25Z</time>
      </trkpt>
      <trkpt lat="45.67161" lon="6.2387">
        <ele>1487.5620117188</ele>
        <time>2017-11-01T08:17:27Z</time>
      </trkpt>
      <trkpt lat="45.67167" lon="6.23869">
        <ele>1488.5620117188</ele>
        <time>2017-11-01T08:17:30Z</time>
      </trkpt>
      <trkpt lat="45.67171" lon="6.23869">
        <ele>1488.5620117188</ele>
        <time>2017-11-01T08:17:33Z</time>
      </trkpt>
      <trkpt lat="45.67176" lon="6.23867">
        <ele>1487.5620117188</ele>
        <time>2017-11-01T08:17:37Z</time>
      </trkpt>
      <trkpt lat="45.67181" lon="6.23865">
        <ele>1486.5620117188</ele>
        <time>2017-11-01T08:17:40Z</time>
      </trkpt>
      <trkpt lat="45.67186" lon="6.23864">
        <ele>1489.5620117188</ele>
        <time>2017-11-01T08:17:45Z</time>
      </trkpt>
      <trkpt lat="45.67193" lon="6.23861">
        <ele>1490.5620117188</ele>
        <time>2017-11-01T08:17:49Z</time>
      </trkpt>
      <trkpt lat="45.67197" lon="6.23859">
        <ele>1492.5620117188</ele>
        <time>2017-11-01T08:17:52Z</time>
      </trkpt>
      <trkpt lat="45.67204" lon="6.23856">
        <ele>1493.5620117188</ele>
        <time>2017-11-01T08:17:55Z</time>
      </trkpt>
      <trkpt lat="45.67208" lon="6.23854">
        <ele>1493.5620117188</ele>
        <time>2017-11-01T08:17:58Z</time>
      </trkpt>
      <trkpt lat="45.67214" lon="6.23852">
        <ele>1493.5620117188</ele>
        <time>2017-11-01T08:18:02Z</time>
      </trkpt>
      <trkpt lat="45.67219" lon="6.23852">
        <ele>1492.5620117188</ele>
        <time>2017-11-01T08:18:07Z</time>
      </trkpt>
      <trkpt lat="45.67224" lon="6.23852">
        <ele>1492.5620117188</ele>
        <time>2017-11-01T08:18:10Z</time>
      </trkpt>
      <trkpt lat="45.67229" lon="6.23853">
        <ele>1492.5620117188</ele>
        <time>2017-11-01T08:18:14Z</time>
      </trkpt>
      <trkpt lat="45.67234" lon="6.23854">
        <ele>1492.5620117188</ele>
        <time>2017-11-01T08:18:17Z</time>
      </trkpt>
      <trkpt lat="45.67239" lon="6.23854">
        <ele>1495.5620117188</ele>
        <time>2017-11-01T08:18:21Z</time>
      </trkpt>
      <trkpt lat="45.67245" lon="6.23853">
        <ele>1496.5620117188</ele>
        <time>2017-11-01T08:18:25Z</time>
      </trkpt>
      <trkpt lat="45.67251" lon="6.23854">
        <ele>1497.5620117188</ele>
        <time>2017-11-01T08:18:29Z</time>
      </trkpt>
      <trkpt lat="45.67256" lon="6.23853">
        <ele>1499.5620117188</ele>
        <time>2017-11-01T08:18:35Z</time>
      </trkpt>
      <trkpt lat="45.67261" lon="6.23849">
        <ele>1498.5620117188</ele>
        <time>2017-11-01T08:18:39Z</time>
      </trkpt>
      <trkpt lat="45.67267" lon="6.23849">
        <ele>1499.5620117188</ele>
        <time>2017-11-01T08:18:43Z</time>
      </trkpt>
      <trkpt lat="45.67273" lon="6.23848">
        <ele>1498.5620117188</ele>
        <time>2017-11-01T08:18:47Z</time>
      </trkpt>
      <trkpt lat="45.67277" lon="6.23846">
        <ele>1499.5620117188</ele>
        <time>2017-11-01T08:18:51Z</time>
      </trkpt>
      <trkpt lat="45.67283" lon="6.23846">
        <ele>1498.5620117188</ele>
        <time>2017-11-01T08:18:54Z</time>
      </trkpt>
      <trkpt lat="45.67288" lon="6.23845">
        <ele>1498.5620117188</ele>
        <time>2017-11-01T08:18:58Z</time>
      </trkpt>
      <trkpt lat="45.67293" lon="6.23846">
        <ele>1500.5620117188</ele>
        <time>2017-11-01T08:19:01Z</time>
      </trkpt>
      <trkpt lat="45.67297" lon="6.23846">
        <ele>1503.5620117188</ele>
        <time>2017-11-01T08:19:05Z</time>
      </trkpt>
      <trkpt lat="45.67302" lon="6.23844">
        <ele>1503.5620117188</ele>
        <time>2017-11-01T08:19:08Z</time>
      </trkpt>
      <trkpt lat="45.67308" lon="6.23843">
        <ele>1501.5620117188</ele>
        <time>2017-11-01T08:19:12Z</time>
      </trkpt>
      <trkpt lat="45.67314" lon="6.23842">
        <ele>1500.5620117188</ele>
        <time>2017-11-01T08:19:15Z</time>
      </trkpt>
      <trkpt lat="45.67319" lon="6.23843">
        <ele>1501.5620117188</ele>
        <time>2017-11-01T08:19:19Z</time>
      </trkpt>
      <trkpt lat="45.67324" lon="6.23845">
        <ele>1503.5620117188</ele>
        <time>2017-11-01T08:19:23Z</time>
      </trkpt>
      <trkpt lat="45.6733" lon="6.23846">
        <ele>1504.5620117188</ele>
        <time>2017-11-01T08:19:27Z</time>
      </trkpt>
      <trkpt lat="45.67336" lon="6.23846">
        <ele>1503.5620117188</ele>
        <time>2017-11-01T08:19:31Z</time>
      </trkpt>
      <trkpt lat="45.67341" lon="6.2385">
        <ele>1502.5620117188</ele>
        <time>2017-11-01T08:19:35Z</time>
      </trkpt>
      <trkpt lat="45.67346" lon="6.23853">
        <ele>1503.5620117188</ele>
        <time>2017-11-01T08:19:38Z</time>
      </trkpt>
      <trkpt lat="45.6735" lon="6.23857">
        <ele>1503.5620117188</ele>
        <time>2017-11-01T08:19:41Z</time>
      </trkpt>
      <trkpt lat="45.67355" lon="6.23862">
        <ele>1503.5620117188</ele>
        <time>2017-11-01T08:19:45Z</time>
      </trkpt>
      <trkpt lat="45.67358" lon="6.23866">
        <ele>1503.5620117188</ele>
        <time>2017-11-01T08:19:48Z</time>
      </trkpt>
      <trkpt lat="45.67363" lon="6.23868">
        <ele>1503.5620117188</ele>
        <time>2017-11-01T08:19:52Z</time>
      </trkpt>
      <trkpt lat="45.67368" lon="6.23872">
        <ele>1505.5629882812</ele>
        <time>2017-11-01T08:19:56Z</time>
      </trkpt>
      <trkpt lat="45.67372" lon="6.23874">
        <ele>1507.5629882812</ele>
        <time>2017-11-01T08:20:01Z</time>
      </trkpt>
      <trkpt lat="45.67377" lon="6.23876">
        <ele>1508.5629882812</ele>
        <time>2017-11-01T08:20:05Z</time>
      </trkpt>
      <trkpt lat="45.67382" lon="6.23881">
        <ele>1509.5629882812</ele>
        <time>2017-11-01T08:20:09Z</time>
      </trkpt>
      <trkpt lat="45.67387" lon="6.23883">
        <ele>1511.5629882812</ele>
        <time>2017-11-01T08:20:12Z</time>
      </trkpt>
      <trkpt lat="45.67391" lon="6.23885">
        <ele>1512.5629882812</ele>
        <time>2017-11-01T08:20:15Z</time>
      </trkpt>
      <trkpt lat="45.67397" lon="6.23887">
        <ele>1512.5629882812</ele>
        <time>2017-11-01T08:20:19Z</time>
      </trkpt>
      <trkpt lat="45.67402" lon="6.23891">
        <ele>1511.5629882812</ele>
        <time>2017-11-01T08:20:23Z</time>
      </trkpt>
      <trkpt lat="45.67407" lon="6.23891">
        <ele>1510.5629882812</ele>
        <time>2017-11-01T08:20:26Z</time>
      </trkpt>
      <trkpt lat="45.67412" lon="6.23893">
        <ele>1514.5629882812</ele>
        <time>2017-11-01T08:20:30Z</time>
      </trkpt>
      <trkpt lat="45.67417" lon="6.23894">
        <ele>1516.5629882812</ele>
        <time>2017-11-01T08:20:34Z</time>
      </trkpt>
      <trkpt lat="45.67422" lon="6.23894">
        <ele>1516.5629882812</ele>
        <time>2017-11-01T08:20:38Z</time>
      </trkpt>
      <trkpt lat="45.67427" lon="6.23894">
        <ele>1516.5629882812</ele>
        <time>2017-11-01T08:20:42Z</time>
      </trkpt>
      <trkpt lat="45.67432" lon="6.23894">
        <ele>1517.5629882812</ele>
        <time>2017-11-01T08:20:46Z</time>
      </trkpt>
      <trkpt lat="45.67436" lon="6.23891">
        <ele>1514.5629882812</ele>
        <time>2017-11-01T08:20:49Z</time>
      </trkpt>
      <trkpt lat="45.67441" lon="6.2389">
        <ele>1515.5629882812</ele>
        <time>2017-11-01T08:20:52Z</time>
      </trkpt>
      <trkpt lat="45.67445" lon="6.23892">
        <ele>1514.5629882812</ele>
        <time>2017-11-01T08:20:56Z</time>
      </trkpt>
      <trkpt lat="45.67452" lon="6.23892">
        <ele>1514.5629882812</ele>
        <time>2017-11-01T08:20:59Z</time>
      </trkpt>
      <trkpt lat="45.67457" lon="6.2389">
        <ele>1515.5629882812</ele>
        <time>2017-11-01T08:21:03Z</time>
      </trkpt>
      <trkpt lat="45.67463" lon="6.23892">
        <ele>1519.5629882812</ele>
        <time>2017-11-01T08:21:08Z</time>
      </trkpt>
      <trkpt lat="45.67468" lon="6.23894">
        <ele>1521.5629882812</ele>
        <time>2017-11-01T08:21:12Z</time>
      </trkpt>
      <trkpt lat="45.67473" lon="6.23894">
        <ele>1519.5629882812</ele>
        <time>2017-11-01T08:21:16Z</time>
      </trkpt>
      <trkpt lat="45.67479" lon="6.23894">
        <ele>1519.5629882812</ele>
        <time>2017-11-01T08:21:20Z</time>
      </trkpt>
      <trkpt lat="45.67484" lon="6.23894">
        <ele>1519.5629882812</ele>
        <time>2017-11-01T08:21:23Z</time>
      </trkpt>
      <trkpt lat="45.67489" lon="6.23893">
        <ele>1518.5629882812</ele>
        <time>2017-11-01T08:21:27Z</time>
      </trkpt>
      <trkpt lat="45.67494" lon="6.23895">
        <ele>1518.5629882812</ele>
        <time>2017-11-01T08:21:31Z</time>
      </trkpt>
      <trkpt lat="45.67499" lon="6.23899">
        <ele>1518.5629882812</ele>
        <time>2017-11-01T08:21:35Z</time>
      </trkpt>
      <trkpt lat="45.67502" lon="6.23905">
        <ele>1519.5629882812</ele>
        <time>2017-11-01T08:21:39Z</time>
      </trkpt>
      <trkpt lat="45.67506" lon="6.23909">
        <ele>1518.5629882812</ele>
        <time>2017-11-01T08:21:43Z</time>
      </trkpt>
      <trkpt lat="45.6751" lon="6.23914">
        <ele>1518.5629882812</ele>
        <time>2017-11-01T08:21:48Z</time>
      </trkpt>
      <trkpt lat="45.67513" lon="6.2392">
        <ele>1519.5629882812</ele>
        <time>2017-11-01T08:21:51Z</time>
      </trkpt>
      <trkpt lat="45.67517" lon="6.23925">
        <ele>1519.5629882812</ele>
        <time>2017-11-01T08:21:54Z</time>
      </trkpt>
      <trkpt lat="45.67523" lon="6.23929">
        <ele>1523.5629882812</ele>
        <time>2017-11-01T08:21:58Z</time>
      </trkpt>
      <trkpt lat="45.67527" lon="6.23931">
        <ele>1523.5629882812</ele>
        <time>2017-11-01T08:22:01Z</time>
      </trkpt>
      <trkpt lat="45.67532" lon="6.23932">
        <ele>1524.5629882812</ele>
        <time>2017-11-01T08:22:04Z</time>
      </trkpt>
      <trkpt lat="45.67537" lon="6.23936">
        <ele>1526.5629882812</ele>
        <time>2017-11-01T08:22:08Z</time>
      </trkpt>
      <trkpt lat="45.67542" lon="6.23939">
        <ele>1526.5629882812</ele>
        <time>2017-11-01T08:22:12Z</time>
      </trkpt>
      <trkpt lat="45.67546" lon="6.2394">
        <ele>1526.5629882812</ele>
        <time>2017-11-01T08:22:16Z</time>
      </trkpt>
      <trkpt lat="45.67551" lon="6.2394">
        <ele>1526.5629882812</ele>
        <time>2017-11-01T08:22:20Z</time>
      </trkpt>
      <trkpt lat="45.67556" lon="6.2394">
        <ele>1528.5629882812</ele>
        <time>2017-11-01T08:22:24Z</time>
      </trkpt>
      <trkpt lat="45.6756" lon="6.23939">
        <ele>1528.5629882812</ele>
        <time>2017-11-01T08:22:28Z</time>
      </trkpt>
      <trkpt lat="45.67566" lon="6.23938">
        <ele>1529.5629882812</ele>
        <time>2017-11-01T08:22:32Z</time>
      </trkpt>
      <trkpt lat="45.67571" lon="6.23941">
        <ele>1530.5629882812</ele>
        <time>2017-11-01T08:22:36Z</time>
      </trkpt>
      <trkpt lat="45.67576" lon="6.23942">
        <ele>1531.5629882812</ele>
        <time>2017-11-01T08:22:41Z</time>
      </trkpt>
      <trkpt lat="45.67581" lon="6.23941">
        <ele>1532.5629882812</ele>
        <time>2017-11-01T08:22:45Z</time>
      </trkpt>
      <trkpt lat="45.67587" lon="6.23942">
        <ele>1536.5629882812</ele>
        <time>2017-11-01T08:22:51Z</time>
      </trkpt>
      <trkpt lat="45.67593" lon="6.23942">
        <ele>1537.5629882812</ele>
        <time>2017-11-01T08:22:55Z</time>
      </trkpt>
      <trkpt lat="45.67598" lon="6.23941">
        <ele>1537.5629882812</ele>
        <time>2017-11-01T08:22:59Z</time>
      </trkpt>
      <trkpt lat="45.67604" lon="6.23941">
        <ele>1536.5629882812</ele>
        <time>2017-11-01T08:23:04Z</time>
      </trkpt>
      <trkpt lat="45.6761" lon="6.23941">
        <ele>1538.5629882812</ele>
        <time>2017-11-01T08:23:08Z</time>
      </trkpt>
      <trkpt lat="45.67615" lon="6.23942">
        <ele>1539.5629882812</ele>
        <time>2017-11-01T08:23:12Z</time>
      </trkpt>
      <trkpt lat="45.6762" lon="6.23944">
        <ele>1540.5629882812</ele>
        <time>2017-11-01T08:23:16Z</time>
      </trkpt>
      <trkpt lat="45.67625" lon="6.23946">
        <ele>1540.5629882812</ele>
        <time>2017-11-01T08:23:20Z</time>
      </trkpt>
      <trkpt lat="45.67629" lon="6.23946">
        <ele>1541.5629882812</ele>
        <time>2017-11-01T08:23:24Z</time>
      </trkpt>
      <trkpt lat="45.67634" lon="6.23945">
        <ele>1543.5629882812</ele>
        <time>2017-11-01T08:23:29Z</time>
      </trkpt>
      <trkpt lat="45.67639" lon="6.23945">
        <ele>1545.5629882812</ele>
        <time>2017-11-01T08:23:34Z</time>
      </trkpt>
      <trkpt lat="45.67644" lon="6.23945">
        <ele>1547.5629882812</ele>
        <time>2017-11-01T08:23:38Z</time>
      </trkpt>
      <trkpt lat="45.67649" lon="6.23945">
        <ele>1548.5629882812</ele>
        <time>2017-11-01T08:23:42Z</time>
      </trkpt>
      <trkpt lat="45.67653" lon="6.23943">
        <ele>1549.5629882812</ele>
        <time>2017-11-01T08:23:47Z</time>
      </trkpt>
      <trkpt lat="45.67658" lon="6.23945">
        <ele>1551.5629882812</ele>
        <time>2017-11-01T08:23:52Z</time>
      </trkpt>
      <trkpt lat="45.67663" lon="6.23947">
        <ele>1553.5629882812</ele>
        <time>2017-11-01T08:23:57Z</time>
      </trkpt>
      <trkpt lat="45.67669" lon="6.2395">
        <ele>1554.5629882812</ele>
        <time>2017-11-01T08:24:02Z</time>
      </trkpt>
      <trkpt lat="45.67673" lon="6.2395">
        <ele>1555.5629882812</ele>
        <time>2017-11-01T08:24:06Z</time>
      </trkpt>
      <trkpt lat="45.67679" lon="6.23952">
        <ele>1557.5629882812</ele>
        <time>2017-11-01T08:24:11Z</time>
      </trkpt>
      <trkpt lat="45.67684" lon="6.2395">
        <ele>1559.5629882812</ele>
        <time>2017-11-01T08:24:17Z</time>
      </trkpt>
      <trkpt lat="45.67688" lon="6.2395">
        <ele>1558.5629882812</ele>
        <time>2017-11-01T08:24:21Z</time>
      </trkpt>
      <trkpt lat="45.67692" lon="6.23946">
        <ele>1558.5629882812</ele>
        <time>2017-11-01T08:24:26Z</time>
      </trkpt>
      <trkpt lat="45.67697" lon="6.23942">
        <ele>1559.5629882812</ele>
        <time>2017-11-01T08:24:33Z</time>
      </trkpt>
      <trkpt lat="45.67703" lon="6.23941">
        <ele>1558.5629882812</ele>
        <time>2017-11-01T08:24:38Z</time>
      </trkpt>
      <trkpt lat="45.67708" lon="6.2394">
        <ele>1558.5629882812</ele>
        <time>2017-11-01T08:24:43Z</time>
      </trkpt>
      <trkpt lat="45.67713" lon="6.23942">
        <ele>1560.5629882812</ele>
        <time>2017-11-01T08:24:48Z</time>
      </trkpt>
      <trkpt lat="45.67718" lon="6.23941">
        <ele>1561.5629882812</ele>
        <time>2017-11-01T08:24:53Z</time>
      </trkpt>
      <trkpt lat="45.67723" lon="6.23938">
        <ele>1562.5629882812</ele>
        <time>2017-11-01T08:24:58Z</time>
      </trkpt>
      <trkpt lat="45.67728" lon="6.23937">
        <ele>1564.5629882812</ele>
        <time>2017-11-01T08:25:02Z</time>
      </trkpt>
      <trkpt lat="45.67733" lon="6.23937">
        <ele>1567.5629882812</ele>
        <time>2017-11-01T08:25:07Z</time>
      </trkpt>
      <trkpt lat="45.67738" lon="6.23938">
        <ele>1569.5629882812</ele>
        <time>2017-11-01T08:25:11Z</time>
      </trkpt>
      <trkpt lat="45.67744" lon="6.23937">
        <ele>1568.5629882812</ele>
        <time>2017-11-01T08:25:15Z</time>
      </trkpt>
      <trkpt lat="45.67749" lon="6.23937">
        <ele>1569.5629882812</ele>
        <time>2017-11-01T08:25:20Z</time>
      </trkpt>
      <trkpt lat="45.67754" lon="6.23935">
        <ele>1569.5629882812</ele>
        <time>2017-11-01T08:25:24Z</time>
      </trkpt>
      <trkpt lat="45.67759" lon="6.23934">
        <ele>1568.5629882812</ele>
        <time>2017-11-01T08:25:28Z</time>
      </trkpt>
      <trkpt lat="45.67765" lon="6.23933">
        <ele>1569.5629882812</ele>
        <time>2017-11-01T08:25:33Z</time>
      </trkpt>
      <trkpt lat="45.6777" lon="6.23934">
        <ele>1570.5629882812</ele>
        <time>2017-11-01T08:25:38Z</time>
      </trkpt>
      <trkpt lat="45.67775" lon="6.23933">
        <ele>1571.5629882812</ele>
        <time>2017-11-01T08:25:42Z</time>
      </trkpt>
      <trkpt lat="45.6778" lon="6.2393">
        <ele>1570.5629882812</ele>
        <time>2017-11-01T08:25:47Z</time>
      </trkpt>
      <trkpt lat="45.67785" lon="6.23927">
        <ele>1571.5629882812</ele>
        <time>2017-11-01T08:25:50Z</time>
      </trkpt>
      <trkpt lat="45.67789" lon="6.23924">
        <ele>1571.5629882812</ele>
        <time>2017-11-01T08:25:54Z</time>
      </trkpt>
      <trkpt lat="45.67793" lon="6.23918">
        <ele>1571.5629882812</ele>
        <time>2017-11-01T08:25:58Z</time>
      </trkpt>
      <trkpt lat="45.67798" lon="6.23916">
        <ele>1573.5629882812</ele>
        <time>2017-11-01T08:26:02Z</time>
      </trkpt>
      <trkpt lat="45.67803" lon="6.23913">
        <ele>1574.5629882812</ele>
        <time>2017-11-01T08:26:07Z</time>
      </trkpt>
      <trkpt lat="45.67807" lon="6.23909">
        <ele>1571.5629882812</ele>
        <time>2017-11-01T08:26:11Z</time>
      </trkpt>
      <trkpt lat="45.6781" lon="6.23905">
        <ele>1572.5629882812</ele>
        <time>2017-11-01T08:26:16Z</time>
      </trkpt>
      <trkpt lat="45.67815" lon="6.239">
        <ele>1573.5629882812</ele>
        <time>2017-11-01T08:26:22Z</time>
      </trkpt>
      <trkpt lat="45.67819" lon="6.23895">
        <ele>1574.5629882812</ele>
        <time>2017-11-01T08:26:27Z</time>
      </trkpt>
      <trkpt lat="45.67823" lon="6.23889">
        <ele>1577.5629882812</ele>
        <time>2017-11-01T08:26:33Z</time>
      </trkpt>
      <trkpt lat="45.67828" lon="6.23885">
        <ele>1577.5629882812</ele>
        <time>2017-11-01T08:26:37Z</time>
      </trkpt>
      <trkpt lat="45.67831" lon="6.23881">
        <ele>1576.5629882812</ele>
        <time>2017-11-01T08:26:41Z</time>
      </trkpt>
      <trkpt lat="45.67836" lon="6.23876">
        <ele>1579.5629882812</ele>
        <time>2017-11-01T08:26:46Z</time>
      </trkpt>
      <trkpt lat="45.67841" lon="6.23875">
        <ele>1578.5629882812</ele>
        <time>2017-11-01T08:26:52Z</time>
      </trkpt>
      <trkpt lat="45.67847" lon="6.23876">
        <ele>1578.5629882812</ele>
        <time>2017-11-01T08:26:58Z</time>
      </trkpt>
      <trkpt lat="45.67852" lon="6.23877">
        <ele>1579.5629882812</ele>
        <time>2017-11-01T08:27:02Z</time>
      </trkpt>
      <trkpt lat="45.67856" lon="6.23878">
        <ele>1581.5629882812</ele>
        <time>2017-11-01T08:27:06Z</time>
      </trkpt>
      <trkpt lat="45.67861" lon="6.23879">
        <ele>1583.5629882812</ele>
        <time>2017-11-01T08:27:11Z</time>
      </trkpt>
      <trkpt lat="45.67866" lon="6.23878">
        <ele>1583.5629882812</ele>
        <time>2017-11-01T08:27:14Z</time>
      </trkpt>
      <trkpt lat="45.67871" lon="6.23876">
        <ele>1583.5629882812</ele>
        <time>2017-11-01T08:27:20Z</time>
      </trkpt>
      <trkpt lat="45.67876" lon="6.23874">
        <ele>1583.5629882812</ele>
        <time>2017-11-01T08:27:23Z</time>
      </trkpt>
      <trkpt lat="45.67882" lon="6.23873">
        <ele>1583.5629882812</ele>
        <time>2017-11-01T08:27:27Z</time>
      </trkpt>
      <trkpt lat="45.67887" lon="6.23872">
        <ele>1586.5629882812</ele>
        <time>2017-11-01T08:27:30Z</time>
      </trkpt>
      <trkpt lat="45.67893" lon="6.23873">
        <ele>1587.5629882812</ele>
        <time>2017-11-01T08:27:34Z</time>
      </trkpt>
      <trkpt lat="45.67898" lon="6.23877">
        <ele>1588.5639648438</ele>
        <time>2017-11-01T08:27:38Z</time>
      </trkpt>
      <trkpt lat="45.67902" lon="6.23881">
        <ele>1589.5639648438</ele>
        <time>2017-11-01T08:27:42Z</time>
      </trkpt>
      <trkpt lat="45.67905" lon="6.23888">
        <ele>1590.5639648438</ele>
        <time>2017-11-01T08:27:45Z</time>
      </trkpt>
      <trkpt lat="45.67909" lon="6.23894">
        <ele>1590.5639648438</ele>
        <time>2017-11-01T08:27:49Z</time>
      </trkpt>
      <trkpt lat="45.67911" lon="6.239">
        <ele>1590.5639648438</ele>
        <time>2017-11-01T08:27:53Z</time>
      </trkpt>
      <trkpt lat="45.67914" lon="6.23906">
        <ele>1588.5639648438</ele>
        <time>2017-11-01T08:27:57Z</time>
      </trkpt>
      <trkpt lat="45.67917" lon="6.23913">
        <ele>1589.5639648438</ele>
        <time>2017-11-01T08:28:00Z</time>
      </trkpt>
      <trkpt lat="45.67923" lon="6.23913">
        <ele>1589.5639648438</ele>
        <time>2017-11-01T08:28:04Z</time>
      </trkpt>
      <trkpt lat="45.67927" lon="6.23909">
        <ele>1591.5639648438</ele>
        <time>2017-11-01T08:28:10Z</time>
      </trkpt>
      <trkpt lat="45.67932" lon="6.23909">
        <ele>1593.5639648438</ele>
        <time>2017-11-01T08:28:14Z</time>
      </trkpt>
      <trkpt lat="45.67938" lon="6.23908">
        <ele>1594.5639648438</ele>
        <time>2017-11-01T08:28:19Z</time>
      </trkpt>
      <trkpt lat="45.67944" lon="6.23909">
        <ele>1595.5639648438</ele>
        <time>2017-11-01T08:28:23Z</time>
      </trkpt>
      <trkpt lat="45.67949" lon="6.23911">
        <ele>1597.5639648438</ele>
        <time>2017-11-01T08:28:28Z</time>
      </trkpt>
      <trkpt lat="45.67953" lon="6.23914">
        <ele>1596.5639648438</ele>
        <time>2017-11-01T08:28:32Z</time>
      </trkpt>
      <trkpt lat="45.67957" lon="6.23919">
        <ele>1597.5639648438</ele>
        <time>2017-11-01T08:28:37Z</time>
      </trkpt>
      <trkpt lat="45.67961" lon="6.23923">
        <ele>1598.5639648438</ele>
        <time>2017-11-01T08:28:41Z</time>
      </trkpt>
      <trkpt lat="45.67966" lon="6.23923">
        <ele>1599.5639648438</ele>
        <time>2017-11-01T08:28:45Z</time>
      </trkpt>
      <trkpt lat="45.67971" lon="6.23921">
        <ele>1598.5639648438</ele>
        <time>2017-11-01T08:28:49Z</time>
      </trkpt>
      <trkpt lat="45.67976" lon="6.23919">
        <ele>1600.5639648438</ele>
        <time>2017-11-01T08:28:53Z</time>
      </trkpt>
      <trkpt lat="45.67981" lon="6.23918">
        <ele>1602.5639648438</ele>
        <time>2017-11-01T08:28:58Z</time>
      </trkpt>
      <trkpt lat="45.67986" lon="6.23921">
        <ele>1603.5639648438</ele>
        <time>2017-11-01T08:29:03Z</time>
      </trkpt>
      <trkpt lat="45.67992" lon="6.23924">
        <ele>1605.5639648438</ele>
        <time>2017-11-01T08:29:08Z</time>
      </trkpt>
      <trkpt lat="45.67996" lon="6.23927">
        <ele>1608.5639648438</ele>
        <time>2017-11-01T08:29:13Z</time>
      </trkpt>
      <trkpt lat="45.68001" lon="6.23929">
        <ele>1610.5639648438</ele>
        <time>2017-11-01T08:29:19Z</time>
      </trkpt>
      <trkpt lat="45.68005" lon="6.23933">
        <ele>1612.5639648438</ele>
        <time>2017-11-01T08:29:24Z</time>
      </trkpt>
      <trkpt lat="45.6801" lon="6.23937">
        <ele>1613.5639648438</ele>
        <time>2017-11-01T08:29:29Z</time>
      </trkpt>
      <trkpt lat="45.68015" lon="6.23939">
        <ele>1611.5639648438</ele>
        <time>2017-11-01T08:29:33Z</time>
      </trkpt>
      <trkpt lat="45.68018" lon="6.23943">
        <ele>1612.5639648438</ele>
        <time>2017-11-01T08:29:37Z</time>
      </trkpt>
      <trkpt lat="45.68024" lon="6.23945">
        <ele>1616.5639648438</ele>
        <time>2017-11-01T08:29:42Z</time>
      </trkpt>
      <trkpt lat="45.68029" lon="6.23946">
        <ele>1618.5639648438</ele>
        <time>2017-11-01T08:29:47Z</time>
      </trkpt>
      <trkpt lat="45.68033" lon="6.23949">
        <ele>1620.5639648438</ele>
        <time>2017-11-01T08:29:51Z</time>
      </trkpt>
      <trkpt lat="45.68038" lon="6.23948">
        <ele>1619.5639648438</ele>
        <time>2017-11-01T08:29:56Z</time>
      </trkpt>
      <trkpt lat="45.68043" lon="6.23947">
        <ele>1619.5639648438</ele>
        <time>2017-11-01T08:29:59Z</time>
      </trkpt>
      <trkpt lat="45.68048" lon="6.23948">
        <ele>1622.5639648438</ele>
        <time>2017-11-01T08:30:04Z</time>
      </trkpt>
      <trkpt lat="45.68053" lon="6.23947">
        <ele>1623.5639648438</ele>
        <time>2017-11-01T08:30:07Z</time>
      </trkpt>
      <trkpt lat="45.68058" lon="6.23947">
        <ele>1624.5639648438</ele>
        <time>2017-11-01T08:30:12Z</time>
      </trkpt>
      <trkpt lat="45.68063" lon="6.23947">
        <ele>1623.5639648438</ele>
        <time>2017-11-01T08:30:17Z</time>
      </trkpt>
      <trkpt lat="45.68068" lon="6.23947">
        <ele>1624.5639648438</ele>
        <time>2017-11-01T08:30:21Z</time>
      </trkpt>
      <trkpt lat="45.68073" lon="6.23946">
        <ele>1626.5639648438</ele>
        <time>2017-11-01T08:30:26Z</time>
      </trkpt>
      <trkpt lat="45.68078" lon="6.23948">
        <ele>1628.5639648438</ele>
        <time>2017-11-01T08:30:31Z</time>
      </trkpt>
      <trkpt lat="45.68081" lon="6.23951">
        <ele>1630.5639648438</ele>
        <time>2017-11-01T08:30:35Z</time>
      </trkpt>
      <trkpt lat="45.68086" lon="6.23953">
        <ele>1629.5639648438</ele>
        <time>2017-11-01T08:30:39Z</time>
      </trkpt>
      <trkpt lat="45.68091" lon="6.23956">
        <ele>1630.5639648438</ele>
        <time>2017-11-01T08:30:43Z</time>
      </trkpt>
      <trkpt lat="45.68096" lon="6.23959">
        <ele>1630.5639648438</ele>
        <time>2017-11-01T08:30:48Z</time>
      </trkpt>
      <trkpt lat="45.68099" lon="6.23963">
        <ele>1631.5639648438</ele>
        <time>2017-11-01T08:30:52Z</time>
      </trkpt>
      <trkpt lat="45.68104" lon="6.23963">
        <ele>1630.5639648438</ele>
        <time>2017-11-01T08:30:56Z</time>
      </trkpt>
      <trkpt lat="45.68108" lon="6.23968">
        <ele>1631.5639648438</ele>
        <time>2017-11-01T08:31:01Z</time>
      </trkpt>
      <trkpt lat="45.68113" lon="6.23968">
        <ele>1632.5639648438</ele>
        <time>2017-11-01T08:31:06Z</time>
      </trkpt>
      <trkpt lat="45.68118" lon="6.23967">
        <ele>1632.5639648438</ele>
        <time>2017-11-01T08:31:10Z</time>
      </trkpt>
      <trkpt lat="45.68124" lon="6.23967">
        <ele>1632.5639648438</ele>
        <time>2017-11-01T08:31:15Z</time>
      </trkpt>
      <trkpt lat="45.68129" lon="6.23968">
        <ele>1633.5639648438</ele>
        <time>2017-11-01T08:31:20Z</time>
      </trkpt>
      <trkpt lat="45.68134" lon="6.23969">
        <ele>1633.5639648438</ele>
        <time>2017-11-01T08:31:25Z</time>
      </trkpt>
      <trkpt lat="45.6814" lon="6.23971">
        <ele>1635.5639648438</ele>
        <time>2017-11-01T08:31:29Z</time>
      </trkpt>
      <trkpt lat="45.68143" lon="6.23976">
        <ele>1637.5639648438</ele>
        <time>2017-11-01T08:31:33Z</time>
      </trkpt>
      <trkpt lat="45.68148" lon="6.23979">
        <ele>1639.5639648438</ele>
        <time>2017-11-01T08:31:38Z</time>
      </trkpt>
      <trkpt lat="45.68153" lon="6.23981">
        <ele>1641.5639648438</ele>
        <time>2017-11-01T08:31:43Z</time>
      </trkpt>
      <trkpt lat="45.68157" lon="6.23985">
        <ele>1640.5639648438</ele>
        <time>2017-11-01T08:31:48Z</time>
      </trkpt>
      <trkpt lat="45.68162" lon="6.23988">
        <ele>1641.5639648438</ele>
        <time>2017-11-01T08:31:53Z</time>
      </trkpt>
      <trkpt lat="45.68167" lon="6.23989">
        <ele>1642.5639648438</ele>
        <time>2017-11-01T08:31:58Z</time>
      </trkpt>
      <trkpt lat="45.68171" lon="6.23994">
        <ele>1642.5639648438</ele>
        <time>2017-11-01T08:32:02Z</time>
      </trkpt>
      <trkpt lat="45.68175" lon="6.23996">
        <ele>1642.5639648438</ele>
        <time>2017-11-01T08:32:05Z</time>
      </trkpt>
      <trkpt lat="45.6818" lon="6.23999">
        <ele>1643.5639648438</ele>
        <time>2017-11-01T08:32:10Z</time>
      </trkpt>
      <trkpt lat="45.68185" lon="6.24">
        <ele>1643.5639648438</ele>
        <time>2017-11-01T08:32:17Z</time>
      </trkpt>
      <trkpt lat="45.68189" lon="6.24003">
        <ele>1644.5639648438</ele>
        <time>2017-11-01T08:32:22Z</time>
      </trkpt>
      <trkpt lat="45.68192" lon="6.24008">
        <ele>1645.5639648438</ele>
        <time>2017-11-01T08:32:28Z</time>
      </trkpt>
      <trkpt lat="45.68196" lon="6.24014">
        <ele>1647.5639648438</ele>
        <time>2017-11-01T08:32:32Z</time>
      </trkpt>
      <trkpt lat="45.682" lon="6.24017">
        <ele>1648.5639648438</ele>
        <time>2017-11-01T08:32:37Z</time>
      </trkpt>
      <trkpt lat="45.68205" lon="6.24019">
        <ele>1649.5639648438</ele>
        <time>2017-11-01T08:32:43Z</time>
      </trkpt>
      <trkpt lat="45.68208" lon="6.24023">
        <ele>1650.5639648438</ele>
        <time>2017-11-01T08:32:48Z</time>
      </trkpt>
      <trkpt lat="45.68213" lon="6.24026">
        <ele>1653.5639648438</ele>
        <time>2017-11-01T08:32:54Z</time>
      </trkpt>
      <trkpt lat="45.68217" lon="6.24029">
        <ele>1653.5639648438</ele>
        <time>2017-11-01T08:33:00Z</time>
      </trkpt>
      <trkpt lat="45.68221" lon="6.24033">
        <ele>1653.5639648438</ele>
        <time>2017-11-01T08:33:04Z</time>
      </trkpt>
      <trkpt lat="45.68226" lon="6.24035">
        <ele>1654.5639648438</ele>
        <time>2017-11-01T08:33:09Z</time>
      </trkpt>
      <trkpt lat="45.6823" lon="6.24036">
        <ele>1656.5639648438</ele>
        <time>2017-11-01T08:33:16Z</time>
      </trkpt>
      <trkpt lat="45.68235" lon="6.2404">
        <ele>1658.5639648438</ele>
        <time>2017-11-01T08:33:22Z</time>
      </trkpt>
      <trkpt lat="45.68241" lon="6.24039">
        <ele>1659.5639648438</ele>
        <time>2017-11-01T08:33:30Z</time>
      </trkpt>
      <trkpt lat="45.68245" lon="6.24039">
        <ele>1659.5639648438</ele>
        <time>2017-11-01T08:33:35Z</time>
      </trkpt>
      <trkpt lat="45.6825" lon="6.2404">
        <ele>1663.5639648438</ele>
        <time>2017-11-01T08:33:41Z</time>
      </trkpt>
      <trkpt lat="45.68255" lon="6.24043">
        <ele>1662.5639648438</ele>
        <time>2017-11-01T08:33:49Z</time>
      </trkpt>
      <trkpt lat="45.68261" lon="6.24041">
        <ele>1663.5639648438</ele>
        <time>2017-11-01T08:33:55Z</time>
      </trkpt>
      <trkpt lat="45.68266" lon="6.24039">
        <ele>1665.5639648438</ele>
        <time>2017-11-01T08:34:02Z</time>
      </trkpt>
      <trkpt lat="45.68271" lon="6.2404">
        <ele>1665.5639648438</ele>
        <time>2017-11-01T08:34:08Z</time>
      </trkpt>
      <trkpt lat="45.68275" lon="6.24041">
        <ele>1665.5639648438</ele>
        <time>2017-11-01T08:34:16Z</time>
      </trkpt>
      <trkpt lat="45.6828" lon="6.24044">
        <ele>1665.5639648438</ele>
        <time>2017-11-01T08:34:21Z</time>
      </trkpt>
      <trkpt lat="45.68285" lon="6.24045">
        <ele>1666.5639648438</ele>
        <time>2017-11-01T08:34:25Z</time>
      </trkpt>
      <trkpt lat="45.6829" lon="6.24047">
        <ele>1667.5639648438</ele>
        <time>2017-11-01T08:34:29Z</time>
      </trkpt>
      <trkpt lat="45.68294" lon="6.24051">
        <ele>1669.5639648438</ele>
        <time>2017-11-01T08:34:34Z</time>
      </trkpt>
      <trkpt lat="45.68299" lon="6.24051">
        <ele>1671.5639648438</ele>
        <time>2017-11-01T08:34:40Z</time>
      </trkpt>
      <trkpt lat="45.68304" lon="6.24053">
        <ele>1671.5639648438</ele>
        <time>2017-11-01T08:34:43Z</time>
      </trkpt>
      <trkpt lat="45.68309" lon="6.24055">
        <ele>1672.5639648438</ele>
        <time>2017-11-01T08:34:47Z</time>
      </trkpt>
      <trkpt lat="45.68313" lon="6.24058">
        <ele>1675.5639648438</ele>
        <time>2017-11-01T08:34:52Z</time>
      </trkpt>
      <trkpt lat="45.68318" lon="6.24059">
        <ele>1674.5649414062</ele>
        <time>2017-11-01T08:34:56Z</time>
      </trkpt>
      <trkpt lat="45.68323" lon="6.2406">
        <ele>1674.5649414062</ele>
        <time>2017-11-01T08:34:59Z</time>
      </trkpt>
      <trkpt lat="45.68327" lon="6.24057">
        <ele>1674.5649414062</ele>
        <time>2017-11-01T08:35:05Z</time>
      </trkpt>
      <trkpt lat="45.68332" lon="6.24057">
        <ele>1675.5649414062</ele>
        <time>2017-11-01T08:35:11Z</time>
      </trkpt>
      <trkpt lat="45.68337" lon="6.24061">
        <ele>1678.5649414062</ele>
        <time>2017-11-01T08:35:16Z</time>
      </trkpt>
      <trkpt lat="45.68341" lon="6.24065">
        <ele>1679.5649414062</ele>
        <time>2017-11-01T08:35:21Z</time>
      </trkpt>
      <trkpt lat="45.68346" lon="6.24066">
        <ele>1680.5649414062</ele>
        <time>2017-11-01T08:35:27Z</time>
      </trkpt>
      <trkpt lat="45.68352" lon="6.24067">
        <ele>1682.5649414062</ele>
        <time>2017-11-01T08:35:32Z</time>
      </trkpt>
      <trkpt lat="45.68355" lon="6.24072">
        <ele>1684.5649414062</ele>
        <time>2017-11-01T08:35:36Z</time>
      </trkpt>
      <trkpt lat="45.6836" lon="6.24073">
        <ele>1685.5649414062</ele>
        <time>2017-11-01T08:35:41Z</time>
      </trkpt>
      <trkpt lat="45.68365" lon="6.24075">
        <ele>1686.5649414062</ele>
        <time>2017-11-01T08:35:48Z</time>
      </trkpt>
      <trkpt lat="45.6837" lon="6.24074">
        <ele>1688.5649414062</ele>
        <time>2017-11-01T08:35:55Z</time>
      </trkpt>
      <trkpt lat="45.68375" lon="6.24072">
        <ele>1688.5649414062</ele>
        <time>2017-11-01T08:36:00Z</time>
      </trkpt>
      <trkpt lat="45.68381" lon="6.24072">
        <ele>1688.5649414062</ele>
        <time>2017-11-01T08:36:03Z</time>
      </trkpt>
      <trkpt lat="45.68388" lon="6.2407">
        <ele>1687.5649414062</ele>
        <time>2017-11-01T08:36:11Z</time>
      </trkpt>
      <trkpt lat="45.68393" lon="6.24069">
        <ele>1686.5649414062</ele>
        <time>2017-11-01T08:36:15Z</time>
      </trkpt>
      <trkpt lat="45.68398" lon="6.24066">
        <ele>1690.5649414062</ele>
        <time>2017-11-01T08:36:21Z</time>
      </trkpt>
      <trkpt lat="45.68403" lon="6.24064">
        <ele>1696.5649414062</ele>
        <time>2017-11-01T08:36:30Z</time>
      </trkpt>
      <trkpt lat="45.68407" lon="6.24061">
        <ele>1697.5649414062</ele>
        <time>2017-11-01T08:36:33Z</time>
      </trkpt>
      <trkpt lat="45.68411" lon="6.24057">
        <ele>1701.5649414062</ele>
        <time>2017-11-01T08:36:37Z</time>
      </trkpt>
      <trkpt lat="45.68414" lon="6.24053">
        <ele>1702.5649414062</ele>
        <time>2017-11-01T08:36:40Z</time>
      </trkpt>
      <trkpt lat="45.68418" lon="6.24049">
        <ele>1701.5649414062</ele>
        <time>2017-11-01T08:36:44Z</time>
      </trkpt>
      <trkpt lat="45.68422" lon="6.24044">
        <ele>1701.5649414062</ele>
        <time>2017-11-01T08:36:48Z</time>
      </trkpt>
      <trkpt lat="45.68426" lon="6.24039">
        <ele>1701.5649414062</ele>
        <time>2017-11-01T08:36:53Z</time>
      </trkpt>
      <trkpt lat="45.6843" lon="6.24035">
        <ele>1703.5649414062</ele>
        <time>2017-11-01T08:36:57Z</time>
      </trkpt>
      <trkpt lat="45.68435" lon="6.24031">
        <ele>1704.5649414062</ele>
        <time>2017-11-01T08:37:01Z</time>
      </trkpt>
      <trkpt lat="45.68438" lon="6.24026">
        <ele>1706.5649414062</ele>
        <time>2017-11-01T08:37:07Z</time>
      </trkpt>
      <trkpt lat="45.68442" lon="6.24022">
        <ele>1708.5649414062</ele>
        <time>2017-11-01T08:37:16Z</time>
      </trkpt>
      <trkpt lat="45.68445" lon="6.24018">
        <ele>1708.5649414062</ele>
        <time>2017-11-01T08:37:20Z</time>
      </trkpt>
      <trkpt lat="45.68449" lon="6.24012">
        <ele>1708.5649414062</ele>
        <time>2017-11-01T08:37:27Z</time>
      </trkpt>
      <trkpt lat="45.68451" lon="6.24007">
        <ele>1711.5649414062</ele>
        <time>2017-11-01T08:37:35Z</time>
      </trkpt>
      <trkpt lat="45.68455" lon="6.24003">
        <ele>1714.5649414062</ele>
        <time>2017-11-01T08:37:39Z</time>
      </trkpt>
      <trkpt lat="45.68459" lon="6.23998">
        <ele>1713.5649414062</ele>
        <time>2017-11-01T08:37:46Z</time>
      </trkpt>
      <trkpt lat="45.68462" lon="6.23992">
        <ele>1717.5649414062</ele>
        <time>2017-11-01T08:37:53Z</time>
      </trkpt>
      <trkpt lat="45.68467" lon="6.23988">
        <ele>1719.5649414062</ele>
        <time>2017-11-01T08:38:01Z</time>
      </trkpt>
      <trkpt lat="45.68471" lon="6.23986">
        <ele>1719.5649414062</ele>
        <time>2017-11-01T08:38:06Z</time>
      </trkpt>
      <trkpt lat="45.68475" lon="6.23983">
        <ele>1719.5649414062</ele>
        <time>2017-11-01T08:38:12Z</time>
      </trkpt>
      <trkpt lat="45.6848" lon="6.23981">
        <ele>1719.5649414062</ele>
        <time>2017-11-01T08:38:17Z</time>
      </trkpt>
      <trkpt lat="45.68484" lon="6.23977">
        <ele>1722.5649414062</ele>
        <time>2017-11-01T08:38:26Z</time>
      </trkpt>
      <trkpt lat="45.68489" lon="6.23976">
        <ele>1720.5649414062</ele>
        <time>2017-11-01T08:38:30Z</time>
      </trkpt>
      <trkpt lat="45.68493" lon="6.23972">
        <ele>1723.5649414062</ele>
        <time>2017-11-01T08:38:38Z</time>
      </trkpt>
      <trkpt lat="45.68497" lon="6.23968">
        <ele>1724.5649414062</ele>
        <time>2017-11-01T08:38:46Z</time>
      </trkpt>
      <trkpt lat="45.68502" lon="6.23968">
        <ele>1729.5649414062</ele>
        <time>2017-11-01T08:38:56Z</time>
      </trkpt>
      <trkpt lat="45.68507" lon="6.23967">
        <ele>1732.5649414062</ele>
        <time>2017-11-01T08:39:01Z</time>
      </trkpt>
      <trkpt lat="45.68512" lon="6.23968">
        <ele>1734.5649414062</ele>
        <time>2017-11-01T08:39:08Z</time>
      </trkpt>
      <trkpt lat="45.68517" lon="6.23968">
        <ele>1736.5649414062</ele>
        <time>2017-11-01T08:39:13Z</time>
      </trkpt>
      <trkpt lat="45.68522" lon="6.23967">
        <ele>1739.5649414062</ele>
        <time>2017-11-01T08:39:22Z</time>
      </trkpt>
      <trkpt lat="45.68526" lon="6.23963">
        <ele>1741.5649414062</ele>
        <time>2017-11-01T08:39:30Z</time>
      </trkpt>
      <trkpt lat="45.6853" lon="6.23959">
        <ele>1742.5649414062</ele>
        <time>2017-11-01T08:39:43Z</time>
      </trkpt>
      <trkpt lat="45.68526" lon="6.23953">
        <ele>1747.5649414062</ele>
        <time>2017-11-01T08:43:28Z</time>
      </trkpt>
      <trkpt lat="45.68524" lon="6.23945">
        <ele>1746.5649414062</ele>
        <time>2017-11-01T08:43:33Z</time>
      </trkpt>
      <trkpt lat="45.68523" lon="6.23936">
        <ele>1745.5649414062</ele>
        <time>2017-11-01T08:43:37Z</time>
      </trkpt>
      <trkpt lat="45.68522" lon="6.23929">
        <ele>1748.5649414062</ele>
        <time>2017-11-01T08:43:41Z</time>
      </trkpt>
      <trkpt lat="45.6852" lon="6.23922">
        <ele>1750.5649414062</ele>
        <time>2017-11-01T08:43:45Z</time>
      </trkpt>
      <trkpt lat="45.68522" lon="6.23915">
        <ele>1751.5649414062</ele>
        <time>2017-11-01T08:43:49Z</time>
      </trkpt>
      <trkpt lat="45.68523" lon="6.23908">
        <ele>1752.5649414062</ele>
        <time>2017-11-01T08:43:53Z</time>
      </trkpt>
      <trkpt lat="45.68524" lon="6.23899">
        <ele>1749.5649414062</ele>
        <time>2017-11-01T08:43:58Z</time>
      </trkpt>
      <trkpt lat="45.68525" lon="6.23892">
        <ele>1749.5649414062</ele>
        <time>2017-11-01T08:44:02Z</time>
      </trkpt>
      <trkpt lat="45.68527" lon="6.23885">
        <ele>1749.5649414062</ele>
        <time>2017-11-01T08:44:06Z</time>
      </trkpt>
      <trkpt lat="45.68528" lon="6.23878">
        <ele>1749.5649414062</ele>
        <time>2017-11-01T08:44:11Z</time>
      </trkpt>
      <trkpt lat="45.68525" lon="6.23872">
        <ele>1749.5649414062</ele>
        <time>2017-11-01T08:44:15Z</time>
      </trkpt>
      <trkpt lat="45.68522" lon="6.23866">
        <ele>1749.5649414062</ele>
        <time>2017-11-01T08:44:20Z</time>
      </trkpt>
      <trkpt lat="45.6852" lon="6.2386">
        <ele>1749.5649414062</ele>
        <time>2017-11-01T08:44:22Z</time>
      </trkpt>
      <trkpt lat="45.68517" lon="6.23854">
        <ele>1748.5649414062</ele>
        <time>2017-11-01T08:44:26Z</time>
      </trkpt>
      <trkpt lat="45.68513" lon="6.23848">
        <ele>1751.5649414062</ele>
        <time>2017-11-01T08:44:30Z</time>
      </trkpt>
      <trkpt lat="45.6851" lon="6.23842">
        <ele>1749.5649414062</ele>
        <time>2017-11-01T08:44:35Z</time>
      </trkpt>
      <trkpt lat="45.68507" lon="6.23838">
        <ele>1749.5649414062</ele>
        <time>2017-11-01T08:44:44Z</time>
      </trkpt>
      <trkpt lat="45.68503" lon="6.23831">
        <ele>1750.5649414062</ele>
        <time>2017-11-01T08:44:50Z</time>
      </trkpt>
      <trkpt lat="45.685" lon="6.23823">
        <ele>1752.5649414062</ele>
        <time>2017-11-01T08:44:54Z</time>
      </trkpt>
      <trkpt lat="45.68498" lon="6.23816">
        <ele>1754.5649414062</ele>
        <time>2017-11-01T08:44:57Z</time>
      </trkpt>
      <trkpt lat="45.68495" lon="6.23809">
        <ele>1758.5649414062</ele>
        <time>2017-11-01T08:45:02Z</time>
      </trkpt>
      <trkpt lat="45.68492" lon="6.23804">
        <ele>1757.5649414062</ele>
        <time>2017-11-01T08:45:05Z</time>
      </trkpt>
      <trkpt lat="45.68487" lon="6.23799">
        <ele>1756.5649414062</ele>
        <time>2017-11-01T08:45:11Z</time>
      </trkpt>
      <trkpt lat="45.68483" lon="6.23795">
        <ele>1757.5649414062</ele>
        <time>2017-11-01T08:45:16Z</time>
      </trkpt>
      <trkpt lat="45.6848" lon="6.2379">
        <ele>1759.5649414062</ele>
        <time>2017-11-01T08:45:21Z</time>
      </trkpt>
      <trkpt lat="45.68479" lon="6.23783">
        <ele>1759.5639648438</ele>
        <time>2017-11-01T08:45:27Z</time>
      </trkpt>
      <trkpt lat="45.68475" lon="6.23779">
        <ele>1757.5639648438</ele>
        <time>2017-11-01T08:45:30Z</time>
      </trkpt>
      <trkpt lat="45.6847" lon="6.23774">
        <ele>1760.5639648438</ele>
        <time>2017-11-01T08:45:34Z</time>
      </trkpt>
      <trkpt lat="45.68466" lon="6.23769">
        <ele>1761.5639648438</ele>
        <time>2017-11-01T08:45:39Z</time>
      </trkpt>
      <trkpt lat="45.68461" lon="6.23766">
        <ele>1764.5639648438</ele>
        <time>2017-11-01T08:45:43Z</time>
      </trkpt>
      <trkpt lat="45.68457" lon="6.23761">
        <ele>1767.5639648438</ele>
        <time>2017-11-01T08:45:45Z</time>
      </trkpt>
      <trkpt lat="45.68454" lon="6.23756">
        <ele>1764.5639648438</ele>
        <time>2017-11-01T08:45:52Z</time>
      </trkpt>
      <trkpt lat="45.68451" lon="6.23749">
        <ele>1762.5639648438</ele>
        <time>2017-11-01T08:45:57Z</time>
      </trkpt>
      <trkpt lat="45.68448" lon="6.23742">
        <ele>1763.5639648438</ele>
        <time>2017-11-01T08:46:05Z</time>
      </trkpt>
      <trkpt lat="45.68445" lon="6.23737">
        <ele>1765.5639648438</ele>
        <time>2017-11-01T08:46:10Z</time>
      </trkpt>
      <trkpt lat="45.6844" lon="6.23735">
        <ele>1769.5639648438</ele>
        <time>2017-11-01T08:46:13Z</time>
      </trkpt>
      <trkpt lat="45.68435" lon="6.23732">
        <ele>1771.5639648438</ele>
        <time>2017-11-01T08:46:18Z</time>
      </trkpt>
      <trkpt lat="45.68431" lon="6.23728">
        <ele>1775.5639648438</ele>
        <time>2017-11-01T08:46:21Z</time>
      </trkpt>
      <trkpt lat="45.68426" lon="6.23729">
        <ele>1776.5639648438</ele>
        <time>2017-11-01T08:46:28Z</time>
      </trkpt>
      <trkpt lat="45.6842" lon="6.23724">
        <ele>1779.5639648438</ele>
        <time>2017-11-01T08:46:33Z</time>
      </trkpt>
      <trkpt lat="45.68415" lon="6.23725">
        <ele>1780.5639648438</ele>
        <time>2017-11-01T08:46:39Z</time>
      </trkpt>
      <trkpt lat="45.68411" lon="6.23722">
        <ele>1778.5639648438</ele>
        <time>2017-11-01T08:46:43Z</time>
      </trkpt>
      <trkpt lat="45.68403" lon="6.23719">
        <ele>1780.5639648438</ele>
        <time>2017-11-01T08:46:46Z</time>
      </trkpt>
      <trkpt lat="45.68399" lon="6.23716">
        <ele>1777.5639648438</ele>
        <time>2017-11-01T08:46:51Z</time>
      </trkpt>
      <trkpt lat="45.68395" lon="6.2371">
        <ele>1777.5639648438</ele>
        <time>2017-11-01T08:46:56Z</time>
      </trkpt>
      <trkpt lat="45.68391" lon="6.23706">
        <ele>1780.5639648438</ele>
        <time>2017-11-01T08:47:07Z</time>
      </trkpt>
      <trkpt lat="45.68388" lon="6.23702">
        <ele>1781.5639648438</ele>
        <time>2017-11-01T08:47:10Z</time>
      </trkpt>
      <trkpt lat="45.68385" lon="6.23695">
        <ele>1783.5639648438</ele>
        <time>2017-11-01T08:47:14Z</time>
      </trkpt>
      <trkpt lat="45.68382" lon="6.23689">
        <ele>1778.5639648438</ele>
        <time>2017-11-01T08:47:19Z</time>
      </trkpt>
      <trkpt lat="45.68381" lon="6.23683">
        <ele>1774.5639648438</ele>
        <time>2017-11-01T08:47:21Z</time>
      </trkpt>
      <trkpt lat="45.68378" lon="6.23677">
        <ele>1773.5639648438</ele>
        <time>2017-11-01T08:47:25Z</time>
      </trkpt>
      <trkpt lat="45.68376" lon="6.2367">
        <ele>1774.5639648438</ele>
        <time>2017-11-01T08:47:30Z</time>
      </trkpt>
      <trkpt lat="45.68371" lon="6.23665">
        <ele>1775.5639648438</ele>
        <time>2017-11-01T08:47:33Z</time>
      </trkpt>
      <trkpt lat="45.68369" lon="6.23659">
        <ele>1775.5639648438</ele>
        <time>2017-11-01T08:47:37Z</time>
      </trkpt>
      <trkpt lat="45.68364" lon="6.23655">
        <ele>1776.5639648438</ele>
        <time>2017-11-01T08:47:41Z</time>
      </trkpt>
      <trkpt lat="45.6836" lon="6.23651">
        <ele>1777.5639648438</ele>
        <time>2017-11-01T08:47:45Z</time>
      </trkpt>
      <trkpt lat="45.68356" lon="6.23651">
        <ele>1775.5639648438</ele>
        <time>2017-11-01T08:47:50Z</time>
      </trkpt>
      <trkpt lat="45.68351" lon="6.23646">
        <ele>1776.5639648438</ele>
        <time>2017-11-01T08:47:54Z</time>
      </trkpt>
      <trkpt lat="45.68346" lon="6.23643">
        <ele>1776.5639648438</ele>
        <time>2017-11-01T08:47:58Z</time>
      </trkpt>
      <trkpt lat="45.68342" lon="6.23639">
        <ele>1777.5639648438</ele>
        <time>2017-11-01T08:48:02Z</time>
      </trkpt>
      <trkpt lat="45.6834" lon="6.23632">
        <ele>1780.5639648438</ele>
        <time>2017-11-01T08:48:06Z</time>
      </trkpt>
      <trkpt lat="45.68333" lon="6.23631">
        <ele>1782.5639648438</ele>
        <time>2017-11-01T08:48:10Z</time>
      </trkpt>
      <trkpt lat="45.68327" lon="6.2363">
        <ele>1784.5639648438</ele>
        <time>2017-11-01T08:48:14Z</time>
      </trkpt>
      <trkpt lat="45.68323" lon="6.23626">
        <ele>1787.5639648438</ele>
        <time>2017-11-01T08:48:17Z</time>
      </trkpt>
      <trkpt lat="45.68318" lon="6.23625">
        <ele>1783.5639648438</ele>
        <time>2017-11-01T08:48:21Z</time>
      </trkpt>
      <trkpt lat="45.68313" lon="6.23623">
        <ele>1779.5639648438</ele>
        <time>2017-11-01T08:48:26Z</time>
      </trkpt>
      <trkpt lat="45.68308" lon="6.23619">
        <ele>1780.5639648438</ele>
        <time>2017-11-01T08:48:28Z</time>
      </trkpt>
      <trkpt lat="45.68302" lon="6.23618">
        <ele>1782.5639648438</ele>
        <time>2017-11-01T08:48:31Z</time>
      </trkpt>
      <trkpt lat="45.68296" lon="6.23618">
        <ele>1781.5639648438</ele>
        <time>2017-11-01T08:48:34Z</time>
      </trkpt>
      <trkpt lat="45.68291" lon="6.23614">
        <ele>1780.5639648438</ele>
        <time>2017-11-01T08:48:37Z</time>
      </trkpt>
      <trkpt lat="45.68286" lon="6.23616">
        <ele>1782.5639648438</ele>
        <time>2017-11-01T08:48:44Z</time>
      </trkpt>
      <trkpt lat="45.68281" lon="6.23609">
        <ele>1779.5639648438</ele>
        <time>2017-11-01T08:48:49Z</time>
      </trkpt>
      <trkpt lat="45.68278" lon="6.23605">
        <ele>1779.5639648438</ele>
        <time>2017-11-01T08:48:51Z</time>
      </trkpt>
      <trkpt lat="45.68274" lon="6.236">
        <ele>1781.5639648438</ele>
        <time>2017-11-01T08:48:55Z</time>
      </trkpt>
      <trkpt lat="45.68272" lon="6.23594">
        <ele>1780.5639648438</ele>
        <time>2017-11-01T08:48:59Z</time>
      </trkpt>
      <trkpt lat="45.6827" lon="6.23586">
        <ele>1779.5639648438</ele>
        <time>2017-11-01T08:49:03Z</time>
      </trkpt>
      <trkpt lat="45.68272" lon="6.2358">
        <ele>1781.5639648438</ele>
        <time>2017-11-01T08:49:09Z</time>
      </trkpt>
      <trkpt lat="45.6827" lon="6.23573">
        <ele>1778.5639648438</ele>
        <time>2017-11-01T08:49:15Z</time>
      </trkpt>
      <trkpt lat="45.68265" lon="6.23569">
        <ele>1777.5639648438</ele>
        <time>2017-11-01T08:49:19Z</time>
      </trkpt>
      <trkpt lat="45.68263" lon="6.23561">
        <ele>1777.5639648438</ele>
        <time>2017-11-01T08:49:24Z</time>
      </trkpt>
      <trkpt lat="45.68262" lon="6.23555">
        <ele>1778.5639648438</ele>
        <time>2017-11-01T08:49:27Z</time>
      </trkpt>
      <trkpt lat="45.68262" lon="6.23548">
        <ele>1781.5639648438</ele>
        <time>2017-11-01T08:49:31Z</time>
      </trkpt>
      <trkpt lat="45.68267" lon="6.23544">
        <ele>1781.5639648438</ele>
        <time>2017-11-01T08:49:35Z</time>
      </trkpt>
      <trkpt lat="45.68268" lon="6.23537">
        <ele>1783.5639648438</ele>
        <time>2017-11-01T08:49:38Z</time>
      </trkpt>
      <trkpt lat="45.68266" lon="6.2353">
        <ele>1784.5639648438</ele>
        <time>2017-11-01T08:49:43Z</time>
      </trkpt>
      <trkpt lat="45.68262" lon="6.23525">
        <ele>1786.5639648438</ele>
        <time>2017-11-01T08:49:47Z</time>
      </trkpt>
      <trkpt lat="45.68259" lon="6.23518">
        <ele>1789.5639648438</ele>
        <time>2017-11-01T08:49:54Z</time>
      </trkpt>
      <trkpt lat="45.68255" lon="6.23513">
        <ele>1789.5639648438</ele>
        <time>2017-11-01T08:49:58Z</time>
      </trkpt>
      <trkpt lat="45.68251" lon="6.23508">
        <ele>1786.5639648438</ele>
        <time>2017-11-01T08:50:02Z</time>
      </trkpt>
      <trkpt lat="45.68248" lon="6.23503">
        <ele>1785.5639648438</ele>
        <time>2017-11-01T08:50:07Z</time>
      </trkpt>
      <trkpt lat="45.68246" lon="6.23495">
        <ele>1788.5639648438</ele>
        <time>2017-11-01T08:50:12Z</time>
      </trkpt>
      <trkpt lat="45.68242" lon="6.23491">
        <ele>1788.5639648438</ele>
        <time>2017-11-01T08:50:17Z</time>
      </trkpt>
      <trkpt lat="45.68238" lon="6.23486">
        <ele>1788.5639648438</ele>
        <time>2017-11-01T08:50:21Z</time>
      </trkpt>
      <trkpt lat="45.68235" lon="6.2348">
        <ele>1787.5639648438</ele>
        <time>2017-11-01T08:50:26Z</time>
      </trkpt>
      <trkpt lat="45.68232" lon="6.23473">
        <ele>1790.5639648438</ele>
        <time>2017-11-01T08:50:30Z</time>
      </trkpt>
      <trkpt lat="45.68227" lon="6.23468">
        <ele>1795.5639648438</ele>
        <time>2017-11-01T08:50:36Z</time>
      </trkpt>
      <trkpt lat="45.68224" lon="6.23463">
        <ele>1797.5639648438</ele>
        <time>2017-11-01T08:50:40Z</time>
      </trkpt>
      <trkpt lat="45.6822" lon="6.23457">
        <ele>1799.5639648438</ele>
        <time>2017-11-01T08:50:44Z</time>
      </trkpt>
      <trkpt lat="45.68216" lon="6.23452">
        <ele>1800.5639648438</ele>
        <time>2017-11-01T08:50:49Z</time>
      </trkpt>
      <trkpt lat="45.68212" lon="6.23447">
        <ele>1801.5639648438</ele>
        <time>2017-11-01T08:50:53Z</time>
      </trkpt>
      <trkpt lat="45.68209" lon="6.2344">
        <ele>1805.5639648438</ele>
        <time>2017-11-01T08:50:57Z</time>
      </trkpt>
      <trkpt lat="45.68212" lon="6.23434">
        <ele>1807.5639648438</ele>
        <time>2017-11-01T08:51:02Z</time>
      </trkpt>
      <trkpt lat="45.68209" lon="6.23428">
        <ele>1809.5639648438</ele>
        <time>2017-11-01T08:51:10Z</time>
      </trkpt>
      <trkpt lat="45.68206" lon="6.23423">
        <ele>1808.5639648438</ele>
        <time>2017-11-01T08:51:19Z</time>
      </trkpt>
      <trkpt lat="45.68203" lon="6.23418">
        <ele>1813.5639648438</ele>
        <time>2017-11-01T08:51:23Z</time>
      </trkpt>
      <trkpt lat="45.68201" lon="6.23411">
        <ele>1820.5639648438</ele>
        <time>2017-11-01T08:53:36Z</time>
      </trkpt>
      <trkpt lat="45.68203" lon="6.23405">
        <ele>1823.5639648438</ele>
        <time>2017-11-01T08:53:54Z</time>
      </trkpt>
      <trkpt lat="45.68207" lon="6.23405">
        <ele>1825.5639648438</ele>
        <time>2017-11-01T08:54:02Z</time>
      </trkpt>
      <trkpt lat="45.68211" lon="6.234">
        <ele>1829.5639648438</ele>
        <time>2017-11-01T08:54:17Z</time>
      </trkpt>
      <trkpt lat="45.68211" lon="6.23394">
        <ele>1832.5639648438</ele>
        <time>2017-11-01T08:54:25Z</time>
      </trkpt>
      <trkpt lat="45.6821" lon="6.23387">
        <ele>1831.5639648438</ele>
        <time>2017-11-01T08:54:32Z</time>
      </trkpt>
      <trkpt lat="45.68215" lon="6.23388">
        <ele>1832.5639648438</ele>
        <time>2017-11-01T08:54:42Z</time>
      </trkpt>
      <trkpt lat="45.68219" lon="6.23386">
        <ele>1833.5639648438</ele>
        <time>2017-11-01T08:54:49Z</time>
      </trkpt>
      <trkpt lat="45.68218" lon="6.23378">
        <ele>1838.5639648438</ele>
        <time>2017-11-01T08:55:10Z</time>
      </trkpt>
      <trkpt lat="45.68215" lon="6.23372">
        <ele>1846.5639648438</ele>
        <time>2017-11-01T08:55:34Z</time>
      </trkpt>
      <trkpt lat="45.68211" lon="6.23369">
        <ele>1853.5639648438</ele>
        <time>2017-11-01T08:55:42Z</time>
      </trkpt>
      <trkpt lat="45.68211" lon="6.23362">
        <ele>1855.5629882812</ele>
        <time>2017-11-01T08:56:01Z</time>
      </trkpt>
      <trkpt lat="45.6821" lon="6.23355">
        <ele>1862.5629882812</ele>
        <time>2017-11-01T08:56:05Z</time>
      </trkpt>
      <trkpt lat="45.68212" lon="6.23349">
        <ele>1860.5629882812</ele>
        <time>2017-11-01T08:56:11Z</time>
      </trkpt>
      <trkpt lat="45.68214" lon="6.23343">
        <ele>1860.5629882812</ele>
        <time>2017-11-01T08:56:18Z</time>
      </trkpt>
      <trkpt lat="45.68218" lon="6.23339">
        <ele>1868.5629882812</ele>
        <time>2017-11-01T08:56:31Z</time>
      </trkpt>
      <trkpt lat="45.68219" lon="6.23332">
        <ele>1871.5629882812</ele>
        <time>2017-11-01T08:56:47Z</time>
      </trkpt>
      <trkpt lat="45.68216" lon="6.23326">
        <ele>1872.5629882812</ele>
        <time>2017-11-01T08:56:53Z</time>
      </trkpt>
      <trkpt lat="45.68218" lon="6.2332">
        <ele>1875.5629882812</ele>
        <time>2017-11-01T08:57:03Z</time>
      </trkpt>
      <trkpt lat="45.6822" lon="6.23314">
        <ele>1877.5629882812</ele>
        <time>2017-11-01T08:57:09Z</time>
      </trkpt>
      <trkpt lat="45.68222" lon="6.23308">
        <ele>1879.5629882812</ele>
        <time>2017-11-01T08:57:22Z</time>
      </trkpt>
      <trkpt lat="45.68223" lon="6.23301">
        <ele>1880.5629882812</ele>
        <time>2017-11-01T08:57:30Z</time>
      </trkpt>
      <trkpt lat="45.68226" lon="6.23297">
        <ele>1883.5629882812</ele>
        <time>2017-11-01T08:57:42Z</time>
      </trkpt>
      <trkpt lat="45.68232" lon="6.23293">
        <ele>1879.5629882812</ele>
        <time>2017-11-01T08:57:47Z</time>
      </trkpt>
      <trkpt lat="45.68231" lon="6.23284">
        <ele>1878.5629882812</ele>
        <time>2017-11-01T08:58:05Z</time>
      </trkpt>
      <trkpt lat="45.68229" lon="6.23278">
        <ele>1884.5629882812</ele>
        <time>2017-11-01T08:58:21Z</time>
      </trkpt>
      <trkpt lat="45.68228" lon="6.23272">
        <ele>1885.5629882812</ele>
        <time>2017-11-01T08:58:27Z</time>
      </trkpt>
      <trkpt lat="45.68224" lon="6.2327">
        <ele>1886.5629882812</ele>
        <time>2017-11-01T08:58:32Z</time>
      </trkpt>
      <trkpt lat="45.68224" lon="6.23263">
        <ele>1889.5629882812</ele>
        <time>2017-11-01T08:58:41Z</time>
      </trkpt>
      <trkpt lat="45.6822" lon="6.23259">
        <ele>1899.5629882812</ele>
        <time>2017-11-01T08:59:00Z</time>
      </trkpt>
      <trkpt lat="45.68217" lon="6.23255">
        <ele>1902.5629882812</ele>
        <time>2017-11-01T08:59:21Z</time>
      </trkpt>
      <trkpt lat="45.68213" lon="6.23251">
        <ele>1903.5629882812</ele>
        <time>2017-11-01T08:59:23Z</time>
      </trkpt>
      <trkpt lat="45.68214" lon="6.23244">
        <ele>1904.5629882812</ele>
        <time>2017-11-01T08:59:29Z</time>
      </trkpt>
      <trkpt lat="45.68213" lon="6.23235">
        <ele>1897.5629882812</ele>
        <time>2017-11-01T08:59:34Z</time>
      </trkpt>
      <trkpt lat="45.68209" lon="6.23233">
        <ele>1906.5629882812</ele>
        <time>2017-11-01T08:59:58Z</time>
      </trkpt>
      <trkpt lat="45.68205" lon="6.23229">
        <ele>1907.5629882812</ele>
        <time>2017-11-01T09:00:08Z</time>
      </trkpt>
      <trkpt lat="45.682" lon="6.23221">
        <ele>1917.5629882812</ele>
        <time>2017-11-01T09:00:27Z</time>
      </trkpt>
      <trkpt lat="45.682" lon="6.23215">
        <ele>1921.5629882812</ele>
        <time>2017-11-01T09:00:35Z</time>
      </trkpt>
      <trkpt lat="45.68197" lon="6.2321">
        <ele>1919.5629882812</ele>
        <time>2017-11-01T09:00:45Z</time>
      </trkpt>
      <trkpt lat="45.68194" lon="6.23205">
        <ele>1923.5629882812</ele>
        <time>2017-11-01T09:00:54Z</time>
      </trkpt>
      <trkpt lat="45.68191" lon="6.23199">
        <ele>1926.5629882812</ele>
        <time>2017-11-01T09:01:10Z</time>
      </trkpt>
      <trkpt lat="45.68193" lon="6.23192">
        <ele>1925.5629882812</ele>
        <time>2017-11-01T09:01:15Z</time>
      </trkpt>
      <trkpt lat="45.68193" lon="6.23186">
        <ele>1930.5629882812</ele>
        <time>2017-11-01T09:01:23Z</time>
      </trkpt>
      <trkpt lat="45.68196" lon="6.2318">
        <ele>1940.5629882812</ele>
        <time>2017-11-01T09:01:50Z</time>
      </trkpt>
      <trkpt lat="45.68199" lon="6.23174">
        <ele>1940.5629882812</ele>
        <time>2017-11-01T09:02:04Z</time>
      </trkpt>
      <trkpt lat="45.68195" lon="6.23168">
        <ele>1944.5629882812</ele>
        <time>2017-11-01T09:02:14Z</time>
      </trkpt>
      <trkpt lat="45.68193" lon="6.23162">
        <ele>1946.5629882812</ele>
        <time>2017-11-01T09:02:24Z</time>
      </trkpt>
      <trkpt lat="45.68198" lon="6.23159">
        <ele>1950.5629882812</ele>
        <time>2017-11-01T09:02:51Z</time>
      </trkpt>
      <trkpt lat="45.68202" lon="6.23158">
        <ele>1956.5629882812</ele>
        <time>2017-11-01T09:03:15Z</time>
      </trkpt>
      <trkpt lat="45.68207" lon="6.23158">
        <ele>1964.5629882812</ele>
        <time>2017-11-01T09:03:31Z</time>
      </trkpt>
      <trkpt lat="45.68207" lon="6.23151">
        <ele>1965.5629882812</ele>
        <time>2017-11-01T09:03:39Z</time>
      </trkpt>
      <trkpt lat="45.68206" lon="6.23144">
        <ele>1968.5629882812</ele>
        <time>2017-11-01T09:03:48Z</time>
      </trkpt>
      <trkpt lat="45.68208" lon="6.23138">
        <ele>1970.5629882812</ele>
        <time>2017-11-01T09:03:53Z</time>
      </trkpt>
      <trkpt lat="45.68208" lon="6.23131">
        <ele>1971.5629882812</ele>
        <time>2017-11-01T09:04:21Z</time>
      </trkpt>
      <trkpt lat="45.68204" lon="6.23124">
        <ele>1973.5629882812</ele>
        <time>2017-11-01T09:04:31Z</time>
      </trkpt>
      <trkpt lat="45.68205" lon="6.23117">
        <ele>1982.5629882812</ele>
        <time>2017-11-01T09:04:42Z</time>
      </trkpt>
      <trkpt lat="45.682" lon="6.23112">
        <ele>1987.5629882812</ele>
        <time>2017-11-01T09:05:00Z</time>
      </trkpt>
      <trkpt lat="45.68199" lon="6.23106">
        <ele>1988.5629882812</ele>
        <time>2017-11-01T09:05:12Z</time>
      </trkpt>
      <trkpt lat="45.68199" lon="6.23099">
        <ele>2000.5629882812</ele>
        <time>2017-11-01T09:05:44Z</time>
      </trkpt>
      <trkpt lat="45.68194" lon="6.23098">
        <ele>2001.5629882812</ele>
        <time>2017-11-01T09:05:51Z</time>
      </trkpt>
      <trkpt lat="45.6819" lon="6.23095">
        <ele>2001.5629882812</ele>
        <time>2017-11-01T09:05:56Z</time>
      </trkpt>
      <trkpt lat="45.68186" lon="6.23091">
        <ele>2002.5629882812</ele>
        <time>2017-11-01T09:06:03Z</time>
      </trkpt>
      <trkpt lat="45.68181" lon="6.23088">
        <ele>2009.5629882812</ele>
        <time>2017-11-01T09:06:24Z</time>
      </trkpt>
      <trkpt lat="45.68177" lon="6.23084">
        <ele>2009.5629882812</ele>
        <time>2017-11-01T09:06:40Z</time>
      </trkpt>
      <trkpt lat="45.68174" lon="6.23079">
        <ele>2012.5629882812</ele>
        <time>2017-11-01T09:06:52Z</time>
      </trkpt>
      <trkpt lat="45.68171" lon="6.23072">
        <ele>2013.5629882812</ele>
        <time>2017-11-01T09:07:02Z</time>
      </trkpt>
      <trkpt lat="45.68175" lon="6.23066">
        <ele>2017.5629882812</ele>
        <time>2017-11-01T09:07:40Z</time>
      </trkpt>
      <trkpt lat="45.6818" lon="6.23065">
        <ele>2017.5629882812</ele>
        <time>2017-11-01T09:07:46Z</time>
      </trkpt>
      <trkpt lat="45.68184" lon="6.23062">
        <ele>2018.5629882812</ele>
        <time>2017-11-01T09:07:52Z</time>
      </trkpt>
      <trkpt lat="45.68189" lon="6.23058">
        <ele>2022.5629882812</ele>
        <time>2017-11-01T09:08:00Z</time>
      </trkpt>
      <trkpt lat="45.68194" lon="6.23058">
        <ele>2024.5629882812</ele>
        <time>2017-11-01T09:08:07Z</time>
      </trkpt>
      <trkpt lat="45.68197" lon="6.23053">
        <ele>2029.5629882812</ele>
        <time>2017-11-01T09:08:20Z</time>
      </trkpt>
      <trkpt lat="45.68193" lon="6.23049">
        <ele>2029.5629882812</ele>
        <time>2017-11-01T09:08:29Z</time>
      </trkpt>
      <trkpt lat="45.68189" lon="6.23046">
        <ele>2030.5629882812</ele>
        <time>2017-11-01T09:08:38Z</time>
      </trkpt>
      <trkpt lat="45.68184" lon="6.23042">
        <ele>2033.5629882812</ele>
        <time>2017-11-01T09:08:45Z</time>
      </trkpt>
      <trkpt lat="45.68189" lon="6.23038">
        <ele>2036.5629882812</ele>
        <time>2017-11-01T09:08:51Z</time>
      </trkpt>
      <trkpt lat="45.68188" lon="6.23032">
        <ele>2042.5629882812</ele>
        <time>2017-11-01T09:09:18Z</time>
      </trkpt>
      <trkpt lat="45.68191" lon="6.23027">
        <ele>2042.5629882812</ele>
        <time>2017-11-01T09:09:33Z</time>
      </trkpt>
      <trkpt lat="45.68192" lon="6.23021">
        <ele>2044.5629882812</ele>
        <time>2017-11-01T09:09:48Z</time>
      </trkpt>
      <trkpt lat="45.68191" lon="6.23015">
        <ele>2046.5629882812</ele>
        <time>2017-11-01T09:10:00Z</time>
      </trkpt>
      <trkpt lat="45.68194" lon="6.2301">
        <ele>2049.5629882812</ele>
        <time>2017-11-01T09:10:15Z</time>
      </trkpt>
      <trkpt lat="45.68194" lon="6.23002">
        <ele>2050.5629882812</ele>
        <time>2017-11-01T09:10:21Z</time>
      </trkpt>
      <trkpt lat="45.68198" lon="6.23002">
        <ele>2060.5629882812</ele>
        <time>2017-11-01T09:10:24Z</time>
      </trkpt>
      <trkpt lat="45.68203" lon="6.23003">
        <ele>2061.5629882812</ele>
        <time>2017-11-01T09:10:28Z</time>
      </trkpt>
      <trkpt lat="45.68207" lon="6.22999">
        <ele>2061.5629882812</ele>
        <time>2017-11-01T09:10:44Z</time>
      </trkpt>
      <trkpt lat="45.68207" lon="6.22992">
        <ele>2062.5629882812</ele>
        <time>2017-11-01T09:11:19Z</time>
      </trkpt>
      <trkpt lat="45.68204" lon="6.22985">
        <ele>2063.5629882812</ele>
        <time>2017-11-01T09:11:38Z</time>
      </trkpt>
      <trkpt lat="45.68202" lon="6.2298">
        <ele>2070.5629882812</ele>
        <time>2017-11-01T09:11:54Z</time>
      </trkpt>
      <trkpt lat="45.68196" lon="6.22981">
        <ele>2074.5629882812</ele>
        <time>2017-11-01T09:12:30Z</time>
      </trkpt>
      <trkpt lat="45.68194" lon="6.22975">
        <ele>2075.5629882812</ele>
        <time>2017-11-01T09:13:14Z</time>
      </trkpt>
      <trkpt lat="45.68191" lon="6.22969">
        <ele>2089.5629882812</ele>
        <time>2017-11-01T09:13:59Z</time>
      </trkpt>
      <trkpt lat="45.68187" lon="6.22966">
        <ele>2090.5629882812</ele>
        <time>2017-11-01T09:14:11Z</time>
      </trkpt>
      <trkpt lat="45.68183" lon="6.22962">
        <ele>2096.5629882812</ele>
        <time>2017-11-01T09:14:22Z</time>
      </trkpt>
      <trkpt lat="45.68183" lon="6.22953">
        <ele>2092.5629882812</ele>
        <time>2017-11-01T09:14:32Z</time>
      </trkpt>
      <trkpt lat="45.68182" lon="6.22945">
        <ele>2092.5629882812</ele>
        <time>2017-11-01T09:15:11Z</time>
      </trkpt>
      <trkpt lat="45.68179" lon="6.22941">
        <ele>2112.5629882812</ele>
        <time>2017-11-01T09:16:10Z</time>
      </trkpt>
      <trkpt lat="45.68179" lon="6.22934">
        <ele>2113.5629882812</ele>
        <time>2017-11-01T09:16:44Z</time>
      </trkpt>
      <trkpt lat="45.68178" lon="6.22927">
        <ele>2122.5629882812</ele>
        <time>2017-11-01T09:17:08Z</time>
      </trkpt>
      <trkpt lat="45.68177" lon="6.2292">
        <ele>2127.5629882812</ele>
        <time>2017-11-01T09:17:50Z</time>
      </trkpt>
      <trkpt lat="45.68175" lon="6.22914">
        <ele>2134.5629882812</ele>
        <time>2017-11-01T09:18:19Z</time>
      </trkpt>
      <trkpt lat="45.68172" lon="6.22909">
        <ele>2133.5629882812</ele>
        <time>2017-11-01T09:18:47Z</time>
      </trkpt>
      <trkpt lat="45.6817" lon="6.22903">
        <ele>2139.5629882812</ele>
        <time>2017-11-01T09:19:02Z</time>
      </trkpt>
      <trkpt lat="45.68167" lon="6.22897">
        <ele>2140.5629882812</ele>
        <time>2017-11-01T09:19:15Z</time>
      </trkpt>
      <trkpt lat="45.68165" lon="6.22892">
        <ele>2142.5629882812</ele>
        <time>2017-11-01T09:19:27Z</time>
      </trkpt>
      <trkpt lat="45.68165" lon="6.22884">
        <ele>2150.5629882812</ele>
        <time>2017-11-01T09:19:48Z</time>
      </trkpt>
      <trkpt lat="45.68161" lon="6.2288">
        <ele>2154.5629882812</ele>
        <time>2017-11-01T09:20:01Z</time>
      </trkpt>
      <trkpt lat="45.68157" lon="6.22876">
        <ele>2154.5629882812</ele>
        <time>2017-11-01T09:20:15Z</time>
      </trkpt>
      <trkpt lat="45.68152" lon="6.22872">
        <ele>2158.5629882812</ele>
        <time>2017-11-01T09:20:28Z</time>
      </trkpt>
      <trkpt lat="45.68149" lon="6.22868">
        <ele>2160.5629882812</ele>
        <time>2017-11-01T09:20:40Z</time>
      </trkpt>
      <trkpt lat="45.68149" lon="6.22861">
        <ele>2163.5629882812</ele>
        <time>2017-11-01T09:20:50Z</time>
      </trkpt>
      <trkpt lat="45.68146" lon="6.22856">
        <ele>2166.5629882812</ele>
        <time>2017-11-01T09:21:01Z</time>
      </trkpt>
      <trkpt lat="45.68143" lon="6.2285">
        <ele>2170.5629882812</ele>
        <time>2017-11-01T09:21:14Z</time>
      </trkpt>
      <trkpt lat="45.68141" lon="6.22845">
        <ele>2174.5629882812</ele>
        <time>2017-11-01T09:21:29Z</time>
      </trkpt>
      <trkpt lat="45.68137" lon="6.2284">
        <ele>2176.5629882812</ele>
        <time>2017-11-01T09:21:44Z</time>
      </trkpt>
      <trkpt lat="45.68136" lon="6.22833">
        <ele>2176.5629882812</ele>
        <time>2017-11-01T09:22:01Z</time>
      </trkpt>
      <trkpt lat="45.68133" lon="6.22828">
        <ele>2185.5629882812</ele>
        <time>2017-11-01T09:22:36Z</time>
      </trkpt>
      <trkpt lat="45.68132" lon="6.22821">
        <ele>2190.5629882812</ele>
        <time>2017-11-01T09:23:07Z</time>
      </trkpt>
      <trkpt lat="45.68134" lon="6.22815">
        <ele>2194.5629882812</ele>
        <time>2017-11-01T09:23:27Z</time>
      </trkpt>
      <trkpt lat="45.68132" lon="6.22809">
        <ele>2202.5629882812</ele>
        <time>2017-11-01T09:24:11Z</time>
      </trkpt>
      <trkpt lat="45.68136" lon="6.22805">
        <ele>2207.5629882812</ele>
        <time>2017-11-01T09:24:34Z</time>
      </trkpt>
      <trkpt lat="45.68141" lon="6.22805">
        <ele>2209.5629882812</ele>
        <time>2017-11-01T09:25:01Z</time>
      </trkpt>
      <trkpt lat="45.68145" lon="6.22805">
        <ele>2211.5629882812</ele>
        <time>2017-11-01T09:25:10Z</time>
      </trkpt>
      <trkpt lat="45.6815" lon="6.22806">
        <ele>2214.5629882812</ele>
        <time>2017-11-01T09:25:23Z</time>
      </trkpt>
      <trkpt lat="45.68155" lon="6.22807">
        <ele>2213.5629882812</ele>
        <time>2017-11-01T09:25:31Z</time>
      </trkpt>
      <trkpt lat="45.68159" lon="6.22805">
        <ele>2217.5629882812</ele>
        <time>2017-11-01T09:25:48Z</time>
      </trkpt>
      <trkpt lat="45.68164" lon="6.22804">
        <ele>2222.5629882812</ele>
        <time>2017-11-01T09:26:00Z</time>
      </trkpt>
      <trkpt lat="45.68168" lon="6.22806">
        <ele>2220.5629882812</ele>
        <time>2017-11-01T09:26:10Z</time>
      </trkpt>
      <trkpt lat="45.68172" lon="6.2281">
        <ele>2221.5629882812</ele>
        <time>2017-11-01T09:26:57Z</time>
      </trkpt>
      <trkpt lat="45.68173" lon="6.22817">
        <ele>2219.5629882812</ele>
        <time>2017-11-01T09:27:05Z</time>
      </trkpt>
      <trkpt lat="45.68177" lon="6.2282">
        <ele>2219.5629882812</ele>
        <time>2017-11-01T09:27:18Z</time>
      </trkpt>
      <trkpt lat="45.68173" lon="6.22817">
        <ele>2220.5629882812</ele>
        <time>2017-11-01T09:28:01Z</time>
      </trkpt>
      <trkpt lat="45.68171" lon="6.22811">
        <ele>2220.5629882812</ele>
        <time>2017-11-01T09:34:55Z</time>
      </trkpt>
      <trkpt lat="45.68166" lon="6.22812">
        <ele>2217.5629882812</ele>
        <time>2017-11-01T09:36:43Z</time>
      </trkpt>
      <trkpt lat="45.68161" lon="6.2281">
        <ele>2216.5629882812</ele>
        <time>2017-11-01T09:36:50Z</time>
      </trkpt>
      <trkpt lat="45.68157" lon="6.22814">
        <ele>2212.5629882812</ele>
        <time>2017-11-01T09:37:16Z</time>
      </trkpt>
      <trkpt lat="45.68153" lon="6.22817">
        <ele>2211.5629882812</ele>
        <time>2017-11-01T09:37:33Z</time>
      </trkpt>
      <trkpt lat="45.68149" lon="6.22822">
        <ele>2207.5629882812</ele>
        <time>2017-11-01T09:37:55Z</time>
      </trkpt>
      <trkpt lat="45.68144" lon="6.22822">
        <ele>2199.5629882812</ele>
        <time>2017-11-01T09:38:07Z</time>
      </trkpt>
      <trkpt lat="45.68139" lon="6.22822">
        <ele>2193.5629882812</ele>
        <time>2017-11-01T09:38:53Z</time>
      </trkpt>
      <trkpt lat="45.68135" lon="6.22824">
        <ele>2188.5629882812</ele>
        <time>2017-11-01T09:39:02Z</time>
      </trkpt>
      <trkpt lat="45.6813" lon="6.22825">
        <ele>2187.5629882812</ele>
        <time>2017-11-01T09:39:31Z</time>
      </trkpt>
      <trkpt lat="45.68126" lon="6.2283">
        <ele>2184.5629882812</ele>
        <time>2017-11-01T09:39:44Z</time>
      </trkpt>
      <trkpt lat="45.6813" lon="6.22836">
        <ele>2186.5629882812</ele>
        <time>2017-11-01T09:40:03Z</time>
      </trkpt>
      <trkpt lat="45.68135" lon="6.22839">
        <ele>2183.5629882812</ele>
        <time>2017-11-01T09:40:10Z</time>
      </trkpt>
      <trkpt lat="45.6814" lon="6.22842">
        <ele>2183.5629882812</ele>
        <time>2017-11-01T09:40:14Z</time>
      </trkpt>
      <trkpt lat="45.68141" lon="6.22848">
        <ele>2181.5629882812</ele>
        <time>2017-11-01T09:40:20Z</time>
      </trkpt>
      <trkpt lat="45.68145" lon="6.22852">
        <ele>2176.5629882812</ele>
        <time>2017-11-01T09:40:29Z</time>
      </trkpt>
      <trkpt lat="45.68147" lon="6.22859">
        <ele>2173.5629882812</ele>
        <time>2017-11-01T09:40:35Z</time>
      </trkpt>
      <trkpt lat="45.68141" lon="6.22866">
        <ele>2170.5629882812</ele>
        <time>2017-11-01T09:40:41Z</time>
      </trkpt>
      <trkpt lat="45.68136" lon="6.22871">
        <ele>2171.5629882812</ele>
        <time>2017-11-01T09:40:44Z</time>
      </trkpt>
      <trkpt lat="45.68138" lon="6.22878">
        <ele>2166.5629882812</ele>
        <time>2017-11-01T09:40:52Z</time>
      </trkpt>
      <trkpt lat="45.68142" lon="6.22879">
        <ele>2164.5629882812</ele>
        <time>2017-11-01T09:40:58Z</time>
      </trkpt>
      <trkpt lat="45.68144" lon="6.22886">
        <ele>2161.5629882812</ele>
        <time>2017-11-01T09:41:06Z</time>
      </trkpt>
      <trkpt lat="45.68149" lon="6.2289">
        <ele>2161.5629882812</ele>
        <time>2017-11-01T09:41:12Z</time>
      </trkpt>
      <trkpt lat="45.68155" lon="6.22892">
        <ele>2160.5629882812</ele>
        <time>2017-11-01T09:41:18Z</time>
      </trkpt>
      <trkpt lat="45.68159" lon="6.22896">
        <ele>2155.5629882812</ele>
        <time>2017-11-01T09:41:25Z</time>
      </trkpt>
      <trkpt lat="45.68164" lon="6.22898">
        <ele>2153.5629882812</ele>
        <time>2017-11-01T09:41:30Z</time>
      </trkpt>
      <trkpt lat="45.6816" lon="6.22901">
        <ele>2145.5629882812</ele>
        <time>2017-11-01T09:41:41Z</time>
      </trkpt>
      <trkpt lat="45.68163" lon="6.22905">
        <ele>2144.5629882812</ele>
        <time>2017-11-01T09:41:48Z</time>
      </trkpt>
      <trkpt lat="45.68164" lon="6.22912">
        <ele>2138.5629882812</ele>
        <time>2017-11-01T09:42:11Z</time>
      </trkpt>
      <trkpt lat="45.68162" lon="6.22918">
        <ele>2133.5629882812</ele>
        <time>2017-11-01T09:42:23Z</time>
      </trkpt>
      <trkpt lat="45.68167" lon="6.2292">
        <ele>2131.5629882812</ele>
        <time>2017-11-01T09:42:33Z</time>
      </trkpt>
      <trkpt lat="45.68162" lon="6.22924">
        <ele>2119.5629882812</ele>
        <time>2017-11-01T09:42:54Z</time>
      </trkpt>
      <trkpt lat="45.68163" lon="6.22932">
        <ele>2117.5629882812</ele>
        <time>2017-11-01T09:43:04Z</time>
      </trkpt>
      <trkpt lat="45.68167" lon="6.22935">
        <ele>2115.5629882812</ele>
        <time>2017-11-01T09:43:12Z</time>
      </trkpt>
      <trkpt lat="45.68171" lon="6.2294">
        <ele>2112.5629882812</ele>
        <time>2017-11-01T09:43:26Z</time>
      </trkpt>
      <trkpt lat="45.68174" lon="6.22946">
        <ele>2110.5629882812</ele>
        <time>2017-11-01T09:43:34Z</time>
      </trkpt>
      <trkpt lat="45.68175" lon="6.22952">
        <ele>2107.5629882812</ele>
        <time>2017-11-01T09:43:39Z</time>
      </trkpt>
      <trkpt lat="45.6818" lon="6.22954">
        <ele>2105.5629882812</ele>
        <time>2017-11-01T09:43:52Z</time>
      </trkpt>
      <trkpt lat="45.68181" lon="6.22961">
        <ele>2100.5629882812</ele>
        <time>2017-11-01T09:44:05Z</time>
      </trkpt>
      <trkpt lat="45.68186" lon="6.22965">
        <ele>2100.5629882812</ele>
        <time>2017-11-01T09:44:08Z</time>
      </trkpt>
      <trkpt lat="45.6819" lon="6.22967">
        <ele>2098.5629882812</ele>
        <time>2017-11-01T09:44:14Z</time>
      </trkpt>
      <trkpt lat="45.68194" lon="6.22971">
        <ele>2093.5629882812</ele>
        <time>2017-11-01T09:44:27Z</time>
      </trkpt>
      <trkpt lat="45.68198" lon="6.22975">
        <ele>2081.5629882812</ele>
        <time>2017-11-01T09:45:10Z</time>
      </trkpt>
      <trkpt lat="45.68201" lon="6.22981">
        <ele>2075.5629882812</ele>
        <time>2017-11-01T09:45:42Z</time>
      </trkpt>
      <trkpt lat="45.68204" lon="6.22986">
        <ele>2073.5629882812</ele>
        <time>2017-11-01T09:46:00Z</time>
      </trkpt>
      <trkpt lat="45.68206" lon="6.22992">
        <ele>2072.5629882812</ele>
        <time>2017-11-01T09:46:58Z</time>
      </trkpt>
      <trkpt lat="45.68208" lon="6.22999">
        <ele>2065.5629882812</ele>
        <time>2017-11-01T09:47:19Z</time>
      </trkpt>
      <trkpt lat="45.68203" lon="6.22999">
        <ele>2061.5629882812</ele>
        <time>2017-11-01T09:47:25Z</time>
      </trkpt>
      <trkpt lat="45.68199" lon="6.23001">
        <ele>2059.5629882812</ele>
        <time>2017-11-01T09:47:30Z</time>
      </trkpt>
      <trkpt lat="45.68195" lon="6.23005">
        <ele>2059.5629882812</ele>
        <time>2017-11-01T09:47:33Z</time>
      </trkpt>
      <trkpt lat="45.68193" lon="6.23011">
        <ele>2055.5629882812</ele>
        <time>2017-11-01T09:47:50Z</time>
      </trkpt>
      <trkpt lat="45.68189" lon="6.23016">
        <ele>2053.5629882812</ele>
        <time>2017-11-01T09:48:02Z</time>
      </trkpt>
      <trkpt lat="45.68194" lon="6.23017">
        <ele>2053.5629882812</ele>
        <time>2017-11-01T09:48:12Z</time>
      </trkpt>
      <trkpt lat="45.68191" lon="6.23024">
        <ele>2049.5629882812</ele>
        <time>2017-11-01T09:48:22Z</time>
      </trkpt>
      <trkpt lat="45.68186" lon="6.23025">
        <ele>2044.5629882812</ele>
        <time>2017-11-01T09:48:40Z</time>
      </trkpt>
      <trkpt lat="45.68189" lon="6.2303">
        <ele>2043.5629882812</ele>
        <time>2017-11-01T09:48:50Z</time>
      </trkpt>
      <trkpt lat="45.68188" lon="6.23036">
        <ele>2041.5629882812</ele>
        <time>2017-11-01T09:49:00Z</time>
      </trkpt>
      <trkpt lat="45.68183" lon="6.23039">
        <ele>2040.5629882812</ele>
        <time>2017-11-01T09:49:05Z</time>
      </trkpt>
      <trkpt lat="45.68188" lon="6.2304">
        <ele>2041.5629882812</ele>
        <time>2017-11-01T09:49:16Z</time>
      </trkpt>
      <trkpt lat="45.68191" lon="6.23045">
        <ele>2038.5629882812</ele>
        <time>2017-11-01T09:49:24Z</time>
      </trkpt>
      <trkpt lat="45.68199" lon="6.23047">
        <ele>2037.5629882812</ele>
        <time>2017-11-01T09:49:35Z</time>
      </trkpt>
      <trkpt lat="45.68197" lon="6.23054">
        <ele>2032.5629882812</ele>
        <time>2017-11-01T09:49:56Z</time>
      </trkpt>
      <trkpt lat="45.68193" lon="6.23058">
        <ele>2029.5629882812</ele>
        <time>2017-11-01T09:50:05Z</time>
      </trkpt>
      <trkpt lat="45.68188" lon="6.2306">
        <ele>2027.5629882812</ele>
        <time>2017-11-01T09:50:11Z</time>
      </trkpt>
      <trkpt lat="45.68184" lon="6.23063">
        <ele>2025.5629882812</ele>
        <time>2017-11-01T09:50:18Z</time>
      </trkpt>
      <trkpt lat="45.68179" lon="6.23065">
        <ele>2025.5629882812</ele>
        <time>2017-11-01T09:50:27Z</time>
      </trkpt>
      <trkpt lat="45.68175" lon="6.23064">
        <ele>2024.5629882812</ele>
        <time>2017-11-01T09:50:38Z</time>
      </trkpt>
      <trkpt lat="45.68171" lon="6.23067">
        <ele>2026.5629882812</ele>
        <time>2017-11-01T09:50:53Z</time>
      </trkpt>
      <trkpt lat="45.68171" lon="6.23074">
        <ele>2019.5629882812</ele>
        <time>2017-11-01T09:51:15Z</time>
      </trkpt>
      <trkpt lat="45.68173" lon="6.2308">
        <ele>2014.5629882812</ele>
        <time>2017-11-01T09:51:32Z</time>
      </trkpt>
      <trkpt lat="45.68177" lon="6.23086">
        <ele>2012.5629882812</ele>
        <time>2017-11-01T09:51:47Z</time>
      </trkpt>
      <trkpt lat="45.6818" lon="6.2309">
        <ele>2011.5629882812</ele>
        <time>2017-11-01T09:52:02Z</time>
      </trkpt>
      <trkpt lat="45.68185" lon="6.23094">
        <ele>2011.5629882812</ele>
        <time>2017-11-01T09:52:07Z</time>
      </trkpt>
      <trkpt lat="45.6819" lon="6.23096">
        <ele>2012.5629882812</ele>
        <time>2017-11-01T09:52:10Z</time>
      </trkpt>
      <trkpt lat="45.68193" lon="6.23101">
        <ele>2005.5629882812</ele>
        <time>2017-11-01T09:52:45Z</time>
      </trkpt>
      <trkpt lat="45.68197" lon="6.23104">
        <ele>2003.5629882812</ele>
        <time>2017-11-01T09:53:06Z</time>
      </trkpt>
      <trkpt lat="45.68201" lon="6.23108">
        <ele>1997.5629882812</ele>
        <time>2017-11-01T09:53:25Z</time>
      </trkpt>
      <trkpt lat="45.68205" lon="6.23114">
        <ele>1996.5629882812</ele>
        <time>2017-11-01T09:53:34Z</time>
      </trkpt>
      <trkpt lat="45.68204" lon="6.23121">
        <ele>1993.5629882812</ele>
        <time>2017-11-01T09:53:42Z</time>
      </trkpt>
      <trkpt lat="45.68208" lon="6.23125">
        <ele>1992.5629882812</ele>
        <time>2017-11-01T09:53:50Z</time>
      </trkpt>
      <trkpt lat="45.68205" lon="6.2313">
        <ele>1987.5629882812</ele>
        <time>2017-11-01T09:54:01Z</time>
      </trkpt>
      <trkpt lat="45.68208" lon="6.23135">
        <ele>1984.5629882812</ele>
        <time>2017-11-01T09:54:08Z</time>
      </trkpt>
      <trkpt lat="45.68207" lon="6.23143">
        <ele>1978.5629882812</ele>
        <time>2017-11-01T09:54:18Z</time>
      </trkpt>
      <trkpt lat="45.68212" lon="6.23147">
        <ele>1979.5629882812</ele>
        <time>2017-11-01T09:54:24Z</time>
      </trkpt>
      <trkpt lat="45.68211" lon="6.23153">
        <ele>1976.5629882812</ele>
        <time>2017-11-01T09:54:28Z</time>
      </trkpt>
      <trkpt lat="45.68207" lon="6.23154">
        <ele>1970.5629882812</ele>
        <time>2017-11-01T09:54:34Z</time>
      </trkpt>
      <trkpt lat="45.68202" lon="6.23156">
        <ele>1965.5629882812</ele>
        <time>2017-11-01T09:54:42Z</time>
      </trkpt>
      <trkpt lat="45.68198" lon="6.23157">
        <ele>1961.5629882812</ele>
        <time>2017-11-01T09:54:53Z</time>
      </trkpt>
      <trkpt lat="45.68193" lon="6.23158">
        <ele>1955.5629882812</ele>
        <time>2017-11-01T09:55:08Z</time>
      </trkpt>
      <trkpt lat="45.68188" lon="6.23157">
        <ele>1955.5629882812</ele>
        <time>2017-11-01T09:55:16Z</time>
      </trkpt>
      <trkpt lat="45.6819" lon="6.23163">
        <ele>1951.5629882812</ele>
        <time>2017-11-01T09:55:35Z</time>
      </trkpt>
      <trkpt lat="45.68194" lon="6.23165">
        <ele>1953.5629882812</ele>
        <time>2017-11-01T09:55:49Z</time>
      </trkpt>
      <trkpt lat="45.68196" lon="6.23171">
        <ele>1952.5629882812</ele>
        <time>2017-11-01T09:55:58Z</time>
      </trkpt>
      <trkpt lat="45.68198" lon="6.23164">
        <ele>1953.5629882812</ele>
        <time>2017-11-01T09:56:00Z</time>
      </trkpt>
      <trkpt lat="45.68198" lon="6.23173">
        <ele>1951.5629882812</ele>
        <time>2017-11-01T09:56:05Z</time>
      </trkpt>
      <trkpt lat="45.68197" lon="6.23179">
        <ele>1948.5629882812</ele>
        <time>2017-11-01T09:56:18Z</time>
      </trkpt>
      <trkpt lat="45.68202" lon="6.23181">
        <ele>1946.5629882812</ele>
        <time>2017-11-01T09:56:39Z</time>
      </trkpt>
      <trkpt lat="45.682" lon="6.23187">
        <ele>1942.5629882812</ele>
        <time>2017-11-01T09:56:42Z</time>
      </trkpt>
      <trkpt lat="45.68196" lon="6.2319">
        <ele>1940.5629882812</ele>
        <time>2017-11-01T09:56:49Z</time>
      </trkpt>
      <trkpt lat="45.68193" lon="6.23196">
        <ele>1936.5629882812</ele>
        <time>2017-11-01T09:56:59Z</time>
      </trkpt>
      <trkpt lat="45.68192" lon="6.23203">
        <ele>1934.5629882812</ele>
        <time>2017-11-01T09:57:05Z</time>
      </trkpt>
      <trkpt lat="45.68197" lon="6.23208">
        <ele>1931.5629882812</ele>
        <time>2017-11-01T09:57:18Z</time>
      </trkpt>
      <trkpt lat="45.68195" lon="6.23216">
        <ele>1928.5629882812</ele>
        <time>2017-11-01T09:57:25Z</time>
      </trkpt>
      <trkpt lat="45.68192" lon="6.23222">
        <ele>1928.5629882812</ele>
        <time>2017-11-01T09:57:28Z</time>
      </trkpt>
      <trkpt lat="45.68197" lon="6.23225">
        <ele>1926.5629882812</ele>
        <time>2017-11-01T09:57:36Z</time>
      </trkpt>
      <trkpt lat="45.68201" lon="6.23228">
        <ele>1925.5629882812</ele>
        <time>2017-11-01T09:57:45Z</time>
      </trkpt>
      <trkpt lat="45.68204" lon="6.23233">
        <ele>1922.5629882812</ele>
        <time>2017-11-01T09:57:52Z</time>
      </trkpt>
      <trkpt lat="45.68209" lon="6.23233">
        <ele>1921.5629882812</ele>
        <time>2017-11-01T09:57:56Z</time>
      </trkpt>
      <trkpt lat="45.68214" lon="6.23235">
        <ele>1919.5629882812</ele>
        <time>2017-11-01T09:58:01Z</time>
      </trkpt>
      <trkpt lat="45.68211" lon="6.23241">
        <ele>1913.5629882812</ele>
        <time>2017-11-01T09:58:17Z</time>
      </trkpt>
      <trkpt lat="45.68213" lon="6.23248">
        <ele>1911.5629882812</ele>
        <time>2017-11-01T09:58:23Z</time>
      </trkpt>
      <trkpt lat="45.68218" lon="6.2325">
        <ele>1910.5629882812</ele>
        <time>2017-11-01T09:58:28Z</time>
      </trkpt>
      <trkpt lat="45.68222" lon="6.23253">
        <ele>1911.5629882812</ele>
        <time>2017-11-01T09:58:33Z</time>
      </trkpt>
      <trkpt lat="45.68221" lon="6.23259">
        <ele>1904.5629882812</ele>
        <time>2017-11-01T09:58:45Z</time>
      </trkpt>
      <trkpt lat="45.68217" lon="6.23264">
        <ele>1904.5629882812</ele>
        <time>2017-11-01T09:58:49Z</time>
      </trkpt>
      <trkpt lat="45.6822" lon="6.23271">
        <ele>1904.5629882812</ele>
        <time>2017-11-01T09:59:02Z</time>
      </trkpt>
      <trkpt lat="45.68224" lon="6.23273">
        <ele>1901.5629882812</ele>
        <time>2017-11-01T09:59:16Z</time>
      </trkpt>
      <trkpt lat="45.6823" lon="6.23274">
        <ele>1899.5629882812</ele>
        <time>2017-11-01T09:59:25Z</time>
      </trkpt>
      <trkpt lat="45.68236" lon="6.23275">
        <ele>1899.5629882812</ele>
        <time>2017-11-01T09:59:31Z</time>
      </trkpt>
      <trkpt lat="45.68234" lon="6.23281">
        <ele>1894.5629882812</ele>
        <time>2017-11-01T09:59:38Z</time>
      </trkpt>
      <trkpt lat="45.68231" lon="6.23286">
        <ele>1891.5629882812</ele>
        <time>2017-11-01T09:59:42Z</time>
      </trkpt>
      <trkpt lat="45.68227" lon="6.23293">
        <ele>1888.5629882812</ele>
        <time>2017-11-01T09:59:57Z</time>
      </trkpt>
      <trkpt lat="45.68224" lon="6.23298">
        <ele>1885.5629882812</ele>
        <time>2017-11-01T10:00:02Z</time>
      </trkpt>
      <trkpt lat="45.68223" lon="6.23305">
        <ele>1881.5629882812</ele>
        <time>2017-11-01T10:00:13Z</time>
      </trkpt>
      <trkpt lat="45.68221" lon="6.23311">
        <ele>1876.5629882812</ele>
        <time>2017-11-01T10:00:21Z</time>
      </trkpt>
      <trkpt lat="45.68219" lon="6.23318">
        <ele>1874.5629882812</ele>
        <time>2017-11-01T10:00:29Z</time>
      </trkpt>
      <trkpt lat="45.6822" lon="6.23324">
        <ele>1873.5629882812</ele>
        <time>2017-11-01T10:00:34Z</time>
      </trkpt>
      <trkpt lat="45.68223" lon="6.2333">
        <ele>1873.5629882812</ele>
        <time>2017-11-01T10:00:40Z</time>
      </trkpt>
      <trkpt lat="45.68219" lon="6.23335">
        <ele>1871.5629882812</ele>
        <time>2017-11-01T10:00:46Z</time>
      </trkpt>
      <trkpt lat="45.68214" lon="6.23337">
        <ele>1865.5629882812</ele>
        <time>2017-11-01T10:00:58Z</time>
      </trkpt>
      <trkpt lat="45.68212" lon="6.23343">
        <ele>1862.5629882812</ele>
        <time>2017-11-01T10:01:06Z</time>
      </trkpt>
      <trkpt lat="45.68208" lon="6.23348">
        <ele>1859.5629882812</ele>
        <time>2017-11-01T10:01:14Z</time>
      </trkpt>
      <trkpt lat="45.68205" lon="6.23352">
        <ele>1858.5629882812</ele>
        <time>2017-11-01T10:01:21Z</time>
      </trkpt>
      <trkpt lat="45.68209" lon="6.23356">
        <ele>1856.5629882812</ele>
        <time>2017-11-01T10:01:27Z</time>
      </trkpt>
      <trkpt lat="45.6821" lon="6.23364">
        <ele>1855.5639648438</ele>
        <time>2017-11-01T10:01:39Z</time>
      </trkpt>
      <trkpt lat="45.68214" lon="6.23368">
        <ele>1850.5639648438</ele>
        <time>2017-11-01T10:01:59Z</time>
      </trkpt>
      <trkpt lat="45.68213" lon="6.23376">
        <ele>1847.5639648438</ele>
        <time>2017-11-01T10:02:06Z</time>
      </trkpt>
      <trkpt lat="45.68214" lon="6.23386">
        <ele>1846.5639648438</ele>
        <time>2017-11-01T10:02:12Z</time>
      </trkpt>
      <trkpt lat="45.68215" lon="6.23393">
        <ele>1844.5639648438</ele>
        <time>2017-11-01T10:02:20Z</time>
      </trkpt>
      <trkpt lat="45.68209" lon="6.23393">
        <ele>1840.5639648438</ele>
        <time>2017-11-01T10:02:29Z</time>
      </trkpt>
      <trkpt lat="45.68206" lon="6.23388">
        <ele>1839.5639648438</ele>
        <time>2017-11-01T10:02:33Z</time>
      </trkpt>
      <trkpt lat="45.68208" lon="6.23394">
        <ele>1836.5639648438</ele>
        <time>2017-11-01T10:02:39Z</time>
      </trkpt>
      <trkpt lat="45.68209" lon="6.23401">
        <ele>1833.5639648438</ele>
        <time>2017-11-01T10:02:45Z</time>
      </trkpt>
      <trkpt lat="45.68206" lon="6.23407">
        <ele>1828.5639648438</ele>
        <time>2017-11-01T10:02:59Z</time>
      </trkpt>
      <trkpt lat="45.68201" lon="6.23409">
        <ele>1828.5639648438</ele>
        <time>2017-11-01T10:03:07Z</time>
      </trkpt>
      <trkpt lat="45.68197" lon="6.23414">
        <ele>1824.5639648438</ele>
        <time>2017-11-01T10:03:19Z</time>
      </trkpt>
      <trkpt lat="45.68199" lon="6.2342">
        <ele>1823.5639648438</ele>
        <time>2017-11-01T10:03:25Z</time>
      </trkpt>
      <trkpt lat="45.68204" lon="6.23421">
        <ele>1820.5639648438</ele>
        <time>2017-11-01T10:05:05Z</time>
      </trkpt>
      <trkpt lat="45.68207" lon="6.23427">
        <ele>1820.5639648438</ele>
        <time>2017-11-01T10:05:08Z</time>
      </trkpt>
      <trkpt lat="45.68209" lon="6.23434">
        <ele>1821.5639648438</ele>
        <time>2017-11-01T10:05:11Z</time>
      </trkpt>
      <trkpt lat="45.68207" lon="6.23441">
        <ele>1815.5639648438</ele>
        <time>2017-11-01T10:05:19Z</time>
      </trkpt>
      <trkpt lat="45.6821" lon="6.23447">
        <ele>1813.5639648438</ele>
        <time>2017-11-01T10:05:23Z</time>
      </trkpt>
      <trkpt lat="45.68214" lon="6.23452">
        <ele>1813.5639648438</ele>
        <time>2017-11-01T10:05:27Z</time>
      </trkpt>
      <trkpt lat="45.68218" lon="6.23456">
        <ele>1812.5639648438</ele>
        <time>2017-11-01T10:05:31Z</time>
      </trkpt>
      <trkpt lat="45.68223" lon="6.2346">
        <ele>1812.5639648438</ele>
        <time>2017-11-01T10:05:36Z</time>
      </trkpt>
      <trkpt lat="45.68226" lon="6.23467">
        <ele>1812.5639648438</ele>
        <time>2017-11-01T10:05:41Z</time>
      </trkpt>
      <trkpt lat="45.6823" lon="6.23473">
        <ele>1810.5639648438</ele>
        <time>2017-11-01T10:05:46Z</time>
      </trkpt>
      <trkpt lat="45.68234" lon="6.2348">
        <ele>1810.5639648438</ele>
        <time>2017-11-01T10:05:50Z</time>
      </trkpt>
      <trkpt lat="45.68236" lon="6.23488">
        <ele>1809.5639648438</ele>
        <time>2017-11-01T10:05:54Z</time>
      </trkpt>
      <trkpt lat="45.68241" lon="6.23493">
        <ele>1809.5639648438</ele>
        <time>2017-11-01T10:05:58Z</time>
      </trkpt>
      <trkpt lat="45.68244" lon="6.235">
        <ele>1810.5639648438</ele>
        <time>2017-11-01T10:06:01Z</time>
      </trkpt>
      <trkpt lat="45.68245" lon="6.23506">
        <ele>1809.5639648438</ele>
        <time>2017-11-01T10:06:04Z</time>
      </trkpt>
      <trkpt lat="45.68248" lon="6.23511">
        <ele>1809.5639648438</ele>
        <time>2017-11-01T10:06:07Z</time>
      </trkpt>
      <trkpt lat="45.68252" lon="6.23517">
        <ele>1807.5639648438</ele>
        <time>2017-11-01T10:06:10Z</time>
      </trkpt>
      <trkpt lat="45.68255" lon="6.23523">
        <ele>1807.5639648438</ele>
        <time>2017-11-01T10:06:15Z</time>
      </trkpt>
      <trkpt lat="45.68258" lon="6.23528">
        <ele>1807.5639648438</ele>
        <time>2017-11-01T10:06:20Z</time>
      </trkpt>
      <trkpt lat="45.68262" lon="6.23533">
        <ele>1807.5639648438</ele>
        <time>2017-11-01T10:06:23Z</time>
      </trkpt>
      <trkpt lat="45.68264" lon="6.23539">
        <ele>1804.5639648438</ele>
        <time>2017-11-01T10:06:26Z</time>
      </trkpt>
      <trkpt lat="45.68263" lon="6.23545">
        <ele>1803.5639648438</ele>
        <time>2017-11-01T10:06:31Z</time>
      </trkpt>
      <trkpt lat="45.68262" lon="6.23552">
        <ele>1803.5639648438</ele>
        <time>2017-11-01T10:06:34Z</time>
      </trkpt>
      <trkpt lat="45.68264" lon="6.23558">
        <ele>1802.5639648438</ele>
        <time>2017-11-01T10:06:39Z</time>
      </trkpt>
      <trkpt lat="45.68266" lon="6.23564">
        <ele>1801.5639648438</ele>
        <time>2017-11-01T10:06:43Z</time>
      </trkpt>
      <trkpt lat="45.68268" lon="6.2357">
        <ele>1801.5639648438</ele>
        <time>2017-11-01T10:06:45Z</time>
      </trkpt>
      <trkpt lat="45.68273" lon="6.23574">
        <ele>1800.5639648438</ele>
        <time>2017-11-01T10:06:49Z</time>
      </trkpt>
      <trkpt lat="45.68276" lon="6.23579">
        <ele>1799.5639648438</ele>
        <time>2017-11-01T10:06:52Z</time>
      </trkpt>
      <trkpt lat="45.68277" lon="6.23586">
        <ele>1800.5639648438</ele>
        <time>2017-11-01T10:06:55Z</time>
      </trkpt>
      <trkpt lat="45.68277" lon="6.23593">
        <ele>1800.5639648438</ele>
        <time>2017-11-01T10:07:00Z</time>
      </trkpt>
      <trkpt lat="45.68278" lon="6.236">
        <ele>1799.5639648438</ele>
        <time>2017-11-01T10:07:03Z</time>
      </trkpt>
      <trkpt lat="45.6828" lon="6.23606">
        <ele>1799.5639648438</ele>
        <time>2017-11-01T10:07:06Z</time>
      </trkpt>
      <trkpt lat="45.68283" lon="6.23613">
        <ele>1800.5639648438</ele>
        <time>2017-11-01T10:07:08Z</time>
      </trkpt>
      <trkpt lat="45.68289" lon="6.23613">
        <ele>1797.5639648438</ele>
        <time>2017-11-01T10:07:13Z</time>
      </trkpt>
      <trkpt lat="45.68293" lon="6.23615">
        <ele>1798.5639648438</ele>
        <time>2017-11-01T10:07:16Z</time>
      </trkpt>
      <trkpt lat="45.68299" lon="6.23615">
        <ele>1796.5639648438</ele>
        <time>2017-11-01T10:07:20Z</time>
      </trkpt>
      <trkpt lat="45.68304" lon="6.23617">
        <ele>1797.5639648438</ele>
        <time>2017-11-01T10:07:24Z</time>
      </trkpt>
      <trkpt lat="45.68309" lon="6.23618">
        <ele>1795.5639648438</ele>
        <time>2017-11-01T10:07:27Z</time>
      </trkpt>
      <trkpt lat="45.68314" lon="6.23619">
        <ele>1795.5639648438</ele>
        <time>2017-11-01T10:07:29Z</time>
      </trkpt>
      <trkpt lat="45.68318" lon="6.23624">
        <ele>1794.5639648438</ele>
        <time>2017-11-01T10:07:35Z</time>
      </trkpt>
      <trkpt lat="45.68322" lon="6.23626">
        <ele>1790.5639648438</ele>
        <time>2017-11-01T10:07:41Z</time>
      </trkpt>
      <trkpt lat="45.68327" lon="6.23629">
        <ele>1790.5639648438</ele>
        <time>2017-11-01T10:07:44Z</time>
      </trkpt>
      <trkpt lat="45.68332" lon="6.23629">
        <ele>1789.5639648438</ele>
        <time>2017-11-01T10:07:48Z</time>
      </trkpt>
      <trkpt lat="45.68336" lon="6.23632">
        <ele>1790.5639648438</ele>
        <time>2017-11-01T10:07:51Z</time>
      </trkpt>
      <trkpt lat="45.68339" lon="6.23638">
        <ele>1785.5639648438</ele>
        <time>2017-11-01T10:07:56Z</time>
      </trkpt>
      <trkpt lat="45.68343" lon="6.23643">
        <ele>1784.5639648438</ele>
        <time>2017-11-01T10:07:59Z</time>
      </trkpt>
      <trkpt lat="45.68348" lon="6.23647">
        <ele>1784.5639648438</ele>
        <time>2017-11-01T10:08:02Z</time>
      </trkpt>
      <trkpt lat="45.68353" lon="6.23647">
        <ele>1783.5639648438</ele>
        <time>2017-11-01T10:08:06Z</time>
      </trkpt>
      <trkpt lat="45.68358" lon="6.23651">
        <ele>1785.5639648438</ele>
        <time>2017-11-01T10:08:10Z</time>
      </trkpt>
      <trkpt lat="45.68362" lon="6.23655">
        <ele>1786.5639648438</ele>
        <time>2017-11-01T10:08:14Z</time>
      </trkpt>
      <trkpt lat="45.68365" lon="6.23662">
        <ele>1788.5639648438</ele>
        <time>2017-11-01T10:08:17Z</time>
      </trkpt>
      <trkpt lat="45.6837" lon="6.23665">
        <ele>1787.5639648438</ele>
        <time>2017-11-01T10:08:21Z</time>
      </trkpt>
      <trkpt lat="45.68374" lon="6.23668">
        <ele>1786.5639648438</ele>
        <time>2017-11-01T10:08:24Z</time>
      </trkpt>
      <trkpt lat="45.68378" lon="6.23673">
        <ele>1783.5639648438</ele>
        <time>2017-11-01T10:08:30Z</time>
      </trkpt>
      <trkpt lat="45.68382" lon="6.2368">
        <ele>1784.5639648438</ele>
        <time>2017-11-01T10:08:36Z</time>
      </trkpt>
      <trkpt lat="45.68386" lon="6.23684">
        <ele>1784.5639648438</ele>
        <time>2017-11-01T10:08:41Z</time>
      </trkpt>
      <trkpt lat="45.68387" lon="6.23693">
        <ele>1784.5639648438</ele>
        <time>2017-11-01T10:08:43Z</time>
      </trkpt>
      <trkpt lat="45.68391" lon="6.23697">
        <ele>1781.5639648438</ele>
        <time>2017-11-01T10:08:49Z</time>
      </trkpt>
      <trkpt lat="45.68394" lon="6.23703">
        <ele>1779.5639648438</ele>
        <time>2017-11-01T10:08:53Z</time>
      </trkpt>
      <trkpt lat="45.68397" lon="6.23707">
        <ele>1778.5639648438</ele>
        <time>2017-11-01T10:08:56Z</time>
      </trkpt>
      <trkpt lat="45.68399" lon="6.23714">
        <ele>1780.5639648438</ele>
        <time>2017-11-01T10:08:58Z</time>
      </trkpt>
      <trkpt lat="45.68404" lon="6.23712">
        <ele>1780.5639648438</ele>
        <time>2017-11-01T10:09:02Z</time>
      </trkpt>
      <trkpt lat="45.68409" lon="6.23717">
        <ele>1780.5639648438</ele>
        <time>2017-11-01T10:09:06Z</time>
      </trkpt>
      <trkpt lat="45.68413" lon="6.2372">
        <ele>1781.5639648438</ele>
        <time>2017-11-01T10:09:09Z</time>
      </trkpt>
      <trkpt lat="45.68418" lon="6.23722">
        <ele>1781.5639648438</ele>
        <time>2017-11-01T10:09:12Z</time>
      </trkpt>
      <trkpt lat="45.68423" lon="6.23724">
        <ele>1780.5639648438</ele>
        <time>2017-11-01T10:09:17Z</time>
      </trkpt>
      <trkpt lat="45.68429" lon="6.23724">
        <ele>1779.5639648438</ele>
        <time>2017-11-01T10:09:21Z</time>
      </trkpt>
      <trkpt lat="45.68434" lon="6.23726">
        <ele>1775.5639648438</ele>
        <time>2017-11-01T10:09:26Z</time>
      </trkpt>
      <trkpt lat="45.68438" lon="6.2373">
        <ele>1775.5639648438</ele>
        <time>2017-11-01T10:09:30Z</time>
      </trkpt>
      <trkpt lat="45.68442" lon="6.23736">
        <ele>1778.5639648438</ele>
        <time>2017-11-01T10:09:33Z</time>
      </trkpt>
      <trkpt lat="45.68447" lon="6.23742">
        <ele>1778.5639648438</ele>
        <time>2017-11-01T10:09:36Z</time>
      </trkpt>
      <trkpt lat="45.68452" lon="6.23743">
        <ele>1776.5639648438</ele>
        <time>2017-11-01T10:09:40Z</time>
      </trkpt>
      <trkpt lat="45.68457" lon="6.23745">
        <ele>1774.5639648438</ele>
        <time>2017-11-01T10:09:44Z</time>
      </trkpt>
      <trkpt lat="45.6846" lon="6.23754">
        <ele>1774.5639648438</ele>
        <time>2017-11-01T10:09:46Z</time>
      </trkpt>
      <trkpt lat="45.68463" lon="6.23761">
        <ele>1775.5639648438</ele>
        <time>2017-11-01T10:09:49Z</time>
      </trkpt>
      <trkpt lat="45.68468" lon="6.23766">
        <ele>1772.5639648438</ele>
        <time>2017-11-01T10:09:54Z</time>
      </trkpt>
      <trkpt lat="45.68472" lon="6.2377">
        <ele>1771.5639648438</ele>
        <time>2017-11-01T10:09:58Z</time>
      </trkpt>
      <trkpt lat="45.68477" lon="6.23775">
        <ele>1769.5639648438</ele>
        <time>2017-11-01T10:10:01Z</time>
      </trkpt>
      <trkpt lat="45.68481" lon="6.2378">
        <ele>1767.5639648438</ele>
        <time>2017-11-01T10:10:05Z</time>
      </trkpt>
      <trkpt lat="45.68481" lon="6.23789">
        <ele>1764.5649414062</ele>
        <time>2017-11-01T10:10:09Z</time>
      </trkpt>
      <trkpt lat="45.68485" lon="6.23791">
        <ele>1762.5649414062</ele>
        <time>2017-11-01T10:10:12Z</time>
      </trkpt>
      <trkpt lat="45.6849" lon="6.23796">
        <ele>1759.5649414062</ele>
        <time>2017-11-01T10:10:16Z</time>
      </trkpt>
      <trkpt lat="45.68494" lon="6.23799">
        <ele>1759.5649414062</ele>
        <time>2017-11-01T10:10:19Z</time>
      </trkpt>
      <trkpt lat="45.68498" lon="6.23804">
        <ele>1758.5649414062</ele>
        <time>2017-11-01T10:10:22Z</time>
      </trkpt>
      <trkpt lat="45.68503" lon="6.23808">
        <ele>1758.5649414062</ele>
        <time>2017-11-01T10:10:28Z</time>
      </trkpt>
      <trkpt lat="45.68505" lon="6.23816">
        <ele>1757.5649414062</ele>
        <time>2017-11-01T10:10:32Z</time>
      </trkpt>
      <trkpt lat="45.68507" lon="6.23823">
        <ele>1756.5649414062</ele>
        <time>2017-11-01T10:10:34Z</time>
      </trkpt>
      <trkpt lat="45.68509" lon="6.23837">
        <ele>1756.5649414062</ele>
        <time>2017-11-01T10:10:37Z</time>
      </trkpt>
      <trkpt lat="45.68511" lon="6.23845">
        <ele>1756.5649414062</ele>
        <time>2017-11-01T10:10:40Z</time>
      </trkpt>
      <trkpt lat="45.68514" lon="6.2385">
        <ele>1757.5649414062</ele>
        <time>2017-11-01T10:10:43Z</time>
      </trkpt>
      <trkpt lat="45.68519" lon="6.23855">
        <ele>1756.5649414062</ele>
        <time>2017-11-01T10:10:48Z</time>
      </trkpt>
      <trkpt lat="45.68521" lon="6.23864">
        <ele>1757.5649414062</ele>
        <time>2017-11-01T10:10:52Z</time>
      </trkpt>
      <trkpt lat="45.6852" lon="6.23871">
        <ele>1757.5649414062</ele>
        <time>2017-11-01T10:10:55Z</time>
      </trkpt>
      <trkpt lat="45.68523" lon="6.23877">
        <ele>1756.5649414062</ele>
        <time>2017-11-01T10:11:00Z</time>
      </trkpt>
      <trkpt lat="45.68522" lon="6.23886">
        <ele>1755.5649414062</ele>
        <time>2017-11-01T10:11:02Z</time>
      </trkpt>
      <trkpt lat="45.68522" lon="6.23893">
        <ele>1754.5649414062</ele>
        <time>2017-11-01T10:11:04Z</time>
      </trkpt>
      <trkpt lat="45.68523" lon="6.23901">
        <ele>1754.5649414062</ele>
        <time>2017-11-01T10:11:08Z</time>
      </trkpt>
      <trkpt lat="45.68522" lon="6.23909">
        <ele>1753.5649414062</ele>
        <time>2017-11-01T10:11:12Z</time>
      </trkpt>
      <trkpt lat="45.68521" lon="6.23916">
        <ele>1753.5649414062</ele>
        <time>2017-11-01T10:11:15Z</time>
      </trkpt>
      <trkpt lat="45.68521" lon="6.23924">
        <ele>1754.5649414062</ele>
        <time>2017-11-01T10:11:18Z</time>
      </trkpt>
      <trkpt lat="45.6852" lon="6.23931">
        <ele>1754.5649414062</ele>
        <time>2017-11-01T10:11:20Z</time>
      </trkpt>
      <trkpt lat="45.68521" lon="6.23938">
        <ele>1754.5649414062</ele>
        <time>2017-11-01T10:11:23Z</time>
      </trkpt>
      <trkpt lat="45.68522" lon="6.23945">
        <ele>1752.5649414062</ele>
        <time>2017-11-01T10:11:27Z</time>
      </trkpt>
      <trkpt lat="45.68525" lon="6.23952">
        <ele>1751.5649414062</ele>
        <time>2017-11-01T10:11:32Z</time>
      </trkpt>
      <trkpt lat="45.68525" lon="6.23959">
        <ele>1752.5649414062</ele>
        <time>2017-11-01T10:11:36Z</time>
      </trkpt>
      <trkpt lat="45.68522" lon="6.2397">
        <ele>1751.5649414062</ele>
        <time>2017-11-01T10:11:42Z</time>
      </trkpt>
      <trkpt lat="45.68519" lon="6.23978">
        <ele>1752.5649414062</ele>
        <time>2017-11-01T10:11:44Z</time>
      </trkpt>
      <trkpt lat="45.68516" lon="6.23987">
        <ele>1751.5649414062</ele>
        <time>2017-11-01T10:11:48Z</time>
      </trkpt>
      <trkpt lat="45.68514" lon="6.23994">
        <ele>1751.5649414062</ele>
        <time>2017-11-01T10:11:51Z</time>
      </trkpt>
      <trkpt lat="45.68512" lon="6.24">
        <ele>1752.5649414062</ele>
        <time>2017-11-01T10:11:54Z</time>
      </trkpt>
      <trkpt lat="45.68511" lon="6.24006">
        <ele>1752.5649414062</ele>
        <time>2017-11-01T10:11:57Z</time>
      </trkpt>
      <trkpt lat="45.68509" lon="6.24013">
        <ele>1753.5649414062</ele>
        <time>2017-11-01T10:12:02Z</time>
      </trkpt>
      <trkpt lat="45.6851" lon="6.24019">
        <ele>1752.5649414062</ele>
        <time>2017-11-01T10:12:06Z</time>
      </trkpt>
      <trkpt lat="45.6851" lon="6.24027">
        <ele>1750.5649414062</ele>
        <time>2017-11-01T10:12:11Z</time>
      </trkpt>
      <trkpt lat="45.68513" lon="6.24033">
        <ele>1741.5649414062</ele>
        <time>2017-11-01T10:12:17Z</time>
      </trkpt>
      <trkpt lat="45.68514" lon="6.2404">
        <ele>1741.5649414062</ele>
        <time>2017-11-01T10:12:21Z</time>
      </trkpt>
      <trkpt lat="45.68518" lon="6.24044">
        <ele>1740.5649414062</ele>
        <time>2017-11-01T10:12:25Z</time>
      </trkpt>
      <trkpt lat="45.68516" lon="6.2405">
        <ele>1738.5649414062</ele>
        <time>2017-11-01T10:12:28Z</time>
      </trkpt>
      <trkpt lat="45.68516" lon="6.24058">
        <ele>1738.5649414062</ele>
        <time>2017-11-01T10:12:31Z</time>
      </trkpt>
      <trkpt lat="45.68515" lon="6.24066">
        <ele>1738.5649414062</ele>
        <time>2017-11-01T10:12:35Z</time>
      </trkpt>
      <trkpt lat="45.68516" lon="6.24073">
        <ele>1739.5649414062</ele>
        <time>2017-11-01T10:12:39Z</time>
      </trkpt>
      <trkpt lat="45.68516" lon="6.24079">
        <ele>1739.5649414062</ele>
        <time>2017-11-01T10:12:42Z</time>
      </trkpt>
      <trkpt lat="45.68516" lon="6.24086">
        <ele>1737.5649414062</ele>
        <time>2017-11-01T10:12:46Z</time>
      </trkpt>
      <trkpt lat="45.68518" lon="6.24094">
        <ele>1737.5649414062</ele>
        <time>2017-11-01T10:12:52Z</time>
      </trkpt>
      <trkpt lat="45.68519" lon="6.24103">
        <ele>1740.5649414062</ele>
        <time>2017-11-01T10:12:55Z</time>
      </trkpt>
      <trkpt lat="45.6852" lon="6.2411">
        <ele>1740.5649414062</ele>
        <time>2017-11-01T10:12:58Z</time>
      </trkpt>
      <trkpt lat="45.68522" lon="6.24118">
        <ele>1739.5649414062</ele>
        <time>2017-11-01T10:13:03Z</time>
      </trkpt>
      <trkpt lat="45.68521" lon="6.24125">
        <ele>1738.5649414062</ele>
        <time>2017-11-01T10:13:05Z</time>
      </trkpt>
      <trkpt lat="45.6852" lon="6.24133">
        <ele>1740.5649414062</ele>
        <time>2017-11-01T10:13:06Z</time>
      </trkpt>
      <trkpt lat="45.68519" lon="6.24141">
        <ele>1740.5649414062</ele>
        <time>2017-11-01T10:13:08Z</time>
      </trkpt>
      <trkpt lat="45.68519" lon="6.24147">
        <ele>1739.5649414062</ele>
        <time>2017-11-01T10:13:10Z</time>
      </trkpt>
      <trkpt lat="45.68519" lon="6.24155">
        <ele>1739.5649414062</ele>
        <time>2017-11-01T10:13:13Z</time>
      </trkpt>
      <trkpt lat="45.68519" lon="6.24164">
        <ele>1742.5649414062</ele>
        <time>2017-11-01T10:13:16Z</time>
      </trkpt>
      <trkpt lat="45.68522" lon="6.24169">
        <ele>1742.5649414062</ele>
        <time>2017-11-01T10:13:19Z</time>
      </trkpt>
      <trkpt lat="45.68525" lon="6.24175">
        <ele>1742.5649414062</ele>
        <time>2017-11-01T10:13:22Z</time>
      </trkpt>
      <trkpt lat="45.68526" lon="6.24182">
        <ele>1742.5649414062</ele>
        <time>2017-11-01T10:13:25Z</time>
      </trkpt>
      <trkpt lat="45.68528" lon="6.24189">
        <ele>1741.5649414062</ele>
        <time>2017-11-01T10:13:29Z</time>
      </trkpt>
      <trkpt lat="45.68529" lon="6.24196">
        <ele>1742.5649414062</ele>
        <time>2017-11-01T10:13:32Z</time>
      </trkpt>
      <trkpt lat="45.68529" lon="6.24203">
        <ele>1744.5649414062</ele>
        <time>2017-11-01T10:13:35Z</time>
      </trkpt>
      <trkpt lat="45.68529" lon="6.24211">
        <ele>1743.5649414062</ele>
        <time>2017-11-01T10:13:38Z</time>
      </trkpt>
      <trkpt lat="45.68531" lon="6.24219">
        <ele>1741.5649414062</ele>
        <time>2017-11-01T10:13:42Z</time>
      </trkpt>
      <trkpt lat="45.68534" lon="6.24224">
        <ele>1739.5649414062</ele>
        <time>2017-11-01T10:13:45Z</time>
      </trkpt>
      <trkpt lat="45.68537" lon="6.24229">
        <ele>1738.5649414062</ele>
        <time>2017-11-01T10:13:49Z</time>
      </trkpt>
      <trkpt lat="45.6854" lon="6.24236">
        <ele>1736.5649414062</ele>
        <time>2017-11-01T10:13:53Z</time>
      </trkpt>
      <trkpt lat="45.68541" lon="6.24244">
        <ele>1734.5649414062</ele>
        <time>2017-11-01T10:13:57Z</time>
      </trkpt>
      <trkpt lat="45.68543" lon="6.24251">
        <ele>1734.5649414062</ele>
        <time>2017-11-01T10:14:01Z</time>
      </trkpt>
      <trkpt lat="45.68545" lon="6.24258">
        <ele>1732.5649414062</ele>
        <time>2017-11-01T10:14:04Z</time>
      </trkpt>
      <trkpt lat="45.68544" lon="6.24264">
        <ele>1732.5649414062</ele>
        <time>2017-11-01T10:14:06Z</time>
      </trkpt>
      <trkpt lat="45.68544" lon="6.24272">
        <ele>1732.5649414062</ele>
        <time>2017-11-01T10:14:09Z</time>
      </trkpt>
      <trkpt lat="45.68544" lon="6.2428">
        <ele>1733.5649414062</ele>
        <time>2017-11-01T10:14:12Z</time>
      </trkpt>
      <trkpt lat="45.68543" lon="6.24288">
        <ele>1735.5649414062</ele>
        <time>2017-11-01T10:14:16Z</time>
      </trkpt>
      <trkpt lat="45.68541" lon="6.24294">
        <ele>1736.5649414062</ele>
        <time>2017-11-01T10:14:19Z</time>
      </trkpt>
      <trkpt lat="45.68538" lon="6.24301">
        <ele>1737.5649414062</ele>
        <time>2017-11-01T10:14:23Z</time>
      </trkpt>
      <trkpt lat="45.68536" lon="6.24307">
        <ele>1737.5649414062</ele>
        <time>2017-11-01T10:14:26Z</time>
      </trkpt>
      <trkpt lat="45.68534" lon="6.24314">
        <ele>1736.5649414062</ele>
        <time>2017-11-01T10:14:30Z</time>
      </trkpt>
      <trkpt lat="45.68531" lon="6.24319">
        <ele>1738.5649414062</ele>
        <time>2017-11-01T10:14:34Z</time>
      </trkpt>
      <trkpt lat="45.68529" lon="6.24326">
        <ele>1738.5649414062</ele>
        <time>2017-11-01T10:14:38Z</time>
      </trkpt>
      <trkpt lat="45.68526" lon="6.24332">
        <ele>1740.5649414062</ele>
        <time>2017-11-01T10:14:42Z</time>
      </trkpt>
      <trkpt lat="45.68524" lon="6.24338">
        <ele>1741.5649414062</ele>
        <time>2017-11-01T10:14:46Z</time>
      </trkpt>
      <trkpt lat="45.68522" lon="6.24345">
        <ele>1741.5649414062</ele>
        <time>2017-11-01T10:14:52Z</time>
      </trkpt>
      <trkpt lat="45.68519" lon="6.2435">
        <ele>1742.5649414062</ele>
        <time>2017-11-01T10:14:56Z</time>
      </trkpt>
      <trkpt lat="45.68516" lon="6.24356">
        <ele>1742.5649414062</ele>
        <time>2017-11-01T10:15:01Z</time>
      </trkpt>
      <trkpt lat="45.68514" lon="6.24363">
        <ele>1744.5649414062</ele>
        <time>2017-11-01T10:15:06Z</time>
      </trkpt>
      <trkpt lat="45.68512" lon="6.2437">
        <ele>1743.5649414062</ele>
        <time>2017-11-01T10:15:12Z</time>
      </trkpt>
      <trkpt lat="45.68509" lon="6.24375">
        <ele>1748.5649414062</ele>
        <time>2017-11-01T10:15:19Z</time>
      </trkpt>
      <trkpt lat="45.68505" lon="6.24379">
        <ele>1748.5649414062</ele>
        <time>2017-11-01T10:15:24Z</time>
      </trkpt>
      <trkpt lat="45.68502" lon="6.24383">
        <ele>1749.5649414062</ele>
        <time>2017-11-01T10:15:30Z</time>
      </trkpt>
      <trkpt lat="45.68498" lon="6.2439">
        <ele>1754.5649414062</ele>
        <time>2017-11-01T10:15:40Z</time>
      </trkpt>
      <trkpt lat="45.68495" lon="6.24395">
        <ele>1755.5649414062</ele>
        <time>2017-11-01T10:15:51Z</time>
      </trkpt>
      <trkpt lat="45.6849" lon="6.24398">
        <ele>1757.5649414062</ele>
        <time>2017-11-01T10:15:57Z</time>
      </trkpt>
      <trkpt lat="45.68486" lon="6.244">
        <ele>1757.5649414062</ele>
        <time>2017-11-01T10:16:02Z</time>
      </trkpt>
      <trkpt lat="45.68482" lon="6.24403">
        <ele>1759.5649414062</ele>
        <time>2017-11-01T10:16:08Z</time>
      </trkpt>
      <trkpt lat="45.68483" lon="6.2441">
        <ele>1760.5649414062</ele>
        <time>2017-11-01T10:16:19Z</time>
      </trkpt>
      <trkpt lat="45.68487" lon="6.24413">
        <ele>1759.5649414062</ele>
        <time>2017-11-01T10:16:24Z</time>
      </trkpt>
      <trkpt lat="45.68484" lon="6.24419">
        <ele>1764.5649414062</ele>
        <time>2017-11-01T10:16:36Z</time>
      </trkpt>
      <trkpt lat="45.68479" lon="6.24421">
        <ele>1766.5649414062</ele>
        <time>2017-11-01T10:16:41Z</time>
      </trkpt>
      <trkpt lat="45.68474" lon="6.24423">
        <ele>1767.5649414062</ele>
        <time>2017-11-01T10:16:46Z</time>
      </trkpt>
      <trkpt lat="45.68471" lon="6.24429">
        <ele>1768.5649414062</ele>
        <time>2017-11-01T10:16:52Z</time>
      </trkpt>
      <trkpt lat="45.68467" lon="6.24433">
        <ele>1769.5649414062</ele>
        <time>2017-11-01T10:16:59Z</time>
      </trkpt>
      <trkpt lat="45.68463" lon="6.24436">
        <ele>1768.5649414062</ele>
        <time>2017-11-01T10:17:05Z</time>
      </trkpt>
      <trkpt lat="45.68458" lon="6.24441">
        <ele>1770.5649414062</ele>
        <time>2017-11-01T10:17:11Z</time>
      </trkpt>
      <trkpt lat="45.68453" lon="6.24445">
        <ele>1773.5649414062</ele>
        <time>2017-11-01T10:17:16Z</time>
      </trkpt>
      <trkpt lat="45.68448" lon="6.24447">
        <ele>1774.5649414062</ele>
        <time>2017-11-01T10:17:22Z</time>
      </trkpt>
      <trkpt lat="45.68445" lon="6.24452">
        <ele>1776.5649414062</ele>
        <time>2017-11-01T10:17:27Z</time>
      </trkpt>
      <trkpt lat="45.6844" lon="6.24455">
        <ele>1777.5649414062</ele>
        <time>2017-11-01T10:17:34Z</time>
      </trkpt>
      <trkpt lat="45.68437" lon="6.24462">
        <ele>1778.5649414062</ele>
        <time>2017-11-01T10:17:39Z</time>
      </trkpt>
      <trkpt lat="45.68433" lon="6.24466">
        <ele>1780.5649414062</ele>
        <time>2017-11-01T10:17:44Z</time>
      </trkpt>
      <trkpt lat="45.68429" lon="6.2447">
        <ele>1781.5649414062</ele>
        <time>2017-11-01T10:17:48Z</time>
      </trkpt>
      <trkpt lat="45.68425" lon="6.24475">
        <ele>1784.5649414062</ele>
        <time>2017-11-01T10:17:53Z</time>
      </trkpt>
      <trkpt lat="45.68422" lon="6.24481">
        <ele>1786.5649414062</ele>
        <time>2017-11-01T10:18:40Z</time>
      </trkpt>
      <trkpt lat="45.68419" lon="6.24486">
        <ele>1787.5649414062</ele>
        <time>2017-11-01T10:18:45Z</time>
      </trkpt>
      <trkpt lat="45.68414" lon="6.24489">
        <ele>1788.5649414062</ele>
        <time>2017-11-01T10:18:50Z</time>
      </trkpt>
      <trkpt lat="45.68408" lon="6.24492">
        <ele>1789.5649414062</ele>
        <time>2017-11-01T10:18:55Z</time>
      </trkpt>
      <trkpt lat="45.68404" lon="6.24495">
        <ele>1790.5649414062</ele>
        <time>2017-11-01T10:19:01Z</time>
      </trkpt>
      <trkpt lat="45.68399" lon="6.24498">
        <ele>1791.5649414062</ele>
        <time>2017-11-01T10:19:07Z</time>
      </trkpt>
      <trkpt lat="45.68396" lon="6.24503">
        <ele>1792.5649414062</ele>
        <time>2017-11-01T10:19:11Z</time>
      </trkpt>
      <trkpt lat="45.68391" lon="6.24506">
        <ele>1792.5649414062</ele>
        <time>2017-11-01T10:19:16Z</time>
      </trkpt>
      <trkpt lat="45.68386" lon="6.24509">
        <ele>1793.5649414062</ele>
        <time>2017-11-01T10:19:21Z</time>
      </trkpt>
      <trkpt lat="45.68382" lon="6.24513">
        <ele>1793.5649414062</ele>
        <time>2017-11-01T10:19:27Z</time>
      </trkpt>
      <trkpt lat="45.68378" lon="6.24517">
        <ele>1793.5649414062</ele>
        <time>2017-11-01T10:19:33Z</time>
      </trkpt>
      <trkpt lat="45.68375" lon="6.24521">
        <ele>1796.5649414062</ele>
        <time>2017-11-01T10:19:39Z</time>
      </trkpt>
      <trkpt lat="45.68372" lon="6.24526">
        <ele>1796.5649414062</ele>
        <time>2017-11-01T10:19:45Z</time>
      </trkpt>
      <trkpt lat="45.68367" lon="6.24528">
        <ele>1798.5649414062</ele>
        <time>2017-11-01T10:19:53Z</time>
      </trkpt>
      <trkpt lat="45.68362" lon="6.24531">
        <ele>1798.5649414062</ele>
        <time>2017-11-01T10:20:00Z</time>
      </trkpt>
      <trkpt lat="45.68357" lon="6.24534">
        <ele>1800.5649414062</ele>
        <time>2017-11-01T10:20:05Z</time>
      </trkpt>
      <trkpt lat="45.68353" lon="6.24538">
        <ele>1804.5649414062</ele>
        <time>2017-11-01T10:20:10Z</time>
      </trkpt>
      <trkpt lat="45.68348" lon="6.24541">
        <ele>1805.5649414062</ele>
        <time>2017-11-01T10:20:16Z</time>
      </trkpt>
      <trkpt lat="45.68343" lon="6.24545">
        <ele>1805.5649414062</ele>
        <time>2017-11-01T10:20:23Z</time>
      </trkpt>
      <trkpt lat="45.68339" lon="6.24549">
        <ele>1805.5649414062</ele>
        <time>2017-11-01T10:20:28Z</time>
      </trkpt>
      <trkpt lat="45.68334" lon="6.24551">
        <ele>1807.5649414062</ele>
        <time>2017-11-01T10:20:33Z</time>
      </trkpt>
      <trkpt lat="45.6833" lon="6.24556">
        <ele>1806.5649414062</ele>
        <time>2017-11-01T10:20:39Z</time>
      </trkpt>
      <trkpt lat="45.68326" lon="6.2456">
        <ele>1807.5649414062</ele>
        <time>2017-11-01T10:20:44Z</time>
      </trkpt>
      <trkpt lat="45.68322" lon="6.24565">
        <ele>1810.5649414062</ele>
        <time>2017-11-01T10:20:51Z</time>
      </trkpt>
      <trkpt lat="45.68318" lon="6.24568">
        <ele>1811.5649414062</ele>
        <time>2017-11-01T10:20:57Z</time>
      </trkpt>
      <trkpt lat="45.68314" lon="6.24573">
        <ele>1813.5649414062</ele>
        <time>2017-11-01T10:21:03Z</time>
      </trkpt>
      <trkpt lat="45.6831" lon="6.24579">
        <ele>1815.5649414062</ele>
        <time>2017-11-01T10:21:10Z</time>
      </trkpt>
      <trkpt lat="45.68307" lon="6.24584">
        <ele>1815.5649414062</ele>
        <time>2017-11-01T10:21:15Z</time>
      </trkpt>
      <trkpt lat="45.68303" lon="6.2459">
        <ele>1816.5649414062</ele>
        <time>2017-11-01T10:21:19Z</time>
      </trkpt>
      <trkpt lat="45.68308" lon="6.24591">
        <ele>1817.5649414062</ele>
        <time>2017-11-01T10:21:27Z</time>
      </trkpt>
      <trkpt lat="45.68314" lon="6.24594">
        <ele>1816.5649414062</ele>
        <time>2017-11-01T10:21:34Z</time>
      </trkpt>
      <trkpt lat="45.68318" lon="6.24594">
        <ele>1819.5649414062</ele>
        <time>2017-11-01T10:21:40Z</time>
      </trkpt>
      <trkpt lat="45.68323" lon="6.24593">
        <ele>1820.5649414062</ele>
        <time>2017-11-01T10:21:45Z</time>
      </trkpt>
      <trkpt lat="45.68329" lon="6.24593">
        <ele>1819.5649414062</ele>
        <time>2017-11-01T10:21:52Z</time>
      </trkpt>
      <trkpt lat="45.68333" lon="6.24596">
        <ele>1818.5649414062</ele>
        <time>2017-11-01T10:21:56Z</time>
      </trkpt>
      <trkpt lat="45.68338" lon="6.24598">
        <ele>1820.5649414062</ele>
        <time>2017-11-01T10:22:01Z</time>
      </trkpt>
      <trkpt lat="45.68343" lon="6.24597">
        <ele>1823.5649414062</ele>
        <time>2017-11-01T10:22:08Z</time>
      </trkpt>
      <trkpt lat="45.68348" lon="6.24598">
        <ele>1824.5649414062</ele>
        <time>2017-11-01T10:22:14Z</time>
      </trkpt>
      <trkpt lat="45.68353" lon="6.24598">
        <ele>1826.5649414062</ele>
        <time>2017-11-01T10:22:19Z</time>
      </trkpt>
      <trkpt lat="45.68357" lon="6.246">
        <ele>1826.5649414062</ele>
        <time>2017-11-01T10:22:24Z</time>
      </trkpt>
      <trkpt lat="45.68362" lon="6.24603">
        <ele>1826.5649414062</ele>
        <time>2017-11-01T10:22:28Z</time>
      </trkpt>
      <trkpt lat="45.68367" lon="6.24603">
        <ele>1827.5649414062</ele>
        <time>2017-11-01T10:22:33Z</time>
      </trkpt>
      <trkpt lat="45.68372" lon="6.24604">
        <ele>1827.5649414062</ele>
        <time>2017-11-01T10:22:37Z</time>
      </trkpt>
      <trkpt lat="45.68376" lon="6.24605">
        <ele>1828.5649414062</ele>
        <time>2017-11-01T10:22:40Z</time>
      </trkpt>
      <trkpt lat="45.68382" lon="6.24605">
        <ele>1830.5649414062</ele>
        <time>2017-11-01T10:22:44Z</time>
      </trkpt>
      <trkpt lat="45.68386" lon="6.24609">
        <ele>1829.5649414062</ele>
        <time>2017-11-01T10:22:49Z</time>
      </trkpt>
      <trkpt lat="45.68391" lon="6.24613">
        <ele>1835.5649414062</ele>
        <time>2017-11-01T10:22:55Z</time>
      </trkpt>
      <trkpt lat="45.68395" lon="6.24616">
        <ele>1835.5649414062</ele>
        <time>2017-11-01T10:23:00Z</time>
      </trkpt>
      <trkpt lat="45.684" lon="6.24618">
        <ele>1835.5649414062</ele>
        <time>2017-11-01T10:23:05Z</time>
      </trkpt>
      <trkpt lat="45.68404" lon="6.24622">
        <ele>1836.5649414062</ele>
        <time>2017-11-01T10:23:10Z</time>
      </trkpt>
      <trkpt lat="45.68409" lon="6.24626">
        <ele>1837.5649414062</ele>
        <time>2017-11-01T10:23:16Z</time>
      </trkpt>
      <trkpt lat="45.68413" lon="6.24628">
        <ele>1838.5649414062</ele>
        <time>2017-11-01T10:23:22Z</time>
      </trkpt>
      <trkpt lat="45.68418" lon="6.24629">
        <ele>1839.5649414062</ele>
        <time>2017-11-01T10:23:27Z</time>
      </trkpt>
      <trkpt lat="45.68423" lon="6.24631">
        <ele>1840.5649414062</ele>
        <time>2017-11-01T10:23:34Z</time>
      </trkpt>
      <trkpt lat="45.68428" lon="6.24634">
        <ele>1841.5649414062</ele>
        <time>2017-11-01T10:23:40Z</time>
      </trkpt>
      <trkpt lat="45.68433" lon="6.24636">
        <ele>1842.5649414062</ele>
        <time>2017-11-01T10:23:45Z</time>
      </trkpt>
      <trkpt lat="45.68438" lon="6.24638">
        <ele>1843.5649414062</ele>
        <time>2017-11-01T10:23:50Z</time>
      </trkpt>
      <trkpt lat="45.68443" lon="6.24639">
        <ele>1843.5649414062</ele>
        <time>2017-11-01T10:23:55Z</time>
      </trkpt>
      <trkpt lat="45.68447" lon="6.2464">
        <ele>1844.5649414062</ele>
        <time>2017-11-01T10:24:00Z</time>
      </trkpt>
      <trkpt lat="45.68452" lon="6.24642">
        <ele>1847.5649414062</ele>
        <time>2017-11-01T10:24:06Z</time>
      </trkpt>
      <trkpt lat="45.68458" lon="6.24643">
        <ele>1849.5649414062</ele>
        <time>2017-11-01T10:24:12Z</time>
      </trkpt>
      <trkpt lat="45.68463" lon="6.24645">
        <ele>1847.5649414062</ele>
        <time>2017-11-01T10:24:17Z</time>
      </trkpt>
      <trkpt lat="45.68468" lon="6.24643">
        <ele>1848.5649414062</ele>
        <time>2017-11-01T10:24:22Z</time>
      </trkpt>
      <trkpt lat="45.68472" lon="6.24639">
        <ele>1851.5649414062</ele>
        <time>2017-11-01T10:24:28Z</time>
      </trkpt>
      <trkpt lat="45.68476" lon="6.24639">
        <ele>1852.5649414062</ele>
        <time>2017-11-01T10:24:33Z</time>
      </trkpt>
      <trkpt lat="45.68481" lon="6.24636">
        <ele>1854.5649414062</ele>
        <time>2017-11-01T10:24:38Z</time>
      </trkpt>
      <trkpt lat="45.68485" lon="6.24635">
        <ele>1854.5649414062</ele>
        <time>2017-11-01T10:24:42Z</time>
      </trkpt>
      <trkpt lat="45.68491" lon="6.24635">
        <ele>1854.5660400391</ele>
        <time>2017-11-01T10:24:47Z</time>
      </trkpt>
      <trkpt lat="45.68495" lon="6.24634">
        <ele>1855.5660400391</ele>
        <time>2017-11-01T10:24:52Z</time>
      </trkpt>
      <trkpt lat="45.685" lon="6.24634">
        <ele>1857.5660400391</ele>
        <time>2017-11-01T10:24:58Z</time>
      </trkpt>
      <trkpt lat="45.68505" lon="6.24634">
        <ele>1859.5660400391</ele>
        <time>2017-11-01T10:25:04Z</time>
      </trkpt>
      <trkpt lat="45.6851" lon="6.24633">
        <ele>1859.5660400391</ele>
        <time>2017-11-01T10:25:09Z</time>
      </trkpt>
      <trkpt lat="45.68506" lon="6.24637">
        <ele>1863.5660400391</ele>
        <time>2017-11-01T10:25:19Z</time>
      </trkpt>
      <trkpt lat="45.68502" lon="6.2464">
        <ele>1863.5660400391</ele>
        <time>2017-11-01T10:25:23Z</time>
      </trkpt>
      <trkpt lat="45.68498" lon="6.24646">
        <ele>1865.5660400391</ele>
        <time>2017-11-01T10:25:28Z</time>
      </trkpt>
      <trkpt lat="45.68495" lon="6.2465">
        <ele>1865.5660400391</ele>
        <time>2017-11-01T10:25:33Z</time>
      </trkpt>
      <trkpt lat="45.68496" lon="6.24657">
        <ele>1867.5660400391</ele>
        <time>2017-11-01T10:25:43Z</time>
      </trkpt>
      <trkpt lat="45.68501" lon="6.24654">
        <ele>1870.5660400391</ele>
        <time>2017-11-01T10:25:50Z</time>
      </trkpt>
      <trkpt lat="45.68506" lon="6.24654">
        <ele>1870.5660400391</ele>
        <time>2017-11-01T10:25:55Z</time>
      </trkpt>
      <trkpt lat="45.68512" lon="6.24652">
        <ele>1871.5660400391</ele>
        <time>2017-11-01T10:26:01Z</time>
      </trkpt>
      <trkpt lat="45.68516" lon="6.24654">
        <ele>1872.5660400391</ele>
        <time>2017-11-01T10:26:05Z</time>
      </trkpt>
      <trkpt lat="45.68514" lon="6.24659">
        <ele>1874.5660400391</ele>
        <time>2017-11-01T10:26:14Z</time>
      </trkpt>
      <trkpt lat="45.6851" lon="6.24665">
        <ele>1875.5660400391</ele>
        <time>2017-11-01T10:26:22Z</time>
      </trkpt>
      <trkpt lat="45.68506" lon="6.24669">
        <ele>1876.5660400391</ele>
        <time>2017-11-01T10:26:27Z</time>
      </trkpt>
      <trkpt lat="45.68502" lon="6.24676">
        <ele>1877.5660400391</ele>
        <time>2017-11-01T10:26:31Z</time>
      </trkpt>
      <trkpt lat="45.68498" lon="6.24681">
        <ele>1878.5660400391</ele>
        <time>2017-11-01T10:26:35Z</time>
      </trkpt>
      <trkpt lat="45.68494" lon="6.24685">
        <ele>1878.5660400391</ele>
        <time>2017-11-01T10:26:39Z</time>
      </trkpt>
      <trkpt lat="45.68491" lon="6.24691">
        <ele>1880.5660400391</ele>
        <time>2017-11-01T10:26:43Z</time>
      </trkpt>
      <trkpt lat="45.68488" lon="6.24697">
        <ele>1883.5660400391</ele>
        <time>2017-11-01T10:26:48Z</time>
      </trkpt>
      <trkpt lat="45.68485" lon="6.24703">
        <ele>1885.5660400391</ele>
        <time>2017-11-01T10:26:53Z</time>
      </trkpt>
      <trkpt lat="45.68482" lon="6.24709">
        <ele>1886.5660400391</ele>
        <time>2017-11-01T10:26:58Z</time>
      </trkpt>
      <trkpt lat="45.68487" lon="6.24709">
        <ele>1889.5660400391</ele>
        <time>2017-11-01T10:27:07Z</time>
      </trkpt>
      <trkpt lat="45.68492" lon="6.24707">
        <ele>1890.5660400391</ele>
        <time>2017-11-01T10:27:15Z</time>
      </trkpt>
      <trkpt lat="45.68497" lon="6.24707">
        <ele>1891.5660400391</ele>
        <time>2017-11-01T10:27:20Z</time>
      </trkpt>
      <trkpt lat="45.68502" lon="6.24708">
        <ele>1892.5660400391</ele>
        <time>2017-11-01T10:27:25Z</time>
      </trkpt>
      <trkpt lat="45.68507" lon="6.2471">
        <ele>1894.5660400391</ele>
        <time>2017-11-01T10:27:31Z</time>
      </trkpt>
      <trkpt lat="45.68503" lon="6.24713">
        <ele>1895.5660400391</ele>
        <time>2017-11-01T10:27:36Z</time>
      </trkpt>
      <trkpt lat="45.68501" lon="6.2472">
        <ele>1896.5660400391</ele>
        <time>2017-11-01T10:27:41Z</time>
      </trkpt>
      <trkpt lat="45.685" lon="6.24727">
        <ele>1895.5660400391</ele>
        <time>2017-11-01T10:27:45Z</time>
      </trkpt>
      <trkpt lat="45.68496" lon="6.24731">
        <ele>1895.5660400391</ele>
        <time>2017-11-01T10:27:52Z</time>
      </trkpt>
      <trkpt lat="45.68491" lon="6.24733">
        <ele>1895.5660400391</ele>
        <time>2017-11-01T10:27:58Z</time>
      </trkpt>
      <trkpt lat="45.68488" lon="6.2474">
        <ele>1899.5660400391</ele>
        <time>2017-11-01T10:28:04Z</time>
      </trkpt>
      <trkpt lat="45.68484" lon="6.24745">
        <ele>1899.5660400391</ele>
        <time>2017-11-01T10:28:09Z</time>
      </trkpt>
      <trkpt lat="45.68489" lon="6.24749">
        <ele>1900.5660400391</ele>
        <time>2017-11-01T10:28:26Z</time>
      </trkpt>
      <trkpt lat="45.68493" lon="6.2475">
        <ele>1902.5660400391</ele>
        <time>2017-11-01T10:28:34Z</time>
      </trkpt>
      <trkpt lat="45.68499" lon="6.24752">
        <ele>1905.5660400391</ele>
        <time>2017-11-01T10:28:40Z</time>
      </trkpt>
      <trkpt lat="45.68505" lon="6.24755">
        <ele>1906.5660400391</ele>
        <time>2017-11-01T10:28:48Z</time>
      </trkpt>
      <trkpt lat="45.68507" lon="6.24762">
        <ele>1907.5660400391</ele>
        <time>2017-11-01T10:29:04Z</time>
      </trkpt>
      <trkpt lat="45.68505" lon="6.24768">
        <ele>1911.5660400391</ele>
        <time>2017-11-01T10:29:10Z</time>
      </trkpt>
      <trkpt lat="45.68502" lon="6.24773">
        <ele>1916.5660400391</ele>
        <time>2017-11-01T10:29:16Z</time>
      </trkpt>
      <trkpt lat="45.68498" lon="6.24779">
        <ele>1915.5660400391</ele>
        <time>2017-11-01T10:29:20Z</time>
      </trkpt>
      <trkpt lat="45.68496" lon="6.24784">
        <ele>1914.5660400391</ele>
        <time>2017-11-01T10:29:25Z</time>
      </trkpt>
      <trkpt lat="45.68492" lon="6.24791">
        <ele>1918.5660400391</ele>
        <time>2017-11-01T10:29:33Z</time>
      </trkpt>
      <trkpt lat="45.68489" lon="6.24797">
        <ele>1919.5660400391</ele>
        <time>2017-11-01T10:29:37Z</time>
      </trkpt>
      <trkpt lat="45.68485" lon="6.24802">
        <ele>1916.5660400391</ele>
        <time>2017-11-01T10:29:41Z</time>
      </trkpt>
      <trkpt lat="45.68481" lon="6.24807">
        <ele>1920.5660400391</ele>
        <time>2017-11-01T10:29:45Z</time>
      </trkpt>
      <trkpt lat="45.68475" lon="6.2481">
        <ele>1922.5660400391</ele>
        <time>2017-11-01T10:29:53Z</time>
      </trkpt>
      <trkpt lat="45.68471" lon="6.24815">
        <ele>1923.5660400391</ele>
        <time>2017-11-01T10:29:58Z</time>
      </trkpt>
      <trkpt lat="45.68468" lon="6.2482">
        <ele>1926.5660400391</ele>
        <time>2017-11-01T10:30:04Z</time>
      </trkpt>
      <trkpt lat="45.68463" lon="6.24822">
        <ele>1929.5660400391</ele>
        <time>2017-11-01T10:30:12Z</time>
      </trkpt>
      <trkpt lat="45.68459" lon="6.24819">
        <ele>1928.5660400391</ele>
        <time>2017-11-01T10:30:18Z</time>
      </trkpt>
      <trkpt lat="45.68456" lon="6.24825">
        <ele>1933.5660400391</ele>
        <time>2017-11-01T10:30:26Z</time>
      </trkpt>
      <trkpt lat="45.68453" lon="6.2483">
        <ele>1931.5660400391</ele>
        <time>2017-11-01T10:30:34Z</time>
      </trkpt>
      <trkpt lat="45.68449" lon="6.24833">
        <ele>1933.5660400391</ele>
        <time>2017-11-01T10:30:39Z</time>
      </trkpt>
      <trkpt lat="45.68444" lon="6.24835">
        <ele>1936.5660400391</ele>
        <time>2017-11-01T10:30:52Z</time>
      </trkpt>
      <trkpt lat="45.68439" lon="6.24836">
        <ele>1935.5660400391</ele>
        <time>2017-11-01T10:31:00Z</time>
      </trkpt>
      <trkpt lat="45.68435" lon="6.24838">
        <ele>1934.5660400391</ele>
        <time>2017-11-01T10:31:05Z</time>
      </trkpt>
      <trkpt lat="45.6843" lon="6.24842">
        <ele>1938.5660400391</ele>
        <time>2017-11-01T10:31:12Z</time>
      </trkpt>
      <trkpt lat="45.68425" lon="6.2484">
        <ele>1943.5660400391</ele>
        <time>2017-11-01T10:31:17Z</time>
      </trkpt>
      <trkpt lat="45.68421" lon="6.24843">
        <ele>1944.5660400391</ele>
        <time>2017-11-01T10:31:22Z</time>
      </trkpt>
      <trkpt lat="45.68416" lon="6.24845">
        <ele>1944.5660400391</ele>
        <time>2017-11-01T10:31:27Z</time>
      </trkpt>
      <trkpt lat="45.68412" lon="6.2485">
        <ele>1945.5660400391</ele>
        <time>2017-11-01T10:31:31Z</time>
      </trkpt>
      <trkpt lat="45.68408" lon="6.24852">
        <ele>1944.5660400391</ele>
        <time>2017-11-01T10:31:37Z</time>
      </trkpt>
      <trkpt lat="45.68405" lon="6.24857">
        <ele>1944.5660400391</ele>
        <time>2017-11-01T10:31:41Z</time>
      </trkpt>
      <trkpt lat="45.68401" lon="6.24862">
        <ele>1945.5660400391</ele>
        <time>2017-11-01T10:31:46Z</time>
      </trkpt>
      <trkpt lat="45.68398" lon="6.24867">
        <ele>1945.5660400391</ele>
        <time>2017-11-01T10:31:50Z</time>
      </trkpt>
      <trkpt lat="45.68395" lon="6.24873">
        <ele>1944.5660400391</ele>
        <time>2017-11-01T10:31:54Z</time>
      </trkpt>
      <trkpt lat="45.68392" lon="6.24879">
        <ele>1944.5660400391</ele>
        <time>2017-11-01T10:31:57Z</time>
      </trkpt>
      <trkpt lat="45.68388" lon="6.24883">
        <ele>1945.5660400391</ele>
        <time>2017-11-01T10:32:00Z</time>
      </trkpt>
      <trkpt lat="45.68385" lon="6.2489">
        <ele>1943.5660400391</ele>
        <time>2017-11-01T10:32:04Z</time>
      </trkpt>
      <trkpt lat="45.68382" lon="6.24896">
        <ele>1943.5660400391</ele>
        <time>2017-11-01T10:32:09Z</time>
      </trkpt>
      <trkpt lat="45.68379" lon="6.24902">
        <ele>1942.5660400391</ele>
        <time>2017-11-01T10:32:12Z</time>
      </trkpt>
      <trkpt lat="45.68375" lon="6.24909">
        <ele>1942.5660400391</ele>
        <time>2017-11-01T10:32:15Z</time>
      </trkpt>
      <trkpt lat="45.68372" lon="6.24915">
        <ele>1942.5660400391</ele>
        <time>2017-11-01T10:32:18Z</time>
      </trkpt>
      <trkpt lat="45.68372" lon="6.24923">
        <ele>1940.5660400391</ele>
        <time>2017-11-01T10:32:22Z</time>
      </trkpt>
      <trkpt lat="45.68369" lon="6.24929">
        <ele>1941.5660400391</ele>
        <time>2017-11-01T10:32:25Z</time>
      </trkpt>
      <trkpt lat="45.68365" lon="6.24934">
        <ele>1940.5660400391</ele>
        <time>2017-11-01T10:32:28Z</time>
      </trkpt>
      <trkpt lat="45.68362" lon="6.24939">
        <ele>1943.5660400391</ele>
        <time>2017-11-01T10:32:31Z</time>
      </trkpt>
      <trkpt lat="45.68361" lon="6.24947">
        <ele>1942.5660400391</ele>
        <time>2017-11-01T10:32:35Z</time>
      </trkpt>
      <trkpt lat="45.68358" lon="6.24954">
        <ele>1941.5660400391</ele>
        <time>2017-11-01T10:32:40Z</time>
      </trkpt>
      <trkpt lat="45.68356" lon="6.2496">
        <ele>1942.5660400391</ele>
        <time>2017-11-01T10:32:44Z</time>
      </trkpt>
      <trkpt lat="45.68355" lon="6.24967">
        <ele>1943.5660400391</ele>
        <time>2017-11-01T10:32:49Z</time>
      </trkpt>
      <trkpt lat="45.68352" lon="6.24975">
        <ele>1940.5660400391</ele>
        <time>2017-11-01T10:32:55Z</time>
      </trkpt>
      <trkpt lat="45.68351" lon="6.24981">
        <ele>1944.5660400391</ele>
        <time>2017-11-01T10:33:01Z</time>
      </trkpt>
      <trkpt lat="45.68348" lon="6.24987">
        <ele>1946.5660400391</ele>
        <time>2017-11-01T10:33:11Z</time>
      </trkpt>
      <trkpt lat="45.68346" lon="6.24994">
        <ele>1947.5660400391</ele>
        <time>2017-11-01T10:33:14Z</time>
      </trkpt>
      <trkpt lat="45.68342" lon="6.24997">
        <ele>1948.5660400391</ele>
        <time>2017-11-01T10:33:17Z</time>
      </trkpt>
      <trkpt lat="45.6834" lon="6.25004">
        <ele>1950.5660400391</ele>
        <time>2017-11-01T10:33:21Z</time>
      </trkpt>
      <trkpt lat="45.68338" lon="6.2501">
        <ele>1950.5660400391</ele>
        <time>2017-11-01T10:33:27Z</time>
      </trkpt>
      <trkpt lat="45.68337" lon="6.25016">
        <ele>1954.5660400391</ele>
        <time>2017-11-01T10:33:32Z</time>
      </trkpt>
      <trkpt lat="45.68336" lon="6.25023">
        <ele>1955.5660400391</ele>
        <time>2017-11-01T10:33:36Z</time>
      </trkpt>
      <trkpt lat="45.68336" lon="6.25031">
        <ele>1951.5660400391</ele>
        <time>2017-11-01T10:33:41Z</time>
      </trkpt>
      <trkpt lat="45.68333" lon="6.25037">
        <ele>1951.5660400391</ele>
        <time>2017-11-01T10:33:47Z</time>
      </trkpt>
      <trkpt lat="45.68332" lon="6.25043">
        <ele>1952.5660400391</ele>
        <time>2017-11-01T10:33:52Z</time>
      </trkpt>
      <trkpt lat="45.68333" lon="6.2505">
        <ele>1953.5660400391</ele>
        <time>2017-11-01T10:33:58Z</time>
      </trkpt>
      <trkpt lat="45.68335" lon="6.25056">
        <ele>1953.5660400391</ele>
        <time>2017-11-01T10:34:02Z</time>
      </trkpt>
      <trkpt lat="45.68335" lon="6.25064">
        <ele>1955.5660400391</ele>
        <time>2017-11-01T10:34:06Z</time>
      </trkpt>
      <trkpt lat="45.68335" lon="6.25072">
        <ele>1955.5660400391</ele>
        <time>2017-11-01T10:34:11Z</time>
      </trkpt>
      <trkpt lat="45.68334" lon="6.25079">
        <ele>1957.5660400391</ele>
        <time>2017-11-01T10:34:15Z</time>
      </trkpt>
      <trkpt lat="45.68334" lon="6.25087">
        <ele>1956.5660400391</ele>
        <time>2017-11-01T10:34:18Z</time>
      </trkpt>
      <trkpt lat="45.68334" lon="6.25095">
        <ele>1957.5660400391</ele>
        <time>2017-11-01T10:34:22Z</time>
      </trkpt>
      <trkpt lat="45.68335" lon="6.25102">
        <ele>1957.5660400391</ele>
        <time>2017-11-01T10:34:27Z</time>
      </trkpt>
      <trkpt lat="45.68335" lon="6.2511">
        <ele>1958.5660400391</ele>
        <time>2017-11-01T10:34:32Z</time>
      </trkpt>
      <trkpt lat="45.68336" lon="6.25119">
        <ele>1956.5660400391</ele>
        <time>2017-11-01T10:34:37Z</time>
      </trkpt>
      <trkpt lat="45.68334" lon="6.25127">
        <ele>1955.5660400391</ele>
        <time>2017-11-01T10:34:43Z</time>
      </trkpt>
      <trkpt lat="45.68334" lon="6.25134">
        <ele>1957.5660400391</ele>
        <time>2017-11-01T10:34:46Z</time>
      </trkpt>
      <trkpt lat="45.68333" lon="6.25141">
        <ele>1958.5660400391</ele>
        <time>2017-11-01T10:34:49Z</time>
      </trkpt>
      <trkpt lat="45.68332" lon="6.25147">
        <ele>1957.5660400391</ele>
        <time>2017-11-01T10:34:54Z</time>
      </trkpt>
      <trkpt lat="45.68332" lon="6.25154">
        <ele>1957.5660400391</ele>
        <time>2017-11-01T10:35:01Z</time>
      </trkpt>
      <trkpt lat="45.68333" lon="6.25162">
        <ele>1960.5660400391</ele>
        <time>2017-11-01T10:35:06Z</time>
      </trkpt>
      <trkpt lat="45.68331" lon="6.25169">
        <ele>1961.5660400391</ele>
        <time>2017-11-01T10:35:10Z</time>
      </trkpt>
      <trkpt lat="45.68332" lon="6.25176">
        <ele>1962.5660400391</ele>
        <time>2017-11-01T10:35:18Z</time>
      </trkpt>
      <trkpt lat="45.68332" lon="6.25183">
        <ele>1969.5660400391</ele>
        <time>2017-11-01T10:38:08Z</time>
      </trkpt>
      <trkpt lat="45.68331" lon="6.2519">
        <ele>1971.5660400391</ele>
        <time>2017-11-01T10:38:13Z</time>
      </trkpt>
      <trkpt lat="45.68331" lon="6.25197">
        <ele>1971.5660400391</ele>
        <time>2017-11-01T10:38:18Z</time>
      </trkpt>
      <trkpt lat="45.68331" lon="6.25205">
        <ele>1972.5660400391</ele>
        <time>2017-11-01T10:38:22Z</time>
      </trkpt>
      <trkpt lat="45.6833" lon="6.25212">
        <ele>1971.5660400391</ele>
        <time>2017-11-01T10:38:27Z</time>
      </trkpt>
      <trkpt lat="45.68328" lon="6.25218">
        <ele>1970.5660400391</ele>
        <time>2017-11-01T10:38:32Z</time>
      </trkpt>
      <trkpt lat="45.68328" lon="6.25225">
        <ele>1975.5660400391</ele>
        <time>2017-11-01T10:38:36Z</time>
      </trkpt>
      <trkpt lat="45.6833" lon="6.25231">
        <ele>1972.5660400391</ele>
        <time>2017-11-01T10:38:41Z</time>
      </trkpt>
      <trkpt lat="45.68333" lon="6.25238">
        <ele>1976.5660400391</ele>
        <time>2017-11-01T10:38:44Z</time>
      </trkpt>
      <trkpt lat="45.68335" lon="6.25246">
        <ele>1978.5660400391</ele>
        <time>2017-11-01T10:38:49Z</time>
      </trkpt>
      <trkpt lat="45.6834" lon="6.25247">
        <ele>1979.5660400391</ele>
        <time>2017-11-01T10:38:54Z</time>
      </trkpt>
      <trkpt lat="45.68339" lon="6.25255">
        <ele>1975.5660400391</ele>
        <time>2017-11-01T10:38:58Z</time>
      </trkpt>
      <trkpt lat="45.68339" lon="6.25264">
        <ele>1976.5660400391</ele>
        <time>2017-11-01T10:39:01Z</time>
      </trkpt>
      <trkpt lat="45.68341" lon="6.25271">
        <ele>1975.5660400391</ele>
        <time>2017-11-01T10:39:05Z</time>
      </trkpt>
      <trkpt lat="45.68341" lon="6.25278">
        <ele>1972.5660400391</ele>
        <time>2017-11-01T10:39:09Z</time>
      </trkpt>
      <trkpt lat="45.6834" lon="6.25285">
        <ele>1972.5660400391</ele>
        <time>2017-11-01T10:39:11Z</time>
      </trkpt>
      <trkpt lat="45.6834" lon="6.25292">
        <ele>1973.5660400391</ele>
        <time>2017-11-01T10:39:13Z</time>
      </trkpt>
      <trkpt lat="45.6834" lon="6.25299">
        <ele>1974.5660400391</ele>
        <time>2017-11-01T10:39:18Z</time>
      </trkpt>
      <trkpt lat="45.6834" lon="6.25306">
        <ele>1973.5660400391</ele>
        <time>2017-11-01T10:39:22Z</time>
      </trkpt>
      <trkpt lat="45.6834" lon="6.25314">
        <ele>1977.5660400391</ele>
        <time>2017-11-01T10:39:28Z</time>
      </trkpt>
      <trkpt lat="45.6834" lon="6.25321">
        <ele>1981.5660400391</ele>
        <time>2017-11-01T10:39:34Z</time>
      </trkpt>
      <trkpt lat="45.6834" lon="6.25327">
        <ele>1983.5660400391</ele>
        <time>2017-11-01T10:39:42Z</time>
      </trkpt>
      <trkpt lat="45.6834" lon="6.25334">
        <ele>1985.5660400391</ele>
        <time>2017-11-01T10:39:50Z</time>
      </trkpt>
      <trkpt lat="45.68339" lon="6.25342">
        <ele>1987.5660400391</ele>
        <time>2017-11-01T10:39:59Z</time>
      </trkpt>
      <trkpt lat="45.68339" lon="6.25349">
        <ele>1987.5660400391</ele>
        <time>2017-11-01T10:40:05Z</time>
      </trkpt>
      <trkpt lat="45.68339" lon="6.25356">
        <ele>1989.5660400391</ele>
        <time>2017-11-01T10:40:13Z</time>
      </trkpt>
      <trkpt lat="45.68341" lon="6.25362">
        <ele>1990.5660400391</ele>
        <time>2017-11-01T10:40:20Z</time>
      </trkpt>
      <trkpt lat="45.68341" lon="6.25369">
        <ele>1991.5660400391</ele>
        <time>2017-11-01T10:40:26Z</time>
      </trkpt>
      <trkpt lat="45.68341" lon="6.25376">
        <ele>1994.5660400391</ele>
        <time>2017-11-01T10:40:31Z</time>
      </trkpt>
      <trkpt lat="45.68341" lon="6.25383">
        <ele>1995.5660400391</ele>
        <time>2017-11-01T10:40:37Z</time>
      </trkpt>
      <trkpt lat="45.68341" lon="6.25389">
        <ele>1994.5660400391</ele>
        <time>2017-11-01T10:40:42Z</time>
      </trkpt>
      <trkpt lat="45.68342" lon="6.25396">
        <ele>1996.5660400391</ele>
        <time>2017-11-01T10:40:47Z</time>
      </trkpt>
      <trkpt lat="45.68342" lon="6.25404">
        <ele>1998.5660400391</ele>
        <time>2017-11-01T10:40:51Z</time>
      </trkpt>
      <trkpt lat="45.68343" lon="6.2541">
        <ele>1998.5660400391</ele>
        <time>2017-11-01T10:40:55Z</time>
      </trkpt>
      <trkpt lat="45.68344" lon="6.25417">
        <ele>1998.5660400391</ele>
        <time>2017-11-01T10:40:59Z</time>
      </trkpt>
      <trkpt lat="45.68345" lon="6.25424">
        <ele>1998.5660400391</ele>
        <time>2017-11-01T10:41:03Z</time>
      </trkpt>
      <trkpt lat="45.68348" lon="6.2543">
        <ele>2003.5660400391</ele>
        <time>2017-11-01T10:41:08Z</time>
      </trkpt>
      <trkpt lat="45.6835" lon="6.25436">
        <ele>2005.5660400391</ele>
        <time>2017-11-01T10:41:14Z</time>
      </trkpt>
      <trkpt lat="45.68353" lon="6.25442">
        <ele>2005.5660400391</ele>
        <time>2017-11-01T10:41:20Z</time>
      </trkpt>
      <trkpt lat="45.68355" lon="6.25449">
        <ele>2007.5660400391</ele>
        <time>2017-11-01T10:41:25Z</time>
      </trkpt>
      <trkpt lat="45.68358" lon="6.25454">
        <ele>2009.5660400391</ele>
        <time>2017-11-01T10:41:30Z</time>
      </trkpt>
      <trkpt lat="45.68359" lon="6.2546">
        <ele>2011.5660400391</ele>
        <time>2017-11-01T10:41:35Z</time>
      </trkpt>
      <trkpt lat="45.68359" lon="6.25467">
        <ele>2012.5660400391</ele>
        <time>2017-11-01T10:41:39Z</time>
      </trkpt>
      <trkpt lat="45.6836" lon="6.25475">
        <ele>2011.5660400391</ele>
        <time>2017-11-01T10:41:45Z</time>
      </trkpt>
      <trkpt lat="45.68359" lon="6.25481">
        <ele>2011.5660400391</ele>
        <time>2017-11-01T10:41:48Z</time>
      </trkpt>
      <trkpt lat="45.6836" lon="6.25489">
        <ele>2014.5660400391</ele>
        <time>2017-11-01T10:41:56Z</time>
      </trkpt>
      <trkpt lat="45.68361" lon="6.25496">
        <ele>2017.5660400391</ele>
        <time>2017-11-01T10:42:03Z</time>
      </trkpt>
      <trkpt lat="45.68362" lon="6.25503">
        <ele>2019.5660400391</ele>
        <time>2017-11-01T10:42:12Z</time>
      </trkpt>
      <trkpt lat="45.68363" lon="6.2551">
        <ele>2023.5660400391</ele>
        <time>2017-11-01T10:42:21Z</time>
      </trkpt>
      <trkpt lat="45.6836" lon="6.25517">
        <ele>2025.5660400391</ele>
        <time>2017-11-01T10:42:27Z</time>
      </trkpt>
      <trkpt lat="45.68357" lon="6.25523">
        <ele>2027.5660400391</ele>
        <time>2017-11-01T10:42:32Z</time>
      </trkpt>
      <trkpt lat="45.68357" lon="6.2553">
        <ele>2033.5660400391</ele>
        <time>2017-11-01T10:42:46Z</time>
      </trkpt>
      <trkpt lat="45.68355" lon="6.25536">
        <ele>2035.5660400391</ele>
        <time>2017-11-01T10:42:56Z</time>
      </trkpt>
      <trkpt lat="45.68354" lon="6.25543">
        <ele>2035.5660400391</ele>
        <time>2017-11-01T10:43:02Z</time>
      </trkpt>
      <trkpt lat="45.68351" lon="6.25547">
        <ele>2040.5660400391</ele>
        <time>2017-11-01T10:43:12Z</time>
      </trkpt>
      <trkpt lat="45.68349" lon="6.25554">
        <ele>2041.5660400391</ele>
        <time>2017-11-01T10:43:18Z</time>
      </trkpt>
      <trkpt lat="45.68347" lon="6.25561">
        <ele>2043.5660400391</ele>
        <time>2017-11-01T10:43:26Z</time>
      </trkpt>
      <trkpt lat="45.68347" lon="6.25567">
        <ele>2045.5660400391</ele>
        <time>2017-11-01T10:43:34Z</time>
      </trkpt>
      <trkpt lat="45.68345" lon="6.25574">
        <ele>2046.5660400391</ele>
        <time>2017-11-01T10:43:40Z</time>
      </trkpt>
      <trkpt lat="45.68343" lon="6.25582">
        <ele>2048.5659179688</ele>
        <time>2017-11-01T10:43:46Z</time>
      </trkpt>
      <trkpt lat="45.68341" lon="6.25588">
        <ele>2049.5659179688</ele>
        <time>2017-11-01T10:43:53Z</time>
      </trkpt>
      <trkpt lat="45.68346" lon="6.25584">
        <ele>2050.5659179688</ele>
        <time>2017-11-01T10:44:01Z</time>
      </trkpt>
      <trkpt lat="45.68351" lon="6.2558">
        <ele>2050.5659179688</ele>
        <time>2017-11-01T10:44:09Z</time>
      </trkpt>
      <trkpt lat="45.68356" lon="6.25578">
        <ele>2053.5659179688</ele>
        <time>2017-11-01T10:44:14Z</time>
      </trkpt>
      <trkpt lat="45.6836" lon="6.25574">
        <ele>2053.5659179688</ele>
        <time>2017-11-01T10:44:24Z</time>
      </trkpt>
      <trkpt lat="45.68365" lon="6.25573">
        <ele>2054.5659179688</ele>
        <time>2017-11-01T10:44:30Z</time>
      </trkpt>
      <trkpt lat="45.68364" lon="6.2558">
        <ele>2057.5659179688</ele>
        <time>2017-11-01T10:44:40Z</time>
      </trkpt>
      <trkpt lat="45.68363" lon="6.25587">
        <ele>2059.5659179688</ele>
        <time>2017-11-01T10:44:48Z</time>
      </trkpt>
      <trkpt lat="45.68361" lon="6.25592">
        <ele>2063.5659179688</ele>
        <time>2017-11-01T10:44:55Z</time>
      </trkpt>
      <trkpt lat="45.68359" lon="6.25599">
        <ele>2066.5659179688</ele>
        <time>2017-11-01T10:45:00Z</time>
      </trkpt>
      <trkpt lat="45.68357" lon="6.25605">
        <ele>2068.5659179688</ele>
        <time>2017-11-01T10:45:07Z</time>
      </trkpt>
      <trkpt lat="45.6836" lon="6.2561">
        <ele>2067.5659179688</ele>
        <time>2017-11-01T10:45:15Z</time>
      </trkpt>
      <trkpt lat="45.68365" lon="6.25607">
        <ele>2070.5659179688</ele>
        <time>2017-11-01T10:45:22Z</time>
      </trkpt>
      <trkpt lat="45.6837" lon="6.25609">
        <ele>2070.5659179688</ele>
        <time>2017-11-01T10:45:40Z</time>
      </trkpt>
      <trkpt lat="45.68376" lon="6.25614">
        <ele>2071.5659179688</ele>
        <time>2017-11-01T10:45:46Z</time>
      </trkpt>
      <trkpt lat="45.68378" lon="6.25621">
        <ele>2076.5659179688</ele>
        <time>2017-11-01T10:45:55Z</time>
      </trkpt>
      <trkpt lat="45.68377" lon="6.25628">
        <ele>2080.5659179688</ele>
        <time>2017-11-01T10:46:04Z</time>
      </trkpt>
      <trkpt lat="45.68377" lon="6.25635">
        <ele>2082.5659179688</ele>
        <time>2017-11-01T10:46:11Z</time>
      </trkpt>
      <trkpt lat="45.68377" lon="6.25642">
        <ele>2084.5659179688</ele>
        <time>2017-11-01T10:46:20Z</time>
      </trkpt>
      <trkpt lat="45.68377" lon="6.25649">
        <ele>2086.5659179688</ele>
        <time>2017-11-01T10:46:29Z</time>
      </trkpt>
      <trkpt lat="45.68372" lon="6.25652">
        <ele>2090.5659179688</ele>
        <time>2017-11-01T10:46:39Z</time>
      </trkpt>
      <trkpt lat="45.68375" lon="6.25657">
        <ele>2090.5659179688</ele>
        <time>2017-11-01T10:46:46Z</time>
      </trkpt>
      <trkpt lat="45.68372" lon="6.25663">
        <ele>2091.5659179688</ele>
        <time>2017-11-01T10:46:53Z</time>
      </trkpt>
      <trkpt lat="45.68368" lon="6.25666">
        <ele>2093.5659179688</ele>
        <time>2017-11-01T10:47:02Z</time>
      </trkpt>
      <trkpt lat="45.68365" lon="6.2567">
        <ele>2095.5659179688</ele>
        <time>2017-11-01T10:47:08Z</time>
      </trkpt>
      <trkpt lat="45.68362" lon="6.25676">
        <ele>2097.5659179688</ele>
        <time>2017-11-01T10:47:14Z</time>
      </trkpt>
      <trkpt lat="45.68359" lon="6.25681">
        <ele>2098.5659179688</ele>
        <time>2017-11-01T10:47:21Z</time>
      </trkpt>
      <trkpt lat="45.68356" lon="6.25687">
        <ele>2101.5659179688</ele>
        <time>2017-11-01T10:47:26Z</time>
      </trkpt>
      <trkpt lat="45.68353" lon="6.25691">
        <ele>2103.5659179688</ele>
        <time>2017-11-01T10:47:31Z</time>
      </trkpt>
      <trkpt lat="45.68349" lon="6.25696">
        <ele>2105.5659179688</ele>
        <time>2017-11-01T10:47:37Z</time>
      </trkpt>
      <trkpt lat="45.68348" lon="6.25702">
        <ele>2106.5659179688</ele>
        <time>2017-11-01T10:47:41Z</time>
      </trkpt>
      <trkpt lat="45.68345" lon="6.25708">
        <ele>2107.5659179688</ele>
        <time>2017-11-01T10:47:48Z</time>
      </trkpt>
      <trkpt lat="45.68344" lon="6.25714">
        <ele>2108.5659179688</ele>
        <time>2017-11-01T10:47:54Z</time>
      </trkpt>
      <trkpt lat="45.6834" lon="6.2572">
        <ele>2110.5659179688</ele>
        <time>2017-11-01T10:48:00Z</time>
      </trkpt>
      <trkpt lat="45.68338" lon="6.25727">
        <ele>2111.5659179688</ele>
        <time>2017-11-01T10:48:06Z</time>
      </trkpt>
      <trkpt lat="45.68335" lon="6.25732">
        <ele>2113.5659179688</ele>
        <time>2017-11-01T10:48:10Z</time>
      </trkpt>
      <trkpt lat="45.68332" lon="6.25738">
        <ele>2114.5659179688</ele>
        <time>2017-11-01T10:48:16Z</time>
      </trkpt>
      <trkpt lat="45.68329" lon="6.25743">
        <ele>2116.5659179688</ele>
        <time>2017-11-01T10:48:21Z</time>
      </trkpt>
      <trkpt lat="45.68326" lon="6.25749">
        <ele>2116.5659179688</ele>
        <time>2017-11-01T10:48:27Z</time>
      </trkpt>
      <trkpt lat="45.68323" lon="6.25755">
        <ele>2119.5659179688</ele>
        <time>2017-11-01T10:48:32Z</time>
      </trkpt>
      <trkpt lat="45.6832" lon="6.2576">
        <ele>2118.5659179688</ele>
        <time>2017-11-01T10:48:38Z</time>
      </trkpt>
      <trkpt lat="45.68323" lon="6.25765">
        <ele>2121.5659179688</ele>
        <time>2017-11-01T10:48:47Z</time>
      </trkpt>
      <trkpt lat="45.68327" lon="6.25762">
        <ele>2124.5659179688</ele>
        <time>2017-11-01T10:48:52Z</time>
      </trkpt>
      <trkpt lat="45.68332" lon="6.25761">
        <ele>2125.5668945312</ele>
        <time>2017-11-01T10:48:57Z</time>
      </trkpt>
      <trkpt lat="45.68336" lon="6.25759">
        <ele>2127.5668945312</ele>
        <time>2017-11-01T10:49:03Z</time>
      </trkpt>
      <trkpt lat="45.68341" lon="6.25758">
        <ele>2128.5668945312</ele>
        <time>2017-11-01T10:49:11Z</time>
      </trkpt>
      <trkpt lat="45.68346" lon="6.25756">
        <ele>2128.5668945312</ele>
        <time>2017-11-01T10:49:17Z</time>
      </trkpt>
      <trkpt lat="45.68351" lon="6.25755">
        <ele>2130.5668945312</ele>
        <time>2017-11-01T10:49:24Z</time>
      </trkpt>
      <trkpt lat="45.68355" lon="6.25754">
        <ele>2130.5668945312</ele>
        <time>2017-11-01T10:49:31Z</time>
      </trkpt>
      <trkpt lat="45.6836" lon="6.25753">
        <ele>2131.5668945312</ele>
        <time>2017-11-01T10:49:37Z</time>
      </trkpt>
      <trkpt lat="45.68365" lon="6.2575">
        <ele>2135.5668945312</ele>
        <time>2017-11-01T10:49:42Z</time>
      </trkpt>
      <trkpt lat="45.6837" lon="6.25748">
        <ele>2136.5668945312</ele>
        <time>2017-11-01T10:49:50Z</time>
      </trkpt>
      <trkpt lat="45.68374" lon="6.25746">
        <ele>2137.5668945312</ele>
        <time>2017-11-01T10:49:56Z</time>
      </trkpt>
      <trkpt lat="45.68379" lon="6.25743">
        <ele>2138.5668945312</ele>
        <time>2017-11-01T10:50:02Z</time>
      </trkpt>
      <trkpt lat="45.68377" lon="6.2575">
        <ele>2140.5668945312</ele>
        <time>2017-11-01T10:50:09Z</time>
      </trkpt>
      <trkpt lat="45.68375" lon="6.25756">
        <ele>2142.5668945312</ele>
        <time>2017-11-01T10:50:13Z</time>
      </trkpt>
      <trkpt lat="45.68372" lon="6.25762">
        <ele>2144.5668945312</ele>
        <time>2017-11-01T10:50:20Z</time>
      </trkpt>
      <trkpt lat="45.6837" lon="6.25768">
        <ele>2146.5668945312</ele>
        <time>2017-11-01T10:50:25Z</time>
      </trkpt>
      <trkpt lat="45.68367" lon="6.25773">
        <ele>2148.5668945312</ele>
        <time>2017-11-01T10:50:30Z</time>
      </trkpt>
      <trkpt lat="45.68364" lon="6.25779">
        <ele>2151.5668945312</ele>
        <time>2017-11-01T10:50:36Z</time>
      </trkpt>
      <trkpt lat="45.68361" lon="6.25785">
        <ele>2151.5668945312</ele>
        <time>2017-11-01T10:50:43Z</time>
      </trkpt>
      <trkpt lat="45.68365" lon="6.25788">
        <ele>2153.5668945312</ele>
        <time>2017-11-01T10:50:54Z</time>
      </trkpt>
      <trkpt lat="45.68369" lon="6.25786">
        <ele>2155.5668945312</ele>
        <time>2017-11-01T10:51:00Z</time>
      </trkpt>
      <trkpt lat="45.68374" lon="6.25785">
        <ele>2157.5668945312</ele>
        <time>2017-11-01T10:51:07Z</time>
      </trkpt>
      <trkpt lat="45.68379" lon="6.25783">
        <ele>2158.5668945312</ele>
        <time>2017-11-01T10:51:13Z</time>
      </trkpt>
      <trkpt lat="45.68383" lon="6.25783">
        <ele>2160.5668945312</ele>
        <time>2017-11-01T10:51:17Z</time>
      </trkpt>
      <trkpt lat="45.68388" lon="6.25782">
        <ele>2160.5668945312</ele>
        <time>2017-11-01T10:51:25Z</time>
      </trkpt>
      <trkpt lat="45.68392" lon="6.2578">
        <ele>2162.5668945312</ele>
        <time>2017-11-01T10:51:29Z</time>
      </trkpt>
      <trkpt lat="45.68397" lon="6.2578">
        <ele>2162.5668945312</ele>
        <time>2017-11-01T10:51:36Z</time>
      </trkpt>
      <trkpt lat="45.68396" lon="6.25788">
        <ele>2164.5668945312</ele>
        <time>2017-11-01T10:51:45Z</time>
      </trkpt>
      <trkpt lat="45.68394" lon="6.25794">
        <ele>2165.5668945312</ele>
        <time>2017-11-01T10:51:56Z</time>
      </trkpt>
      <trkpt lat="45.68394" lon="6.25801">
        <ele>2167.5668945312</ele>
        <time>2017-11-01T10:52:03Z</time>
      </trkpt>
      <trkpt lat="45.68391" lon="6.25808">
        <ele>2168.5668945312</ele>
        <time>2017-11-01T10:52:10Z</time>
      </trkpt>
      <trkpt lat="45.6839" lon="6.25815">
        <ele>2170.5668945312</ele>
        <time>2017-11-01T10:52:19Z</time>
      </trkpt>
      <trkpt lat="45.68388" lon="6.2582">
        <ele>2171.5668945312</ele>
        <time>2017-11-01T10:52:31Z</time>
      </trkpt>
      <trkpt lat="45.68383" lon="6.25822">
        <ele>2174.5668945312</ele>
        <time>2017-11-01T10:56:12Z</time>
      </trkpt>
      <trkpt lat="45.68379" lon="6.25825">
        <ele>2172.5668945312</ele>
        <time>2017-11-01T10:56:45Z</time>
      </trkpt>
      <trkpt lat="45.68374" lon="6.25825">
        <ele>2172.5668945312</ele>
        <time>2017-11-01T10:58:10Z</time>
      </trkpt>
      <trkpt lat="45.68368" lon="6.25822">
        <ele>2172.5668945312</ele>
        <time>2017-11-01T10:58:19Z</time>
      </trkpt>
      <trkpt lat="45.68364" lon="6.25824">
        <ele>2164.5668945312</ele>
        <time>2017-11-01T10:58:30Z</time>
      </trkpt>
      <trkpt lat="45.68358" lon="6.25823">
        <ele>2161.5668945312</ele>
        <time>2017-11-01T10:58:38Z</time>
      </trkpt>
      <trkpt lat="45.68354" lon="6.25819">
        <ele>2158.5668945312</ele>
        <time>2017-11-01T10:58:43Z</time>
      </trkpt>
      <trkpt lat="45.68349" lon="6.25819">
        <ele>2151.5668945312</ele>
        <time>2017-11-01T10:58:53Z</time>
      </trkpt>
      <trkpt lat="45.68344" lon="6.25816">
        <ele>2147.5668945312</ele>
        <time>2017-11-01T10:59:03Z</time>
      </trkpt>
      <trkpt lat="45.68339" lon="6.25818">
        <ele>2146.5668945312</ele>
        <time>2017-11-01T10:59:08Z</time>
      </trkpt>
      <trkpt lat="45.68334" lon="6.25819">
        <ele>2142.5668945312</ele>
        <time>2017-11-01T10:59:13Z</time>
      </trkpt>
      <trkpt lat="45.68329" lon="6.25821">
        <ele>2139.5668945312</ele>
        <time>2017-11-01T10:59:20Z</time>
      </trkpt>
      <trkpt lat="45.68325" lon="6.25825">
        <ele>2137.5668945312</ele>
        <time>2017-11-01T10:59:23Z</time>
      </trkpt>
      <trkpt lat="45.68319" lon="6.25825">
        <ele>2139.5668945312</ele>
        <time>2017-11-01T10:59:26Z</time>
      </trkpt>
      <trkpt lat="45.68314" lon="6.2583">
        <ele>2139.5668945312</ele>
        <time>2017-11-01T10:59:30Z</time>
      </trkpt>
      <trkpt lat="45.68309" lon="6.25832">
        <ele>2136.5668945312</ele>
        <time>2017-11-01T10:59:37Z</time>
      </trkpt>
      <trkpt lat="45.68304" lon="6.25835">
        <ele>2135.5668945312</ele>
        <time>2017-11-01T10:59:41Z</time>
      </trkpt>
      <trkpt lat="45.683" lon="6.25839">
        <ele>2133.5668945312</ele>
        <time>2017-11-01T10:59:46Z</time>
      </trkpt>
      <trkpt lat="45.68295" lon="6.2584">
        <ele>2134.5668945312</ele>
        <time>2017-11-01T10:59:49Z</time>
      </trkpt>
      <trkpt lat="45.6829" lon="6.25844">
        <ele>2134.5668945312</ele>
        <time>2017-11-01T10:59:52Z</time>
      </trkpt>
      <trkpt lat="45.68285" lon="6.25848">
        <ele>2132.5668945312</ele>
        <time>2017-11-01T10:59:57Z</time>
      </trkpt>
      <trkpt lat="45.68279" lon="6.25851">
        <ele>2128.5668945312</ele>
        <time>2017-11-01T11:00:02Z</time>
      </trkpt>
      <trkpt lat="45.68272" lon="6.25853">
        <ele>2126.5659179688</ele>
        <time>2017-11-01T11:00:06Z</time>
      </trkpt>
      <trkpt lat="45.68267" lon="6.25854">
        <ele>2130.5659179688</ele>
        <time>2017-11-01T11:00:10Z</time>
      </trkpt>
      <trkpt lat="45.68262" lon="6.25857">
        <ele>2129.5659179688</ele>
        <time>2017-11-01T11:00:15Z</time>
      </trkpt>
      <trkpt lat="45.68257" lon="6.25858">
        <ele>2126.5659179688</ele>
        <time>2017-11-01T11:00:19Z</time>
      </trkpt>
      <trkpt lat="45.68253" lon="6.25859">
        <ele>2121.5659179688</ele>
        <time>2017-11-01T11:00:23Z</time>
      </trkpt>
      <trkpt lat="45.68249" lon="6.25863">
        <ele>2121.5659179688</ele>
        <time>2017-11-01T11:00:27Z</time>
      </trkpt>
      <trkpt lat="45.68245" lon="6.25867">
        <ele>2119.5659179688</ele>
        <time>2017-11-01T11:00:30Z</time>
      </trkpt>
      <trkpt lat="45.6824" lon="6.25867">
        <ele>2116.5659179688</ele>
        <time>2017-11-01T11:00:34Z</time>
      </trkpt>
      <trkpt lat="45.68237" lon="6.25862">
        <ele>2115.5659179688</ele>
        <time>2017-11-01T11:00:39Z</time>
      </trkpt>
      <trkpt lat="45.68232" lon="6.2586">
        <ele>2113.5659179688</ele>
        <time>2017-11-01T11:00:44Z</time>
      </trkpt>
      <trkpt lat="45.68227" lon="6.25858">
        <ele>2108.5659179688</ele>
        <time>2017-11-01T11:00:53Z</time>
      </trkpt>
      <trkpt lat="45.68221" lon="6.25855">
        <ele>2109.5659179688</ele>
        <time>2017-11-01T11:00:58Z</time>
      </trkpt>
      <trkpt lat="45.68217" lon="6.25853">
        <ele>2107.5659179688</ele>
        <time>2017-11-01T11:01:03Z</time>
      </trkpt>
      <trkpt lat="45.68212" lon="6.25851">
        <ele>2107.5659179688</ele>
        <time>2017-11-01T11:01:08Z</time>
      </trkpt>
      <trkpt lat="45.68208" lon="6.25848">
        <ele>2104.5659179688</ele>
        <time>2017-11-01T11:01:13Z</time>
      </trkpt>
      <trkpt lat="45.68203" lon="6.25843">
        <ele>2104.5659179688</ele>
        <time>2017-11-01T11:01:18Z</time>
      </trkpt>
      <trkpt lat="45.682" lon="6.25848">
        <ele>2101.5659179688</ele>
        <time>2017-11-01T11:01:23Z</time>
      </trkpt>
      <trkpt lat="45.68195" lon="6.2585">
        <ele>2099.5659179688</ele>
        <time>2017-11-01T11:01:29Z</time>
      </trkpt>
      <trkpt lat="45.6819" lon="6.25849">
        <ele>2097.5659179688</ele>
        <time>2017-11-01T11:01:35Z</time>
      </trkpt>
      <trkpt lat="45.68184" lon="6.25849">
        <ele>2089.5659179688</ele>
        <time>2017-11-01T11:01:42Z</time>
      </trkpt>
      <trkpt lat="45.68179" lon="6.25849">
        <ele>2087.5659179688</ele>
        <time>2017-11-01T11:01:46Z</time>
      </trkpt>
      <trkpt lat="45.68174" lon="6.25849">
        <ele>2084.5659179688</ele>
        <time>2017-11-01T11:01:51Z</time>
      </trkpt>
      <trkpt lat="45.68169" lon="6.25846">
        <ele>2083.5659179688</ele>
        <time>2017-11-01T11:01:55Z</time>
      </trkpt>
      <trkpt lat="45.68164" lon="6.25844">
        <ele>2081.5659179688</ele>
        <time>2017-11-01T11:01:59Z</time>
      </trkpt>
      <trkpt lat="45.68159" lon="6.25844">
        <ele>2080.5659179688</ele>
        <time>2017-11-01T11:02:03Z</time>
      </trkpt>
      <trkpt lat="45.68154" lon="6.25841">
        <ele>2079.5659179688</ele>
        <time>2017-11-01T11:02:07Z</time>
      </trkpt>
      <trkpt lat="45.68149" lon="6.25839">
        <ele>2077.5659179688</ele>
        <time>2017-11-01T11:02:12Z</time>
      </trkpt>
      <trkpt lat="45.68143" lon="6.25838">
        <ele>2074.5659179688</ele>
        <time>2017-11-01T11:02:17Z</time>
      </trkpt>
      <trkpt lat="45.68138" lon="6.25838">
        <ele>2071.5659179688</ele>
        <time>2017-11-01T11:02:21Z</time>
      </trkpt>
      <trkpt lat="45.68132" lon="6.25837">
        <ele>2068.5659179688</ele>
        <time>2017-11-01T11:02:25Z</time>
      </trkpt>
      <trkpt lat="45.68126" lon="6.25834">
        <ele>2065.5659179688</ele>
        <time>2017-11-01T11:02:29Z</time>
      </trkpt>
      <trkpt lat="45.68121" lon="6.25833">
        <ele>2065.5659179688</ele>
        <time>2017-11-01T11:02:33Z</time>
      </trkpt>
      <trkpt lat="45.68118" lon="6.25829">
        <ele>2065.5659179688</ele>
        <time>2017-11-01T11:02:37Z</time>
      </trkpt>
      <trkpt lat="45.68113" lon="6.25827">
        <ele>2064.5659179688</ele>
        <time>2017-11-01T11:02:45Z</time>
      </trkpt>
      <trkpt lat="45.68108" lon="6.25825">
        <ele>2058.5659179688</ele>
        <time>2017-11-01T11:02:52Z</time>
      </trkpt>
      <trkpt lat="45.68104" lon="6.25821">
        <ele>2058.5659179688</ele>
        <time>2017-11-01T11:02:57Z</time>
      </trkpt>
      <trkpt lat="45.68099" lon="6.25825">
        <ele>2059.5659179688</ele>
        <time>2017-11-01T11:03:04Z</time>
      </trkpt>
      <trkpt lat="45.68094" lon="6.25824">
        <ele>2055.5659179688</ele>
        <time>2017-11-01T11:03:09Z</time>
      </trkpt>
      <trkpt lat="45.68089" lon="6.25822">
        <ele>2052.5659179688</ele>
        <time>2017-11-01T11:03:14Z</time>
      </trkpt>
      <trkpt lat="45.68086" lon="6.25816">
        <ele>2050.5659179688</ele>
        <time>2017-11-01T11:03:18Z</time>
      </trkpt>
      <trkpt lat="45.68083" lon="6.25811">
        <ele>2048.5659179688</ele>
        <time>2017-11-01T11:03:23Z</time>
      </trkpt>
      <trkpt lat="45.68079" lon="6.25807">
        <ele>2046.5660400391</ele>
        <time>2017-11-01T11:03:28Z</time>
      </trkpt>
      <trkpt lat="45.68076" lon="6.258">
        <ele>2043.5660400391</ele>
        <time>2017-11-01T11:03:33Z</time>
      </trkpt>
      <trkpt lat="45.68074" lon="6.25793">
        <ele>2040.5660400391</ele>
        <time>2017-11-01T11:03:37Z</time>
      </trkpt>
      <trkpt lat="45.68073" lon="6.25786">
        <ele>2038.5660400391</ele>
        <time>2017-11-01T11:03:41Z</time>
      </trkpt>
      <trkpt lat="45.6807" lon="6.25779">
        <ele>2038.5660400391</ele>
        <time>2017-11-01T11:03:46Z</time>
      </trkpt>
      <trkpt lat="45.68065" lon="6.25774">
        <ele>2036.5660400391</ele>
        <time>2017-11-01T11:03:51Z</time>
      </trkpt>
      <trkpt lat="45.68062" lon="6.25769">
        <ele>2034.5660400391</ele>
        <time>2017-11-01T11:03:56Z</time>
      </trkpt>
      <trkpt lat="45.68059" lon="6.25762">
        <ele>2033.5660400391</ele>
        <time>2017-11-01T11:04:00Z</time>
      </trkpt>
      <trkpt lat="45.68057" lon="6.25756">
        <ele>2030.5660400391</ele>
        <time>2017-11-01T11:04:04Z</time>
      </trkpt>
      <trkpt lat="45.68055" lon="6.25748">
        <ele>2030.5660400391</ele>
        <time>2017-11-01T11:04:08Z</time>
      </trkpt>
      <trkpt lat="45.68051" lon="6.25744">
        <ele>2028.5660400391</ele>
        <time>2017-11-01T11:04:13Z</time>
      </trkpt>
      <trkpt lat="45.6805" lon="6.25738">
        <ele>2026.5660400391</ele>
        <time>2017-11-01T11:04:17Z</time>
      </trkpt>
      <trkpt lat="45.68047" lon="6.25733">
        <ele>2021.5660400391</ele>
        <time>2017-11-01T11:04:26Z</time>
      </trkpt>
      <trkpt lat="45.68046" lon="6.25727">
        <ele>2018.5660400391</ele>
        <time>2017-11-01T11:04:40Z</time>
      </trkpt>
      <trkpt lat="45.68045" lon="6.25733">
        <ele>2018.5660400391</ele>
        <time>2017-11-01T11:36:49Z</time>
      </trkpt>
      <trkpt lat="45.68047" lon="6.25727">
        <ele>2013.5660400391</ele>
        <time>2017-11-01T11:36:53Z</time>
      </trkpt>
      <trkpt lat="45.68042" lon="6.25724">
        <ele>2013.5660400391</ele>
        <time>2017-11-01T11:37:24Z</time>
      </trkpt>
      <trkpt lat="45.6804" lon="6.25719">
        <ele>2011.5660400391</ele>
        <time>2017-11-01T11:37:27Z</time>
      </trkpt>
      <trkpt lat="45.68036" lon="6.25713">
        <ele>2008.5660400391</ele>
        <time>2017-11-01T11:37:31Z</time>
      </trkpt>
      <trkpt lat="45.68032" lon="6.2571">
        <ele>2007.5660400391</ele>
        <time>2017-11-01T11:37:34Z</time>
      </trkpt>
      <trkpt lat="45.6803" lon="6.25704">
        <ele>2006.5660400391</ele>
        <time>2017-11-01T11:37:37Z</time>
      </trkpt>
      <trkpt lat="45.68026" lon="6.25699">
        <ele>2003.5660400391</ele>
        <time>2017-11-01T11:37:40Z</time>
      </trkpt>
      <trkpt lat="45.68023" lon="6.25693">
        <ele>2002.5660400391</ele>
        <time>2017-11-01T11:37:43Z</time>
      </trkpt>
      <trkpt lat="45.68018" lon="6.25686">
        <ele>1999.5660400391</ele>
        <time>2017-11-01T11:37:46Z</time>
      </trkpt>
      <trkpt lat="45.68015" lon="6.2568">
        <ele>1998.5660400391</ele>
        <time>2017-11-01T11:37:51Z</time>
      </trkpt>
      <trkpt lat="45.68011" lon="6.25676">
        <ele>1995.5660400391</ele>
        <time>2017-11-01T11:37:55Z</time>
      </trkpt>
      <trkpt lat="45.68006" lon="6.25676">
        <ele>1992.5660400391</ele>
        <time>2017-11-01T11:37:59Z</time>
      </trkpt>
      <trkpt lat="45.68003" lon="6.25671">
        <ele>1990.5660400391</ele>
        <time>2017-11-01T11:38:02Z</time>
      </trkpt>
      <trkpt lat="45.67999" lon="6.25663">
        <ele>1986.5660400391</ele>
        <time>2017-11-01T11:38:06Z</time>
      </trkpt>
      <trkpt lat="45.67994" lon="6.25658">
        <ele>1984.5660400391</ele>
        <time>2017-11-01T11:38:11Z</time>
      </trkpt>
      <trkpt lat="45.6799" lon="6.25653">
        <ele>1981.5660400391</ele>
        <time>2017-11-01T11:38:14Z</time>
      </trkpt>
      <trkpt lat="45.67987" lon="6.25648">
        <ele>1977.5660400391</ele>
        <time>2017-11-01T11:38:19Z</time>
      </trkpt>
      <trkpt lat="45.67984" lon="6.2564">
        <ele>1975.5660400391</ele>
        <time>2017-11-01T11:38:23Z</time>
      </trkpt>
      <trkpt lat="45.67981" lon="6.25633">
        <ele>1972.5660400391</ele>
        <time>2017-11-01T11:38:27Z</time>
      </trkpt>
      <trkpt lat="45.67978" lon="6.25625">
        <ele>1969.5660400391</ele>
        <time>2017-11-01T11:38:31Z</time>
      </trkpt>
      <trkpt lat="45.67975" lon="6.2562">
        <ele>1968.5660400391</ele>
        <time>2017-11-01T11:38:34Z</time>
      </trkpt>
      <trkpt lat="45.67972" lon="6.25616">
        <ele>1966.5660400391</ele>
        <time>2017-11-01T11:38:37Z</time>
      </trkpt>
      <trkpt lat="45.67969" lon="6.25611">
        <ele>1964.5660400391</ele>
        <time>2017-11-01T11:38:40Z</time>
      </trkpt>
      <trkpt lat="45.67967" lon="6.25605">
        <ele>1961.5660400391</ele>
        <time>2017-11-01T11:38:44Z</time>
      </trkpt>
      <trkpt lat="45.67964" lon="6.25598">
        <ele>1958.5660400391</ele>
        <time>2017-11-01T11:38:47Z</time>
      </trkpt>
      <trkpt lat="45.67961" lon="6.25589">
        <ele>1956.5660400391</ele>
        <time>2017-11-01T11:38:50Z</time>
      </trkpt>
      <trkpt lat="45.6796" lon="6.25581">
        <ele>1955.5660400391</ele>
        <time>2017-11-01T11:38:52Z</time>
      </trkpt>
      <trkpt lat="45.67958" lon="6.25573">
        <ele>1953.5660400391</ele>
        <time>2017-11-01T11:38:55Z</time>
      </trkpt>
      <trkpt lat="45.67956" lon="6.25565">
        <ele>1954.5660400391</ele>
        <time>2017-11-01T11:38:58Z</time>
      </trkpt>
      <trkpt lat="45.67954" lon="6.25557">
        <ele>1952.5660400391</ele>
        <time>2017-11-01T11:39:01Z</time>
      </trkpt>
      <trkpt lat="45.67952" lon="6.25549">
        <ele>1952.5660400391</ele>
        <time>2017-11-01T11:39:04Z</time>
      </trkpt>
      <trkpt lat="45.67949" lon="6.25543">
        <ele>1951.5660400391</ele>
        <time>2017-11-01T11:39:07Z</time>
      </trkpt>
      <trkpt lat="45.67948" lon="6.25535">
        <ele>1949.5660400391</ele>
        <time>2017-11-01T11:39:10Z</time>
      </trkpt>
      <trkpt lat="45.67946" lon="6.25527">
        <ele>1947.5660400391</ele>
        <time>2017-11-01T11:39:13Z</time>
      </trkpt>
      <trkpt lat="45.67943" lon="6.2552">
        <ele>1945.5649414062</ele>
        <time>2017-11-01T11:39:16Z</time>
      </trkpt>
      <trkpt lat="45.67941" lon="6.25512">
        <ele>1944.5649414062</ele>
        <time>2017-11-01T11:39:19Z</time>
      </trkpt>
      <trkpt lat="45.67939" lon="6.25505">
        <ele>1942.5649414062</ele>
        <time>2017-11-01T11:39:22Z</time>
      </trkpt>
      <trkpt lat="45.67939" lon="6.25497">
        <ele>1940.5649414062</ele>
        <time>2017-11-01T11:39:25Z</time>
      </trkpt>
      <trkpt lat="45.67938" lon="6.25489">
        <ele>1938.5649414062</ele>
        <time>2017-11-01T11:39:28Z</time>
      </trkpt>
      <trkpt lat="45.67937" lon="6.25483">
        <ele>1936.5649414062</ele>
        <time>2017-11-01T11:39:30Z</time>
      </trkpt>
      <trkpt lat="45.67933" lon="6.25477">
        <ele>1934.5649414062</ele>
        <time>2017-11-01T11:39:33Z</time>
      </trkpt>
      <trkpt lat="45.6793" lon="6.25471">
        <ele>1931.5649414062</ele>
        <time>2017-11-01T11:39:36Z</time>
      </trkpt>
      <trkpt lat="45.67928" lon="6.25465">
        <ele>1928.5649414062</ele>
        <time>2017-11-01T11:39:40Z</time>
      </trkpt>
      <trkpt lat="45.67928" lon="6.25456">
        <ele>1925.5649414062</ele>
        <time>2017-11-01T11:39:45Z</time>
      </trkpt>
      <trkpt lat="45.67924" lon="6.25451">
        <ele>1920.5649414062</ele>
        <time>2017-11-01T11:39:56Z</time>
      </trkpt>
      <trkpt lat="45.67922" lon="6.25445">
        <ele>1916.5649414062</ele>
        <time>2017-11-01T11:40:02Z</time>
      </trkpt>
      <trkpt lat="45.67918" lon="6.25439">
        <ele>1913.5649414062</ele>
        <time>2017-11-01T11:40:06Z</time>
      </trkpt>
      <trkpt lat="45.67916" lon="6.25433">
        <ele>1911.5649414062</ele>
        <time>2017-11-01T11:40:10Z</time>
      </trkpt>
      <trkpt lat="45.67912" lon="6.25426">
        <ele>1907.5649414062</ele>
        <time>2017-11-01T11:40:15Z</time>
      </trkpt>
      <trkpt lat="45.67908" lon="6.25422">
        <ele>1901.5649414062</ele>
        <time>2017-11-01T11:40:19Z</time>
      </trkpt>
      <trkpt lat="45.67905" lon="6.25415">
        <ele>1901.5649414062</ele>
        <time>2017-11-01T11:40:22Z</time>
      </trkpt>
      <trkpt lat="45.67901" lon="6.2541">
        <ele>1901.5649414062</ele>
        <time>2017-11-01T11:40:27Z</time>
      </trkpt>
      <trkpt lat="45.679" lon="6.25402">
        <ele>1900.5649414062</ele>
        <time>2017-11-01T11:40:32Z</time>
      </trkpt>
      <trkpt lat="45.67897" lon="6.25396">
        <ele>1897.5649414062</ele>
        <time>2017-11-01T11:40:35Z</time>
      </trkpt>
      <trkpt lat="45.67897" lon="6.25389">
        <ele>1882.5649414062</ele>
        <time>2017-11-01T11:41:03Z</time>
      </trkpt>
      <trkpt lat="45.67894" lon="6.25383">
        <ele>1874.5649414062</ele>
        <time>2017-11-01T11:41:06Z</time>
      </trkpt>
      <trkpt lat="45.67891" lon="6.25378">
        <ele>1875.5649414062</ele>
        <time>2017-11-01T11:41:09Z</time>
      </trkpt>
      <trkpt lat="45.67887" lon="6.25371">
        <ele>1879.5649414062</ele>
        <time>2017-11-01T11:41:13Z</time>
      </trkpt>
      <trkpt lat="45.67882" lon="6.25367">
        <ele>1879.5649414062</ele>
        <time>2017-11-01T11:41:17Z</time>
      </trkpt>
      <trkpt lat="45.67878" lon="6.25359">
        <ele>1879.5649414062</ele>
        <time>2017-11-01T11:41:20Z</time>
      </trkpt>
      <trkpt lat="45.67876" lon="6.25354">
        <ele>1874.5649414062</ele>
        <time>2017-11-01T11:41:24Z</time>
      </trkpt>
      <trkpt lat="45.67873" lon="6.25349">
        <ele>1872.5649414062</ele>
        <time>2017-11-01T11:41:27Z</time>
      </trkpt>
      <trkpt lat="45.67869" lon="6.25344">
        <ele>1871.5649414062</ele>
        <time>2017-11-01T11:41:29Z</time>
      </trkpt>
      <trkpt lat="45.67866" lon="6.25338">
        <ele>1870.5649414062</ele>
        <time>2017-11-01T11:41:33Z</time>
      </trkpt>
      <trkpt lat="45.67863" lon="6.2533">
        <ele>1869.5649414062</ele>
        <time>2017-11-01T11:41:37Z</time>
      </trkpt>
      <trkpt lat="45.67859" lon="6.25324">
        <ele>1867.5649414062</ele>
        <time>2017-11-01T11:41:40Z</time>
      </trkpt>
      <trkpt lat="45.67856" lon="6.25316">
        <ele>1865.5649414062</ele>
        <time>2017-11-01T11:41:43Z</time>
      </trkpt>
      <trkpt lat="45.67853" lon="6.25309">
        <ele>1864.5649414062</ele>
        <time>2017-11-01T11:41:46Z</time>
      </trkpt>
      <trkpt lat="45.67852" lon="6.25301">
        <ele>1863.5649414062</ele>
        <time>2017-11-01T11:41:49Z</time>
      </trkpt>
      <trkpt lat="45.67849" lon="6.25295">
        <ele>1861.5649414062</ele>
        <time>2017-11-01T11:41:51Z</time>
      </trkpt>
      <trkpt lat="45.67846" lon="6.25289">
        <ele>1859.5649414062</ele>
        <time>2017-11-01T11:41:53Z</time>
      </trkpt>
      <trkpt lat="45.67843" lon="6.25282">
        <ele>1859.5649414062</ele>
        <time>2017-11-01T11:41:55Z</time>
      </trkpt>
      <trkpt lat="45.67839" lon="6.25277">
        <ele>1859.5649414062</ele>
        <time>2017-11-01T11:41:57Z</time>
      </trkpt>
      <trkpt lat="45.67837" lon="6.2527">
        <ele>1862.5649414062</ele>
        <time>2017-11-01T11:42:00Z</time>
      </trkpt>
      <trkpt lat="45.67835" lon="6.25262">
        <ele>1861.5649414062</ele>
        <time>2017-11-01T11:42:03Z</time>
      </trkpt>
      <trkpt lat="45.67833" lon="6.25254">
        <ele>1860.5649414062</ele>
        <time>2017-11-01T11:42:06Z</time>
      </trkpt>
      <trkpt lat="45.6783" lon="6.25245">
        <ele>1856.5649414062</ele>
        <time>2017-11-01T11:42:08Z</time>
      </trkpt>
      <trkpt lat="45.67826" lon="6.25239">
        <ele>1856.5649414062</ele>
        <time>2017-11-01T11:42:11Z</time>
      </trkpt>
      <trkpt lat="45.67823" lon="6.25232">
        <ele>1855.5649414062</ele>
        <time>2017-11-01T11:42:14Z</time>
      </trkpt>
      <trkpt lat="45.67821" lon="6.25226">
        <ele>1853.5649414062</ele>
        <time>2017-11-01T11:42:16Z</time>
      </trkpt>
      <trkpt lat="45.67817" lon="6.25219">
        <ele>1852.5649414062</ele>
        <time>2017-11-01T11:42:19Z</time>
      </trkpt>
      <trkpt lat="45.67813" lon="6.25213">
        <ele>1850.5649414062</ele>
        <time>2017-11-01T11:42:24Z</time>
      </trkpt>
      <trkpt lat="45.67807" lon="6.25212">
        <ele>1848.5649414062</ele>
        <time>2017-11-01T11:42:28Z</time>
      </trkpt>
      <trkpt lat="45.67802" lon="6.25211">
        <ele>1846.5649414062</ele>
        <time>2017-11-01T11:42:32Z</time>
      </trkpt>
      <trkpt lat="45.67798" lon="6.25203">
        <ele>1846.5649414062</ele>
        <time>2017-11-01T11:42:36Z</time>
      </trkpt>
      <trkpt lat="45.67795" lon="6.25197">
        <ele>1847.5649414062</ele>
        <time>2017-11-01T11:42:40Z</time>
      </trkpt>
      <trkpt lat="45.67791" lon="6.25195">
        <ele>1842.5649414062</ele>
        <time>2017-11-01T11:42:44Z</time>
      </trkpt>
      <trkpt lat="45.67789" lon="6.25189">
        <ele>1838.5649414062</ele>
        <time>2017-11-01T11:42:48Z</time>
      </trkpt>
      <trkpt lat="45.67787" lon="6.25182">
        <ele>1829.5649414062</ele>
        <time>2017-11-01T11:43:06Z</time>
      </trkpt>
      <trkpt lat="45.67783" lon="6.25178">
        <ele>1827.5649414062</ele>
        <time>2017-11-01T11:43:10Z</time>
      </trkpt>
      <trkpt lat="45.67779" lon="6.25171">
        <ele>1827.5649414062</ele>
        <time>2017-11-01T11:43:14Z</time>
      </trkpt>
      <trkpt lat="45.67773" lon="6.25168">
        <ele>1824.5649414062</ele>
        <time>2017-11-01T11:43:19Z</time>
      </trkpt>
      <trkpt lat="45.6777" lon="6.25163">
        <ele>1824.5649414062</ele>
        <time>2017-11-01T11:43:21Z</time>
      </trkpt>
      <trkpt lat="45.67766" lon="6.2516">
        <ele>1825.5649414062</ele>
        <time>2017-11-01T11:43:23Z</time>
      </trkpt>
      <trkpt lat="45.6776" lon="6.25162">
        <ele>1820.5649414062</ele>
        <time>2017-11-01T11:43:28Z</time>
      </trkpt>
      <trkpt lat="45.67756" lon="6.25159">
        <ele>1816.5649414062</ele>
        <time>2017-11-01T11:43:32Z</time>
      </trkpt>
      <trkpt lat="45.67751" lon="6.25155">
        <ele>1816.5649414062</ele>
        <time>2017-11-01T11:43:35Z</time>
      </trkpt>
      <trkpt lat="45.6775" lon="6.25147">
        <ele>1815.5649414062</ele>
        <time>2017-11-01T11:43:38Z</time>
      </trkpt>
      <trkpt lat="45.67747" lon="6.25142">
        <ele>1810.5649414062</ele>
        <time>2017-11-01T11:43:42Z</time>
      </trkpt>
      <trkpt lat="45.67742" lon="6.2514">
        <ele>1804.5649414062</ele>
        <time>2017-11-01T11:43:47Z</time>
      </trkpt>
      <trkpt lat="45.67737" lon="6.25142">
        <ele>1799.5649414062</ele>
        <time>2017-11-01T11:43:52Z</time>
      </trkpt>
      <trkpt lat="45.67734" lon="6.25137">
        <ele>1794.5649414062</ele>
        <time>2017-11-01T11:43:55Z</time>
      </trkpt>
      <trkpt lat="45.67728" lon="6.25132">
        <ele>1791.5649414062</ele>
        <time>2017-11-01T11:43:58Z</time>
      </trkpt>
      <trkpt lat="45.67725" lon="6.25127">
        <ele>1790.5649414062</ele>
        <time>2017-11-01T11:44:01Z</time>
      </trkpt>
      <trkpt lat="45.67721" lon="6.25121">
        <ele>1787.5649414062</ele>
        <time>2017-11-01T11:44:04Z</time>
      </trkpt>
      <trkpt lat="45.67716" lon="6.2512">
        <ele>1784.5649414062</ele>
        <time>2017-11-01T11:44:10Z</time>
      </trkpt>
      <trkpt lat="45.67713" lon="6.25114">
        <ele>1781.5649414062</ele>
        <time>2017-11-01T11:44:14Z</time>
      </trkpt>
      <trkpt lat="45.67709" lon="6.2511">
        <ele>1780.5649414062</ele>
        <time>2017-11-01T11:44:16Z</time>
      </trkpt>
      <trkpt lat="45.67706" lon="6.25104">
        <ele>1778.5649414062</ele>
        <time>2017-11-01T11:44:18Z</time>
      </trkpt>
      <trkpt lat="45.67703" lon="6.25099">
        <ele>1776.5649414062</ele>
        <time>2017-11-01T11:44:20Z</time>
      </trkpt>
      <trkpt lat="45.67698" lon="6.25093">
        <ele>1775.5649414062</ele>
        <time>2017-11-01T11:44:23Z</time>
      </trkpt>
      <trkpt lat="45.67694" lon="6.25089">
        <ele>1773.5649414062</ele>
        <time>2017-11-01T11:44:25Z</time>
      </trkpt>
      <trkpt lat="45.6769" lon="6.25084">
        <ele>1771.5649414062</ele>
        <time>2017-11-01T11:44:28Z</time>
      </trkpt>
      <trkpt lat="45.67685" lon="6.25078">
        <ele>1769.5649414062</ele>
        <time>2017-11-01T11:44:32Z</time>
      </trkpt>
      <trkpt lat="45.67681" lon="6.25074">
        <ele>1770.5639648438</ele>
        <time>2017-11-01T11:44:35Z</time>
      </trkpt>
      <trkpt lat="45.67677" lon="6.25071">
        <ele>1767.5639648438</ele>
        <time>2017-11-01T11:44:39Z</time>
      </trkpt>
      <trkpt lat="45.67672" lon="6.25065">
        <ele>1765.5639648438</ele>
        <time>2017-11-01T11:44:42Z</time>
      </trkpt>
      <trkpt lat="45.67668" lon="6.25061">
        <ele>1763.5639648438</ele>
        <time>2017-11-01T11:44:44Z</time>
      </trkpt>
      <trkpt lat="45.67664" lon="6.25056">
        <ele>1761.5639648438</ele>
        <time>2017-11-01T11:44:46Z</time>
      </trkpt>
      <trkpt lat="45.67661" lon="6.25049">
        <ele>1760.5639648438</ele>
        <time>2017-11-01T11:44:50Z</time>
      </trkpt>
      <trkpt lat="45.67656" lon="6.25043">
        <ele>1761.5639648438</ele>
        <time>2017-11-01T11:44:54Z</time>
      </trkpt>
      <trkpt lat="45.67652" lon="6.25037">
        <ele>1761.5639648438</ele>
        <time>2017-11-01T11:44:59Z</time>
      </trkpt>
      <trkpt lat="45.67649" lon="6.25028">
        <ele>1764.5639648438</ele>
        <time>2017-11-01T11:45:04Z</time>
      </trkpt>
      <trkpt lat="45.67648" lon="6.25021">
        <ele>1764.5639648438</ele>
        <time>2017-11-01T11:45:10Z</time>
      </trkpt>
      <trkpt lat="45.67642" lon="6.25017">
        <ele>1763.5639648438</ele>
        <time>2017-11-01T11:45:13Z</time>
      </trkpt>
      <trkpt lat="45.67637" lon="6.25012">
        <ele>1764.5639648438</ele>
        <time>2017-11-01T11:45:17Z</time>
      </trkpt>
      <trkpt lat="45.67631" lon="6.25008">
        <ele>1763.5639648438</ele>
        <time>2017-11-01T11:45:21Z</time>
      </trkpt>
      <trkpt lat="45.67626" lon="6.25006">
        <ele>1762.5639648438</ele>
        <time>2017-11-01T11:45:25Z</time>
      </trkpt>
      <trkpt lat="45.67622" lon="6.25002">
        <ele>1761.5639648438</ele>
        <time>2017-11-01T11:45:27Z</time>
      </trkpt>
      <trkpt lat="45.67617" lon="6.24997">
        <ele>1760.5639648438</ele>
        <time>2017-11-01T11:45:30Z</time>
      </trkpt>
      <trkpt lat="45.67612" lon="6.24995">
        <ele>1758.5639648438</ele>
        <time>2017-11-01T11:45:32Z</time>
      </trkpt>
      <trkpt lat="45.67607" lon="6.24993">
        <ele>1754.5639648438</ele>
        <time>2017-11-01T11:45:35Z</time>
      </trkpt>
      <trkpt lat="45.67603" lon="6.24991">
        <ele>1754.5639648438</ele>
        <time>2017-11-01T11:45:37Z</time>
      </trkpt>
      <trkpt lat="45.67598" lon="6.24988">
        <ele>1751.5639648438</ele>
        <time>2017-11-01T11:45:40Z</time>
      </trkpt>
      <trkpt lat="45.67592" lon="6.24983">
        <ele>1750.5639648438</ele>
        <time>2017-11-01T11:45:43Z</time>
      </trkpt>
      <trkpt lat="45.67586" lon="6.2498">
        <ele>1748.5639648438</ele>
        <time>2017-11-01T11:45:47Z</time>
      </trkpt>
      <trkpt lat="45.6758" lon="6.24976">
        <ele>1749.5639648438</ele>
        <time>2017-11-01T11:45:52Z</time>
      </trkpt>
      <trkpt lat="45.67575" lon="6.24973">
        <ele>1747.5639648438</ele>
        <time>2017-11-01T11:45:56Z</time>
      </trkpt>
      <trkpt lat="45.67571" lon="6.24971">
        <ele>1749.5639648438</ele>
        <time>2017-11-01T11:45:59Z</time>
      </trkpt>
      <trkpt lat="45.67567" lon="6.24968">
        <ele>1750.5639648438</ele>
        <time>2017-11-01T11:46:01Z</time>
      </trkpt>
      <trkpt lat="45.67564" lon="6.2496">
        <ele>1748.5639648438</ele>
        <time>2017-11-01T11:46:05Z</time>
      </trkpt>
      <trkpt lat="45.67559" lon="6.24956">
        <ele>1744.5639648438</ele>
        <time>2017-11-01T11:46:10Z</time>
      </trkpt>
      <trkpt lat="45.67556" lon="6.24952">
        <ele>1742.5639648438</ele>
        <time>2017-11-01T11:46:12Z</time>
      </trkpt>
      <trkpt lat="45.67552" lon="6.24948">
        <ele>1743.5639648438</ele>
        <time>2017-11-01T11:46:15Z</time>
      </trkpt>
      <trkpt lat="45.67549" lon="6.24943">
        <ele>1741.5639648438</ele>
        <time>2017-11-01T11:46:19Z</time>
      </trkpt>
      <trkpt lat="45.67544" lon="6.24939">
        <ele>1741.5639648438</ele>
        <time>2017-11-01T11:46:22Z</time>
      </trkpt>
      <trkpt lat="45.6754" lon="6.24936">
        <ele>1741.5639648438</ele>
        <time>2017-11-01T11:46:26Z</time>
      </trkpt>
      <trkpt lat="45.67535" lon="6.2493">
        <ele>1740.5639648438</ele>
        <time>2017-11-01T11:46:30Z</time>
      </trkpt>
      <trkpt lat="45.67529" lon="6.24925">
        <ele>1736.5639648438</ele>
        <time>2017-11-01T11:46:36Z</time>
      </trkpt>
      <trkpt lat="45.67525" lon="6.24918">
        <ele>1736.5639648438</ele>
        <time>2017-11-01T11:46:40Z</time>
      </trkpt>
      <trkpt lat="45.67521" lon="6.24914">
        <ele>1733.5639648438</ele>
        <time>2017-11-01T11:46:46Z</time>
      </trkpt>
      <trkpt lat="45.67516" lon="6.24913">
        <ele>1730.5639648438</ele>
        <time>2017-11-01T11:46:59Z</time>
      </trkpt>
      <trkpt lat="45.67511" lon="6.24909">
        <ele>1731.5639648438</ele>
        <time>2017-11-01T11:47:03Z</time>
      </trkpt>
      <trkpt lat="45.67507" lon="6.24904">
        <ele>1732.5639648438</ele>
        <time>2017-11-01T11:47:07Z</time>
      </trkpt>
      <trkpt lat="45.67504" lon="6.24898">
        <ele>1731.5639648438</ele>
        <time>2017-11-01T11:47:14Z</time>
      </trkpt>
      <trkpt lat="45.67501" lon="6.24892">
        <ele>1733.5639648438</ele>
        <time>2017-11-01T11:47:26Z</time>
      </trkpt>
      <trkpt lat="45.67498" lon="6.24886">
        <ele>1736.5639648438</ele>
        <time>2017-11-01T11:47:33Z</time>
      </trkpt>
      <trkpt lat="45.67493" lon="6.24883">
        <ele>1741.5639648438</ele>
        <time>2017-11-01T11:47:40Z</time>
      </trkpt>
      <trkpt lat="45.67488" lon="6.24878">
        <ele>1741.5639648438</ele>
        <time>2017-11-01T11:47:46Z</time>
      </trkpt>
      <trkpt lat="45.67483" lon="6.24877">
        <ele>1742.5639648438</ele>
        <time>2017-11-01T11:47:53Z</time>
      </trkpt>
      <trkpt lat="45.67479" lon="6.24872">
        <ele>1743.5639648438</ele>
        <time>2017-11-01T11:48:07Z</time>
      </trkpt>
      <trkpt lat="45.67474" lon="6.2487">
        <ele>1745.5639648438</ele>
        <time>2017-11-01T11:48:12Z</time>
      </trkpt>
      <trkpt lat="45.67469" lon="6.24868">
        <ele>1746.5639648438</ele>
        <time>2017-11-01T11:48:16Z</time>
      </trkpt>
      <trkpt lat="45.67464" lon="6.24866">
        <ele>1745.5639648438</ele>
        <time>2017-11-01T11:48:21Z</time>
      </trkpt>
      <trkpt lat="45.6746" lon="6.24861">
        <ele>1746.5639648438</ele>
        <time>2017-11-01T11:48:28Z</time>
      </trkpt>
      <trkpt lat="45.67456" lon="6.24859">
        <ele>1744.5639648438</ele>
        <time>2017-11-01T11:48:31Z</time>
      </trkpt>
      <trkpt lat="45.67452" lon="6.24855">
        <ele>1743.5639648438</ele>
        <time>2017-11-01T11:48:34Z</time>
      </trkpt>
      <trkpt lat="45.67447" lon="6.24853">
        <ele>1741.5639648438</ele>
        <time>2017-11-01T11:48:38Z</time>
      </trkpt>
      <trkpt lat="45.67442" lon="6.2485">
        <ele>1741.5639648438</ele>
        <time>2017-11-01T11:48:43Z</time>
      </trkpt>
      <trkpt lat="45.6744" lon="6.24844">
        <ele>1742.5639648438</ele>
        <time>2017-11-01T11:48:47Z</time>
      </trkpt>
      <trkpt lat="45.67436" lon="6.24839">
        <ele>1741.5639648438</ele>
        <time>2017-11-01T11:48:50Z</time>
      </trkpt>
      <trkpt lat="45.67432" lon="6.2484">
        <ele>1741.5639648438</ele>
        <time>2017-11-01T11:48:52Z</time>
      </trkpt>
      <trkpt lat="45.67427" lon="6.24841">
        <ele>1744.5639648438</ele>
        <time>2017-11-01T11:48:57Z</time>
      </trkpt>
      <trkpt lat="45.67422" lon="6.24839">
        <ele>1743.5639648438</ele>
        <time>2017-11-01T11:49:00Z</time>
      </trkpt>
      <trkpt lat="45.67417" lon="6.2484">
        <ele>1743.5639648438</ele>
        <time>2017-11-01T11:49:04Z</time>
      </trkpt>
      <trkpt lat="45.67411" lon="6.24839">
        <ele>1744.5639648438</ele>
        <time>2017-11-01T11:49:07Z</time>
      </trkpt>
      <trkpt lat="45.67407" lon="6.24836">
        <ele>1741.5639648438</ele>
        <time>2017-11-01T11:49:10Z</time>
      </trkpt>
      <trkpt lat="45.674" lon="6.24832">
        <ele>1742.5639648438</ele>
        <time>2017-11-01T11:49:16Z</time>
      </trkpt>
      <trkpt lat="45.67395" lon="6.24833">
        <ele>1741.5639648438</ele>
        <time>2017-11-01T11:49:19Z</time>
      </trkpt>
      <trkpt lat="45.6739" lon="6.24836">
        <ele>1740.5639648438</ele>
        <time>2017-11-01T11:49:23Z</time>
      </trkpt>
      <trkpt lat="45.67385" lon="6.24838">
        <ele>1738.5639648438</ele>
        <time>2017-11-01T11:49:29Z</time>
      </trkpt>
      <trkpt lat="45.67381" lon="6.24839">
        <ele>1739.5639648438</ele>
        <time>2017-11-01T11:49:32Z</time>
      </trkpt>
      <trkpt lat="45.67375" lon="6.24839">
        <ele>1739.5639648438</ele>
        <time>2017-11-01T11:49:37Z</time>
      </trkpt>
      <trkpt lat="45.67369" lon="6.24842">
        <ele>1741.5639648438</ele>
        <time>2017-11-01T11:49:42Z</time>
      </trkpt>
      <trkpt lat="45.67363" lon="6.24841">
        <ele>1740.5639648438</ele>
        <time>2017-11-01T11:49:46Z</time>
      </trkpt>
      <trkpt lat="45.6736" lon="6.24845">
        <ele>1739.5639648438</ele>
        <time>2017-11-01T11:49:49Z</time>
      </trkpt>
      <trkpt lat="45.67354" lon="6.24847">
        <ele>1740.5639648438</ele>
        <time>2017-11-01T11:49:53Z</time>
      </trkpt>
      <trkpt lat="45.6735" lon="6.24848">
        <ele>1741.5639648438</ele>
        <time>2017-11-01T11:49:56Z</time>
      </trkpt>
      <trkpt lat="45.67345" lon="6.24848">
        <ele>1741.5639648438</ele>
        <time>2017-11-01T11:49:58Z</time>
      </trkpt>
      <trkpt lat="45.67341" lon="6.24849">
        <ele>1743.5639648438</ele>
        <time>2017-11-01T11:50:05Z</time>
      </trkpt>
      <trkpt lat="45.67335" lon="6.2485">
        <ele>1742.5639648438</ele>
        <time>2017-11-01T11:50:09Z</time>
      </trkpt>
      <trkpt lat="45.67331" lon="6.24851">
        <ele>1741.5639648438</ele>
        <time>2017-11-01T11:50:13Z</time>
      </trkpt>
      <trkpt lat="45.67326" lon="6.24854">
        <ele>1743.5639648438</ele>
        <time>2017-11-01T11:50:17Z</time>
      </trkpt>
      <trkpt lat="45.67322" lon="6.24858">
        <ele>1741.5639648438</ele>
        <time>2017-11-01T11:50:23Z</time>
      </trkpt>
      <trkpt lat="45.67315" lon="6.24863">
        <ele>1739.5639648438</ele>
        <time>2017-11-01T11:50:32Z</time>
      </trkpt>
      <trkpt lat="45.6731" lon="6.24865">
        <ele>1738.5639648438</ele>
        <time>2017-11-01T11:50:35Z</time>
      </trkpt>
      <trkpt lat="45.67306" lon="6.24867">
        <ele>1737.5639648438</ele>
        <time>2017-11-01T11:50:43Z</time>
      </trkpt>
      <trkpt lat="45.67301" lon="6.24869">
        <ele>1730.5639648438</ele>
        <time>2017-11-01T11:50:51Z</time>
      </trkpt>
      <trkpt lat="45.67297" lon="6.24872">
        <ele>1727.5639648438</ele>
        <time>2017-11-01T11:50:55Z</time>
      </trkpt>
      <trkpt lat="45.67294" lon="6.24877">
        <ele>1725.5639648438</ele>
        <time>2017-11-01T11:51:01Z</time>
      </trkpt>
      <trkpt lat="45.67288" lon="6.2488">
        <ele>1721.5639648438</ele>
        <time>2017-11-01T11:51:07Z</time>
      </trkpt>
      <trkpt lat="45.67283" lon="6.24885">
        <ele>1719.5639648438</ele>
        <time>2017-11-01T11:51:23Z</time>
      </trkpt>
      <trkpt lat="45.6728" lon="6.2489">
        <ele>1716.5639648438</ele>
        <time>2017-11-01T11:51:26Z</time>
      </trkpt>
      <trkpt lat="45.67277" lon="6.24895">
        <ele>1715.5639648438</ele>
        <time>2017-11-01T11:51:30Z</time>
      </trkpt>
      <trkpt lat="45.67271" lon="6.24896">
        <ele>1715.5639648438</ele>
        <time>2017-11-01T11:51:34Z</time>
      </trkpt>
      <trkpt lat="45.67266" lon="6.24896">
        <ele>1714.5639648438</ele>
        <time>2017-11-01T11:51:37Z</time>
      </trkpt>
      <trkpt lat="45.67261" lon="6.24898">
        <ele>1714.5629882812</ele>
        <time>2017-11-01T11:51:41Z</time>
      </trkpt>
      <trkpt lat="45.67257" lon="6.24898">
        <ele>1708.5629882812</ele>
        <time>2017-11-01T11:51:49Z</time>
      </trkpt>
      <trkpt lat="45.67252" lon="6.249">
        <ele>1706.5629882812</ele>
        <time>2017-11-01T11:51:53Z</time>
      </trkpt>
      <trkpt lat="45.67246" lon="6.24902">
        <ele>1706.5629882812</ele>
        <time>2017-11-01T11:52:00Z</time>
      </trkpt>
      <trkpt lat="45.67243" lon="6.24895">
        <ele>1703.5629882812</ele>
        <time>2017-11-01T11:52:06Z</time>
      </trkpt>
      <trkpt lat="45.6724" lon="6.24889">
        <ele>1702.5629882812</ele>
        <time>2017-11-01T11:52:12Z</time>
      </trkpt>
      <trkpt lat="45.67237" lon="6.24884">
        <ele>1705.5629882812</ele>
        <time>2017-11-01T11:52:17Z</time>
      </trkpt>
      <trkpt lat="45.67232" lon="6.24883">
        <ele>1705.5629882812</ele>
        <time>2017-11-01T11:52:21Z</time>
      </trkpt>
      <trkpt lat="45.67228" lon="6.2488">
        <ele>1705.5629882812</ele>
        <time>2017-11-01T11:52:29Z</time>
      </trkpt>
      <trkpt lat="45.67224" lon="6.24872">
        <ele>1702.5629882812</ele>
        <time>2017-11-01T11:52:33Z</time>
      </trkpt>
      <trkpt lat="45.67221" lon="6.24866">
        <ele>1704.5629882812</ele>
        <time>2017-11-01T11:52:41Z</time>
      </trkpt>
      <trkpt lat="45.67219" lon="6.24873">
        <ele>1697.5629882812</ele>
        <time>2017-11-01T11:52:56Z</time>
      </trkpt>
      <trkpt lat="45.67215" lon="6.24871">
        <ele>1694.5629882812</ele>
        <time>2017-11-01T11:53:01Z</time>
      </trkpt>
      <trkpt lat="45.67209" lon="6.24872">
        <ele>1693.5629882812</ele>
        <time>2017-11-01T11:53:06Z</time>
      </trkpt>
      <trkpt lat="45.67204" lon="6.24872">
        <ele>1691.5629882812</ele>
        <time>2017-11-01T11:53:10Z</time>
      </trkpt>
      <trkpt lat="45.67199" lon="6.24874">
        <ele>1689.5629882812</ele>
        <time>2017-11-01T11:53:13Z</time>
      </trkpt>
      <trkpt lat="45.67195" lon="6.24874">
        <ele>1684.5629882812</ele>
        <time>2017-11-01T11:53:19Z</time>
      </trkpt>
      <trkpt lat="45.67189" lon="6.24872">
        <ele>1681.5629882812</ele>
        <time>2017-11-01T11:53:23Z</time>
      </trkpt>
      <trkpt lat="45.67185" lon="6.24876">
        <ele>1678.5629882812</ele>
        <time>2017-11-01T11:53:32Z</time>
      </trkpt>
      <trkpt lat="45.67181" lon="6.24882">
        <ele>1676.5629882812</ele>
        <time>2017-11-01T11:53:37Z</time>
      </trkpt>
      <trkpt lat="45.67176" lon="6.24886">
        <ele>1670.5629882812</ele>
        <time>2017-11-01T11:53:44Z</time>
      </trkpt>
      <trkpt lat="45.6717" lon="6.24889">
        <ele>1667.5629882812</ele>
        <time>2017-11-01T11:53:48Z</time>
      </trkpt>
      <trkpt lat="45.67166" lon="6.24889">
        <ele>1667.5629882812</ele>
        <time>2017-11-01T11:53:51Z</time>
      </trkpt>
      <trkpt lat="45.6716" lon="6.24891">
        <ele>1665.5629882812</ele>
        <time>2017-11-01T11:53:54Z</time>
      </trkpt>
      <trkpt lat="45.67154" lon="6.24888">
        <ele>1661.5629882812</ele>
        <time>2017-11-01T11:53:57Z</time>
      </trkpt>
      <trkpt lat="45.6715" lon="6.2489">
        <ele>1658.5629882812</ele>
        <time>2017-11-01T11:54:01Z</time>
      </trkpt>
      <trkpt lat="45.67144" lon="6.24887">
        <ele>1659.5629882812</ele>
        <time>2017-11-01T11:54:05Z</time>
      </trkpt>
      <trkpt lat="45.67139" lon="6.24888">
        <ele>1656.5629882812</ele>
        <time>2017-11-01T11:54:09Z</time>
      </trkpt>
      <trkpt lat="45.67134" lon="6.24888">
        <ele>1655.5629882812</ele>
        <time>2017-11-01T11:54:12Z</time>
      </trkpt>
      <trkpt lat="45.67129" lon="6.24886">
        <ele>1655.5629882812</ele>
        <time>2017-11-01T11:54:16Z</time>
      </trkpt>
      <trkpt lat="45.67125" lon="6.24883">
        <ele>1653.5629882812</ele>
        <time>2017-11-01T11:54:19Z</time>
      </trkpt>
      <trkpt lat="45.6712" lon="6.2488">
        <ele>1654.5629882812</ele>
        <time>2017-11-01T11:54:22Z</time>
      </trkpt>
      <trkpt lat="45.67115" lon="6.24879">
        <ele>1649.5629882812</ele>
        <time>2017-11-01T11:54:28Z</time>
      </trkpt>
      <trkpt lat="45.67111" lon="6.24877">
        <ele>1652.5629882812</ele>
        <time>2017-11-01T11:54:31Z</time>
      </trkpt>
      <trkpt lat="45.67106" lon="6.24874">
        <ele>1653.5629882812</ele>
        <time>2017-11-01T11:54:35Z</time>
      </trkpt>
      <trkpt lat="45.67101" lon="6.24873">
        <ele>1651.5629882812</ele>
        <time>2017-11-01T11:54:39Z</time>
      </trkpt>
      <trkpt lat="45.67096" lon="6.24869">
        <ele>1652.5629882812</ele>
        <time>2017-11-01T11:54:43Z</time>
      </trkpt>
      <trkpt lat="45.67091" lon="6.24866">
        <ele>1652.5629882812</ele>
        <time>2017-11-01T11:54:46Z</time>
      </trkpt>
      <trkpt lat="45.67087" lon="6.24861">
        <ele>1652.5629882812</ele>
        <time>2017-11-01T11:54:50Z</time>
      </trkpt>
      <trkpt lat="45.67082" lon="6.24862">
        <ele>1649.5629882812</ele>
        <time>2017-11-01T11:54:54Z</time>
      </trkpt>
      <trkpt lat="45.67076" lon="6.24863">
        <ele>1648.5629882812</ele>
        <time>2017-11-01T11:54:59Z</time>
      </trkpt>
      <trkpt lat="45.67071" lon="6.24862">
        <ele>1650.5629882812</ele>
        <time>2017-11-01T11:55:03Z</time>
      </trkpt>
      <trkpt lat="45.67066" lon="6.2486">
        <ele>1648.5629882812</ele>
        <time>2017-11-01T11:55:06Z</time>
      </trkpt>
      <trkpt lat="45.6706" lon="6.2486">
        <ele>1645.5629882812</ele>
        <time>2017-11-01T11:55:10Z</time>
      </trkpt>
      <trkpt lat="45.67056" lon="6.24861">
        <ele>1645.5629882812</ele>
        <time>2017-11-01T11:55:13Z</time>
      </trkpt>
      <trkpt lat="45.67051" lon="6.24862">
        <ele>1644.5629882812</ele>
        <time>2017-11-01T11:55:17Z</time>
      </trkpt>
      <trkpt lat="45.67046" lon="6.24862">
        <ele>1642.5629882812</ele>
        <time>2017-11-01T11:55:21Z</time>
      </trkpt>
      <trkpt lat="45.6704" lon="6.2486">
        <ele>1640.5629882812</ele>
        <time>2017-11-01T11:55:25Z</time>
      </trkpt>
      <trkpt lat="45.67035" lon="6.24863">
        <ele>1637.5629882812</ele>
        <time>2017-11-01T11:55:29Z</time>
      </trkpt>
      <trkpt lat="45.67031" lon="6.24859">
        <ele>1637.5629882812</ele>
        <time>2017-11-01T11:55:32Z</time>
      </trkpt>
      <trkpt lat="45.67026" lon="6.24855">
        <ele>1639.5629882812</ele>
        <time>2017-11-01T11:55:36Z</time>
      </trkpt>
      <trkpt lat="45.67022" lon="6.24854">
        <ele>1638.5629882812</ele>
        <time>2017-11-01T11:55:39Z</time>
      </trkpt>
      <trkpt lat="45.67017" lon="6.24855">
        <ele>1636.5629882812</ele>
        <time>2017-11-01T11:55:43Z</time>
      </trkpt>
      <trkpt lat="45.67014" lon="6.24851">
        <ele>1631.5629882812</ele>
        <time>2017-11-01T11:55:48Z</time>
      </trkpt>
      <trkpt lat="45.67009" lon="6.24849">
        <ele>1629.5629882812</ele>
        <time>2017-11-01T11:55:52Z</time>
      </trkpt>
      <trkpt lat="45.67005" lon="6.24845">
        <ele>1627.5629882812</ele>
        <time>2017-11-01T11:55:56Z</time>
      </trkpt>
      <trkpt lat="45.67" lon="6.24842">
        <ele>1626.5629882812</ele>
        <time>2017-11-01T11:56:00Z</time>
      </trkpt>
      <trkpt lat="45.66996" lon="6.24838">
        <ele>1625.5629882812</ele>
        <time>2017-11-01T11:56:04Z</time>
      </trkpt>
      <trkpt lat="45.6699" lon="6.24835">
        <ele>1621.5629882812</ele>
        <time>2017-11-01T11:56:13Z</time>
      </trkpt>
      <trkpt lat="45.66986" lon="6.24832">
        <ele>1618.5629882812</ele>
        <time>2017-11-01T11:56:18Z</time>
      </trkpt>
      <trkpt lat="45.66981" lon="6.24832">
        <ele>1614.5629882812</ele>
        <time>2017-11-01T11:56:25Z</time>
      </trkpt>
      <trkpt lat="45.66976" lon="6.24831">
        <ele>1609.5629882812</ele>
        <time>2017-11-01T11:56:32Z</time>
      </trkpt>
      <trkpt lat="45.66969" lon="6.24831">
        <ele>1610.5629882812</ele>
        <time>2017-11-01T11:56:36Z</time>
      </trkpt>
      <trkpt lat="45.66964" lon="6.24834">
        <ele>1609.5629882812</ele>
        <time>2017-11-01T11:56:39Z</time>
      </trkpt>
      <trkpt lat="45.6696" lon="6.24839">
        <ele>1608.5629882812</ele>
        <time>2017-11-01T11:56:42Z</time>
      </trkpt>
      <trkpt lat="45.66955" lon="6.24836">
        <ele>1609.5629882812</ele>
        <time>2017-11-01T11:56:45Z</time>
      </trkpt>
      <trkpt lat="45.66953" lon="6.24829">
        <ele>1607.5629882812</ele>
        <time>2017-11-01T11:56:49Z</time>
      </trkpt>
      <trkpt lat="45.66954" lon="6.24823">
        <ele>1607.5629882812</ele>
        <time>2017-11-01T11:57:00Z</time>
      </trkpt>
      <trkpt lat="45.66949" lon="6.24821">
        <ele>1605.5629882812</ele>
        <time>2017-11-01T11:57:24Z</time>
      </trkpt>
      <trkpt lat="45.66949" lon="6.24814">
        <ele>1604.5629882812</ele>
        <time>2017-11-01T11:57:28Z</time>
      </trkpt>
      <trkpt lat="45.66953" lon="6.24807">
        <ele>1604.5629882812</ele>
        <time>2017-11-01T11:57:30Z</time>
      </trkpt>
      <trkpt lat="45.66957" lon="6.24803">
        <ele>1603.5629882812</ele>
        <time>2017-11-01T11:57:33Z</time>
      </trkpt>
      <trkpt lat="45.6696" lon="6.24797">
        <ele>1603.5629882812</ele>
        <time>2017-11-01T11:57:36Z</time>
      </trkpt>
      <trkpt lat="45.66964" lon="6.24794">
        <ele>1604.5629882812</ele>
        <time>2017-11-01T11:57:39Z</time>
      </trkpt>
      <trkpt lat="45.66967" lon="6.24788">
        <ele>1605.5629882812</ele>
        <time>2017-11-01T11:57:42Z</time>
      </trkpt>
      <trkpt lat="45.66971" lon="6.2478">
        <ele>1607.5629882812</ele>
        <time>2017-11-01T11:57:46Z</time>
      </trkpt>
      <trkpt lat="45.66976" lon="6.24777">
        <ele>1607.5629882812</ele>
        <time>2017-11-01T11:57:49Z</time>
      </trkpt>
      <trkpt lat="45.6698" lon="6.24772">
        <ele>1606.5629882812</ele>
        <time>2017-11-01T11:57:53Z</time>
      </trkpt>
      <trkpt lat="45.66985" lon="6.24772">
        <ele>1605.5629882812</ele>
        <time>2017-11-01T11:57:56Z</time>
      </trkpt>
      <trkpt lat="45.66989" lon="6.24766">
        <ele>1604.5629882812</ele>
        <time>2017-11-01T11:57:59Z</time>
      </trkpt>
      <trkpt lat="45.66994" lon="6.24764">
        <ele>1603.5629882812</ele>
        <time>2017-11-01T11:58:03Z</time>
      </trkpt>
      <trkpt lat="45.67" lon="6.24763">
        <ele>1605.5629882812</ele>
        <time>2017-11-01T11:58:05Z</time>
      </trkpt>
      <trkpt lat="45.67004" lon="6.24758">
        <ele>1605.5629882812</ele>
        <time>2017-11-01T11:58:08Z</time>
      </trkpt>
      <trkpt lat="45.67009" lon="6.24754">
        <ele>1605.5629882812</ele>
        <time>2017-11-01T11:58:12Z</time>
      </trkpt>
      <trkpt lat="45.67014" lon="6.24752">
        <ele>1605.5629882812</ele>
        <time>2017-11-01T11:58:15Z</time>
      </trkpt>
      <trkpt lat="45.67015" lon="6.24744">
        <ele>1603.5629882812</ele>
        <time>2017-11-01T11:58:19Z</time>
      </trkpt>
      <trkpt lat="45.67019" lon="6.2474">
        <ele>1603.5629882812</ele>
        <time>2017-11-01T11:58:22Z</time>
      </trkpt>
      <trkpt lat="45.67025" lon="6.2474">
        <ele>1602.5629882812</ele>
        <time>2017-11-01T11:58:26Z</time>
      </trkpt>
      <trkpt lat="45.6703" lon="6.24739">
        <ele>1601.5629882812</ele>
        <time>2017-11-01T11:58:28Z</time>
      </trkpt>
      <trkpt lat="45.67035" lon="6.24736">
        <ele>1602.5629882812</ele>
        <time>2017-11-01T11:58:32Z</time>
      </trkpt>
      <trkpt lat="45.67039" lon="6.24734">
        <ele>1601.5629882812</ele>
        <time>2017-11-01T11:58:35Z</time>
      </trkpt>
      <trkpt lat="45.67044" lon="6.2473">
        <ele>1600.5629882812</ele>
        <time>2017-11-01T11:58:39Z</time>
      </trkpt>
      <trkpt lat="45.67048" lon="6.24728">
        <ele>1599.5629882812</ele>
        <time>2017-11-01T11:58:42Z</time>
      </trkpt>
      <trkpt lat="45.67051" lon="6.24722">
        <ele>1598.5629882812</ele>
        <time>2017-11-01T11:58:46Z</time>
      </trkpt>
      <trkpt lat="45.67056" lon="6.24719">
        <ele>1598.5629882812</ele>
        <time>2017-11-01T11:58:49Z</time>
      </trkpt>
      <trkpt lat="45.6706" lon="6.24715">
        <ele>1598.5629882812</ele>
        <time>2017-11-01T11:58:53Z</time>
      </trkpt>
      <trkpt lat="45.67062" lon="6.24708">
        <ele>1598.5629882812</ele>
        <time>2017-11-01T11:58:56Z</time>
      </trkpt>
      <trkpt lat="45.67068" lon="6.24705">
        <ele>1599.5629882812</ele>
        <time>2017-11-01T11:59:00Z</time>
      </trkpt>
      <trkpt lat="45.67072" lon="6.24703">
        <ele>1597.5629882812</ele>
        <time>2017-11-01T11:59:04Z</time>
      </trkpt>
      <trkpt lat="45.67076" lon="6.24699">
        <ele>1593.5629882812</ele>
        <time>2017-11-01T11:59:08Z</time>
      </trkpt>
      <trkpt lat="45.67082" lon="6.24696">
        <ele>1592.5629882812</ele>
        <time>2017-11-01T11:59:12Z</time>
      </trkpt>
      <trkpt lat="45.67087" lon="6.24694">
        <ele>1591.5629882812</ele>
        <time>2017-11-01T11:59:16Z</time>
      </trkpt>
      <trkpt lat="45.67093" lon="6.24692">
        <ele>1593.5629882812</ele>
        <time>2017-11-01T11:59:19Z</time>
      </trkpt>
      <trkpt lat="45.67096" lon="6.24686">
        <ele>1594.5629882812</ele>
        <time>2017-11-01T11:59:23Z</time>
      </trkpt>
      <trkpt lat="45.671" lon="6.24683">
        <ele>1594.5629882812</ele>
        <time>2017-11-01T11:59:27Z</time>
      </trkpt>
      <trkpt lat="45.67103" lon="6.24676">
        <ele>1592.5629882812</ele>
        <time>2017-11-01T11:59:32Z</time>
      </trkpt>
      <trkpt lat="45.67102" lon="6.24669">
        <ele>1591.5629882812</ele>
        <time>2017-11-01T11:59:34Z</time>
      </trkpt>
      <trkpt lat="45.67103" lon="6.24662">
        <ele>1592.5629882812</ele>
        <time>2017-11-01T11:59:37Z</time>
      </trkpt>
      <trkpt lat="45.67106" lon="6.24654">
        <ele>1588.5629882812</ele>
        <time>2017-11-01T11:59:41Z</time>
      </trkpt>
      <trkpt lat="45.67108" lon="6.24647">
        <ele>1585.5629882812</ele>
        <time>2017-11-01T11:59:45Z</time>
      </trkpt>
      <trkpt lat="45.6711" lon="6.24641">
        <ele>1581.5629882812</ele>
        <time>2017-11-01T11:59:51Z</time>
      </trkpt>
      <trkpt lat="45.67112" lon="6.24633">
        <ele>1580.5629882812</ele>
        <time>2017-11-01T11:59:54Z</time>
      </trkpt>
      <trkpt lat="45.67116" lon="6.24629">
        <ele>1575.5629882812</ele>
        <time>2017-11-01T11:59:58Z</time>
      </trkpt>
      <trkpt lat="45.67117" lon="6.24621">
        <ele>1576.5629882812</ele>
        <time>2017-11-01T12:00:01Z</time>
      </trkpt>
      <trkpt lat="45.67122" lon="6.2462">
        <ele>1572.5629882812</ele>
        <time>2017-11-01T12:00:05Z</time>
      </trkpt>
      <trkpt lat="45.67126" lon="6.24613">
        <ele>1570.5629882812</ele>
        <time>2017-11-01T12:00:09Z</time>
      </trkpt>
      <trkpt lat="45.67131" lon="6.24612">
        <ele>1568.5629882812</ele>
        <time>2017-11-01T12:00:12Z</time>
      </trkpt>
      <trkpt lat="45.67135" lon="6.24609">
        <ele>1567.5629882812</ele>
        <time>2017-11-01T12:00:15Z</time>
      </trkpt>
      <trkpt lat="45.67137" lon="6.24602">
        <ele>1561.5629882812</ele>
        <time>2017-11-01T12:00:21Z</time>
      </trkpt>
      <trkpt lat="45.6714" lon="6.24597">
        <ele>1561.5629882812</ele>
        <time>2017-11-01T12:00:24Z</time>
      </trkpt>
      <trkpt lat="45.67143" lon="6.24591">
        <ele>1560.5629882812</ele>
        <time>2017-11-01T12:00:27Z</time>
      </trkpt>
      <trkpt lat="45.67148" lon="6.24586">
        <ele>1560.5629882812</ele>
        <time>2017-11-01T12:00:31Z</time>
      </trkpt>
      <trkpt lat="45.67152" lon="6.24583">
        <ele>1558.5629882812</ele>
        <time>2017-11-01T12:00:34Z</time>
      </trkpt>
      <trkpt lat="45.67157" lon="6.24581">
        <ele>1559.5629882812</ele>
        <time>2017-11-01T12:00:36Z</time>
      </trkpt>
      <trkpt lat="45.67161" lon="6.24575">
        <ele>1559.5629882812</ele>
        <time>2017-11-01T12:00:40Z</time>
      </trkpt>
      <trkpt lat="45.67157" lon="6.24572">
        <ele>1556.5629882812</ele>
        <time>2017-11-01T12:00:41Z</time>
      </trkpt>
      <trkpt lat="45.67162" lon="6.24567">
        <ele>1556.5629882812</ele>
        <time>2017-11-01T12:00:45Z</time>
      </trkpt>
      <trkpt lat="45.67167" lon="6.24563">
        <ele>1554.5629882812</ele>
        <time>2017-11-01T12:00:48Z</time>
      </trkpt>
      <trkpt lat="45.67172" lon="6.24562">
        <ele>1554.5629882812</ele>
        <time>2017-11-01T12:00:51Z</time>
      </trkpt>
      <trkpt lat="45.67176" lon="6.24557">
        <ele>1553.5629882812</ele>
        <time>2017-11-01T12:00:55Z</time>
      </trkpt>
      <trkpt lat="45.67181" lon="6.24555">
        <ele>1552.5629882812</ele>
        <time>2017-11-01T12:00:58Z</time>
      </trkpt>
      <trkpt lat="45.67186" lon="6.24551">
        <ele>1554.5629882812</ele>
        <time>2017-11-01T12:01:01Z</time>
      </trkpt>
      <trkpt lat="45.67183" lon="6.24546">
        <ele>1556.5629882812</ele>
        <time>2017-11-01T12:01:05Z</time>
      </trkpt>
      <trkpt lat="45.67179" lon="6.24545">
        <ele>1555.5629882812</ele>
        <time>2017-11-01T12:01:09Z</time>
      </trkpt>
      <trkpt lat="45.67174" lon="6.24547">
        <ele>1552.5629882812</ele>
        <time>2017-11-01T12:01:13Z</time>
      </trkpt>
      <trkpt lat="45.67169" lon="6.24547">
        <ele>1552.5629882812</ele>
        <time>2017-11-01T12:01:17Z</time>
      </trkpt>
      <trkpt lat="45.67164" lon="6.24545">
        <ele>1550.5629882812</ele>
        <time>2017-11-01T12:01:22Z</time>
      </trkpt>
      <trkpt lat="45.67159" lon="6.24549">
        <ele>1547.5629882812</ele>
        <time>2017-11-01T12:01:26Z</time>
      </trkpt>
      <trkpt lat="45.67155" lon="6.2455">
        <ele>1546.5629882812</ele>
        <time>2017-11-01T12:01:30Z</time>
      </trkpt>
      <trkpt lat="45.6715" lon="6.2455">
        <ele>1546.5629882812</ele>
        <time>2017-11-01T12:01:33Z</time>
      </trkpt>
      <trkpt lat="45.67145" lon="6.24553">
        <ele>1545.5629882812</ele>
        <time>2017-11-01T12:01:37Z</time>
      </trkpt>
      <trkpt lat="45.6714" lon="6.24554">
        <ele>1546.5629882812</ele>
        <time>2017-11-01T12:01:40Z</time>
      </trkpt>
      <trkpt lat="45.67136" lon="6.24555">
        <ele>1543.5629882812</ele>
        <time>2017-11-01T12:01:44Z</time>
      </trkpt>
      <trkpt lat="45.67131" lon="6.24556">
        <ele>1543.5629882812</ele>
        <time>2017-11-01T12:01:47Z</time>
      </trkpt>
      <trkpt lat="45.67126" lon="6.2456">
        <ele>1541.5629882812</ele>
        <time>2017-11-01T12:01:51Z</time>
      </trkpt>
      <trkpt lat="45.67122" lon="6.24563">
        <ele>1538.5629882812</ele>
        <time>2017-11-01T12:01:55Z</time>
      </trkpt>
      <trkpt lat="45.67116" lon="6.24563">
        <ele>1535.5629882812</ele>
        <time>2017-11-01T12:02:01Z</time>
      </trkpt>
      <trkpt lat="45.67111" lon="6.24564">
        <ele>1536.5629882812</ele>
        <time>2017-11-01T12:02:04Z</time>
      </trkpt>
      <trkpt lat="45.67105" lon="6.24562">
        <ele>1537.5629882812</ele>
        <time>2017-11-01T12:02:08Z</time>
      </trkpt>
      <trkpt lat="45.67102" lon="6.24555">
        <ele>1538.5629882812</ele>
        <time>2017-11-01T12:02:11Z</time>
      </trkpt>
      <trkpt lat="45.67104" lon="6.24548">
        <ele>1539.5629882812</ele>
        <time>2017-11-01T12:02:15Z</time>
      </trkpt>
      <trkpt lat="45.67108" lon="6.24542">
        <ele>1539.5629882812</ele>
        <time>2017-11-01T12:02:20Z</time>
      </trkpt>
      <trkpt lat="45.67108" lon="6.24535">
        <ele>1538.5629882812</ele>
        <time>2017-11-01T12:02:26Z</time>
      </trkpt>
      <trkpt lat="45.67109" lon="6.24528">
        <ele>1537.5629882812</ele>
        <time>2017-11-01T12:02:29Z</time>
      </trkpt>
      <trkpt lat="45.6711" lon="6.24519">
        <ele>1536.5629882812</ele>
        <time>2017-11-01T12:02:33Z</time>
      </trkpt>
      <trkpt lat="45.6711" lon="6.24511">
        <ele>1539.5629882812</ele>
        <time>2017-11-01T12:02:35Z</time>
      </trkpt>
      <trkpt lat="45.67113" lon="6.24506">
        <ele>1538.5629882812</ele>
        <time>2017-11-01T12:02:38Z</time>
      </trkpt>
      <trkpt lat="45.6711" lon="6.245">
        <ele>1534.5629882812</ele>
        <time>2017-11-01T12:02:45Z</time>
      </trkpt>
      <trkpt lat="45.67106" lon="6.24503">
        <ele>1531.5629882812</ele>
        <time>2017-11-01T12:02:49Z</time>
      </trkpt>
      <trkpt lat="45.67101" lon="6.24507">
        <ele>1529.5629882812</ele>
        <time>2017-11-01T12:02:54Z</time>
      </trkpt>
      <trkpt lat="45.67095" lon="6.24509">
        <ele>1528.5629882812</ele>
        <time>2017-11-01T12:02:59Z</time>
      </trkpt>
      <trkpt lat="45.67092" lon="6.24514">
        <ele>1525.5629882812</ele>
        <time>2017-11-01T12:03:03Z</time>
      </trkpt>
      <trkpt lat="45.67088" lon="6.24515">
        <ele>1525.5629882812</ele>
        <time>2017-11-01T12:03:07Z</time>
      </trkpt>
      <trkpt lat="45.67083" lon="6.24512">
        <ele>1526.5629882812</ele>
        <time>2017-11-01T12:03:12Z</time>
      </trkpt>
      <trkpt lat="45.67086" lon="6.24506">
        <ele>1523.5629882812</ele>
        <time>2017-11-01T12:03:16Z</time>
      </trkpt>
      <trkpt lat="45.6709" lon="6.24504">
        <ele>1520.5629882812</ele>
        <time>2017-11-01T12:03:19Z</time>
      </trkpt>
      <trkpt lat="45.67094" lon="6.245">
        <ele>1521.5629882812</ele>
        <time>2017-11-01T12:03:22Z</time>
      </trkpt>
      <trkpt lat="45.67096" lon="6.24494">
        <ele>1521.5629882812</ele>
        <time>2017-11-01T12:03:26Z</time>
      </trkpt>
      <trkpt lat="45.67099" lon="6.24486">
        <ele>1519.5629882812</ele>
        <time>2017-11-01T12:03:31Z</time>
      </trkpt>
      <trkpt lat="45.67098" lon="6.24479">
        <ele>1517.5629882812</ele>
        <time>2017-11-01T12:03:34Z</time>
      </trkpt>
      <trkpt lat="45.67097" lon="6.24471">
        <ele>1516.5629882812</ele>
        <time>2017-11-01T12:03:39Z</time>
      </trkpt>
      <trkpt lat="45.67095" lon="6.24463">
        <ele>1515.5629882812</ele>
        <time>2017-11-01T12:03:43Z</time>
      </trkpt>
      <trkpt lat="45.671" lon="6.24462">
        <ele>1514.5629882812</ele>
        <time>2017-11-01T12:03:45Z</time>
      </trkpt>
      <trkpt lat="45.67101" lon="6.24455">
        <ele>1516.5629882812</ele>
        <time>2017-11-01T12:03:48Z</time>
      </trkpt>
      <trkpt lat="45.67102" lon="6.24447">
        <ele>1516.5629882812</ele>
        <time>2017-11-01T12:03:51Z</time>
      </trkpt>
      <trkpt lat="45.67103" lon="6.2444">
        <ele>1516.5629882812</ele>
        <time>2017-11-01T12:03:54Z</time>
      </trkpt>
      <trkpt lat="45.67106" lon="6.24433">
        <ele>1516.5629882812</ele>
        <time>2017-11-01T12:03:58Z</time>
      </trkpt>
      <trkpt lat="45.67106" lon="6.24426">
        <ele>1515.5629882812</ele>
        <time>2017-11-01T12:04:01Z</time>
      </trkpt>
      <trkpt lat="45.67108" lon="6.24417">
        <ele>1513.5629882812</ele>
        <time>2017-11-01T12:04:04Z</time>
      </trkpt>
      <trkpt lat="45.6711" lon="6.24411">
        <ele>1512.5629882812</ele>
        <time>2017-11-01T12:04:07Z</time>
      </trkpt>
      <trkpt lat="45.6711" lon="6.24401">
        <ele>1511.5629882812</ele>
        <time>2017-11-01T12:04:11Z</time>
      </trkpt>
      <trkpt lat="45.67112" lon="6.24396">
        <ele>1509.5629882812</ele>
        <time>2017-11-01T12:04:14Z</time>
      </trkpt>
      <trkpt lat="45.67118" lon="6.24391">
        <ele>1504.5629882812</ele>
        <time>2017-11-01T12:04:21Z</time>
      </trkpt>
      <trkpt lat="45.67121" lon="6.24387">
        <ele>1501.5629882812</ele>
        <time>2017-11-01T12:04:26Z</time>
      </trkpt>
      <trkpt lat="45.67118" lon="6.24379">
        <ele>1504.5629882812</ele>
        <time>2017-11-01T12:04:29Z</time>
      </trkpt>
      <trkpt lat="45.67114" lon="6.24376">
        <ele>1501.5629882812</ele>
        <time>2017-11-01T12:04:34Z</time>
      </trkpt>
      <trkpt lat="45.6711" lon="6.24379">
        <ele>1499.5629882812</ele>
        <time>2017-11-01T12:04:39Z</time>
      </trkpt>
      <trkpt lat="45.67107" lon="6.24385">
        <ele>1496.5629882812</ele>
        <time>2017-11-01T12:04:43Z</time>
      </trkpt>
      <trkpt lat="45.67102" lon="6.24386">
        <ele>1498.5629882812</ele>
        <time>2017-11-01T12:04:47Z</time>
      </trkpt>
      <trkpt lat="45.67098" lon="6.24391">
        <ele>1500.5629882812</ele>
        <time>2017-11-01T12:04:50Z</time>
      </trkpt>
      <trkpt lat="45.67094" lon="6.24395">
        <ele>1497.5629882812</ele>
        <time>2017-11-01T12:04:54Z</time>
      </trkpt>
      <trkpt lat="45.6709" lon="6.244">
        <ele>1495.5629882812</ele>
        <time>2017-11-01T12:04:59Z</time>
      </trkpt>
      <trkpt lat="45.67085" lon="6.24406">
        <ele>1493.5629882812</ele>
        <time>2017-11-01T12:05:03Z</time>
      </trkpt>
      <trkpt lat="45.67081" lon="6.24408">
        <ele>1493.5629882812</ele>
        <time>2017-11-01T12:05:07Z</time>
      </trkpt>
      <trkpt lat="45.67076" lon="6.24411">
        <ele>1493.5629882812</ele>
        <time>2017-11-01T12:05:10Z</time>
      </trkpt>
      <trkpt lat="45.67072" lon="6.24416">
        <ele>1490.5629882812</ele>
        <time>2017-11-01T12:05:14Z</time>
      </trkpt>
      <trkpt lat="45.67068" lon="6.24421">
        <ele>1489.5629882812</ele>
        <time>2017-11-01T12:05:18Z</time>
      </trkpt>
      <trkpt lat="45.67064" lon="6.24424">
        <ele>1488.5629882812</ele>
        <time>2017-11-01T12:05:22Z</time>
      </trkpt>
      <trkpt lat="45.67059" lon="6.24425">
        <ele>1485.5629882812</ele>
        <time>2017-11-01T12:05:27Z</time>
      </trkpt>
      <trkpt lat="45.67054" lon="6.24428">
        <ele>1484.5629882812</ele>
        <time>2017-11-01T12:05:30Z</time>
      </trkpt>
      <trkpt lat="45.67049" lon="6.24433">
        <ele>1483.5629882812</ele>
        <time>2017-11-01T12:05:34Z</time>
      </trkpt>
      <trkpt lat="45.67046" lon="6.24438">
        <ele>1483.5629882812</ele>
        <time>2017-11-01T12:05:37Z</time>
      </trkpt>
      <trkpt lat="45.67041" lon="6.24445">
        <ele>1484.5629882812</ele>
        <time>2017-11-01T12:05:42Z</time>
      </trkpt>
      <trkpt lat="45.67036" lon="6.24448">
        <ele>1484.5629882812</ele>
        <time>2017-11-01T12:05:45Z</time>
      </trkpt>
      <trkpt lat="45.67032" lon="6.24453">
        <ele>1485.5629882812</ele>
        <time>2017-11-01T12:05:47Z</time>
      </trkpt>
      <trkpt lat="45.67027" lon="6.24452">
        <ele>1487.5629882812</ele>
        <time>2017-11-01T12:05:50Z</time>
      </trkpt>
      <trkpt lat="45.67021" lon="6.24451">
        <ele>1487.5629882812</ele>
        <time>2017-11-01T12:05:54Z</time>
      </trkpt>
      <trkpt lat="45.67017" lon="6.24451">
        <ele>1484.5629882812</ele>
        <time>2017-11-01T12:05:58Z</time>
      </trkpt>
      <trkpt lat="45.67012" lon="6.24451">
        <ele>1482.5629882812</ele>
        <time>2017-11-01T12:06:02Z</time>
      </trkpt>
      <trkpt lat="45.67007" lon="6.24451">
        <ele>1480.5629882812</ele>
        <time>2017-11-01T12:06:07Z</time>
      </trkpt>
      <trkpt lat="45.67003" lon="6.24453">
        <ele>1477.5620117188</ele>
        <time>2017-11-01T12:06:11Z</time>
      </trkpt>
      <trkpt lat="45.66996" lon="6.24456">
        <ele>1478.5620117188</ele>
        <time>2017-11-01T12:06:15Z</time>
      </trkpt>
      <trkpt lat="45.66992" lon="6.2446">
        <ele>1479.5620117188</ele>
        <time>2017-11-01T12:06:18Z</time>
      </trkpt>
      <trkpt lat="45.66987" lon="6.24462">
        <ele>1480.5620117188</ele>
        <time>2017-11-01T12:06:22Z</time>
      </trkpt>
      <trkpt lat="45.66982" lon="6.24463">
        <ele>1479.5620117188</ele>
        <time>2017-11-01T12:06:25Z</time>
      </trkpt>
      <trkpt lat="45.66977" lon="6.24462">
        <ele>1479.5620117188</ele>
        <time>2017-11-01T12:06:30Z</time>
      </trkpt>
      <trkpt lat="45.66972" lon="6.24463">
        <ele>1479.5620117188</ele>
        <time>2017-11-01T12:06:34Z</time>
      </trkpt>
      <trkpt lat="45.66967" lon="6.24464">
        <ele>1475.5620117188</ele>
        <time>2017-11-01T12:06:39Z</time>
      </trkpt>
      <trkpt lat="45.66962" lon="6.24467">
        <ele>1476.5620117188</ele>
        <time>2017-11-01T12:06:42Z</time>
      </trkpt>
      <trkpt lat="45.66957" lon="6.24467">
        <ele>1478.5620117188</ele>
        <time>2017-11-01T12:06:45Z</time>
      </trkpt>
      <trkpt lat="45.66953" lon="6.2447">
        <ele>1478.5620117188</ele>
        <time>2017-11-01T12:06:49Z</time>
      </trkpt>
      <trkpt lat="45.66948" lon="6.24474">
        <ele>1476.5620117188</ele>
        <time>2017-11-01T12:06:53Z</time>
      </trkpt>
      <trkpt lat="45.66943" lon="6.24477">
        <ele>1477.5620117188</ele>
        <time>2017-11-01T12:06:56Z</time>
      </trkpt>
      <trkpt lat="45.66938" lon="6.24479">
        <ele>1476.5620117188</ele>
        <time>2017-11-01T12:07:00Z</time>
      </trkpt>
      <trkpt lat="45.66933" lon="6.24477">
        <ele>1475.5620117188</ele>
        <time>2017-11-01T12:07:06Z</time>
      </trkpt>
      <trkpt lat="45.66927" lon="6.24478">
        <ele>1472.5620117188</ele>
        <time>2017-11-01T12:07:11Z</time>
      </trkpt>
      <trkpt lat="45.66923" lon="6.24479">
        <ele>1468.5620117188</ele>
        <time>2017-11-01T12:07:14Z</time>
      </trkpt>
      <trkpt lat="45.66917" lon="6.24478">
        <ele>1469.5620117188</ele>
        <time>2017-11-01T12:07:17Z</time>
      </trkpt>
      <trkpt lat="45.66912" lon="6.24479">
        <ele>1471.5620117188</ele>
        <time>2017-11-01T12:07:20Z</time>
      </trkpt>
      <trkpt lat="45.66907" lon="6.24478">
        <ele>1471.5620117188</ele>
        <time>2017-11-01T12:07:24Z</time>
      </trkpt>
      <trkpt lat="45.66902" lon="6.24476">
        <ele>1471.5620117188</ele>
        <time>2017-11-01T12:07:28Z</time>
      </trkpt>
      <trkpt lat="45.66896" lon="6.24476">
        <ele>1472.5620117188</ele>
        <time>2017-11-01T12:07:31Z</time>
      </trkpt>
      <trkpt lat="45.6689" lon="6.24478">
        <ele>1471.5620117188</ele>
        <time>2017-11-01T12:07:36Z</time>
      </trkpt>
      <trkpt lat="45.66885" lon="6.2448">
        <ele>1467.5620117188</ele>
        <time>2017-11-01T12:07:41Z</time>
      </trkpt>
      <trkpt lat="45.6688" lon="6.24481">
        <ele>1467.5620117188</ele>
        <time>2017-11-01T12:07:44Z</time>
      </trkpt>
      <trkpt lat="45.66875" lon="6.24483">
        <ele>1465.5620117188</ele>
        <time>2017-11-01T12:07:47Z</time>
      </trkpt>
      <trkpt lat="45.6687" lon="6.24482">
        <ele>1466.5620117188</ele>
        <time>2017-11-01T12:07:51Z</time>
      </trkpt>
      <trkpt lat="45.66865" lon="6.2448">
        <ele>1468.5620117188</ele>
        <time>2017-11-01T12:07:53Z</time>
      </trkpt>
      <trkpt lat="45.66859" lon="6.2448">
        <ele>1466.5620117188</ele>
        <time>2017-11-01T12:07:58Z</time>
      </trkpt>
      <trkpt lat="45.66855" lon="6.24482">
        <ele>1459.5620117188</ele>
        <time>2017-11-01T12:08:02Z</time>
      </trkpt>
      <trkpt lat="45.66849" lon="6.24482">
        <ele>1454.5620117188</ele>
        <time>2017-11-01T12:08:06Z</time>
      </trkpt>
      <trkpt lat="45.66844" lon="6.2448">
        <ele>1454.5620117188</ele>
        <time>2017-11-01T12:08:09Z</time>
      </trkpt>
      <trkpt lat="45.6684" lon="6.24484">
        <ele>1455.5620117188</ele>
        <time>2017-11-01T12:08:13Z</time>
      </trkpt>
      <trkpt lat="45.66834" lon="6.24483">
        <ele>1455.5620117188</ele>
        <time>2017-11-01T12:08:17Z</time>
      </trkpt>
      <trkpt lat="45.66828" lon="6.24481">
        <ele>1453.5620117188</ele>
        <time>2017-11-01T12:08:21Z</time>
      </trkpt>
      <trkpt lat="45.66821" lon="6.24482">
        <ele>1453.5620117188</ele>
        <time>2017-11-01T12:08:25Z</time>
      </trkpt>
      <trkpt lat="45.66816" lon="6.24483">
        <ele>1452.5620117188</ele>
        <time>2017-11-01T12:08:29Z</time>
      </trkpt>
      <trkpt lat="45.66811" lon="6.24481">
        <ele>1452.5620117188</ele>
        <time>2017-11-01T12:08:32Z</time>
      </trkpt>
      <trkpt lat="45.66806" lon="6.24482">
        <ele>1451.5620117188</ele>
        <time>2017-11-01T12:08:36Z</time>
      </trkpt>
      <trkpt lat="45.668" lon="6.2448">
        <ele>1453.5620117188</ele>
        <time>2017-11-01T12:08:39Z</time>
      </trkpt>
      <trkpt lat="45.66795" lon="6.24479">
        <ele>1452.5620117188</ele>
        <time>2017-11-01T12:08:43Z</time>
      </trkpt>
      <trkpt lat="45.66789" lon="6.2448">
        <ele>1453.5620117188</ele>
        <time>2017-11-01T12:08:47Z</time>
      </trkpt>
      <trkpt lat="45.66784" lon="6.2448">
        <ele>1449.5620117188</ele>
        <time>2017-11-01T12:08:51Z</time>
      </trkpt>
      <trkpt lat="45.66779" lon="6.24481">
        <ele>1447.5620117188</ele>
        <time>2017-11-01T12:08:54Z</time>
      </trkpt>
      <trkpt lat="45.66774" lon="6.24482">
        <ele>1447.5620117188</ele>
        <time>2017-11-01T12:08:57Z</time>
      </trkpt>
      <trkpt lat="45.66769" lon="6.24477">
        <ele>1447.5620117188</ele>
        <time>2017-11-01T12:09:00Z</time>
      </trkpt>
      <trkpt lat="45.66763" lon="6.24476">
        <ele>1446.5620117188</ele>
        <time>2017-11-01T12:09:04Z</time>
      </trkpt>
      <trkpt lat="45.66758" lon="6.24474">
        <ele>1445.5620117188</ele>
        <time>2017-11-01T12:09:08Z</time>
      </trkpt>
      <trkpt lat="45.66753" lon="6.24475">
        <ele>1445.5620117188</ele>
        <time>2017-11-01T12:09:11Z</time>
      </trkpt>
      <trkpt lat="45.66747" lon="6.24476">
        <ele>1444.5620117188</ele>
        <time>2017-11-01T12:09:14Z</time>
      </trkpt>
      <trkpt lat="45.6674" lon="6.24477">
        <ele>1442.5620117188</ele>
        <time>2017-11-01T12:09:18Z</time>
      </trkpt>
      <trkpt lat="45.66736" lon="6.24473">
        <ele>1443.5620117188</ele>
        <time>2017-11-01T12:09:21Z</time>
      </trkpt>
      <trkpt lat="45.66731" lon="6.24474">
        <ele>1444.5620117188</ele>
        <time>2017-11-01T12:09:24Z</time>
      </trkpt>
      <trkpt lat="45.66727" lon="6.24477">
        <ele>1444.5620117188</ele>
        <time>2017-11-01T12:09:27Z</time>
      </trkpt>
      <trkpt lat="45.66722" lon="6.24479">
        <ele>1441.5620117188</ele>
        <time>2017-11-01T12:09:31Z</time>
      </trkpt>
      <trkpt lat="45.66717" lon="6.24482">
        <ele>1438.5620117188</ele>
        <time>2017-11-01T12:09:35Z</time>
      </trkpt>
      <trkpt lat="45.66713" lon="6.24485">
        <ele>1437.5620117188</ele>
        <time>2017-11-01T12:09:38Z</time>
      </trkpt>
      <trkpt lat="45.66707" lon="6.24483">
        <ele>1440.5620117188</ele>
        <time>2017-11-01T12:09:41Z</time>
      </trkpt>
      <trkpt lat="45.66702" lon="6.24481">
        <ele>1440.5620117188</ele>
        <time>2017-11-01T12:09:44Z</time>
      </trkpt>
      <trkpt lat="45.66697" lon="6.24482">
        <ele>1436.5620117188</ele>
        <time>2017-11-01T12:09:48Z</time>
      </trkpt>
      <trkpt lat="45.66692" lon="6.24481">
        <ele>1434.5620117188</ele>
        <time>2017-11-01T12:09:52Z</time>
      </trkpt>
      <trkpt lat="45.66687" lon="6.24483">
        <ele>1432.5620117188</ele>
        <time>2017-11-01T12:09:55Z</time>
      </trkpt>
      <trkpt lat="45.66681" lon="6.24483">
        <ele>1430.5620117188</ele>
        <time>2017-11-01T12:10:00Z</time>
      </trkpt>
      <trkpt lat="45.66676" lon="6.24484">
        <ele>1430.5620117188</ele>
        <time>2017-11-01T12:10:03Z</time>
      </trkpt>
      <trkpt lat="45.6667" lon="6.24483">
        <ele>1427.5620117188</ele>
        <time>2017-11-01T12:10:07Z</time>
      </trkpt>
      <trkpt lat="45.66666" lon="6.24485">
        <ele>1423.5620117188</ele>
        <time>2017-11-01T12:10:11Z</time>
      </trkpt>
      <trkpt lat="45.66661" lon="6.24489">
        <ele>1420.5620117188</ele>
        <time>2017-11-01T12:10:15Z</time>
      </trkpt>
      <trkpt lat="45.66655" lon="6.24491">
        <ele>1417.5620117188</ele>
        <time>2017-11-01T12:10:19Z</time>
      </trkpt>
      <trkpt lat="45.6665" lon="6.24493">
        <ele>1415.5620117188</ele>
        <time>2017-11-01T12:10:23Z</time>
      </trkpt>
      <trkpt lat="45.66644" lon="6.24495">
        <ele>1410.5620117188</ele>
        <time>2017-11-01T12:10:29Z</time>
      </trkpt>
      <trkpt lat="45.66639" lon="6.24497">
        <ele>1411.5620117188</ele>
        <time>2017-11-01T12:10:32Z</time>
      </trkpt>
      <trkpt lat="45.66634" lon="6.24498">
        <ele>1411.5620117188</ele>
        <time>2017-11-01T12:10:35Z</time>
      </trkpt>
      <trkpt lat="45.66629" lon="6.24498">
        <ele>1411.5620117188</ele>
        <time>2017-11-01T12:10:38Z</time>
      </trkpt>
      <trkpt lat="45.66625" lon="6.24495">
        <ele>1410.5620117188</ele>
        <time>2017-11-01T12:10:41Z</time>
      </trkpt>
      <trkpt lat="45.66619" lon="6.2449">
        <ele>1412.5620117188</ele>
        <time>2017-11-01T12:10:44Z</time>
      </trkpt>
      <trkpt lat="45.66621" lon="6.24484">
        <ele>1410.5620117188</ele>
        <time>2017-11-01T12:10:48Z</time>
      </trkpt>
      <trkpt lat="45.66624" lon="6.24479">
        <ele>1411.5620117188</ele>
        <time>2017-11-01T12:10:51Z</time>
      </trkpt>
      <trkpt lat="45.6663" lon="6.24477">
        <ele>1408.5620117188</ele>
        <time>2017-11-01T12:10:56Z</time>
      </trkpt>
      <trkpt lat="45.66634" lon="6.24473">
        <ele>1407.5620117188</ele>
        <time>2017-11-01T12:11:00Z</time>
      </trkpt>
      <trkpt lat="45.6664" lon="6.24469">
        <ele>1408.5620117188</ele>
        <time>2017-11-01T12:11:04Z</time>
      </trkpt>
      <trkpt lat="45.66644" lon="6.24467">
        <ele>1406.5620117188</ele>
        <time>2017-11-01T12:11:07Z</time>
      </trkpt>
      <trkpt lat="45.66648" lon="6.24463">
        <ele>1408.5620117188</ele>
        <time>2017-11-01T12:11:10Z</time>
      </trkpt>
      <trkpt lat="45.66652" lon="6.24458">
        <ele>1408.5620117188</ele>
        <time>2017-11-01T12:11:13Z</time>
      </trkpt>
      <trkpt lat="45.66658" lon="6.24456">
        <ele>1407.5620117188</ele>
        <time>2017-11-01T12:11:18Z</time>
      </trkpt>
      <trkpt lat="45.66664" lon="6.24454">
        <ele>1407.5620117188</ele>
        <time>2017-11-01T12:11:21Z</time>
      </trkpt>
      <trkpt lat="45.66667" lon="6.2445">
        <ele>1408.5620117188</ele>
        <time>2017-11-01T12:11:25Z</time>
      </trkpt>
      <trkpt lat="45.66673" lon="6.24449">
        <ele>1407.5620117188</ele>
        <time>2017-11-01T12:11:28Z</time>
      </trkpt>
      <trkpt lat="45.66678" lon="6.24448">
        <ele>1407.5620117188</ele>
        <time>2017-11-01T12:11:31Z</time>
      </trkpt>
      <trkpt lat="45.66684" lon="6.24446">
        <ele>1408.5620117188</ele>
        <time>2017-11-01T12:11:35Z</time>
      </trkpt>
      <trkpt lat="45.6669" lon="6.24442">
        <ele>1410.5620117188</ele>
        <time>2017-11-01T12:11:39Z</time>
      </trkpt>
      <trkpt lat="45.66695" lon="6.24438">
        <ele>1412.5620117188</ele>
        <time>2017-11-01T12:11:43Z</time>
      </trkpt>
      <trkpt lat="45.667" lon="6.24435">
        <ele>1414.5620117188</ele>
        <time>2017-11-01T12:11:46Z</time>
      </trkpt>
      <trkpt lat="45.66705" lon="6.24435">
        <ele>1414.5620117188</ele>
        <time>2017-11-01T12:11:49Z</time>
      </trkpt>
      <trkpt lat="45.6671" lon="6.24431">
        <ele>1417.5620117188</ele>
        <time>2017-11-01T12:11:54Z</time>
      </trkpt>
      <trkpt lat="45.66713" lon="6.24425">
        <ele>1416.5620117188</ele>
        <time>2017-11-01T12:11:59Z</time>
      </trkpt>
      <trkpt lat="45.66718" lon="6.24422">
        <ele>1416.5620117188</ele>
        <time>2017-11-01T12:12:06Z</time>
      </trkpt>
      <trkpt lat="45.66724" lon="6.2442">
        <ele>1416.5620117188</ele>
        <time>2017-11-01T12:12:08Z</time>
      </trkpt>
      <trkpt lat="45.6673" lon="6.24421">
        <ele>1415.5620117188</ele>
        <time>2017-11-01T12:12:10Z</time>
      </trkpt>
      <trkpt lat="45.66734" lon="6.24416">
        <ele>1418.5620117188</ele>
        <time>2017-11-01T12:12:14Z</time>
      </trkpt>
      <trkpt lat="45.6674" lon="6.24418">
        <ele>1417.5620117188</ele>
        <time>2017-11-01T12:12:17Z</time>
      </trkpt>
      <trkpt lat="45.66745" lon="6.24415">
        <ele>1420.5620117188</ele>
        <time>2017-11-01T12:12:21Z</time>
      </trkpt>
      <trkpt lat="45.6675" lon="6.24413">
        <ele>1421.5620117188</ele>
        <time>2017-11-01T12:12:24Z</time>
      </trkpt>
      <trkpt lat="45.66754" lon="6.2441">
        <ele>1421.5620117188</ele>
        <time>2017-11-01T12:12:27Z</time>
      </trkpt>
      <trkpt lat="45.66759" lon="6.24412">
        <ele>1418.5620117188</ele>
        <time>2017-11-01T12:12:29Z</time>
      </trkpt>
      <trkpt lat="45.66763" lon="6.24407">
        <ele>1413.5620117188</ele>
        <time>2017-11-01T12:12:34Z</time>
      </trkpt>
      <trkpt lat="45.66768" lon="6.24405">
        <ele>1410.5620117188</ele>
        <time>2017-11-01T12:12:38Z</time>
      </trkpt>
      <trkpt lat="45.66773" lon="6.24402">
        <ele>1408.5620117188</ele>
        <time>2017-11-01T12:12:42Z</time>
      </trkpt>
      <trkpt lat="45.66778" lon="6.244">
        <ele>1407.5620117188</ele>
        <time>2017-11-01T12:12:44Z</time>
      </trkpt>
      <trkpt lat="45.66782" lon="6.24397">
        <ele>1408.5620117188</ele>
        <time>2017-11-01T12:12:46Z</time>
      </trkpt>
      <trkpt lat="45.66786" lon="6.24392">
        <ele>1408.5620117188</ele>
        <time>2017-11-01T12:12:49Z</time>
      </trkpt>
      <trkpt lat="45.66788" lon="6.24384">
        <ele>1407.5620117188</ele>
        <time>2017-11-01T12:12:53Z</time>
      </trkpt>
      <trkpt lat="45.66791" lon="6.24377">
        <ele>1407.5620117188</ele>
        <time>2017-11-01T12:12:57Z</time>
      </trkpt>
      <trkpt lat="45.66795" lon="6.24372">
        <ele>1409.5620117188</ele>
        <time>2017-11-01T12:13:00Z</time>
      </trkpt>
      <trkpt lat="45.66793" lon="6.24364">
        <ele>1411.5620117188</ele>
        <time>2017-11-01T12:13:02Z</time>
      </trkpt>
      <trkpt lat="45.66792" lon="6.24357">
        <ele>1413.5620117188</ele>
        <time>2017-11-01T12:13:05Z</time>
      </trkpt>
      <trkpt lat="45.66792" lon="6.2435">
        <ele>1412.5620117188</ele>
        <time>2017-11-01T12:13:07Z</time>
      </trkpt>
      <trkpt lat="45.66789" lon="6.24342">
        <ele>1412.5620117188</ele>
        <time>2017-11-01T12:13:10Z</time>
      </trkpt>
      <trkpt lat="45.66786" lon="6.24338">
        <ele>1413.5620117188</ele>
        <time>2017-11-01T12:13:13Z</time>
      </trkpt>
      <trkpt lat="45.66782" lon="6.24335">
        <ele>1413.5620117188</ele>
        <time>2017-11-01T12:13:16Z</time>
      </trkpt>
      <trkpt lat="45.66777" lon="6.24333">
        <ele>1412.5620117188</ele>
        <time>2017-11-01T12:13:20Z</time>
      </trkpt>
      <trkpt lat="45.66771" lon="6.24332">
        <ele>1410.5620117188</ele>
        <time>2017-11-01T12:13:24Z</time>
      </trkpt>
      <trkpt lat="45.66767" lon="6.24331">
        <ele>1403.5620117188</ele>
        <time>2017-11-01T12:13:29Z</time>
      </trkpt>
      <trkpt lat="45.66763" lon="6.24336">
        <ele>1397.5620117188</ele>
        <time>2017-11-01T12:13:33Z</time>
      </trkpt>
      <trkpt lat="45.66759" lon="6.24342">
        <ele>1394.5620117188</ele>
        <time>2017-11-01T12:13:37Z</time>
      </trkpt>
      <trkpt lat="45.66755" lon="6.24347">
        <ele>1393.5620117188</ele>
        <time>2017-11-01T12:13:41Z</time>
      </trkpt>
      <trkpt lat="45.6675" lon="6.24351">
        <ele>1391.5620117188</ele>
        <time>2017-11-01T12:13:47Z</time>
      </trkpt>
      <trkpt lat="45.66745" lon="6.24355">
        <ele>1393.5620117188</ele>
        <time>2017-11-01T12:13:50Z</time>
      </trkpt>
      <trkpt lat="45.6674" lon="6.24357">
        <ele>1394.5620117188</ele>
        <time>2017-11-01T12:13:53Z</time>
      </trkpt>
      <trkpt lat="45.66735" lon="6.24353">
        <ele>1395.5620117188</ele>
        <time>2017-11-01T12:13:56Z</time>
      </trkpt>
      <trkpt lat="45.66739" lon="6.24346">
        <ele>1394.5620117188</ele>
        <time>2017-11-01T12:14:00Z</time>
      </trkpt>
      <trkpt lat="45.66743" lon="6.24341">
        <ele>1392.5620117188</ele>
        <time>2017-11-01T12:14:05Z</time>
      </trkpt>
      <trkpt lat="45.66743" lon="6.24334">
        <ele>1392.5620117188</ele>
        <time>2017-11-01T12:14:07Z</time>
      </trkpt>
      <trkpt lat="45.66748" lon="6.24329">
        <ele>1392.5620117188</ele>
        <time>2017-11-01T12:14:10Z</time>
      </trkpt>
      <trkpt lat="45.66751" lon="6.24325">
        <ele>1392.5620117188</ele>
        <time>2017-11-01T12:14:14Z</time>
      </trkpt>
      <trkpt lat="45.66755" lon="6.2432">
        <ele>1392.5620117188</ele>
        <time>2017-11-01T12:14:17Z</time>
      </trkpt>
      <trkpt lat="45.66758" lon="6.24315">
        <ele>1392.5620117188</ele>
        <time>2017-11-01T12:14:20Z</time>
      </trkpt>
      <trkpt lat="45.66761" lon="6.24307">
        <ele>1395.5620117188</ele>
        <time>2017-11-01T12:14:23Z</time>
      </trkpt>
      <trkpt lat="45.66765" lon="6.24301">
        <ele>1395.5620117188</ele>
        <time>2017-11-01T12:14:27Z</time>
      </trkpt>
      <trkpt lat="45.66768" lon="6.24296">
        <ele>1394.5620117188</ele>
        <time>2017-11-01T12:14:30Z</time>
      </trkpt>
      <trkpt lat="45.66772" lon="6.24292">
        <ele>1395.5620117188</ele>
        <time>2017-11-01T12:14:33Z</time>
      </trkpt>
      <trkpt lat="45.66775" lon="6.24288">
        <ele>1394.5620117188</ele>
        <time>2017-11-01T12:14:37Z</time>
      </trkpt>
      <trkpt lat="45.6678" lon="6.24283">
        <ele>1395.5620117188</ele>
        <time>2017-11-01T12:14:42Z</time>
      </trkpt>
      <trkpt lat="45.66784" lon="6.24278">
        <ele>1397.5620117188</ele>
        <time>2017-11-01T12:14:45Z</time>
      </trkpt>
      <trkpt lat="45.66788" lon="6.24274">
        <ele>1396.5620117188</ele>
        <time>2017-11-01T12:14:48Z</time>
      </trkpt>
      <trkpt lat="45.66792" lon="6.2427">
        <ele>1398.5620117188</ele>
        <time>2017-11-01T12:14:51Z</time>
      </trkpt>
      <trkpt lat="45.66796" lon="6.24266">
        <ele>1395.5620117188</ele>
        <time>2017-11-01T12:14:55Z</time>
      </trkpt>
      <trkpt lat="45.668" lon="6.24263">
        <ele>1391.5620117188</ele>
        <time>2017-11-01T12:15:02Z</time>
      </trkpt>
      <trkpt lat="45.66805" lon="6.24258">
        <ele>1392.5620117188</ele>
        <time>2017-11-01T12:15:07Z</time>
      </trkpt>
      <trkpt lat="45.66813" lon="6.24255">
        <ele>1392.5620117188</ele>
        <time>2017-11-01T12:15:10Z</time>
      </trkpt>
      <trkpt lat="45.66814" lon="6.24247">
        <ele>1392.5620117188</ele>
        <time>2017-11-01T12:15:13Z</time>
      </trkpt>
      <trkpt lat="45.66815" lon="6.2424">
        <ele>1391.5620117188</ele>
        <time>2017-11-01T12:15:17Z</time>
      </trkpt>
      <trkpt lat="45.6682" lon="6.24237">
        <ele>1390.5620117188</ele>
        <time>2017-11-01T12:15:21Z</time>
      </trkpt>
      <trkpt lat="45.66823" lon="6.24232">
        <ele>1390.5620117188</ele>
        <time>2017-11-01T12:15:24Z</time>
      </trkpt>
      <trkpt lat="45.66827" lon="6.24228">
        <ele>1391.5620117188</ele>
        <time>2017-11-01T12:15:27Z</time>
      </trkpt>
      <trkpt lat="45.66829" lon="6.24222">
        <ele>1392.5620117188</ele>
        <time>2017-11-01T12:15:30Z</time>
      </trkpt>
      <trkpt lat="45.66834" lon="6.24216">
        <ele>1394.5620117188</ele>
        <time>2017-11-01T12:15:32Z</time>
      </trkpt>
      <trkpt lat="45.66838" lon="6.24213">
        <ele>1389.5620117188</ele>
        <time>2017-11-01T12:15:36Z</time>
      </trkpt>
      <trkpt lat="45.66838" lon="6.24206">
        <ele>1392.5620117188</ele>
        <time>2017-11-01T12:15:39Z</time>
      </trkpt>
      <trkpt lat="45.66836" lon="6.242">
        <ele>1393.5620117188</ele>
        <time>2017-11-01T12:15:43Z</time>
      </trkpt>
      <trkpt lat="45.66832" lon="6.24197">
        <ele>1391.5620117188</ele>
        <time>2017-11-01T12:15:47Z</time>
      </trkpt>
      <trkpt lat="45.66828" lon="6.24194">
        <ele>1392.5620117188</ele>
        <time>2017-11-01T12:15:50Z</time>
      </trkpt>
      <trkpt lat="45.66822" lon="6.24194">
        <ele>1395.5620117188</ele>
        <time>2017-11-01T12:15:54Z</time>
      </trkpt>
      <trkpt lat="45.66817" lon="6.24194">
        <ele>1396.5620117188</ele>
        <time>2017-11-01T12:15:58Z</time>
      </trkpt>
      <trkpt lat="45.66812" lon="6.24196">
        <ele>1397.5620117188</ele>
        <time>2017-11-01T12:16:02Z</time>
      </trkpt>
      <trkpt lat="45.66807" lon="6.24197">
        <ele>1400.5620117188</ele>
        <time>2017-11-01T12:16:07Z</time>
      </trkpt>
      <trkpt lat="45.66802" lon="6.242">
        <ele>1402.5620117188</ele>
        <time>2017-11-01T12:16:11Z</time>
      </trkpt>
      <trkpt lat="45.66797" lon="6.24201">
        <ele>1402.5620117188</ele>
        <time>2017-11-01T12:16:15Z</time>
      </trkpt>
      <trkpt lat="45.66792" lon="6.242">
        <ele>1403.5620117188</ele>
        <time>2017-11-01T12:16:19Z</time>
      </trkpt>
      <trkpt lat="45.66789" lon="6.24194">
        <ele>1402.5620117188</ele>
        <time>2017-11-01T12:16:24Z</time>
      </trkpt>
      <trkpt lat="45.66785" lon="6.24187">
        <ele>1404.5620117188</ele>
        <time>2017-11-01T12:16:29Z</time>
      </trkpt>
      <trkpt lat="45.66781" lon="6.24181">
        <ele>1403.5620117188</ele>
        <time>2017-11-01T12:16:33Z</time>
      </trkpt>
      <trkpt lat="45.66777" lon="6.24178">
        <ele>1404.5620117188</ele>
        <time>2017-11-01T12:16:37Z</time>
      </trkpt>
      <trkpt lat="45.66772" lon="6.24181">
        <ele>1403.5620117188</ele>
        <time>2017-11-01T12:16:42Z</time>
      </trkpt>
      <trkpt lat="45.66767" lon="6.24182">
        <ele>1409.5620117188</ele>
        <time>2017-11-01T12:16:48Z</time>
      </trkpt>
      <trkpt lat="45.66763" lon="6.24186">
        <ele>1413.5620117188</ele>
        <time>2017-11-01T12:16:53Z</time>
      </trkpt>
      <trkpt lat="45.66763" lon="6.24194">
        <ele>1412.5620117188</ele>
        <time>2017-11-01T12:16:57Z</time>
      </trkpt>
      <trkpt lat="45.66761" lon="6.24202">
        <ele>1412.5620117188</ele>
        <time>2017-11-01T12:17:02Z</time>
      </trkpt>
      <trkpt lat="45.66756" lon="6.24204">
        <ele>1414.5620117188</ele>
        <time>2017-11-01T12:17:07Z</time>
      </trkpt>
      <trkpt lat="45.66751" lon="6.24204">
        <ele>1413.5620117188</ele>
        <time>2017-11-01T12:17:11Z</time>
      </trkpt>
      <trkpt lat="45.66746" lon="6.24205">
        <ele>1410.5620117188</ele>
        <time>2017-11-01T12:17:16Z</time>
      </trkpt>
      <trkpt lat="45.66742" lon="6.24209">
        <ele>1408.5620117188</ele>
        <time>2017-11-01T12:17:19Z</time>
      </trkpt>
      <trkpt lat="45.66736" lon="6.24212">
        <ele>1405.5620117188</ele>
        <time>2017-11-01T12:17:24Z</time>
      </trkpt>
      <trkpt lat="45.6673" lon="6.24213">
        <ele>1406.5620117188</ele>
        <time>2017-11-01T12:17:28Z</time>
      </trkpt>
      <trkpt lat="45.66724" lon="6.24214">
        <ele>1403.5620117188</ele>
        <time>2017-11-01T12:17:32Z</time>
      </trkpt>
      <trkpt lat="45.66718" lon="6.24213">
        <ele>1401.5620117188</ele>
        <time>2017-11-01T12:17:36Z</time>
      </trkpt>
      <trkpt lat="45.66713" lon="6.24212">
        <ele>1401.5620117188</ele>
        <time>2017-11-01T12:17:40Z</time>
      </trkpt>
      <trkpt lat="45.66708" lon="6.24211">
        <ele>1399.5620117188</ele>
        <time>2017-11-01T12:17:44Z</time>
      </trkpt>
      <trkpt lat="45.66703" lon="6.24212">
        <ele>1396.5620117188</ele>
        <time>2017-11-01T12:17:49Z</time>
      </trkpt>
      <trkpt lat="45.66697" lon="6.24213">
        <ele>1395.5620117188</ele>
        <time>2017-11-01T12:17:53Z</time>
      </trkpt>
      <trkpt lat="45.66691" lon="6.24212">
        <ele>1394.5620117188</ele>
        <time>2017-11-01T12:17:57Z</time>
      </trkpt>
      <trkpt lat="45.66684" lon="6.2421">
        <ele>1394.5620117188</ele>
        <time>2017-11-01T12:18:01Z</time>
      </trkpt>
      <trkpt lat="45.6668" lon="6.24211">
        <ele>1394.5620117188</ele>
        <time>2017-11-01T12:18:04Z</time>
      </trkpt>
      <trkpt lat="45.66673" lon="6.24212">
        <ele>1395.5620117188</ele>
        <time>2017-11-01T12:18:08Z</time>
      </trkpt>
      <trkpt lat="45.66667" lon="6.24214">
        <ele>1396.5620117188</ele>
        <time>2017-11-01T12:18:12Z</time>
      </trkpt>
      <trkpt lat="45.66662" lon="6.24216">
        <ele>1394.5620117188</ele>
        <time>2017-11-01T12:18:16Z</time>
      </trkpt>
      <trkpt lat="45.66657" lon="6.24218">
        <ele>1394.5620117188</ele>
        <time>2017-11-01T12:18:19Z</time>
      </trkpt>
      <trkpt lat="45.66652" lon="6.24221">
        <ele>1394.5620117188</ele>
        <time>2017-11-01T12:18:23Z</time>
      </trkpt>
      <trkpt lat="45.66649" lon="6.24227">
        <ele>1394.5620117188</ele>
        <time>2017-11-01T12:18:27Z</time>
      </trkpt>
      <trkpt lat="45.66645" lon="6.24229">
        <ele>1394.5620117188</ele>
        <time>2017-11-01T12:18:30Z</time>
      </trkpt>
      <trkpt lat="45.66641" lon="6.24232">
        <ele>1391.5620117188</ele>
        <time>2017-11-01T12:18:34Z</time>
      </trkpt>
      <trkpt lat="45.66635" lon="6.24233">
        <ele>1392.5620117188</ele>
        <time>2017-11-01T12:18:38Z</time>
      </trkpt>
      <trkpt lat="45.6663" lon="6.24233">
        <ele>1392.5620117188</ele>
        <time>2017-11-01T12:18:41Z</time>
      </trkpt>
      <trkpt lat="45.66626" lon="6.2423">
        <ele>1393.5620117188</ele>
        <time>2017-11-01T12:18:44Z</time>
      </trkpt>
      <trkpt lat="45.66621" lon="6.24227">
        <ele>1392.5620117188</ele>
        <time>2017-11-01T12:18:47Z</time>
      </trkpt>
      <trkpt lat="45.66618" lon="6.24223">
        <ele>1393.5620117188</ele>
        <time>2017-11-01T12:18:50Z</time>
      </trkpt>
      <trkpt lat="45.66612" lon="6.24217">
        <ele>1394.5610351562</ele>
        <time>2017-11-01T12:18:54Z</time>
      </trkpt>
      <trkpt lat="45.66608" lon="6.24214">
        <ele>1394.5610351562</ele>
        <time>2017-11-01T12:18:57Z</time>
      </trkpt>
      <trkpt lat="45.66603" lon="6.2421">
        <ele>1395.5610351562</ele>
        <time>2017-11-01T12:19:00Z</time>
      </trkpt>
      <trkpt lat="45.66598" lon="6.24207">
        <ele>1393.5610351562</ele>
        <time>2017-11-01T12:19:04Z</time>
      </trkpt>
      <trkpt lat="45.66593" lon="6.24205">
        <ele>1393.5610351562</ele>
        <time>2017-11-01T12:19:08Z</time>
      </trkpt>
      <trkpt lat="45.66589" lon="6.24205">
        <ele>1392.5610351562</ele>
        <time>2017-11-01T12:19:12Z</time>
      </trkpt>
      <trkpt lat="45.66584" lon="6.24204">
        <ele>1392.5610351562</ele>
        <time>2017-11-01T12:19:15Z</time>
      </trkpt>
      <trkpt lat="45.66579" lon="6.24205">
        <ele>1390.5610351562</ele>
        <time>2017-11-01T12:19:20Z</time>
      </trkpt>
      <trkpt lat="45.66572" lon="6.24205">
        <ele>1386.5610351562</ele>
        <time>2017-11-01T12:19:25Z</time>
      </trkpt>
      <trkpt lat="45.66568" lon="6.24204">
        <ele>1386.5610351562</ele>
        <time>2017-11-01T12:19:28Z</time>
      </trkpt>
      <trkpt lat="45.66562" lon="6.24204">
        <ele>1386.5610351562</ele>
        <time>2017-11-01T12:19:32Z</time>
      </trkpt>
      <trkpt lat="45.66557" lon="6.24204">
        <ele>1384.5610351562</ele>
        <time>2017-11-01T12:19:35Z</time>
      </trkpt>
      <trkpt lat="45.66552" lon="6.24202">
        <ele>1385.5610351562</ele>
        <time>2017-11-01T12:19:38Z</time>
      </trkpt>
      <trkpt lat="45.66546" lon="6.242">
        <ele>1385.5610351562</ele>
        <time>2017-11-01T12:19:42Z</time>
      </trkpt>
      <trkpt lat="45.66541" lon="6.24199">
        <ele>1382.5610351562</ele>
        <time>2017-11-01T12:19:46Z</time>
      </trkpt>
      <trkpt lat="45.66536" lon="6.24199">
        <ele>1380.5610351562</ele>
        <time>2017-11-01T12:19:50Z</time>
      </trkpt>
      <trkpt lat="45.66531" lon="6.24197">
        <ele>1379.5610351562</ele>
        <time>2017-11-01T12:19:54Z</time>
      </trkpt>
      <trkpt lat="45.66526" lon="6.24196">
        <ele>1379.5610351562</ele>
        <time>2017-11-01T12:19:56Z</time>
      </trkpt>
      <trkpt lat="45.66521" lon="6.24194">
        <ele>1379.5610351562</ele>
        <time>2017-11-01T12:19:59Z</time>
      </trkpt>
      <trkpt lat="45.66517" lon="6.24192">
        <ele>1378.5610351562</ele>
        <time>2017-11-01T12:20:02Z</time>
      </trkpt>
      <trkpt lat="45.66511" lon="6.24192">
        <ele>1377.5610351562</ele>
        <time>2017-11-01T12:20:05Z</time>
      </trkpt>
      <trkpt lat="45.66507" lon="6.24193">
        <ele>1375.5610351562</ele>
        <time>2017-11-01T12:20:08Z</time>
      </trkpt>
      <trkpt lat="45.66501" lon="6.24194">
        <ele>1370.5610351562</ele>
        <time>2017-11-01T12:20:13Z</time>
      </trkpt>
      <trkpt lat="45.66496" lon="6.24196">
        <ele>1368.5610351562</ele>
        <time>2017-11-01T12:20:17Z</time>
      </trkpt>
      <trkpt lat="45.66489" lon="6.24195">
        <ele>1366.5610351562</ele>
        <time>2017-11-01T12:20:22Z</time>
      </trkpt>
      <trkpt lat="45.66485" lon="6.24198">
        <ele>1366.5610351562</ele>
        <time>2017-11-01T12:20:25Z</time>
      </trkpt>
      <trkpt lat="45.66479" lon="6.24199">
        <ele>1365.5610351562</ele>
        <time>2017-11-01T12:20:30Z</time>
      </trkpt>
      <trkpt lat="45.66475" lon="6.24198">
        <ele>1366.5610351562</ele>
        <time>2017-11-01T12:20:33Z</time>
      </trkpt>
      <trkpt lat="45.66469" lon="6.24201">
        <ele>1365.5610351562</ele>
        <time>2017-11-01T12:20:38Z</time>
      </trkpt>
      <trkpt lat="45.66464" lon="6.24201">
        <ele>1362.5610351562</ele>
        <time>2017-11-01T12:20:41Z</time>
      </trkpt>
      <trkpt lat="45.66459" lon="6.242">
        <ele>1363.5610351562</ele>
        <time>2017-11-01T12:20:44Z</time>
      </trkpt>
      <trkpt lat="45.66453" lon="6.24198">
        <ele>1362.5610351562</ele>
        <time>2017-11-01T12:20:47Z</time>
      </trkpt>
      <trkpt lat="45.66448" lon="6.24198">
        <ele>1362.5610351562</ele>
        <time>2017-11-01T12:20:50Z</time>
      </trkpt>
      <trkpt lat="45.66442" lon="6.24199">
        <ele>1359.5610351562</ele>
        <time>2017-11-01T12:20:55Z</time>
      </trkpt>
      <trkpt lat="45.66437" lon="6.24202">
        <ele>1356.5610351562</ele>
        <time>2017-11-01T12:21:00Z</time>
      </trkpt>
      <trkpt lat="45.66432" lon="6.24204">
        <ele>1356.5610351562</ele>
        <time>2017-11-01T12:21:03Z</time>
      </trkpt>
      <trkpt lat="45.66427" lon="6.24205">
        <ele>1355.5610351562</ele>
        <time>2017-11-01T12:21:06Z</time>
      </trkpt>
      <trkpt lat="45.66422" lon="6.24208">
        <ele>1352.5610351562</ele>
        <time>2017-11-01T12:21:12Z</time>
      </trkpt>
      <trkpt lat="45.66416" lon="6.24205">
        <ele>1352.5610351562</ele>
        <time>2017-11-01T12:21:15Z</time>
      </trkpt>
      <trkpt lat="45.66411" lon="6.24205">
        <ele>1349.5610351562</ele>
        <time>2017-11-01T12:21:19Z</time>
      </trkpt>
      <trkpt lat="45.66405" lon="6.24207">
        <ele>1348.5610351562</ele>
        <time>2017-11-01T12:21:24Z</time>
      </trkpt>
      <trkpt lat="45.66401" lon="6.24208">
        <ele>1347.5610351562</ele>
        <time>2017-11-01T12:21:27Z</time>
      </trkpt>
      <trkpt lat="45.66396" lon="6.24211">
        <ele>1346.5610351562</ele>
        <time>2017-11-01T12:21:31Z</time>
      </trkpt>
      <trkpt lat="45.66392" lon="6.24215">
        <ele>1345.5610351562</ele>
        <time>2017-11-01T12:21:34Z</time>
      </trkpt>
      <trkpt lat="45.66387" lon="6.24217">
        <ele>1345.5610351562</ele>
        <time>2017-11-01T12:21:37Z</time>
      </trkpt>
      <trkpt lat="45.66382" lon="6.24219">
        <ele>1345.5610351562</ele>
        <time>2017-11-01T12:21:40Z</time>
      </trkpt>
      <trkpt lat="45.66377" lon="6.2422">
        <ele>1347.5610351562</ele>
        <time>2017-11-01T12:21:43Z</time>
      </trkpt>
      <trkpt lat="45.66373" lon="6.24222">
        <ele>1345.5610351562</ele>
        <time>2017-11-01T12:21:46Z</time>
      </trkpt>
      <trkpt lat="45.66368" lon="6.24223">
        <ele>1345.5610351562</ele>
        <time>2017-11-01T12:21:49Z</time>
      </trkpt>
      <trkpt lat="45.66362" lon="6.24226">
        <ele>1345.5610351562</ele>
        <time>2017-11-01T12:21:53Z</time>
      </trkpt>
      <trkpt lat="45.66358" lon="6.2423">
        <ele>1342.5610351562</ele>
        <time>2017-11-01T12:21:58Z</time>
      </trkpt>
      <trkpt lat="45.66352" lon="6.24234">
        <ele>1342.5610351562</ele>
        <time>2017-11-01T12:22:02Z</time>
      </trkpt>
      <trkpt lat="45.66347" lon="6.24237">
        <ele>1340.5610351562</ele>
        <time>2017-11-01T12:22:06Z</time>
      </trkpt>
      <trkpt lat="45.66343" lon="6.24239">
        <ele>1341.5610351562</ele>
        <time>2017-11-01T12:22:09Z</time>
      </trkpt>
      <trkpt lat="45.66338" lon="6.24241">
        <ele>1340.5610351562</ele>
        <time>2017-11-01T12:22:12Z</time>
      </trkpt>
      <trkpt lat="45.66334" lon="6.24242">
        <ele>1337.5610351562</ele>
        <time>2017-11-01T12:22:15Z</time>
      </trkpt>
      <trkpt lat="45.66328" lon="6.24242">
        <ele>1338.5610351562</ele>
        <time>2017-11-01T12:22:18Z</time>
      </trkpt>
      <trkpt lat="45.66323" lon="6.24244">
        <ele>1336.5610351562</ele>
        <time>2017-11-01T12:22:22Z</time>
      </trkpt>
      <trkpt lat="45.66317" lon="6.24244">
        <ele>1336.5610351562</ele>
        <time>2017-11-01T12:22:26Z</time>
      </trkpt>
      <trkpt lat="45.66312" lon="6.24243">
        <ele>1335.5610351562</ele>
        <time>2017-11-01T12:22:30Z</time>
      </trkpt>
      <trkpt lat="45.66306" lon="6.24247">
        <ele>1331.5610351562</ele>
        <time>2017-11-01T12:22:34Z</time>
      </trkpt>
      <trkpt lat="45.66301" lon="6.24247">
        <ele>1331.5610351562</ele>
        <time>2017-11-01T12:22:38Z</time>
      </trkpt>
      <trkpt lat="45.66296" lon="6.24246">
        <ele>1331.5610351562</ele>
        <time>2017-11-01T12:22:41Z</time>
      </trkpt>
      <trkpt lat="45.66291" lon="6.24245">
        <ele>1331.5610351562</ele>
        <time>2017-11-01T12:22:44Z</time>
      </trkpt>
      <trkpt lat="45.66287" lon="6.24246">
        <ele>1331.5610351562</ele>
        <time>2017-11-01T12:22:47Z</time>
      </trkpt>
      <trkpt lat="45.66282" lon="6.24247">
        <ele>1328.5610351562</ele>
        <time>2017-11-01T12:22:51Z</time>
      </trkpt>
      <trkpt lat="45.66277" lon="6.24248">
        <ele>1326.5610351562</ele>
        <time>2017-11-01T12:22:55Z</time>
      </trkpt>
      <trkpt lat="45.66272" lon="6.24249">
        <ele>1325.5610351562</ele>
        <time>2017-11-01T12:22:59Z</time>
      </trkpt>
      <trkpt lat="45.66266" lon="6.24249">
        <ele>1322.5610351562</ele>
        <time>2017-11-01T12:23:03Z</time>
      </trkpt>
      <trkpt lat="45.66261" lon="6.24248">
        <ele>1321.5610351562</ele>
        <time>2017-11-01T12:23:06Z</time>
      </trkpt>
      <trkpt lat="45.66255" lon="6.24249">
        <ele>1320.5610351562</ele>
        <time>2017-11-01T12:23:10Z</time>
      </trkpt>
      <trkpt lat="45.6625" lon="6.24249">
        <ele>1321.5610351562</ele>
        <time>2017-11-01T12:23:13Z</time>
      </trkpt>
      <trkpt lat="45.66244" lon="6.24248">
        <ele>1320.5610351562</ele>
        <time>2017-11-01T12:23:17Z</time>
      </trkpt>
      <trkpt lat="45.6624" lon="6.24246">
        <ele>1321.5610351562</ele>
        <time>2017-11-01T12:23:20Z</time>
      </trkpt>
      <trkpt lat="45.66234" lon="6.24244">
        <ele>1322.5610351562</ele>
        <time>2017-11-01T12:23:24Z</time>
      </trkpt>
      <trkpt lat="45.66228" lon="6.24242">
        <ele>1323.5610351562</ele>
        <time>2017-11-01T12:23:27Z</time>
      </trkpt>
      <trkpt lat="45.66224" lon="6.24239">
        <ele>1322.5610351562</ele>
        <time>2017-11-01T12:23:30Z</time>
      </trkpt>
      <trkpt lat="45.66219" lon="6.24237">
        <ele>1322.5610351562</ele>
        <time>2017-11-01T12:23:33Z</time>
      </trkpt>
      <trkpt lat="45.66214" lon="6.24235">
        <ele>1321.5610351562</ele>
        <time>2017-11-01T12:23:36Z</time>
      </trkpt>
      <trkpt lat="45.66209" lon="6.24233">
        <ele>1322.5610351562</ele>
        <time>2017-11-01T12:23:39Z</time>
      </trkpt>
      <trkpt lat="45.66204" lon="6.24231">
        <ele>1321.5610351562</ele>
        <time>2017-11-01T12:23:43Z</time>
      </trkpt>
      <trkpt lat="45.66199" lon="6.24227">
        <ele>1319.5610351562</ele>
        <time>2017-11-01T12:23:47Z</time>
      </trkpt>
      <trkpt lat="45.66194" lon="6.24224">
        <ele>1319.5610351562</ele>
        <time>2017-11-01T12:23:50Z</time>
      </trkpt>
      <trkpt lat="45.66189" lon="6.24221">
        <ele>1320.5610351562</ele>
        <time>2017-11-01T12:23:53Z</time>
      </trkpt>
      <trkpt lat="45.66184" lon="6.24217">
        <ele>1321.5610351562</ele>
        <time>2017-11-01T12:23:56Z</time>
      </trkpt>
      <trkpt lat="45.66179" lon="6.24215">
        <ele>1318.5610351562</ele>
        <time>2017-11-01T12:24:00Z</time>
      </trkpt>
      <trkpt lat="45.66174" lon="6.24213">
        <ele>1318.5610351562</ele>
        <time>2017-11-01T12:24:03Z</time>
      </trkpt>
      <trkpt lat="45.6617" lon="6.2421">
        <ele>1318.5610351562</ele>
        <time>2017-11-01T12:24:06Z</time>
      </trkpt>
      <trkpt lat="45.66165" lon="6.24207">
        <ele>1318.5610351562</ele>
        <time>2017-11-01T12:24:09Z</time>
      </trkpt>
      <trkpt lat="45.66159" lon="6.24206">
        <ele>1319.5610351562</ele>
        <time>2017-11-01T12:24:12Z</time>
      </trkpt>
      <trkpt lat="45.66155" lon="6.24204">
        <ele>1318.5610351562</ele>
        <time>2017-11-01T12:24:15Z</time>
      </trkpt>
      <trkpt lat="45.6615" lon="6.24202">
        <ele>1316.5610351562</ele>
        <time>2017-11-01T12:24:19Z</time>
      </trkpt>
      <trkpt lat="45.66145" lon="6.24202">
        <ele>1316.5610351562</ele>
        <time>2017-11-01T12:24:22Z</time>
      </trkpt>
      <trkpt lat="45.6614" lon="6.24199">
        <ele>1315.5610351562</ele>
        <time>2017-11-01T12:24:26Z</time>
      </trkpt>
      <trkpt lat="45.66135" lon="6.24197">
        <ele>1315.5610351562</ele>
        <time>2017-11-01T12:24:29Z</time>
      </trkpt>
      <trkpt lat="45.66129" lon="6.24197">
        <ele>1315.5610351562</ele>
        <time>2017-11-01T12:24:34Z</time>
      </trkpt>
      <trkpt lat="45.66125" lon="6.24195">
        <ele>1314.5610351562</ele>
        <time>2017-11-01T12:24:38Z</time>
      </trkpt>
      <trkpt lat="45.6612" lon="6.24193">
        <ele>1313.5610351562</ele>
        <time>2017-11-01T12:24:41Z</time>
      </trkpt>
      <trkpt lat="45.66116" lon="6.24189">
        <ele>1313.5610351562</ele>
        <time>2017-11-01T12:24:44Z</time>
      </trkpt>
      <trkpt lat="45.66109" lon="6.24187">
        <ele>1315.5610351562</ele>
        <time>2017-11-01T12:24:47Z</time>
      </trkpt>
      <trkpt lat="45.66103" lon="6.24187">
        <ele>1317.5600585938</ele>
        <time>2017-11-01T12:24:51Z</time>
      </trkpt>
      <trkpt lat="45.66097" lon="6.24184">
        <ele>1318.5600585938</ele>
        <time>2017-11-01T12:24:54Z</time>
      </trkpt>
      <trkpt lat="45.66093" lon="6.24184">
        <ele>1319.5600585938</ele>
        <time>2017-11-01T12:24:56Z</time>
      </trkpt>
      <trkpt lat="45.66088" lon="6.24182">
        <ele>1322.5600585938</ele>
        <time>2017-11-01T12:24:59Z</time>
      </trkpt>
      <trkpt lat="45.66083" lon="6.24177">
        <ele>1322.5600585938</ele>
        <time>2017-11-01T12:25:04Z</time>
      </trkpt>
      <trkpt lat="45.66078" lon="6.24174">
        <ele>1322.5600585938</ele>
        <time>2017-11-01T12:25:08Z</time>
      </trkpt>
      <trkpt lat="45.66072" lon="6.24176">
        <ele>1321.5600585938</ele>
        <time>2017-11-01T12:25:11Z</time>
      </trkpt>
      <trkpt lat="45.66067" lon="6.24173">
        <ele>1321.5600585938</ele>
        <time>2017-11-01T12:25:14Z</time>
      </trkpt>
      <trkpt lat="45.66061" lon="6.2417">
        <ele>1321.5600585938</ele>
        <time>2017-11-01T12:25:17Z</time>
      </trkpt>
      <trkpt lat="45.66056" lon="6.24169">
        <ele>1320.5600585938</ele>
        <time>2017-11-01T12:25:21Z</time>
      </trkpt>
      <trkpt lat="45.66051" lon="6.24167">
        <ele>1322.5600585938</ele>
        <time>2017-11-01T12:25:24Z</time>
      </trkpt>
      <trkpt lat="45.66046" lon="6.24167">
        <ele>1322.5600585938</ele>
        <time>2017-11-01T12:25:27Z</time>
      </trkpt>
      <trkpt lat="45.66041" lon="6.24166">
        <ele>1322.5600585938</ele>
        <time>2017-11-01T12:25:30Z</time>
      </trkpt>
      <trkpt lat="45.66038" lon="6.2416">
        <ele>1317.5600585938</ele>
        <time>2017-11-01T12:25:33Z</time>
      </trkpt>
      <trkpt lat="45.66035" lon="6.24155">
        <ele>1317.5600585938</ele>
        <time>2017-11-01T12:25:36Z</time>
      </trkpt>
      <trkpt lat="45.66031" lon="6.2415">
        <ele>1317.5600585938</ele>
        <time>2017-11-01T12:25:39Z</time>
      </trkpt>
      <trkpt lat="45.66025" lon="6.24147">
        <ele>1322.5600585938</ele>
        <time>2017-11-01T12:25:41Z</time>
      </trkpt>
      <trkpt lat="45.6602" lon="6.24142">
        <ele>1321.5600585938</ele>
        <time>2017-11-01T12:25:46Z</time>
      </trkpt>
      <trkpt lat="45.66016" lon="6.24141">
        <ele>1320.5600585938</ele>
        <time>2017-11-01T12:25:49Z</time>
      </trkpt>
      <trkpt lat="45.66011" lon="6.24139">
        <ele>1321.5600585938</ele>
        <time>2017-11-01T12:25:52Z</time>
      </trkpt>
      <trkpt lat="45.66004" lon="6.24137">
        <ele>1323.5600585938</ele>
        <time>2017-11-01T12:25:55Z</time>
      </trkpt>
      <trkpt lat="45.65999" lon="6.24133">
        <ele>1322.5600585938</ele>
        <time>2017-11-01T12:25:59Z</time>
      </trkpt>
      <trkpt lat="45.65995" lon="6.24129">
        <ele>1319.5600585938</ele>
        <time>2017-11-01T12:26:03Z</time>
      </trkpt>
      <trkpt lat="45.6599" lon="6.24126">
        <ele>1314.5600585938</ele>
        <time>2017-11-01T12:26:08Z</time>
      </trkpt>
      <trkpt lat="45.65985" lon="6.24125">
        <ele>1313.5600585938</ele>
        <time>2017-11-01T12:26:12Z</time>
      </trkpt>
      <trkpt lat="45.6598" lon="6.2412">
        <ele>1311.5600585938</ele>
        <time>2017-11-01T12:26:16Z</time>
      </trkpt>
      <trkpt lat="45.65976" lon="6.24117">
        <ele>1310.5600585938</ele>
        <time>2017-11-01T12:26:19Z</time>
      </trkpt>
      <trkpt lat="45.65972" lon="6.24113">
        <ele>1310.5600585938</ele>
        <time>2017-11-01T12:26:22Z</time>
      </trkpt>
      <trkpt lat="45.65967" lon="6.24108">
        <ele>1310.5600585938</ele>
        <time>2017-11-01T12:26:25Z</time>
      </trkpt>
      <trkpt lat="45.65964" lon="6.24102">
        <ele>1309.5600585938</ele>
        <time>2017-11-01T12:26:28Z</time>
      </trkpt>
      <trkpt lat="45.65962" lon="6.24096">
        <ele>1308.5600585938</ele>
        <time>2017-11-01T12:26:32Z</time>
      </trkpt>
      <trkpt lat="45.65957" lon="6.24093">
        <ele>1308.5600585938</ele>
        <time>2017-11-01T12:26:36Z</time>
      </trkpt>
      <trkpt lat="45.65951" lon="6.2409">
        <ele>1310.5600585938</ele>
        <time>2017-11-01T12:26:39Z</time>
      </trkpt>
      <trkpt lat="45.65949" lon="6.24083">
        <ele>1309.5600585938</ele>
        <time>2017-11-01T12:26:42Z</time>
      </trkpt>
      <trkpt lat="45.65944" lon="6.24081">
        <ele>1307.5600585938</ele>
        <time>2017-11-01T12:26:46Z</time>
      </trkpt>
      <trkpt lat="45.65938" lon="6.24078">
        <ele>1308.5600585938</ele>
        <time>2017-11-01T12:26:49Z</time>
      </trkpt>
      <trkpt lat="45.65934" lon="6.24076">
        <ele>1309.5600585938</ele>
        <time>2017-11-01T12:26:51Z</time>
      </trkpt>
      <trkpt lat="45.6593" lon="6.24072">
        <ele>1309.5600585938</ele>
        <time>2017-11-01T12:26:55Z</time>
      </trkpt>
      <trkpt lat="45.65927" lon="6.24067">
        <ele>1308.5600585938</ele>
        <time>2017-11-01T12:26:58Z</time>
      </trkpt>
      <trkpt lat="45.65922" lon="6.24065">
        <ele>1307.5600585938</ele>
        <time>2017-11-01T12:27:02Z</time>
      </trkpt>
      <trkpt lat="45.65918" lon="6.24061">
        <ele>1307.5600585938</ele>
        <time>2017-11-01T12:27:06Z</time>
      </trkpt>
      <trkpt lat="45.65913" lon="6.24059">
        <ele>1306.5600585938</ele>
        <time>2017-11-01T12:27:10Z</time>
      </trkpt>
      <trkpt lat="45.65908" lon="6.24061">
        <ele>1308.5600585938</ele>
        <time>2017-11-01T12:27:12Z</time>
      </trkpt>
      <trkpt lat="45.65902" lon="6.2406">
        <ele>1310.5600585938</ele>
        <time>2017-11-01T12:27:15Z</time>
      </trkpt>
      <trkpt lat="45.65897" lon="6.24058">
        <ele>1311.5600585938</ele>
        <time>2017-11-01T12:27:18Z</time>
      </trkpt>
      <trkpt lat="45.65892" lon="6.24059">
        <ele>1311.5600585938</ele>
        <time>2017-11-01T12:27:21Z</time>
      </trkpt>
      <trkpt lat="45.65887" lon="6.24059">
        <ele>1310.5600585938</ele>
        <time>2017-11-01T12:27:25Z</time>
      </trkpt>
      <trkpt lat="45.65882" lon="6.24061">
        <ele>1308.5600585938</ele>
        <time>2017-11-01T12:27:29Z</time>
      </trkpt>
      <trkpt lat="45.65877" lon="6.24061">
        <ele>1305.5600585938</ele>
        <time>2017-11-01T12:27:33Z</time>
      </trkpt>
      <trkpt lat="45.65872" lon="6.24064">
        <ele>1306.5600585938</ele>
        <time>2017-11-01T12:27:36Z</time>
      </trkpt>
      <trkpt lat="45.65865" lon="6.24065">
        <ele>1308.5600585938</ele>
        <time>2017-11-01T12:27:39Z</time>
      </trkpt>
      <trkpt lat="45.65859" lon="6.24066">
        <ele>1307.5600585938</ele>
        <time>2017-11-01T12:27:43Z</time>
      </trkpt>
      <trkpt lat="45.65854" lon="6.24063">
        <ele>1304.5600585938</ele>
        <time>2017-11-01T12:27:48Z</time>
      </trkpt>
      <trkpt lat="45.65849" lon="6.24062">
        <ele>1303.5600585938</ele>
        <time>2017-11-01T12:27:54Z</time>
      </trkpt>
      <trkpt lat="45.65843" lon="6.24063">
        <ele>1300.5600585938</ele>
        <time>2017-11-01T12:27:57Z</time>
      </trkpt>
      <trkpt lat="45.65837" lon="6.24063">
        <ele>1299.5600585938</ele>
        <time>2017-11-01T12:28:00Z</time>
      </trkpt>
      <trkpt lat="45.65832" lon="6.24064">
        <ele>1298.5600585938</ele>
        <time>2017-11-01T12:28:04Z</time>
      </trkpt>
      <trkpt lat="45.65828" lon="6.24068">
        <ele>1298.5600585938</ele>
        <time>2017-11-01T12:28:07Z</time>
      </trkpt>
      <trkpt lat="45.65823" lon="6.24071">
        <ele>1297.5600585938</ele>
        <time>2017-11-01T12:28:10Z</time>
      </trkpt>
      <trkpt lat="45.65817" lon="6.24071">
        <ele>1294.5600585938</ele>
        <time>2017-11-01T12:28:14Z</time>
      </trkpt>
      <trkpt lat="45.65813" lon="6.24069">
        <ele>1292.5600585938</ele>
        <time>2017-11-01T12:28:18Z</time>
      </trkpt>
      <trkpt lat="45.65809" lon="6.24069">
        <ele>1293.5600585938</ele>
        <time>2017-11-01T12:28:23Z</time>
      </trkpt>
      <trkpt lat="45.65803" lon="6.2407">
        <ele>1295.5600585938</ele>
        <time>2017-11-01T12:28:26Z</time>
      </trkpt>
      <trkpt lat="45.65798" lon="6.2407">
        <ele>1298.5600585938</ele>
        <time>2017-11-01T12:28:28Z</time>
      </trkpt>
      <trkpt lat="45.65793" lon="6.24069">
        <ele>1298.5600585938</ele>
        <time>2017-11-01T12:28:31Z</time>
      </trkpt>
      <trkpt lat="45.65788" lon="6.24066">
        <ele>1293.5600585938</ele>
        <time>2017-11-01T12:28:35Z</time>
      </trkpt>
      <trkpt lat="45.65782" lon="6.24067">
        <ele>1295.5600585938</ele>
        <time>2017-11-01T12:28:39Z</time>
      </trkpt>
      <trkpt lat="45.65776" lon="6.24064">
        <ele>1294.5600585938</ele>
        <time>2017-11-01T12:28:44Z</time>
      </trkpt>
      <trkpt lat="45.65771" lon="6.24066">
        <ele>1293.5600585938</ele>
        <time>2017-11-01T12:28:48Z</time>
      </trkpt>
      <trkpt lat="45.65767" lon="6.24068">
        <ele>1293.5600585938</ele>
        <time>2017-11-01T12:28:52Z</time>
      </trkpt>
      <trkpt lat="45.65761" lon="6.24069">
        <ele>1294.5600585938</ele>
        <time>2017-11-01T12:28:56Z</time>
      </trkpt>
      <trkpt lat="45.65756" lon="6.24068">
        <ele>1287.5600585938</ele>
        <time>2017-11-01T12:29:02Z</time>
      </trkpt>
      <trkpt lat="45.65751" lon="6.2407">
        <ele>1283.5600585938</ele>
        <time>2017-11-01T12:29:06Z</time>
      </trkpt>
      <trkpt lat="45.65746" lon="6.24072">
        <ele>1285.5600585938</ele>
        <time>2017-11-01T12:29:09Z</time>
      </trkpt>
      <trkpt lat="45.65742" lon="6.24071">
        <ele>1281.5600585938</ele>
        <time>2017-11-01T12:29:13Z</time>
      </trkpt>
      <trkpt lat="45.65737" lon="6.24069">
        <ele>1279.5600585938</ele>
        <time>2017-11-01T12:29:16Z</time>
      </trkpt>
      <trkpt lat="45.65732" lon="6.24067">
        <ele>1275.5600585938</ele>
        <time>2017-11-01T12:29:21Z</time>
      </trkpt>
      <trkpt lat="45.65727" lon="6.24067">
        <ele>1275.5600585938</ele>
        <time>2017-11-01T12:29:25Z</time>
      </trkpt>
      <trkpt lat="45.65723" lon="6.24064">
        <ele>1275.5600585938</ele>
        <time>2017-11-01T12:29:27Z</time>
      </trkpt>
      <trkpt lat="45.65718" lon="6.24065">
        <ele>1273.5600585938</ele>
        <time>2017-11-01T12:29:32Z</time>
      </trkpt>
      <trkpt lat="45.65713" lon="6.24065">
        <ele>1274.5600585938</ele>
        <time>2017-11-01T12:29:35Z</time>
      </trkpt>
      <trkpt lat="45.65708" lon="6.24065">
        <ele>1271.5600585938</ele>
        <time>2017-11-01T12:29:39Z</time>
      </trkpt>
      <trkpt lat="45.65703" lon="6.24062">
        <ele>1269.5600585938</ele>
        <time>2017-11-01T12:29:46Z</time>
      </trkpt>
      <trkpt lat="45.65699" lon="6.24061">
        <ele>1269.5600585938</ele>
        <time>2017-11-01T12:29:48Z</time>
      </trkpt>
      <trkpt lat="45.65693" lon="6.24056">
        <ele>1267.5600585938</ele>
        <time>2017-11-01T12:29:55Z</time>
      </trkpt>
      <trkpt lat="45.65689" lon="6.24052">
        <ele>1265.5600585938</ele>
        <time>2017-11-01T12:29:58Z</time>
      </trkpt>
      <trkpt lat="45.65684" lon="6.24048">
        <ele>1264.5600585938</ele>
        <time>2017-11-01T12:30:02Z</time>
      </trkpt>
      <trkpt lat="45.65679" lon="6.2405">
        <ele>1268.5600585938</ele>
        <time>2017-11-01T12:30:05Z</time>
      </trkpt>
      <trkpt lat="45.65674" lon="6.24051">
        <ele>1268.5600585938</ele>
        <time>2017-11-01T12:30:08Z</time>
      </trkpt>
      <trkpt lat="45.65669" lon="6.24054">
        <ele>1265.5600585938</ele>
        <time>2017-11-01T12:30:11Z</time>
      </trkpt>
      <trkpt lat="45.65664" lon="6.24053">
        <ele>1261.5600585938</ele>
        <time>2017-11-01T12:30:15Z</time>
      </trkpt>
      <trkpt lat="45.65659" lon="6.24051">
        <ele>1264.5589599609</ele>
        <time>2017-11-01T12:30:17Z</time>
      </trkpt>
      <trkpt lat="45.65653" lon="6.24051">
        <ele>1264.5589599609</ele>
        <time>2017-11-01T12:30:21Z</time>
      </trkpt>
      <trkpt lat="45.65648" lon="6.24051">
        <ele>1263.5589599609</ele>
        <time>2017-11-01T12:30:25Z</time>
      </trkpt>
      <trkpt lat="45.65642" lon="6.24049">
        <ele>1263.5589599609</ele>
        <time>2017-11-01T12:30:29Z</time>
      </trkpt>
      <trkpt lat="45.65637" lon="6.24047">
        <ele>1261.5589599609</ele>
        <time>2017-11-01T12:30:33Z</time>
      </trkpt>
      <trkpt lat="45.65632" lon="6.24045">
        <ele>1262.5589599609</ele>
        <time>2017-11-01T12:30:36Z</time>
      </trkpt>
      <trkpt lat="45.65628" lon="6.24045">
        <ele>1261.5589599609</ele>
        <time>2017-11-01T12:30:39Z</time>
      </trkpt>
      <trkpt lat="45.65624" lon="6.24042">
        <ele>1258.5589599609</ele>
        <time>2017-11-01T12:30:46Z</time>
      </trkpt>
      <trkpt lat="45.65618" lon="6.24041">
        <ele>1254.5589599609</ele>
        <time>2017-11-01T12:30:51Z</time>
      </trkpt>
      <trkpt lat="45.65613" lon="6.24043">
        <ele>1254.5589599609</ele>
        <time>2017-11-01T12:30:53Z</time>
      </trkpt>
      <trkpt lat="45.65609" lon="6.2404">
        <ele>1248.5589599609</ele>
        <time>2017-11-01T12:30:57Z</time>
      </trkpt>
      <trkpt lat="45.65604" lon="6.24037">
        <ele>1250.5589599609</ele>
        <time>2017-11-01T12:30:59Z</time>
      </trkpt>
      <trkpt lat="45.65599" lon="6.24034">
        <ele>1252.5589599609</ele>
        <time>2017-11-01T12:31:01Z</time>
      </trkpt>
      <trkpt lat="45.65595" lon="6.2403">
        <ele>1250.5589599609</ele>
        <time>2017-11-01T12:31:09Z</time>
      </trkpt>
      <trkpt lat="45.6559" lon="6.24031">
        <ele>1248.5589599609</ele>
        <time>2017-11-01T12:31:37Z</time>
      </trkpt>
      <trkpt lat="45.65586" lon="6.24033">
        <ele>1247.5589599609</ele>
        <time>2017-11-01T12:31:40Z</time>
      </trkpt>
      <trkpt lat="45.65582" lon="6.24038">
        <ele>1246.5589599609</ele>
        <time>2017-11-01T12:31:43Z</time>
      </trkpt>
      <trkpt lat="45.65577" lon="6.24044">
        <ele>1246.5589599609</ele>
        <time>2017-11-01T12:31:46Z</time>
      </trkpt>
      <trkpt lat="45.65571" lon="6.24043">
        <ele>1245.5589599609</ele>
        <time>2017-11-01T12:31:48Z</time>
      </trkpt>
      <trkpt lat="45.65565" lon="6.24041">
        <ele>1245.5589599609</ele>
        <time>2017-11-01T12:31:50Z</time>
      </trkpt>
      <trkpt lat="45.6556" lon="6.2404">
        <ele>1244.5589599609</ele>
        <time>2017-11-01T12:31:52Z</time>
      </trkpt>
      <trkpt lat="45.65555" lon="6.24042">
        <ele>1240.5589599609</ele>
        <time>2017-11-01T12:31:55Z</time>
      </trkpt>
      <trkpt lat="45.65549" lon="6.24045">
        <ele>1240.5589599609</ele>
        <time>2017-11-01T12:31:58Z</time>
      </trkpt>
      <trkpt lat="45.65545" lon="6.24049">
        <ele>1242.5589599609</ele>
        <time>2017-11-01T12:32:00Z</time>
      </trkpt>
      <trkpt lat="45.6554" lon="6.24052">
        <ele>1242.5589599609</ele>
        <time>2017-11-01T12:32:03Z</time>
      </trkpt>
      <trkpt lat="45.65533" lon="6.24056">
        <ele>1242.5589599609</ele>
        <time>2017-11-01T12:32:05Z</time>
      </trkpt>
      <trkpt lat="45.65529" lon="6.24059">
        <ele>1242.5589599609</ele>
        <time>2017-11-01T12:32:07Z</time>
      </trkpt>
      <trkpt lat="45.65522" lon="6.24065">
        <ele>1243.5589599609</ele>
        <time>2017-11-01T12:32:09Z</time>
      </trkpt>
      <trkpt lat="45.65517" lon="6.24069">
        <ele>1241.5589599609</ele>
        <time>2017-11-01T12:32:11Z</time>
      </trkpt>
      <trkpt lat="45.65512" lon="6.24073">
        <ele>1238.5589599609</ele>
        <time>2017-11-01T12:32:14Z</time>
      </trkpt>
      <trkpt lat="45.65509" lon="6.24078">
        <ele>1237.5589599609</ele>
        <time>2017-11-01T12:32:16Z</time>
      </trkpt>
      <trkpt lat="45.65504" lon="6.24079">
        <ele>1239.5589599609</ele>
        <time>2017-11-01T12:32:21Z</time>
      </trkpt>
      <trkpt lat="45.65499" lon="6.24082">
        <ele>1238.5589599609</ele>
        <time>2017-11-01T12:32:25Z</time>
      </trkpt>
      <trkpt lat="45.65494" lon="6.2408">
        <ele>1239.5589599609</ele>
        <time>2017-11-01T12:32:28Z</time>
      </trkpt>
      <trkpt lat="45.6549" lon="6.24082">
        <ele>1242.5589599609</ele>
        <time>2017-11-01T12:32:34Z</time>
      </trkpt>
      <trkpt lat="45.65485" lon="6.24089">
        <ele>1239.5589599609</ele>
        <time>2017-11-01T12:32:50Z</time>
      </trkpt>
      <trkpt lat="45.6548" lon="6.24093">
        <ele>1237.5589599609</ele>
        <time>2017-11-01T12:32:54Z</time>
      </trkpt>
      <trkpt lat="45.65476" lon="6.24096">
        <ele>1230.5589599609</ele>
        <time>2017-11-01T12:32:59Z</time>
      </trkpt>
      <trkpt lat="45.65471" lon="6.24099">
        <ele>1229.5589599609</ele>
        <time>2017-11-01T12:33:04Z</time>
      </trkpt>
      <trkpt lat="45.65467" lon="6.24103">
        <ele>1227.5589599609</ele>
        <time>2017-11-01T12:33:07Z</time>
      </trkpt>
      <trkpt lat="45.65462" lon="6.24104">
        <ele>1222.5589599609</ele>
        <time>2017-11-01T12:33:12Z</time>
      </trkpt>
      <trkpt lat="45.65457" lon="6.24104">
        <ele>1216.5589599609</ele>
        <time>2017-11-01T12:33:19Z</time>
      </trkpt>
      <trkpt lat="45.65451" lon="6.24103">
        <ele>1208.5589599609</ele>
        <time>2017-11-01T12:33:26Z</time>
      </trkpt>
      <trkpt lat="45.65447" lon="6.24105">
        <ele>1206.5589599609</ele>
        <time>2017-11-01T12:33:31Z</time>
      </trkpt>
      <trkpt lat="45.65442" lon="6.24103">
        <ele>1204.5589599609</ele>
        <time>2017-11-01T12:33:35Z</time>
      </trkpt>
      <trkpt lat="45.65438" lon="6.241">
        <ele>1197.5589599609</ele>
        <time>2017-11-01T12:33:42Z</time>
      </trkpt>
      <trkpt lat="45.65433" lon="6.24098">
        <ele>1197.5589599609</ele>
        <time>2017-11-01T12:33:45Z</time>
      </trkpt>
      <trkpt lat="45.65428" lon="6.24098">
        <ele>1194.5589599609</ele>
        <time>2017-11-01T12:33:50Z</time>
      </trkpt>
      <trkpt lat="45.65423" lon="6.24096">
        <ele>1194.5589599609</ele>
        <time>2017-11-01T12:33:56Z</time>
      </trkpt>
      <trkpt lat="45.65418" lon="6.24094">
        <ele>1194.5589599609</ele>
        <time>2017-11-01T12:33:59Z</time>
      </trkpt>
      <trkpt lat="45.65412" lon="6.24094">
        <ele>1195.5589599609</ele>
        <time>2017-11-01T12:34:04Z</time>
      </trkpt>
      <trkpt lat="45.65407" lon="6.24092">
        <ele>1194.5589599609</ele>
        <time>2017-11-01T12:34:09Z</time>
      </trkpt>
      <trkpt lat="45.65403" lon="6.24092">
        <ele>1193.5589599609</ele>
        <time>2017-11-01T12:34:15Z</time>
      </trkpt>
      <trkpt lat="45.65398" lon="6.24089">
        <ele>1187.5589599609</ele>
        <time>2017-11-01T12:34:20Z</time>
      </trkpt>
      <trkpt lat="45.65393" lon="6.24089">
        <ele>1183.5589599609</ele>
        <time>2017-11-01T12:34:26Z</time>
      </trkpt>
      <trkpt lat="45.65389" lon="6.24087">
        <ele>1183.5589599609</ele>
        <time>2017-11-01T12:34:30Z</time>
      </trkpt>
      <trkpt lat="45.65386" lon="6.24082">
        <ele>1182.5589599609</ele>
        <time>2017-11-01T12:34:34Z</time>
      </trkpt>
      <trkpt lat="45.6538" lon="6.24079">
        <ele>1185.5589599609</ele>
        <time>2017-11-01T12:34:39Z</time>
      </trkpt>
      <trkpt lat="45.65377" lon="6.24074">
        <ele>1178.5589599609</ele>
        <time>2017-11-01T12:34:44Z</time>
      </trkpt>
      <trkpt lat="45.65371" lon="6.24074">
        <ele>1178.5589599609</ele>
        <time>2017-11-01T12:34:48Z</time>
      </trkpt>
      <trkpt lat="45.65366" lon="6.24072">
        <ele>1175.5589599609</ele>
        <time>2017-11-01T12:34:53Z</time>
      </trkpt>
      <trkpt lat="45.65361" lon="6.24073">
        <ele>1171.5589599609</ele>
        <time>2017-11-01T12:34:57Z</time>
      </trkpt>
      <trkpt lat="45.65356" lon="6.24073">
        <ele>1171.5589599609</ele>
        <time>2017-11-01T12:35:00Z</time>
      </trkpt>
      <trkpt lat="45.65351" lon="6.24074">
        <ele>1173.5589599609</ele>
        <time>2017-11-01T12:35:03Z</time>
      </trkpt>
      <trkpt lat="45.65346" lon="6.24075">
        <ele>1169.5589599609</ele>
        <time>2017-11-01T12:35:07Z</time>
      </trkpt>
      <trkpt lat="45.65341" lon="6.24075">
        <ele>1169.5589599609</ele>
        <time>2017-11-01T12:35:10Z</time>
      </trkpt>
      <trkpt lat="45.65337" lon="6.24075">
        <ele>1169.5589599609</ele>
        <time>2017-11-01T12:35:13Z</time>
      </trkpt>
      <trkpt lat="45.65332" lon="6.24075">
        <ele>1161.5589599609</ele>
        <time>2017-11-01T12:35:22Z</time>
      </trkpt>
      <trkpt lat="45.65327" lon="6.24075">
        <ele>1156.5589599609</ele>
        <time>2017-11-01T12:35:28Z</time>
      </trkpt>
      <trkpt lat="45.65323" lon="6.24075">
        <ele>1154.5589599609</ele>
        <time>2017-11-01T12:35:32Z</time>
      </trkpt>
      <trkpt lat="45.65318" lon="6.24073">
        <ele>1152.5589599609</ele>
        <time>2017-11-01T12:35:35Z</time>
      </trkpt>
      <trkpt lat="45.65313" lon="6.24073">
        <ele>1151.5589599609</ele>
        <time>2017-11-01T12:35:39Z</time>
      </trkpt>
      <trkpt lat="45.65308" lon="6.24075">
        <ele>1150.5589599609</ele>
        <time>2017-11-01T12:35:43Z</time>
      </trkpt>
      <trkpt lat="45.65304" lon="6.24079">
        <ele>1150.5589599609</ele>
        <time>2017-11-01T12:35:48Z</time>
      </trkpt>
      <trkpt lat="45.65298" lon="6.24081">
        <ele>1152.5589599609</ele>
        <time>2017-11-01T12:35:51Z</time>
      </trkpt>
      <trkpt lat="45.65292" lon="6.24081">
        <ele>1149.5589599609</ele>
        <time>2017-11-01T12:35:56Z</time>
      </trkpt>
      <trkpt lat="45.65288" lon="6.24082">
        <ele>1146.5589599609</ele>
        <time>2017-11-01T12:36:03Z</time>
      </trkpt>
      <trkpt lat="45.65283" lon="6.24082">
        <ele>1145.5589599609</ele>
        <time>2017-11-01T12:36:06Z</time>
      </trkpt>
      <trkpt lat="45.65278" lon="6.24082">
        <ele>1144.5589599609</ele>
        <time>2017-11-01T12:36:14Z</time>
      </trkpt>
      <trkpt lat="45.65273" lon="6.24082">
        <ele>1140.5589599609</ele>
        <time>2017-11-01T12:36:18Z</time>
      </trkpt>
      <trkpt lat="45.65268" lon="6.24085">
        <ele>1139.5589599609</ele>
        <time>2017-11-01T12:36:22Z</time>
      </trkpt>
      <trkpt lat="45.65263" lon="6.24089">
        <ele>1139.5589599609</ele>
        <time>2017-11-01T12:36:26Z</time>
      </trkpt>
      <trkpt lat="45.65257" lon="6.24089">
        <ele>1141.5589599609</ele>
        <time>2017-11-01T12:36:30Z</time>
      </trkpt>
      <trkpt lat="45.65251" lon="6.24094">
        <ele>1142.5589599609</ele>
        <time>2017-11-01T12:36:34Z</time>
      </trkpt>
      <trkpt lat="45.65247" lon="6.24098">
        <ele>1144.5589599609</ele>
        <time>2017-11-01T12:36:39Z</time>
      </trkpt>
      <trkpt lat="45.65244" lon="6.24105">
        <ele>1145.5589599609</ele>
        <time>2017-11-01T12:36:44Z</time>
      </trkpt>
      <trkpt lat="45.6524" lon="6.2411">
        <ele>1147.5589599609</ele>
        <time>2017-11-01T12:36:48Z</time>
      </trkpt>
      <trkpt lat="45.65235" lon="6.24113">
        <ele>1148.5589599609</ele>
        <time>2017-11-01T12:36:51Z</time>
      </trkpt>
      <trkpt lat="45.65231" lon="6.24116">
        <ele>1145.5589599609</ele>
        <time>2017-11-01T12:36:54Z</time>
      </trkpt>
      <trkpt lat="45.65227" lon="6.24119">
        <ele>1143.5589599609</ele>
        <time>2017-11-01T12:36:58Z</time>
      </trkpt>
      <trkpt lat="45.65221" lon="6.24119">
        <ele>1141.5589599609</ele>
        <time>2017-11-01T12:37:02Z</time>
      </trkpt>
      <trkpt lat="45.65217" lon="6.24121">
        <ele>1141.5589599609</ele>
        <time>2017-11-01T12:37:06Z</time>
      </trkpt>
      <trkpt lat="45.65212" lon="6.24125">
        <ele>1137.5589599609</ele>
        <time>2017-11-01T12:37:11Z</time>
      </trkpt>
      <trkpt lat="45.65207" lon="6.24127">
        <ele>1135.5589599609</ele>
        <time>2017-11-01T12:37:15Z</time>
      </trkpt>
      <trkpt lat="45.65202" lon="6.24131">
        <ele>1134.5589599609</ele>
        <time>2017-11-01T12:37:20Z</time>
      </trkpt>
      <trkpt lat="45.65197" lon="6.24133">
        <ele>1133.5589599609</ele>
        <time>2017-11-01T12:37:23Z</time>
      </trkpt>
      <trkpt lat="45.65194" lon="6.24138">
        <ele>1134.5589599609</ele>
        <time>2017-11-01T12:37:26Z</time>
      </trkpt>
      <trkpt lat="45.6519" lon="6.24142">
        <ele>1133.5589599609</ele>
        <time>2017-11-01T12:37:28Z</time>
      </trkpt>
      <trkpt lat="45.65185" lon="6.24146">
        <ele>1133.5589599609</ele>
        <time>2017-11-01T12:37:31Z</time>
      </trkpt>
      <trkpt lat="45.65179" lon="6.24147">
        <ele>1136.5589599609</ele>
        <time>2017-11-01T12:37:34Z</time>
      </trkpt>
      <trkpt lat="45.65174" lon="6.24143">
        <ele>1134.5589599609</ele>
        <time>2017-11-01T12:37:37Z</time>
      </trkpt>
      <trkpt lat="45.65168" lon="6.24142">
        <ele>1136.5589599609</ele>
        <time>2017-11-01T12:37:40Z</time>
      </trkpt>
      <trkpt lat="45.65161" lon="6.24138">
        <ele>1138.5589599609</ele>
        <time>2017-11-01T12:37:47Z</time>
      </trkpt>
      <trkpt lat="45.65155" lon="6.24134">
        <ele>1139.5589599609</ele>
        <time>2017-11-01T12:37:50Z</time>
      </trkpt>
      <trkpt lat="45.6515" lon="6.24131">
        <ele>1138.5589599609</ele>
        <time>2017-11-01T12:37:52Z</time>
      </trkpt>
      <trkpt lat="45.65145" lon="6.24126">
        <ele>1139.5589599609</ele>
        <time>2017-11-01T12:37:55Z</time>
      </trkpt>
      <trkpt lat="45.65141" lon="6.24122">
        <ele>1138.5589599609</ele>
        <time>2017-11-01T12:37:58Z</time>
      </trkpt>
      <trkpt lat="45.65135" lon="6.2412">
        <ele>1138.5589599609</ele>
        <time>2017-11-01T12:38:02Z</time>
      </trkpt>
      <trkpt lat="45.6513" lon="6.24122">
        <ele>1136.5589599609</ele>
        <time>2017-11-01T12:38:05Z</time>
      </trkpt>
      <trkpt lat="45.65126" lon="6.24125">
        <ele>1134.5589599609</ele>
        <time>2017-11-01T12:38:09Z</time>
      </trkpt>
      <trkpt lat="45.65122" lon="6.24129">
        <ele>1132.5589599609</ele>
        <time>2017-11-01T12:38:14Z</time>
      </trkpt>
      <trkpt lat="45.65118" lon="6.24133">
        <ele>1129.5589599609</ele>
        <time>2017-11-01T12:38:20Z</time>
      </trkpt>
      <trkpt lat="45.65113" lon="6.24132">
        <ele>1124.5589599609</ele>
        <time>2017-11-01T12:38:24Z</time>
      </trkpt>
      <trkpt lat="45.65109" lon="6.24129">
        <ele>1124.5589599609</ele>
        <time>2017-11-01T12:38:28Z</time>
      </trkpt>
      <trkpt lat="45.65104" lon="6.24123">
        <ele>1120.5589599609</ele>
        <time>2017-11-01T12:38:32Z</time>
      </trkpt>
      <trkpt lat="45.65099" lon="6.24122">
        <ele>1117.5589599609</ele>
        <time>2017-11-01T12:38:38Z</time>
      </trkpt>
      <trkpt lat="45.65094" lon="6.2412">
        <ele>1115.5589599609</ele>
        <time>2017-11-01T12:38:42Z</time>
      </trkpt>
      <trkpt lat="45.65091" lon="6.24114">
        <ele>1113.5589599609</ele>
        <time>2017-11-01T12:38:46Z</time>
      </trkpt>
      <trkpt lat="45.65087" lon="6.24107">
        <ele>1114.5579833984</ele>
        <time>2017-11-01T12:38:50Z</time>
      </trkpt>
      <trkpt lat="45.6508" lon="6.24103">
        <ele>1116.5579833984</ele>
        <time>2017-11-01T12:38:54Z</time>
      </trkpt>
      <trkpt lat="45.65076" lon="6.24099">
        <ele>1117.5579833984</ele>
        <time>2017-11-01T12:38:57Z</time>
      </trkpt>
      <trkpt lat="45.65072" lon="6.24093">
        <ele>1116.5579833984</ele>
        <time>2017-11-01T12:39:00Z</time>
      </trkpt>
      <trkpt lat="45.65067" lon="6.24095">
        <ele>1116.5579833984</ele>
        <time>2017-11-01T12:39:04Z</time>
      </trkpt>
      <trkpt lat="45.65061" lon="6.24091">
        <ele>1117.5579833984</ele>
        <time>2017-11-01T12:39:09Z</time>
      </trkpt>
      <trkpt lat="45.65056" lon="6.2409">
        <ele>1118.5579833984</ele>
        <time>2017-11-01T12:39:12Z</time>
      </trkpt>
      <trkpt lat="45.65052" lon="6.24086">
        <ele>1118.5579833984</ele>
        <time>2017-11-01T12:39:15Z</time>
      </trkpt>
      <trkpt lat="45.65047" lon="6.24088">
        <ele>1117.5579833984</ele>
        <time>2017-11-01T12:39:21Z</time>
      </trkpt>
      <trkpt lat="45.65041" lon="6.24086">
        <ele>1115.5579833984</ele>
        <time>2017-11-01T12:39:24Z</time>
      </trkpt>
      <trkpt lat="45.65037" lon="6.24084">
        <ele>1113.5579833984</ele>
        <time>2017-11-01T12:39:27Z</time>
      </trkpt>
      <trkpt lat="45.65032" lon="6.24086">
        <ele>1114.5579833984</ele>
        <time>2017-11-01T12:39:30Z</time>
      </trkpt>
      <trkpt lat="45.65026" lon="6.24089">
        <ele>1114.5579833984</ele>
        <time>2017-11-01T12:39:34Z</time>
      </trkpt>
      <trkpt lat="45.65021" lon="6.24093">
        <ele>1111.5579833984</ele>
        <time>2017-11-01T12:39:39Z</time>
      </trkpt>
      <trkpt lat="45.65016" lon="6.24095">
        <ele>1114.5579833984</ele>
        <time>2017-11-01T12:39:43Z</time>
      </trkpt>
      <trkpt lat="45.65012" lon="6.24098">
        <ele>1115.5579833984</ele>
        <time>2017-11-01T12:39:47Z</time>
      </trkpt>
      <trkpt lat="45.65005" lon="6.24099">
        <ele>1113.5579833984</ele>
        <time>2017-11-01T12:39:52Z</time>
      </trkpt>
      <trkpt lat="45.64999" lon="6.24102">
        <ele>1112.5579833984</ele>
        <time>2017-11-01T12:39:57Z</time>
      </trkpt>
      <trkpt lat="45.64995" lon="6.24103">
        <ele>1108.5579833984</ele>
        <time>2017-11-01T12:40:01Z</time>
      </trkpt>
      <trkpt lat="45.6499" lon="6.24104">
        <ele>1105.5579833984</ele>
        <time>2017-11-01T12:40:04Z</time>
      </trkpt>
      <trkpt lat="45.64985" lon="6.24103">
        <ele>1102.5579833984</ele>
        <time>2017-11-01T12:40:08Z</time>
      </trkpt>
      <trkpt lat="45.6498" lon="6.24106">
        <ele>1100.5579833984</ele>
        <time>2017-11-01T12:40:11Z</time>
      </trkpt>
      <trkpt lat="45.64975" lon="6.24104">
        <ele>1100.5579833984</ele>
        <time>2017-11-01T12:40:14Z</time>
      </trkpt>
      <trkpt lat="45.6497" lon="6.24103">
        <ele>1098.5579833984</ele>
        <time>2017-11-01T12:40:18Z</time>
      </trkpt>
      <trkpt lat="45.64965" lon="6.241">
        <ele>1097.5579833984</ele>
        <time>2017-11-01T12:40:22Z</time>
      </trkpt>
      <trkpt lat="45.64963" lon="6.24094">
        <ele>1094.5579833984</ele>
        <time>2017-11-01T12:40:26Z</time>
      </trkpt>
      <trkpt lat="45.64958" lon="6.24089">
        <ele>1093.5579833984</ele>
        <time>2017-11-01T12:40:30Z</time>
      </trkpt>
      <trkpt lat="45.64956" lon="6.24084">
        <ele>1090.5579833984</ele>
        <time>2017-11-01T12:40:33Z</time>
      </trkpt>
      <trkpt lat="45.6495" lon="6.2408">
        <ele>1090.5579833984</ele>
        <time>2017-11-01T12:40:37Z</time>
      </trkpt>
      <trkpt lat="45.64944" lon="6.2408">
        <ele>1090.5579833984</ele>
        <time>2017-11-01T12:40:41Z</time>
      </trkpt>
      <trkpt lat="45.64939" lon="6.24078">
        <ele>1090.5579833984</ele>
        <time>2017-11-01T12:40:46Z</time>
      </trkpt>
      <trkpt lat="45.64934" lon="6.24076">
        <ele>1089.5579833984</ele>
        <time>2017-11-01T12:40:49Z</time>
      </trkpt>
      <trkpt lat="45.64929" lon="6.24075">
        <ele>1087.5579833984</ele>
        <time>2017-11-01T12:40:53Z</time>
      </trkpt>
      <trkpt lat="45.64924" lon="6.24072">
        <ele>1087.5579833984</ele>
        <time>2017-11-01T12:40:59Z</time>
      </trkpt>
      <trkpt lat="45.64919" lon="6.24071">
        <ele>1087.5579833984</ele>
        <time>2017-11-01T12:41:02Z</time>
      </trkpt>
      <trkpt lat="45.64914" lon="6.24069">
        <ele>1087.5579833984</ele>
        <time>2017-11-01T12:41:06Z</time>
      </trkpt>
      <trkpt lat="45.64909" lon="6.24067">
        <ele>1086.5579833984</ele>
        <time>2017-11-01T12:41:10Z</time>
      </trkpt>
      <trkpt lat="45.64903" lon="6.24064">
        <ele>1086.5579833984</ele>
        <time>2017-11-01T12:41:14Z</time>
      </trkpt>
      <trkpt lat="45.64898" lon="6.24061">
        <ele>1087.5579833984</ele>
        <time>2017-11-01T12:41:26Z</time>
      </trkpt>
      <trkpt lat="45.64892" lon="6.2406">
        <ele>1084.5579833984</ele>
        <time>2017-11-01T12:41:31Z</time>
      </trkpt>
      <trkpt lat="45.64889" lon="6.24055">
        <ele>1081.5579833984</ele>
        <time>2017-11-01T12:41:35Z</time>
      </trkpt>
      <trkpt lat="45.64885" lon="6.24053">
        <ele>1076.5579833984</ele>
        <time>2017-11-01T12:41:39Z</time>
      </trkpt>
      <trkpt lat="45.6488" lon="6.24049">
        <ele>1079.5579833984</ele>
        <time>2017-11-01T12:41:46Z</time>
      </trkpt>
      <trkpt lat="45.64876" lon="6.24048">
        <ele>1079.5579833984</ele>
        <time>2017-11-01T12:41:50Z</time>
      </trkpt>
      <trkpt lat="45.64871" lon="6.24047">
        <ele>1076.5579833984</ele>
        <time>2017-11-01T12:41:54Z</time>
      </trkpt>
      <trkpt lat="45.64867" lon="6.24045">
        <ele>1076.5579833984</ele>
        <time>2017-11-01T12:41:57Z</time>
      </trkpt>
      <trkpt lat="45.64862" lon="6.24042">
        <ele>1078.5579833984</ele>
        <time>2017-11-01T12:42:00Z</time>
      </trkpt>
      <trkpt lat="45.64857" lon="6.24037">
        <ele>1076.5579833984</ele>
        <time>2017-11-01T12:42:05Z</time>
      </trkpt>
      <trkpt lat="45.64854" lon="6.24033">
        <ele>1070.5579833984</ele>
        <time>2017-11-01T12:42:11Z</time>
      </trkpt>
      <trkpt lat="45.64851" lon="6.24028">
        <ele>1069.5579833984</ele>
        <time>2017-11-01T12:42:15Z</time>
      </trkpt>
      <trkpt lat="45.64846" lon="6.24026">
        <ele>1067.5579833984</ele>
        <time>2017-11-01T12:42:19Z</time>
      </trkpt>
      <trkpt lat="45.64841" lon="6.24024">
        <ele>1066.5579833984</ele>
        <time>2017-11-01T12:42:24Z</time>
      </trkpt>
      <trkpt lat="45.64838" lon="6.24018">
        <ele>1061.5579833984</ele>
        <time>2017-11-01T12:42:29Z</time>
      </trkpt>
      <trkpt lat="45.64833" lon="6.24015">
        <ele>1060.5579833984</ele>
        <time>2017-11-01T12:42:34Z</time>
      </trkpt>
      <trkpt lat="45.64828" lon="6.24012">
        <ele>1060.5579833984</ele>
        <time>2017-11-01T12:42:39Z</time>
      </trkpt>
      <trkpt lat="45.64824" lon="6.24009">
        <ele>1060.5579833984</ele>
        <time>2017-11-01T12:42:42Z</time>
      </trkpt>
      <trkpt lat="45.64818" lon="6.24002">
        <ele>1059.5579833984</ele>
        <time>2017-11-01T12:42:48Z</time>
      </trkpt>
      <trkpt lat="45.64814" lon="6.23997">
        <ele>1055.5579833984</ele>
        <time>2017-11-01T12:42:53Z</time>
      </trkpt>
      <trkpt lat="45.6481" lon="6.23994">
        <ele>1055.5579833984</ele>
        <time>2017-11-01T12:42:56Z</time>
      </trkpt>
      <trkpt lat="45.64806" lon="6.2399">
        <ele>1050.5579833984</ele>
        <time>2017-11-01T12:43:02Z</time>
      </trkpt>
      <trkpt lat="45.64802" lon="6.23987">
        <ele>1048.5579833984</ele>
        <time>2017-11-01T12:43:06Z</time>
      </trkpt>
      <trkpt lat="45.64796" lon="6.23986">
        <ele>1050.5579833984</ele>
        <time>2017-11-01T12:43:08Z</time>
      </trkpt>
      <trkpt lat="45.64789" lon="6.23984">
        <ele>1048.5579833984</ele>
        <time>2017-11-01T12:43:11Z</time>
      </trkpt>
      <trkpt lat="45.64783" lon="6.23984">
        <ele>1046.5579833984</ele>
        <time>2017-11-01T12:43:14Z</time>
      </trkpt>
      <trkpt lat="45.64777" lon="6.23983">
        <ele>1045.5579833984</ele>
        <time>2017-11-01T12:43:18Z</time>
      </trkpt>
      <trkpt lat="45.64773" lon="6.23985">
        <ele>1044.5579833984</ele>
        <time>2017-11-01T12:43:21Z</time>
      </trkpt>
      <trkpt lat="45.64766" lon="6.23985">
        <ele>1046.5579833984</ele>
        <time>2017-11-01T12:43:26Z</time>
      </trkpt>
      <trkpt lat="45.64762" lon="6.23981">
        <ele>1047.5579833984</ele>
        <time>2017-11-01T12:43:30Z</time>
      </trkpt>
      <trkpt lat="45.64763" lon="6.23974">
        <ele>1047.5579833984</ele>
        <time>2017-11-01T12:43:36Z</time>
      </trkpt>
      <trkpt lat="45.64761" lon="6.23966">
        <ele>1046.5579833984</ele>
        <time>2017-11-01T12:43:41Z</time>
      </trkpt>
      <trkpt lat="45.64761" lon="6.23958">
        <ele>1047.5579833984</ele>
        <time>2017-11-01T12:43:44Z</time>
      </trkpt>
      <trkpt lat="45.64759" lon="6.23951">
        <ele>1046.5579833984</ele>
        <time>2017-11-01T12:43:47Z</time>
      </trkpt>
      <trkpt lat="45.64755" lon="6.23945">
        <ele>1044.5579833984</ele>
        <time>2017-11-01T12:43:51Z</time>
      </trkpt>
      <trkpt lat="45.64754" lon="6.23937">
        <ele>1040.5579833984</ele>
        <time>2017-11-01T12:43:55Z</time>
      </trkpt>
      <trkpt lat="45.64751" lon="6.23931">
        <ele>1038.5579833984</ele>
        <time>2017-11-01T12:43:58Z</time>
      </trkpt>
      <trkpt lat="45.64747" lon="6.23926">
        <ele>1036.5579833984</ele>
        <time>2017-11-01T12:44:02Z</time>
      </trkpt>
      <trkpt lat="45.64742" lon="6.23923">
        <ele>1035.5579833984</ele>
        <time>2017-11-01T12:44:06Z</time>
      </trkpt>
      <trkpt lat="45.64738" lon="6.23918">
        <ele>1033.5579833984</ele>
        <time>2017-11-01T12:44:10Z</time>
      </trkpt>
      <trkpt lat="45.64733" lon="6.23914">
        <ele>1032.5579833984</ele>
        <time>2017-11-01T12:44:14Z</time>
      </trkpt>
      <trkpt lat="45.6473" lon="6.23909">
        <ele>1030.5579833984</ele>
        <time>2017-11-01T12:44:19Z</time>
      </trkpt>
      <trkpt lat="45.64726" lon="6.23905">
        <ele>1030.5579833984</ele>
        <time>2017-11-01T12:44:23Z</time>
      </trkpt>
      <trkpt lat="45.64722" lon="6.239">
        <ele>1032.5579833984</ele>
        <time>2017-11-01T12:44:26Z</time>
      </trkpt>
      <trkpt lat="45.64718" lon="6.23896">
        <ele>1033.5579833984</ele>
        <time>2017-11-01T12:44:30Z</time>
      </trkpt>
      <trkpt lat="45.64713" lon="6.23892">
        <ele>1035.5579833984</ele>
        <time>2017-11-01T12:44:34Z</time>
      </trkpt>
      <trkpt lat="45.64713" lon="6.23885">
        <ele>1034.5579833984</ele>
        <time>2017-11-01T12:44:37Z</time>
      </trkpt>
      <trkpt lat="45.64711" lon="6.23878">
        <ele>1033.5579833984</ele>
        <time>2017-11-01T12:44:40Z</time>
      </trkpt>
      <trkpt lat="45.64709" lon="6.23872">
        <ele>1035.5579833984</ele>
        <time>2017-11-01T12:44:43Z</time>
      </trkpt>
      <trkpt lat="45.64705" lon="6.23866">
        <ele>1035.5570068359</ele>
        <time>2017-11-01T12:44:47Z</time>
      </trkpt>
      <trkpt lat="45.64702" lon="6.2386">
        <ele>1035.5570068359</ele>
        <time>2017-11-01T12:44:52Z</time>
      </trkpt>
      <trkpt lat="45.647" lon="6.23854">
        <ele>1034.5570068359</ele>
        <time>2017-11-01T12:44:56Z</time>
      </trkpt>
      <trkpt lat="45.64696" lon="6.23849">
        <ele>1033.5570068359</ele>
        <time>2017-11-01T12:44:59Z</time>
      </trkpt>
      <trkpt lat="45.64693" lon="6.23845">
        <ele>1032.5570068359</ele>
        <time>2017-11-01T12:45:02Z</time>
      </trkpt>
      <trkpt lat="45.6469" lon="6.23839">
        <ele>1033.5570068359</ele>
        <time>2017-11-01T12:45:06Z</time>
      </trkpt>
      <trkpt lat="45.64685" lon="6.23836">
        <ele>1031.5570068359</ele>
        <time>2017-11-01T12:45:09Z</time>
      </trkpt>
      <trkpt lat="45.6468" lon="6.23834">
        <ele>1034.5570068359</ele>
        <time>2017-11-01T12:45:12Z</time>
      </trkpt>
      <trkpt lat="45.64675" lon="6.2383">
        <ele>1032.5570068359</ele>
        <time>2017-11-01T12:45:15Z</time>
      </trkpt>
      <trkpt lat="45.64671" lon="6.23827">
        <ele>1029.5570068359</ele>
        <time>2017-11-01T12:45:19Z</time>
      </trkpt>
      <trkpt lat="45.64666" lon="6.23825">
        <ele>1029.5570068359</ele>
        <time>2017-11-01T12:45:22Z</time>
      </trkpt>
      <trkpt lat="45.64658" lon="6.23823">
        <ele>1027.5570068359</ele>
        <time>2017-11-01T12:45:28Z</time>
      </trkpt>
      <trkpt lat="45.64654" lon="6.23822">
        <ele>1027.5570068359</ele>
        <time>2017-11-01T12:45:32Z</time>
      </trkpt>
      <trkpt lat="45.64649" lon="6.23818">
        <ele>1027.5570068359</ele>
        <time>2017-11-01T12:45:36Z</time>
      </trkpt>
      <trkpt lat="45.64644" lon="6.23814">
        <ele>1026.5570068359</ele>
        <time>2017-11-01T12:45:40Z</time>
      </trkpt>
      <trkpt lat="45.64641" lon="6.2381">
        <ele>1026.5570068359</ele>
        <time>2017-11-01T12:45:42Z</time>
      </trkpt>
      <trkpt lat="45.64636" lon="6.23806">
        <ele>1027.5570068359</ele>
        <time>2017-11-01T12:45:46Z</time>
      </trkpt>
      <trkpt lat="45.64632" lon="6.23802">
        <ele>1025.5570068359</ele>
        <time>2017-11-01T12:45:49Z</time>
      </trkpt>
      <trkpt lat="45.64627" lon="6.23797">
        <ele>1025.5570068359</ele>
        <time>2017-11-01T12:45:54Z</time>
      </trkpt>
      <trkpt lat="45.64625" lon="6.23791">
        <ele>1023.5570068359</ele>
        <time>2017-11-01T12:45:57Z</time>
      </trkpt>
      <trkpt lat="45.64623" lon="6.23784">
        <ele>1021.5570068359</ele>
        <time>2017-11-01T12:46:01Z</time>
      </trkpt>
      <trkpt lat="45.64619" lon="6.2378">
        <ele>1025.5570068359</ele>
        <time>2017-11-01T12:46:10Z</time>
      </trkpt>
      <trkpt lat="45.64619" lon="6.23772">
        <ele>1025.5570068359</ele>
        <time>2017-11-01T12:46:16Z</time>
      </trkpt>
      <trkpt lat="45.64617" lon="6.23765">
        <ele>1026.5570068359</ele>
        <time>2017-11-01T12:46:20Z</time>
      </trkpt>
      <trkpt lat="45.64613" lon="6.23758">
        <ele>1026.5570068359</ele>
        <time>2017-11-01T12:46:23Z</time>
      </trkpt>
      <trkpt lat="45.64609" lon="6.23753">
        <ele>1024.5570068359</ele>
        <time>2017-11-01T12:46:26Z</time>
      </trkpt>
      <trkpt lat="45.64604" lon="6.23748">
        <ele>1024.5570068359</ele>
        <time>2017-11-01T12:46:30Z</time>
      </trkpt>
      <trkpt lat="45.646" lon="6.23744">
        <ele>1024.5570068359</ele>
        <time>2017-11-01T12:46:34Z</time>
      </trkpt>
      <trkpt lat="45.64597" lon="6.23738">
        <ele>1023.5570068359</ele>
        <time>2017-11-01T12:46:41Z</time>
      </trkpt>
      <trkpt lat="45.64593" lon="6.23735">
        <ele>1024.5570068359</ele>
        <time>2017-11-01T12:46:44Z</time>
      </trkpt>
      <trkpt lat="45.64587" lon="6.23732">
        <ele>1020.5570068359</ele>
        <time>2017-11-01T12:46:49Z</time>
      </trkpt>
      <trkpt lat="45.64584" lon="6.23727">
        <ele>1019.5570068359</ele>
        <time>2017-11-01T12:46:52Z</time>
      </trkpt>
      <trkpt lat="45.64581" lon="6.23721">
        <ele>1019.5570068359</ele>
        <time>2017-11-01T12:46:56Z</time>
      </trkpt>
      <trkpt lat="45.64576" lon="6.23715">
        <ele>1016.5570068359</ele>
        <time>2017-11-01T12:47:01Z</time>
      </trkpt>
      <trkpt lat="45.64569" lon="6.2371">
        <ele>1016.5570068359</ele>
        <time>2017-11-01T12:47:04Z</time>
      </trkpt>
      <trkpt lat="45.64564" lon="6.23708">
        <ele>1012.5570068359</ele>
        <time>2017-11-01T12:47:07Z</time>
      </trkpt>
      <trkpt lat="45.6456" lon="6.23704">
        <ele>1004.5570068359</ele>
        <time>2017-11-01T12:47:19Z</time>
      </trkpt>
    </trkseg>
  </trk>
</gpx>